Wetterdaten: Mittwoch, 26.07.2017
Datum Zeit Temp. A. Temp. A. max Feuchte A. Luftdruck Regen Wind Richtung Richtung Sonnenschein ET UV Solar Taupunkt Windchill Windböen
26.07.2017 00:00 11,4 °C 11,4 °C 85 % 1007,5 hPa 0,0 mm 5,4 km/h (1 Bft) W-NW 284 ° 0 min 0,000 mm 0,0 UV-I 0 W/m² 9,0 °C 11,4 °C 9,7 km/h (2 Bft)
26.07.2017 00:01 11,4 °C 11,5 °C 86 % 1007,6 hPa 0,0 mm 9,3 km/h (2 Bft) W-SW 247 ° 0 min 0,000 mm 0,0 UV-I 0 W/m² 9,1 °C 11,4 °C 14,5 km/h (3 Bft)
26.07.2017 00:03 11,4 °C 11,4 °C 86 % 1007,5 hPa 0,0 mm 10,1 km/h (2 Bft) W 264 ° 0 min 0,000 mm 0,0 UV-I 0 W/m² 9,1 °C 11,4 °C 16,1 km/h (3 Bft)
26.07.2017 00:04 11,4 °C 11,4 °C 87 % 1007,5 hPa 0,0 mm 9,3 km/h (2 Bft) W-NW 290 ° 0 min 0,000 mm 0,0 UV-I 0 W/m² 9,3 °C 11,4 °C 14,5 km/h (3 Bft)
26.07.2017 00:05 11,4 °C 11,4 °C 86 % 1007,5 hPa 0,0 mm 6,3 km/h (2 Bft) W 281 ° 0 min 0,000 mm 0,0 UV-I 0 W/m² 9,1 °C 11,4 °C 12,9 km/h (3 Bft)
26.07.2017 00:06 11,4 °C 11,4 °C 86 % 1007,6 hPa 0,0 mm 6,0 km/h (2 Bft) W 268 ° 0 min 0,000 mm 0,0 UV-I 0 W/m² 9,1 °C 11,4 °C 11,3 km/h (2 Bft)
26.07.2017 00:07 11,4 °C 11,4 °C 86 % 1007,6 hPa 0,0 mm 7,0 km/h (2 Bft) W 263 ° 0 min 0,000 mm 0,0 UV-I 0 W/m² 9,1 °C 11,4 °C 11,3 km/h (2 Bft)
26.07.2017 00:08 11,4 °C 11,4 °C 86 % 1007,6 hPa 0,0 mm 7,9 km/h (2 Bft) W 261 ° 0 min 0,000 mm 0,0 UV-I 0 W/m² 9,1 °C 11,4 °C 17,7 km/h (3 Bft)
26.07.2017 00:09 11,3 °C 11,4 °C 87 % 1007,6 hPa 0,0 mm 12,8 km/h (3 Bft) W 259 ° 0 min 0,000 mm 0,0 UV-I 0 W/m² 9,2 °C 11,3 °C 20,9 km/h (4 Bft)
26.07.2017 00:10 11,4 °C 11,4 °C 87 % 1007,6 hPa 0,0 mm 10,0 km/h (2 Bft) W-SW 243 ° 0 min 0,000 mm 0,0 UV-I 0 W/m² 9,3 °C 11,4 °C 14,5 km/h (3 Bft)
26.07.2017 00:11 11,4 °C 11,4 °C 87 % 1007,6 hPa 0,0 mm 4,6 km/h (1 Bft) W 277 ° 0 min 0,000 mm 0,0 UV-I 0 W/m² 9,3 °C 11,4 °C 11,3 km/h (2 Bft)
26.07.2017 00:12 11,4 °C 11,4 °C 87 % 1007,6 hPa 0,0 mm 10,0 km/h (2 Bft) W 276 ° 0 min 0,000 mm 0,0 UV-I 0 W/m² 9,3 °C 11,4 °C 16,1 km/h (3 Bft)
26.07.2017 00:13 11,3 °C 11,4 °C 87 % 1007,6 hPa 0,0 mm 6,0 km/h (2 Bft) W-SW 253 ° 0 min 0,000 mm 0,0 UV-I 0 W/m² 9,2 °C 11,3 °C 12,9 km/h (3 Bft)
26.07.2017 00:14 11,3 °C 11,3 °C 87 % 1007,6 hPa 0,0 mm 10,0 km/h (2 Bft) W 259 ° 0 min 0,000 mm 0,0 UV-I 0 W/m² 9,2 °C 11,3 °C 14,5 km/h (3 Bft)
26.07.2017 00:15 11,3 °C 11,3 °C 87 % 1007,6 hPa 0,0 mm 9,7 km/h (2 Bft) W 262 ° 0 min 0,000 mm 0,0 UV-I 0 W/m² 9,2 °C 11,3 °C 17,7 km/h (3 Bft)
26.07.2017 00:16 11,3 °C 11,3 °C 87 % 1007,6 hPa 0,0 mm 9,0 km/h (2 Bft) W-SW 248 ° 0 min 0,000 mm 0,0 UV-I 0 W/m² 9,2 °C 11,3 °C 12,9 km/h (3 Bft)
26.07.2017 00:17 11,3 °C 11,3 °C 87 % 1007,6 hPa 0,0 mm 2,3 km/h (1 Bft) W 265 ° 0 min 0,000 mm 0,0 UV-I 0 W/m² 9,2 °C 11,3 °C 6,4 km/h (2 Bft)
26.07.2017 00:18 11,2 °C 11,3 °C 87 % 1007,6 hPa 0,0 mm 7,0 km/h (2 Bft) SW 223 ° 0 min 0,000 mm 0,0 UV-I 0 W/m² 9,1 °C 11,2 °C 11,3 km/h (2 Bft)
26.07.2017 00:19 11,2 °C 11,2 °C 88 % 1007,6 hPa 0,0 mm 6,3 km/h (2 Bft) W-SW 254 ° 0 min 0,000 mm 0,0 UV-I 0 W/m² 9,3 °C 11,2 °C 11,3 km/h (2 Bft)
26.07.2017 00:20 11,2 °C 11,2 °C 88 % 1007,6 hPa 0,0 mm 5,6 km/h (1 Bft) W 263 ° 0 min 0,000 mm 0,0 UV-I 0 W/m² 9,3 °C 11,2 °C 9,7 km/h (2 Bft)
26.07.2017 00:21 11,2 °C 11,2 °C 88 % 1007,5 hPa 0,0 mm 5,1 km/h (1 Bft) W-SW 252 ° 0 min 0,000 mm 0,0 UV-I 0 W/m² 9,3 °C 11,2 °C 9,7 km/h (2 Bft)
26.07.2017 00:22 11,1 °C 11,2 °C 88 % 1007,5 hPa 0,0 mm 4,3 km/h (1 Bft) W 260 ° 0 min 0,000 mm 0,0 UV-I 0 W/m² 9,2 °C 11,1 °C 8,0 km/h (2 Bft)
26.07.2017 00:23 11,1 °C 11,1 °C 88 % 1007,5 hPa 0,0 mm 4,0 km/h (1 Bft) W-SW 247 ° 0 min 0,000 mm 0,0 UV-I 0 W/m² 9,2 °C 11,1 °C 6,4 km/h (2 Bft)
26.07.2017 00:24 11,1 °C 11,1 °C 88 % 1007,4 hPa 0,0 mm 7,7 km/h (2 Bft) W 273 ° 0 min 0,000 mm 0,0 UV-I 0 W/m² 9,2 °C 11,1 °C 14,5 km/h (3 Bft)
26.07.2017 00:25 11,1 °C 11,1 °C 89 % 1007,4 hPa 0,0 mm 6,4 km/h (2 Bft) W 260 ° 0 min 0,000 mm 0,0 UV-I 0 W/m² 9,4 °C 11,1 °C 11,3 km/h (2 Bft)
26.07.2017 00:26 11,1 °C 11,1 °C 89 % 1007,5 hPa 0,0 mm 8,4 km/h (2 Bft) W-NW 294 ° 0 min 0,000 mm 0,0 UV-I 0 W/m² 9,4 °C 11,1 °C 12,9 km/h (3 Bft)
26.07.2017 00:27 11,0 °C 11,1 °C 89 % 1007,5 hPa 0,0 mm 9,6 km/h (2 Bft) W 279 ° 0 min 0,000 mm 0,0 UV-I 0 W/m² 9,3 °C 11,0 °C 12,9 km/h (3 Bft)
26.07.2017 00:28 11,1 °C 11,1 °C 88 % 1007,4 hPa 0,0 mm 4,5 km/h (1 Bft) SW 223 ° 0 min 0,000 mm 0,0 UV-I 0 W/m² 9,2 °C 11,1 °C 6,4 km/h (2 Bft)
26.07.2017 00:29 11,0 °C 11,1 °C 89 % 1007,5 hPa 0,0 mm 3,6 km/h (1 Bft) W-SW 243 ° 0 min 0,000 mm 0,0 UV-I 0 W/m² 9,3 °C 11,0 °C 8,0 km/h (2 Bft)
26.07.2017 00:30 11,0 °C 11,0 °C 88 % 1007,4 hPa 0,0 mm 3,6 km/h (1 Bft) S 186 ° 0 min 0,000 mm 0,0 UV-I 0 W/m² 9,1 °C 11,0 °C 9,7 km/h (2 Bft)
26.07.2017 00:31 11,0 °C 11,0 °C 88 % 1007,4 hPa 0,0 mm 6,2 km/h (2 Bft) W-SW 240 ° 0 min 0,000 mm 0,0 UV-I 0 W/m² 9,1 °C 11,0 °C 11,3 km/h (2 Bft)
26.07.2017 00:32 11,0 °C 11,0 °C 88 % 1007,4 hPa 0,0 mm 2,9 km/h (1 Bft) SW 231 ° 0 min 0,000 mm 0,0 UV-I 0 W/m² 9,1 °C 11,0 °C 4,8 km/h (1 Bft)
26.07.2017 00:33 11,0 °C 11,0 °C 88 % 1007,4 hPa 0,2 mm 5,8 km/h (2 Bft) W 278 ° 0 min 0,000 mm 0,0 UV-I 0 W/m² 9,1 °C 11,0 °C 11,3 km/h (2 Bft)
26.07.2017 00:34 11,0 °C 11,0 °C 89 % 1007,3 hPa 0,0 mm 7,0 km/h (2 Bft) W-SW 253 ° 0 min 0,000 mm 0,0 UV-I 0 W/m² 9,3 °C 11,0 °C 14,5 km/h (3 Bft)
26.07.2017 00:35 11,0 °C 11,0 °C 89 % 1007,4 hPa 0,0 mm 4,6 km/h (1 Bft) W 262 ° 0 min 0,000 mm 0,0 UV-I 0 W/m² 9,3 °C 11,0 °C 4,8 km/h (1 Bft)
26.07.2017 00:36 11,0 °C 11,0 °C 89 % 1007,4 hPa 0,0 mm 5,9 km/h (2 Bft) S-SW 200 ° 0 min 0,000 mm 0,0 UV-I 0 W/m² 9,3 °C 11,0 °C 12,9 km/h (3 Bft)
26.07.2017 00:37 10,9 °C 11,0 °C 89 % 1007,4 hPa 0,0 mm 9,4 km/h (2 Bft) SW 224 ° 0 min 0,000 mm 0,0 UV-I 0 W/m² 9,2 °C 10,9 °C 14,5 km/h (3 Bft)
26.07.2017 00:38 10,9 °C 11,0 °C 89 % 1007,4 hPa 0,0 mm 4,0 km/h (1 Bft) SW 221 ° 0 min 0,000 mm 0,0 UV-I 0 W/m² 9,2 °C 10,9 °C 6,4 km/h (2 Bft)
26.07.2017 00:39 10,9 °C 10,9 °C 89 % 1007,4 hPa 0,0 mm 2,7 km/h (1 Bft) SW 233 ° 0 min 0,000 mm 0,0 UV-I 0 W/m² 9,2 °C 10,9 °C 6,4 km/h (2 Bft)
26.07.2017 00:40 10,9 °C 10,9 °C 89 % 1007,3 hPa 0,0 mm 4,2 km/h (1 Bft) SW 225 ° 0 min 0,000 mm 0,0 UV-I 0 W/m² 9,2 °C 10,9 °C 6,4 km/h (2 Bft)
26.07.2017 00:41 10,9 °C 10,9 °C 89 % 1007,3 hPa 0,0 mm 3,2 km/h (1 Bft) W 263 ° 0 min 0,000 mm 0,0 UV-I 0 W/m² 9,2 °C 10,9 °C 4,8 km/h (1 Bft)
26.07.2017 00:42 10,8 °C 10,9 °C 90 % 1007,3 hPa 0,0 mm 4,7 km/h (1 Bft) SW 217 ° 0 min 0,000 mm 0,0 UV-I 0 W/m² 9,2 °C 10,8 °C 8,0 km/h (2 Bft)
26.07.2017 00:43 10,8 °C 10,9 °C 89 % 1007,3 hPa 0,0 mm 2,4 km/h (1 Bft) W-SW 254 ° 0 min 0,000 mm 0,0 UV-I 0 W/m² 9,1 °C 10,8 °C 4,8 km/h (1 Bft)
26.07.2017 00:44 10,8 °C 10,8 °C 90 % 1007,3 hPa 0,0 mm 3,7 km/h (1 Bft) SW 215 ° 0 min 0,000 mm 0,0 UV-I 0 W/m² 9,2 °C 10,8 °C 8,0 km/h (2 Bft)
26.07.2017 00:45 10,8 °C 10,8 °C 90 % 1007,2 hPa 0,0 mm 4,1 km/h (1 Bft) SW 229 ° 0 min 0,000 mm 0,0 UV-I 0 W/m² 9,2 °C 10,8 °C 4,8 km/h (1 Bft)
26.07.2017 00:46 10,8 °C 10,8 °C 90 % 1007,2 hPa 0,0 mm 2,0 km/h (1 Bft) SW 229 ° 0 min 0,000 mm 0,0 UV-I 0 W/m² 9,2 °C 10,8 °C 4,8 km/h (1 Bft)
26.07.2017 00:47 10,8 °C 10,8 °C 89 % 1007,1 hPa 0,0 mm 1,7 km/h (1 Bft) SW 229 ° 0 min 0,000 mm 0,0 UV-I 0 W/m² 9,1 °C 10,8 °C 3,2 km/h (1 Bft)
26.07.2017 00:48 10,8 °C 10,8 °C 89 % 1007,1 hPa 0,0 mm 2,3 km/h (1 Bft) W 259 ° 0 min 0,000 mm 0,0 UV-I 0 W/m² 9,1 °C 10,8 °C 4,8 km/h (1 Bft)
26.07.2017 00:49 10,8 °C 10,8 °C 89 % 1007,1 hPa 0,0 mm 6,2 km/h (2 Bft) SW 230 ° 0 min 0,000 mm 0,0 UV-I 0 W/m² 9,1 °C 10,8 °C 12,9 km/h (3 Bft)
26.07.2017 00:50 10,8 °C 10,8 °C 89 % 1007,2 hPa 0,0 mm 2,5 km/h (1 Bft) W-SW 238 ° 0 min 0,000 mm 0,0 UV-I 0 W/m² 9,1 °C 10,8 °C 6,4 km/h (2 Bft)
26.07.2017 00:51 10,8 °C 10,8 °C 89 % 1007,1 hPa 0,0 mm 3,8 km/h (1 Bft) W-SW 248 ° 0 min 0,000 mm 0,0 UV-I 0 W/m² 9,1 °C 10,8 °C 4,8 km/h (1 Bft)
26.07.2017 00:52 10,8 °C 10,8 °C 89 % 1007,2 hPa 0,0 mm 3,3 km/h (1 Bft) SW 233 ° 0 min 0,000 mm 0,0 UV-I 0 W/m² 9,1 °C 10,8 °C 8,0 km/h (2 Bft)
26.07.2017 00:53 10,8 °C 10,8 °C 89 % 1007,1 hPa 0,0 mm 2,1 km/h (1 Bft) W-SW 258 ° 0 min 0,000 mm 0,0 UV-I 0 W/m² 9,1 °C 10,8 °C 3,2 km/h (1 Bft)
26.07.2017 00:54 10,8 °C 10,8 °C 89 % 1007,2 hPa 0,0 mm 3,1 km/h (1 Bft) W-SW 244 ° 0 min 0,000 mm 0,0 UV-I 0 W/m² 9,1 °C 10,8 °C 4,8 km/h (1 Bft)
26.07.2017 00:55 10,7 °C 10,8 °C 89 % 1007,1 hPa 0,0 mm 3,8 km/h (1 Bft) S-SW 207 ° 0 min 0,000 mm 0,0 UV-I 0 W/m² 9,0 °C 10,7 °C 4,8 km/h (1 Bft)
26.07.2017 00:56 10,7 °C 10,7 °C 88 % 1007,1 hPa 0,0 mm 1,1 km/h (1 Bft) S-SW 207 ° 0 min 0,000 mm 0,0 UV-I 0 W/m² 8,8 °C 10,7 °C 3,2 km/h (1 Bft)
26.07.2017 00:57 10,8 °C 10,8 °C 88 % 1007,0 hPa 0,0 mm 1,9 km/h (1 Bft) W-NW 291 ° 0 min 0,000 mm 0,0 UV-I 0 W/m² 8,9 °C 10,8 °C 4,8 km/h (1 Bft)
26.07.2017 00:58 10,8 °C 10,8 °C 88 % 1007,0 hPa 0,0 mm 4,8 km/h (1 Bft) W 277 ° 0 min 0,000 mm 0,0 UV-I 0 W/m² 8,9 °C 10,8 °C 6,4 km/h (2 Bft)
26.07.2017 00:59 10,8 °C 10,8 °C 88 % 1007,0 hPa 0,0 mm 4,4 km/h (1 Bft) W-SW 237 ° 0 min 0,000 mm 0,0 UV-I 0 W/m² 8,9 °C 10,8 °C 6,4 km/h (2 Bft)
26.07.2017 01:00 10,8 °C 10,8 °C 88 % 1007,0 hPa 0,0 mm 3,8 km/h (1 Bft) W 269 ° 0 min 0,025 mm 0,0 UV-I 0 W/m² 8,9 °C 10,8 °C 6,4 km/h (2 Bft)
26.07.2017 01:01 10,8 °C 10,8 °C 88 % 1007,0 hPa 0,0 mm 3,0 km/h (1 Bft) W 268 ° 0 min 0,000 mm 0,0 UV-I 0 W/m² 8,9 °C 10,8 °C 4,8 km/h (1 Bft)
26.07.2017 01:02 10,7 °C 10,8 °C 88 % 1006,9 hPa 0,0 mm 6,0 km/h (2 Bft) SW 234 ° 0 min 0,000 mm 0,0 UV-I 0 W/m² 8,8 °C 10,7 °C 9,7 km/h (2 Bft)
26.07.2017 01:03 10,7 °C 10,7 °C 88 % 1006,9 hPa 0,0 mm 5,1 km/h (1 Bft) W 272 ° 0 min 0,000 mm 0,0 UV-I 0 W/m² 8,8 °C 10,7 °C 9,7 km/h (2 Bft)
26.07.2017 01:04 10,7 °C 10,7 °C 88 % 1006,9 hPa 0,0 mm 3,2 km/h (1 Bft) W 260 ° 0 min 0,000 mm 0,0 UV-I 0 W/m² 8,8 °C 10,7 °C 6,4 km/h (2 Bft)
26.07.2017 01:05 10,7 °C 10,7 °C 88 % 1006,9 hPa 0,0 mm 1,6 km/h (1 Bft) W 259 ° 0 min 0,000 mm 0,0 UV-I 0 W/m² 8,8 °C 10,7 °C 4,8 km/h (1 Bft)
26.07.2017 01:06 10,7 °C 10,7 °C 88 % 1006,9 hPa 0,0 mm 5,0 km/h (1 Bft) SW 226 ° 0 min 0,000 mm 0,0 UV-I 0 W/m² 8,8 °C 10,7 °C 9,7 km/h (2 Bft)
26.07.2017 01:07 10,7 °C 10,7 °C 87 % 1006,9 hPa 0,0 mm 3,1 km/h (1 Bft) W 277 ° 0 min 0,000 mm 0,0 UV-I 0 W/m² 8,6 °C 10,7 °C 4,8 km/h (1 Bft)
26.07.2017 01:08 10,7 °C 10,7 °C 88 % 1006,9 hPa 0,0 mm 0,1 km/h (0 Bft) W 277 ° 0 min 0,000 mm 0,0 UV-I 0 W/m² 8,8 °C 10,7 °C 1,6 km/h (1 Bft)
26.07.2017 01:09 10,7 °C 10,7 °C 87 % 1006,9 hPa 0,0 mm 0,3 km/h (0 Bft) SW 225 ° 0 min 0,000 mm 0,0 UV-I 0 W/m² 8,6 °C 10,7 °C 1,6 km/h (1 Bft)
26.07.2017 01:10 10,7 °C 10,7 °C 87 % 1006,9 hPa 0,0 mm 2,1 km/h (1 Bft) W-SW 237 ° 0 min 0,000 mm 0,0 UV-I 0 W/m² 8,6 °C 10,7 °C 4,8 km/h (1 Bft)
26.07.2017 01:11 10,7 °C 10,7 °C 87 % 1006,8 hPa 0,0 mm 2,1 km/h (1 Bft) W-SW 242 ° 0 min 0,000 mm 0,0 UV-I 0 W/m² 8,6 °C 10,7 °C 4,8 km/h (1 Bft)
26.07.2017 01:12 10,7 °C 10,7 °C 87 % 1006,8 hPa 0,0 mm 2,7 km/h (1 Bft) W 270 ° 0 min 0,000 mm 0,0 UV-I 0 W/m² 8,6 °C 10,7 °C 6,4 km/h (2 Bft)
26.07.2017 01:13 10,7 °C 10,7 °C 87 % 1006,8 hPa 0,0 mm 2,0 km/h (1 Bft) S 173 ° 0 min 0,000 mm 0,0 UV-I 0 W/m² 8,6 °C 10,7 °C 4,8 km/h (1 Bft)
26.07.2017 01:14 10,8 °C 10,8 °C 87 % 1006,8 hPa 0,0 mm 4,4 km/h (1 Bft) S-SW 196 ° 0 min 0,000 mm 0,0 UV-I 0 W/m² 8,7 °C 10,8 °C 6,4 km/h (2 Bft)
26.07.2017 01:15 10,7 °C 10,8 °C 86 % 1006,8 hPa 0,0 mm 5,8 km/h (2 Bft) SW 228 ° 0 min 0,000 mm 0,0 UV-I 0 W/m² 8,5 °C 10,7 °C 9,7 km/h (2 Bft)
26.07.2017 01:16 10,8 °C 10,8 °C 86 % 1006,8 hPa 0,0 mm 3,2 km/h (1 Bft) S-SW 210 ° 0 min 0,000 mm 0,0 UV-I 0 W/m² 8,6 °C 10,8 °C 6,4 km/h (2 Bft)
26.07.2017 01:17 10,8 °C 10,8 °C 86 % 1006,8 hPa 0,0 mm 4,4 km/h (1 Bft) W 273 ° 0 min 0,000 mm 0,0 UV-I 0 W/m² 8,6 °C 10,8 °C 9,7 km/h (2 Bft)
26.07.2017 01:18 10,8 °C 10,8 °C 86 % 1006,7 hPa 0,0 mm 0,9 km/h (0 Bft) W 273 ° 0 min 0,000 mm 0,0 UV-I 0 W/m² 8,6 °C 10,8 °C 3,2 km/h (1 Bft)
26.07.2017 01:19 10,8 °C 10,8 °C 86 % 1006,8 hPa 0,0 mm 4,2 km/h (1 Bft) W-SW 244 ° 0 min 0,000 mm 0,0 UV-I 0 W/m² 8,6 °C 10,8 °C 8,0 km/h (2 Bft)
26.07.2017 01:20 10,8 °C 10,8 °C 86 % 1006,7 hPa 0,0 mm 10,1 km/h (2 Bft) W-SW 246 ° 0 min 0,000 mm 0,0 UV-I 0 W/m² 8,6 °C 10,8 °C 22,5 km/h (4 Bft)
26.07.2017 01:21 10,8 °C 10,8 °C 86 % 1006,7 hPa 0,0 mm 6,2 km/h (2 Bft) SW 236 ° 0 min 0,000 mm 0,0 UV-I 0 W/m² 8,6 °C 10,8 °C 9,7 km/h (2 Bft)
26.07.2017 01:22 10,8 °C 10,8 °C 86 % 1006,7 hPa 0,0 mm 10,9 km/h (2 Bft) W 261 ° 0 min 0,000 mm 0,0 UV-I 0 W/m² 8,6 °C 10,8 °C 17,7 km/h (3 Bft)
26.07.2017 01:23 10,8 °C 10,8 °C 86 % 1006,7 hPa 0,0 mm 7,0 km/h (2 Bft) W 269 ° 0 min 0,000 mm 0,0 UV-I 0 W/m² 8,6 °C 10,8 °C 14,5 km/h (3 Bft)
26.07.2017 01:24 10,9 °C 10,9 °C 86 % 1006,7 hPa 0,0 mm 6,1 km/h (2 Bft) W 259 ° 0 min 0,000 mm 0,0 UV-I 0 W/m² 8,7 °C 10,9 °C 12,9 km/h (3 Bft)
26.07.2017 01:25 10,9 °C 10,9 °C 86 % 1006,7 hPa 0,0 mm 3,8 km/h (1 Bft) W 271 ° 0 min 0,000 mm 0,0 UV-I 0 W/m² 8,7 °C 10,9 °C 6,4 km/h (2 Bft)
26.07.2017 01:26 11,0 °C 11,0 °C 86 % 1006,7 hPa 0,0 mm 6,4 km/h (2 Bft) W-SW 248 ° 0 min 0,000 mm 0,0 UV-I 0 W/m² 8,7 °C 11,0 °C 11,3 km/h (2 Bft)
26.07.2017 01:27 11,0 °C 11,0 °C 86 % 1006,7 hPa 0,0 mm 2,3 km/h (1 Bft) W-SW 248 ° 0 min 0,000 mm 0,0 UV-I 0 W/m² 8,7 °C 11,0 °C 6,4 km/h (2 Bft)
26.07.2017 01:28 11,1 °C 11,1 °C 85 % 1006,7 hPa 0,0 mm 4,9 km/h (1 Bft) SW 236 ° 0 min 0,000 mm 0,0 UV-I 0 W/m² 8,7 °C 11,1 °C 9,7 km/h (2 Bft)
26.07.2017 01:29 11,1 °C 11,1 °C 85 % 1006,7 hPa 0,0 mm 3,5 km/h (1 Bft) W 267 ° 0 min 0,000 mm 0,0 UV-I 0 W/m² 8,7 °C 11,1 °C 11,3 km/h (2 Bft)
26.07.2017 01:30 11,1 °C 11,1 °C 86 % 1006,6 hPa 0,0 mm 6,9 km/h (2 Bft) SW 236 ° 0 min 0,000 mm 0,0 UV-I 0 W/m² 8,8 °C 11,1 °C 11,3 km/h (2 Bft)
26.07.2017 01:31 11,2 °C 11,2 °C 85 % 1006,7 hPa 0,0 mm 4,2 km/h (1 Bft) W 271 ° 0 min 0,000 mm 0,0 UV-I 0 W/m² 8,8 °C 11,2 °C 6,4 km/h (2 Bft)
26.07.2017 01:32 11,2 °C 11,2 °C 85 % 1006,7 hPa 0,0 mm 3,4 km/h (1 Bft) W 279 ° 0 min 0,000 mm 0,0 UV-I 0 W/m² 8,8 °C 11,2 °C 4,8 km/h (1 Bft)
26.07.2017 01:33 11,2 °C 11,2 °C 85 % 1006,6 hPa 0,0 mm 5,0 km/h (1 Bft) W 278 ° 0 min 0,000 mm 0,0 UV-I 0 W/m² 8,8 °C 11,2 °C 8,0 km/h (2 Bft)
26.07.2017 01:34 11,2 °C 11,2 °C 85 % 1006,6 hPa 0,0 mm 4,7 km/h (1 Bft) W 273 ° 0 min 0,000 mm 0,0 UV-I 0 W/m² 8,8 °C 11,2 °C 6,4 km/h (2 Bft)
26.07.2017 01:35 11,2 °C 11,2 °C 85 % 1006,6 hPa 0,0 mm 4,0 km/h (1 Bft) S-SW 206 ° 0 min 0,000 mm 0,0 UV-I 0 W/m² 8,8 °C 11,2 °C 6,4 km/h (2 Bft)
26.07.2017 01:36 11,2 °C 11,2 °C 85 % 1006,6 hPa 0,0 mm 3,0 km/h (1 Bft) W 273 ° 0 min 0,000 mm 0,0 UV-I 0 W/m² 8,8 °C 11,2 °C 4,8 km/h (1 Bft)
26.07.2017 01:37 11,2 °C 11,2 °C 85 % 1006,6 hPa 0,0 mm 2,8 km/h (1 Bft) S-SW 209 ° 0 min 0,000 mm 0,0 UV-I 0 W/m² 8,8 °C 11,2 °C 6,4 km/h (2 Bft)
26.07.2017 01:38 11,2 °C 11,2 °C 85 % 1006,5 hPa 0,0 mm 11,0 km/h (2 Bft) W 263 ° 0 min 0,000 mm 0,0 UV-I 0 W/m² 8,8 °C 11,2 °C 19,3 km/h (3 Bft)
26.07.2017 01:39 11,2 °C 11,2 °C 84 % 1006,5 hPa 0,0 mm 7,2 km/h (2 Bft) W 272 ° 0 min 0,000 mm 0,0 UV-I 0 W/m² 8,6 °C 11,2 °C 11,3 km/h (2 Bft)
26.07.2017 01:40 11,3 °C 11,3 °C 85 % 1006,5 hPa 0,0 mm 8,4 km/h (2 Bft) W 267 ° 0 min 0,000 mm 0,0 UV-I 0 W/m² 8,9 °C 11,3 °C 12,9 km/h (3 Bft)
26.07.2017 01:41 11,3 °C 11,3 °C 85 % 1006,5 hPa 0,0 mm 4,1 km/h (1 Bft) W 269 ° 0 min 0,000 mm 0,0 UV-I 0 W/m² 8,9 °C 11,3 °C 9,7 km/h (2 Bft)
26.07.2017 01:42 11,3 °C 11,3 °C 84 % 1006,5 hPa 0,0 mm 10,6 km/h (2 Bft) W 261 ° 0 min 0,000 mm 0,0 UV-I 0 W/m² 8,7 °C 11,3 °C 17,7 km/h (3 Bft)
26.07.2017 01:43 11,3 °C 11,3 °C 84 % 1006,5 hPa 0,0 mm 9,4 km/h (2 Bft) W-NW 284 ° 0 min 0,000 mm 0,0 UV-I 0 W/m² 8,7 °C 11,3 °C 16,1 km/h (3 Bft)
26.07.2017 01:44 11,3 °C 11,3 °C 84 % 1006,5 hPa 0,0 mm 8,9 km/h (2 Bft) W 273 ° 0 min 0,000 mm 0,0 UV-I 0 W/m² 8,7 °C 11,3 °C 17,7 km/h (3 Bft)
26.07.2017 01:45 11,3 °C 11,3 °C 83 % 1006,5 hPa 0,0 mm 8,5 km/h (2 Bft) W 259 ° 0 min 0,000 mm 0,0 UV-I 0 W/m² 8,5 °C 11,3 °C 12,9 km/h (3 Bft)
26.07.2017 01:46 11,4 °C 11,4 °C 83 % 1006,5 hPa 0,0 mm 6,3 km/h (2 Bft) W 281 ° 0 min 0,000 mm 0,0 UV-I 0 W/m² 8,6 °C 11,4 °C 11,3 km/h (2 Bft)
26.07.2017 01:47 11,4 °C 11,4 °C 84 % 1006,5 hPa 0,0 mm 5,8 km/h (2 Bft) W-SW 247 ° 0 min 0,000 mm 0,0 UV-I 0 W/m² 8,8 °C 11,4 °C 11,3 km/h (2 Bft)
26.07.2017 01:48 11,4 °C 11,4 °C 83 % 1006,5 hPa 0,0 mm 8,1 km/h (2 Bft) W-NW 301 ° 0 min 0,000 mm 0,0 UV-I 0 W/m² 8,6 °C 11,4 °C 12,9 km/h (3 Bft)
26.07.2017 01:49 11,4 °C 11,4 °C 83 % 1006,5 hPa 0,0 mm 8,6 km/h (2 Bft) W-SW 249 ° 0 min 0,000 mm 0,0 UV-I 0 W/m² 8,6 °C 11,4 °C 14,5 km/h (3 Bft)
26.07.2017 01:50 11,4 °C 11,5 °C 83 % 1006,6 hPa 0,0 mm 8,3 km/h (2 Bft) SW 219 ° 0 min 0,000 mm 0,0 UV-I 0 W/m² 8,6 °C 11,4 °C 12,9 km/h (3 Bft)
26.07.2017 01:51 11,5 °C 11,5 °C 83 % 1006,5 hPa 0,0 mm 7,9 km/h (2 Bft) W-NW 289 ° 0 min 0,000 mm 0,0 UV-I 0 W/m² 8,7 °C 11,5 °C 12,9 km/h (3 Bft)
26.07.2017 01:52 11,5 °C 11,5 °C 84 % 1006,5 hPa 0,0 mm 4,7 km/h (1 Bft) W-SW 241 ° 0 min 0,000 mm 0,0 UV-I 0 W/m² 8,9 °C 11,5 °C 6,4 km/h (2 Bft)
26.07.2017 01:53 11,5 °C 11,5 °C 83 % 1006,5 hPa 0,0 mm 5,2 km/h (1 Bft) W-NW 284 ° 0 min 0,000 mm 0,0 UV-I 0 W/m² 8,7 °C 11,5 °C 9,7 km/h (2 Bft)
26.07.2017 01:54 11,5 °C 11,5 °C 83 % 1006,5 hPa 0,0 mm 7,2 km/h (2 Bft) W 271 ° 0 min 0,000 mm 0,0 UV-I 0 W/m² 8,7 °C 11,5 °C 11,3 km/h (2 Bft)
26.07.2017 01:55 11,4 °C 11,5 °C 84 % 1006,5 hPa 0,0 mm 4,0 km/h (1 Bft) W 263 ° 0 min 0,000 mm 0,0 UV-I 0 W/m² 8,8 °C 11,4 °C 6,4 km/h (2 Bft)
26.07.2017 01:56 11,4 °C 11,5 °C 83 % 1006,5 hPa 0,0 mm 5,8 km/h (2 Bft) W 266 ° 0 min 0,000 mm 0,0 UV-I 0 W/m² 8,6 °C 11,4 °C 9,7 km/h (2 Bft)
26.07.2017 01:57 11,5 °C 11,5 °C 84 % 1006,5 hPa 0,0 mm 4,8 km/h (1 Bft) W 268 ° 0 min 0,000 mm 0,0 UV-I 0 W/m² 8,9 °C 11,5 °C 9,7 km/h (2 Bft)
26.07.2017 01:58 11,5 °C 11,5 °C 84 % 1006,5 hPa 0,0 mm 10,1 km/h (2 Bft) W 279 ° 0 min 0,000 mm 0,0 UV-I 0 W/m² 8,9 °C 11,5 °C 17,7 km/h (3 Bft)
26.07.2017 01:59 11,5 °C 11,5 °C 83 % 1006,4 hPa 0,0 mm 4,8 km/h (1 Bft) W-SW 242 ° 0 min 0,000 mm 0,0 UV-I 0 W/m² 8,7 °C 11,5 °C 9,7 km/h (2 Bft)
26.07.2017 02:00 11,5 °C 11,5 °C 84 % 1006,4 hPa 0,0 mm 3,8 km/h (1 Bft) SW 225 ° 0 min 0,026 mm 0,0 UV-I 0 W/m² 8,9 °C 11,5 °C 6,4 km/h (2 Bft)
26.07.2017 02:01 11,5 °C 11,5 °C 83 % 1006,4 hPa 0,0 mm 6,4 km/h (2 Bft) W 261 ° 0 min 0,000 mm 0,0 UV-I 0 W/m² 8,7 °C 11,5 °C 11,3 km/h (2 Bft)
26.07.2017 02:02 11,5 °C 11,5 °C 83 % 1006,4 hPa 0,0 mm 7,8 km/h (2 Bft) W 264 ° 0 min 0,000 mm 0,0 UV-I 0 W/m² 8,7 °C 11,5 °C 12,9 km/h (3 Bft)
26.07.2017 02:03 11,5 °C 11,5 °C 83 % 1006,4 hPa 0,0 mm 6,2 km/h (2 Bft) W 261 ° 0 min 0,000 mm 0,0 UV-I 0 W/m² 8,7 °C 11,5 °C 14,5 km/h (3 Bft)
26.07.2017 02:04 11,5 °C 11,5 °C 83 % 1006,3 hPa 0,0 mm 4,9 km/h (1 Bft) W-SW 257 ° 0 min 0,000 mm 0,0 UV-I 0 W/m² 8,7 °C 11,5 °C 9,7 km/h (2 Bft)
26.07.2017 02:05 11,6 °C 11,6 °C 83 % 1006,3 hPa 0,0 mm 3,6 km/h (1 Bft) W-SW 244 ° 0 min 0,000 mm 0,0 UV-I 0 W/m² 8,8 °C 11,6 °C 6,4 km/h (2 Bft)
26.07.2017 02:06 11,6 °C 11,6 °C 83 % 1006,3 hPa 0,0 mm 3,5 km/h (1 Bft) W 275 ° 0 min 0,000 mm 0,0 UV-I 0 W/m² 8,8 °C 11,6 °C 6,4 km/h (2 Bft)
26.07.2017 02:07 11,6 °C 11,6 °C 83 % 1006,3 hPa 0,0 mm 4,8 km/h (1 Bft) W-SW 255 ° 0 min 0,000 mm 0,0 UV-I 0 W/m² 8,8 °C 11,6 °C 6,4 km/h (2 Bft)
26.07.2017 02:08 11,6 °C 11,6 °C 82 % 1006,4 hPa 0,0 mm 4,2 km/h (1 Bft) S-SW 198 ° 0 min 0,000 mm 0,0 UV-I 0 W/m² 8,6 °C 11,6 °C 9,7 km/h (2 Bft)
26.07.2017 02:09 11,6 °C 11,6 °C 82 % 1006,3 hPa 0,0 mm 7,2 km/h (2 Bft) SW 214 ° 0 min 0,000 mm 0,0 UV-I 0 W/m² 8,6 °C 11,6 °C 14,5 km/h (3 Bft)
26.07.2017 02:10 11,6 °C 11,6 °C 82 % 1006,3 hPa 0,0 mm 5,7 km/h (1 Bft) W 266 ° 0 min 0,000 mm 0,0 UV-I 0 W/m² 8,6 °C 11,6 °C 11,3 km/h (2 Bft)
26.07.2017 02:11 11,7 °C 11,7 °C 82 % 1006,3 hPa 0,0 mm 10,1 km/h (2 Bft) W-SW 253 ° 0 min 0,000 mm 0,0 UV-I 0 W/m² 8,7 °C 11,7 °C 16,1 km/h (3 Bft)
26.07.2017 02:12 11,7 °C 11,7 °C 82 % 1006,3 hPa 0,0 mm 7,6 km/h (2 Bft) W 259 ° 0 min 0,000 mm 0,0 UV-I 0 W/m² 8,7 °C 11,7 °C 12,9 km/h (3 Bft)
26.07.2017 02:13 11,7 °C 11,7 °C 83 % 1006,3 hPa 0,0 mm 5,4 km/h (1 Bft) W 273 ° 0 min 0,000 mm 0,0 UV-I 0 W/m² 8,9 °C 11,7 °C 9,7 km/h (2 Bft)
26.07.2017 02:14 11,6 °C 11,7 °C 83 % 1006,3 hPa 0,0 mm 6,6 km/h (2 Bft) W 271 ° 0 min 0,000 mm 0,0 UV-I 0 W/m² 8,8 °C 11,6 °C 9,7 km/h (2 Bft)
26.07.2017 02:15 11,6 °C 11,7 °C 83 % 1006,3 hPa 0,0 mm 5,0 km/h (1 Bft) SW 230 ° 0 min 0,000 mm 0,0 UV-I 0 W/m² 8,8 °C 11,6 °C 11,3 km/h (2 Bft)
26.07.2017 02:16 11,6 °C 11,7 °C 82 % 1006,3 hPa 0,0 mm 3,4 km/h (1 Bft) W 271 ° 0 min 0,000 mm 0,0 UV-I 0 W/m² 8,6 °C 11,6 °C 6,4 km/h (2 Bft)
26.07.2017 02:17 11,6 °C 11,7 °C 82 % 1006,2 hPa 0,0 mm 5,5 km/h (1 Bft) W-NW 283 ° 0 min 0,000 mm 0,0 UV-I 0 W/m² 8,6 °C 11,6 °C 17,7 km/h (3 Bft)
26.07.2017 02:18 11,6 °C 11,7 °C 82 % 1006,2 hPa 0,0 mm 11,7 km/h (2 Bft) W-NW 296 ° 0 min 0,000 mm 0,0 UV-I 0 W/m² 8,6 °C 11,6 °C 17,7 km/h (3 Bft)
26.07.2017 02:19 11,6 °C 11,7 °C 82 % 1006,3 hPa 0,0 mm 4,6 km/h (1 Bft) W 281 ° 0 min 0,000 mm 0,0 UV-I 0 W/m² 8,6 °C 11,6 °C 8,0 km/h (2 Bft)
26.07.2017 02:20 11,6 °C 11,7 °C 83 % 1006,3 hPa 0,0 mm 5,7 km/h (1 Bft) W-SW 256 ° 0 min 0,000 mm 0,0 UV-I 0 W/m² 8,8 °C 11,6 °C 9,7 km/h (2 Bft)
26.07.2017 02:21 11,6 °C 11,7 °C 83 % 1006,3 hPa 0,0 mm 6,4 km/h (2 Bft) SW 229 ° 0 min 0,000 mm 0,0 UV-I 0 W/m² 8,8 °C 11,6 °C 14,5 km/h (3 Bft)
26.07.2017 02:22 11,6 °C 11,6 °C 83 % 1006,2 hPa 0,0 mm 6,5 km/h (2 Bft) W 273 ° 0 min 0,000 mm 0,0 UV-I 0 W/m² 8,8 °C 11,6 °C 11,3 km/h (2 Bft)
26.07.2017 02:23 11,6 °C 11,6 °C 83 % 1006,3 hPa 0,0 mm 8,2 km/h (2 Bft) SW 217 ° 0 min 0,000 mm 0,0 UV-I 0 W/m² 8,8 °C 11,6 °C 14,5 km/h (3 Bft)
26.07.2017 02:24 11,6 °C 11,6 °C 83 % 1006,2 hPa 0,0 mm 2,3 km/h (1 Bft) SW 236 ° 0 min 0,000 mm 0,0 UV-I 0 W/m² 8,8 °C 11,6 °C 6,4 km/h (2 Bft)
26.07.2017 02:25 11,6 °C 11,6 °C 82 % 1006,1 hPa 0,0 mm 3,3 km/h (1 Bft) W 278 ° 0 min 0,000 mm 0,0 UV-I 0 W/m² 8,6 °C 11,6 °C 6,4 km/h (2 Bft)
26.07.2017 02:26 11,6 °C 11,6 °C 82 % 1006,1 hPa 0,0 mm 8,1 km/h (2 Bft) W 279 ° 0 min 0,000 mm 0,0 UV-I 0 W/m² 8,6 °C 11,6 °C 14,5 km/h (3 Bft)
26.07.2017 02:27 11,6 °C 11,7 °C 82 % 1006,1 hPa 0,0 mm 3,0 km/h (1 Bft) W-SW 258 ° 0 min 0,000 mm 0,0 UV-I 0 W/m² 8,6 °C 11,6 °C 8,0 km/h (2 Bft)
26.07.2017 02:28 11,6 °C 11,6 °C 82 % 1006,1 hPa 0,0 mm 3,6 km/h (1 Bft) W 271 ° 0 min 0,000 mm 0,0 UV-I 0 W/m² 8,6 °C 11,6 °C 6,4 km/h (2 Bft)
26.07.2017 02:29 11,6 °C 11,7 °C 82 % 1006,1 hPa 0,0 mm 5,0 km/h (1 Bft) W-NW 300 ° 0 min 0,000 mm 0,0 UV-I 0 W/m² 8,6 °C 11,6 °C 11,3 km/h (2 Bft)
26.07.2017 02:30 11,6 °C 11,7 °C 82 % 1006,1 hPa 0,0 mm 7,0 km/h (2 Bft) W 279 ° 0 min 0,000 mm 0,0 UV-I 0 W/m² 8,6 °C 11,6 °C 11,3 km/h (2 Bft)
26.07.2017 02:31 11,7 °C 11,7 °C 82 % 1006,1 hPa 0,0 mm 4,6 km/h (1 Bft) W 266 ° 0 min 0,000 mm 0,0 UV-I 0 W/m² 8,7 °C 11,7 °C 6,4 km/h (2 Bft)
26.07.2017 02:32 11,6 °C 11,7 °C 83 % 1006,1 hPa 0,0 mm 4,0 km/h (1 Bft) W 261 ° 0 min 0,000 mm 0,0 UV-I 0 W/m² 8,8 °C 11,6 °C 6,4 km/h (2 Bft)
26.07.2017 02:33 11,6 °C 11,6 °C 82 % 1006,1 hPa 0,0 mm 4,5 km/h (1 Bft) W-SW 244 ° 0 min 0,000 mm 0,0 UV-I 0 W/m² 8,6 °C 11,6 °C 8,0 km/h (2 Bft)
26.07.2017 02:34 11,6 °C 11,6 °C 83 % 1006,1 hPa 0,0 mm 11,7 km/h (2 Bft) W 264 ° 0 min 0,000 mm 0,0 UV-I 0 W/m² 8,8 °C 11,6 °C 16,1 km/h (3 Bft)
26.07.2017 02:35 11,6 °C 11,6 °C 83 % 1006,0 hPa 0,0 mm 7,1 km/h (2 Bft) W-SW 249 ° 0 min 0,000 mm 0,0 UV-I 0 W/m² 8,8 °C 11,6 °C 11,3 km/h (2 Bft)
26.07.2017 02:36 11,6 °C 11,6 °C 83 % 1006,1 hPa 0,0 mm 2,7 km/h (1 Bft) W-SW 249 ° 0 min 0,000 mm 0,0 UV-I 0 W/m² 8,8 °C 11,6 °C 4,8 km/h (1 Bft)
26.07.2017 02:37 11,6 °C 11,6 °C 83 % 1006,0 hPa 0,0 mm 5,0 km/h (1 Bft) W 265 ° 0 min 0,000 mm 0,0 UV-I 0 W/m² 8,8 °C 11,6 °C 9,7 km/h (2 Bft)
26.07.2017 02:38 11,6 °C 11,6 °C 83 % 1006,1 hPa 0,0 mm 9,3 km/h (2 Bft) SW 225 ° 0 min 0,000 mm 0,0 UV-I 0 W/m² 8,8 °C 11,6 °C 16,1 km/h (3 Bft)
26.07.2017 02:39 11,5 °C 11,6 °C 84 % 1006,1 hPa 0,0 mm 9,6 km/h (2 Bft) W-SW 246 ° 0 min 0,000 mm 0,0 UV-I 0 W/m² 8,9 °C 11,5 °C 17,7 km/h (3 Bft)
26.07.2017 02:40 11,5 °C 11,6 °C 84 % 1006,1 hPa 0,0 mm 6,6 km/h (2 Bft) W-SW 258 ° 0 min 0,000 mm 0,0 UV-I 0 W/m² 8,9 °C 11,5 °C 11,3 km/h (2 Bft)
26.07.2017 02:41 11,5 °C 11,6 °C 84 % 1006,1 hPa 0,0 mm 5,4 km/h (1 Bft) W-SW 251 ° 0 min 0,000 mm 0,0 UV-I 0 W/m² 8,9 °C 11,5 °C 6,4 km/h (2 Bft)
26.07.2017 02:42 11,4 °C 11,5 °C 84 % 1006,1 hPa 0,0 mm 7,5 km/h (2 Bft) W-SW 247 ° 0 min 0,000 mm 0,0 UV-I 0 W/m² 8,8 °C 11,4 °C 12,9 km/h (3 Bft)
26.07.2017 02:43 11,5 °C 11,5 °C 85 % 1006,1 hPa 0,0 mm 4,1 km/h (1 Bft) W-SW 252 ° 0 min 0,000 mm 0,0 UV-I 0 W/m² 9,1 °C 11,5 °C 6,4 km/h (2 Bft)
26.07.2017 02:44 11,4 °C 11,5 °C 84 % 1006,1 hPa 0,0 mm 7,9 km/h (2 Bft) W 267 ° 0 min 0,000 mm 0,0 UV-I 0 W/m² 8,8 °C 11,4 °C 12,9 km/h (3 Bft)
26.07.2017 02:45 11,4 °C 11,4 °C 84 % 1006,1 hPa 0,0 mm 5,0 km/h (1 Bft) W 269 ° 0 min 0,000 mm 0,0 UV-I 0 W/m² 8,8 °C 11,4 °C 6,4 km/h (2 Bft)
26.07.2017 02:46 11,4 °C 11,4 °C 85 % 1006,1 hPa 0,0 mm 6,2 km/h (2 Bft) W-NW 283 ° 0 min 0,000 mm 0,0 UV-I 0 W/m² 9,0 °C 11,4 °C 9,7 km/h (2 Bft)
26.07.2017 02:47 11,4 °C 11,4 °C 85 % 1006,1 hPa 0,0 mm 5,2 km/h (1 Bft) W-NW 290 ° 0 min 0,000 mm 0,0 UV-I 0 W/m² 9,0 °C 11,4 °C 9,7 km/h (2 Bft)
26.07.2017 02:48 11,3 °C 11,4 °C 85 % 1006,1 hPa 0,0 mm 8,0 km/h (2 Bft) W 261 ° 0 min 0,000 mm 0,0 UV-I 0 W/m² 8,9 °C 11,3 °C 11,3 km/h (2 Bft)
26.07.2017 02:49 11,3 °C 11,3 °C 85 % 1006,1 hPa 0,0 mm 8,2 km/h (2 Bft) W 260 ° 0 min 0,000 mm 0,0 UV-I 0 W/m² 8,9 °C 11,3 °C 11,3 km/h (2 Bft)
26.07.2017 02:50 11,3 °C 11,3 °C 85 % 1006,1 hPa 0,0 mm 8,9 km/h (2 Bft) W 267 ° 0 min 0,000 mm 0,0 UV-I 0 W/m² 8,9 °C 11,3 °C 14,5 km/h (3 Bft)
26.07.2017 02:51 11,3 °C 11,3 °C 86 % 1006,1 hPa 0,0 mm 12,9 km/h (3 Bft) W-SW 257 ° 0 min 0,000 mm 0,0 UV-I 0 W/m² 9,0 °C 11,3 °C 16,1 km/h (3 Bft)
26.07.2017 02:52 11,3 °C 11,3 °C 86 % 1006,1 hPa 0,0 mm 6,2 km/h (2 Bft) W-SW 252 ° 0 min 0,000 mm 0,0 UV-I 0 W/m² 9,0 °C 11,3 °C 11,3 km/h (2 Bft)
26.07.2017 02:53 11,2 °C 11,3 °C 86 % 1006,2 hPa 0,0 mm 6,4 km/h (2 Bft) NW 306 ° 0 min 0,000 mm 0,0 UV-I 0 W/m² 8,9 °C 11,2 °C 12,9 km/h (3 Bft)
26.07.2017 02:54 11,2 °C 11,2 °C 86 % 1006,2 hPa 0,0 mm 9,9 km/h (2 Bft) W 264 ° 0 min 0,000 mm 0,0 UV-I 0 W/m² 8,9 °C 11,2 °C 17,7 km/h (3 Bft)
26.07.2017 02:55 11,2 °C 11,2 °C 87 % 1006,1 hPa 0,0 mm 10,1 km/h (2 Bft) W-SW 255 ° 0 min 0,000 mm 0,0 UV-I 0 W/m² 9,1 °C 11,2 °C 16,1 km/h (3 Bft)
26.07.2017 02:56 11,1 °C 11,2 °C 87 % 1006,1 hPa 0,0 mm 7,4 km/h (2 Bft) W 259 ° 0 min 0,000 mm 0,0 UV-I 0 W/m² 9,0 °C 11,1 °C 11,3 km/h (2 Bft)
26.07.2017 02:57 11,1 °C 11,1 °C 87 % 1006,1 hPa 0,0 mm 7,3 km/h (2 Bft) W 265 ° 0 min 0,000 mm 0,0 UV-I 0 W/m² 9,0 °C 11,1 °C 12,9 km/h (3 Bft)
26.07.2017 02:58 11,1 °C 11,1 °C 87 % 1006,1 hPa 0,0 mm 4,5 km/h (1 Bft) W-SW 248 ° 0 min 0,000 mm 0,0 UV-I 0 W/m² 9,0 °C 11,1 °C 6,4 km/h (2 Bft)
26.07.2017 02:59 11,0 °C 11,1 °C 88 % 1006,2 hPa 0,0 mm 6,8 km/h (2 Bft) W 269 ° 0 min 0,000 mm 0,0 UV-I 0 W/m² 9,1 °C 11,0 °C 11,3 km/h (2 Bft)
26.07.2017 03:00 10,9 °C 11,0 °C 88 % 1006,2 hPa 0,2 mm 7,8 km/h (2 Bft) W 267 ° 0 min 0,025 mm 0,0 UV-I 0 W/m² 9,0 °C 10,9 °C 11,3 km/h (2 Bft)
26.07.2017 03:01 10,9 °C 10,9 °C 88 % 1006,2 hPa 0,0 mm 11,6 km/h (2 Bft) W 262 ° 0 min 0,000 mm 0,0 UV-I 0 W/m² 9,0 °C 10,9 °C 17,7 km/h (3 Bft)
26.07.2017 03:02 10,9 °C 10,9 °C 88 % 1006,2 hPa 0,0 mm 6,2 km/h (2 Bft) W-SW 248 ° 0 min 0,000 mm 0,0 UV-I 0 W/m² 9,0 °C 10,9 °C 12,9 km/h (3 Bft)
26.07.2017 03:03 10,9 °C 10,9 °C 88 % 1006,2 hPa 0,0 mm 8,9 km/h (2 Bft) W 265 ° 0 min 0,000 mm 0,0 UV-I 0 W/m² 9,0 °C 10,9 °C 12,9 km/h (3 Bft)
26.07.2017 03:04 10,8 °C 10,9 °C 89 % 1006,1 hPa 0,0 mm 3,3 km/h (1 Bft) S-SW 203 ° 0 min 0,000 mm 0,0 UV-I 0 W/m² 9,1 °C 10,8 °C 6,4 km/h (2 Bft)
26.07.2017 03:05 10,8 °C 10,8 °C 89 % 1006,1 hPa 0,0 mm 7,4 km/h (2 Bft) W 260 ° 0 min 0,000 mm 0,0 UV-I 0 W/m² 9,1 °C 10,8 °C 11,3 km/h (2 Bft)
26.07.2017 03:06 10,8 °C 10,8 °C 89 % 1006,2 hPa 0,0 mm 7,5 km/h (2 Bft) W-SW 251 ° 0 min 0,000 mm 0,0 UV-I 0 W/m² 9,1 °C 10,8 °C 14,5 km/h (3 Bft)
26.07.2017 03:07 10,8 °C 10,8 °C 89 % 1006,1 hPa 0,0 mm 3,2 km/h (1 Bft) W 279 ° 0 min 0,000 mm 0,0 UV-I 0 W/m² 9,1 °C 10,8 °C 4,8 km/h (1 Bft)
26.07.2017 03:08 10,7 °C 10,8 °C 89 % 1006,1 hPa 0,0 mm 3,4 km/h (1 Bft) W 266 ° 0 min 0,000 mm 0,0 UV-I 0 W/m² 9,0 °C 10,7 °C 6,4 km/h (2 Bft)
26.07.2017 03:09 10,7 °C 10,7 °C 90 % 1006,1 hPa 0,0 mm 7,7 km/h (2 Bft) W 267 ° 0 min 0,000 mm 0,0 UV-I 0 W/m² 9,1 °C 10,7 °C 11,3 km/h (2 Bft)
26.07.2017 03:10 10,7 °C 10,7 °C 90 % 1006,1 hPa 0,0 mm 7,9 km/h (2 Bft) W-SW 248 ° 0 min 0,000 mm 0,0 UV-I 0 W/m² 9,1 °C 10,7 °C 12,9 km/h (3 Bft)
26.07.2017 03:11 10,7 °C 10,7 °C 90 % 1006,1 hPa 0,0 mm 10,9 km/h (2 Bft) SW 221 ° 0 min 0,000 mm 0,0 UV-I 0 W/m² 9,1 °C 10,7 °C 16,1 km/h (3 Bft)
26.07.2017 03:12 10,7 °C 10,7 °C 90 % 1006,0 hPa 0,0 mm 7,5 km/h (2 Bft) W-SW 251 ° 0 min 0,000 mm 0,0 UV-I 0 W/m² 9,1 °C 10,7 °C 12,9 km/h (3 Bft)
26.07.2017 03:13 10,6 °C 10,7 °C 90 % 1006,0 hPa 0,2 mm 5,5 km/h (1 Bft) W-SW 252 ° 0 min 0,000 mm 0,0 UV-I 0 W/m² 9,0 °C 10,6 °C 8,0 km/h (2 Bft)
26.07.2017 03:14 10,6 °C 10,7 °C 90 % 1006,0 hPa 0,0 mm 11,5 km/h (2 Bft) W-SW 242 ° 0 min 0,000 mm 0,0 UV-I 0 W/m² 9,0 °C 10,6 °C 17,7 km/h (3 Bft)
26.07.2017 03:15 10,6 °C 10,6 °C 90 % 1006,0 hPa 0,0 mm 12,8 km/h (3 Bft) W-NW 287 ° 0 min 0,000 mm 0,0 UV-I 0 W/m² 9,0 °C 10,6 °C 17,7 km/h (3 Bft)
26.07.2017 03:16 10,6 °C 10,6 °C 90 % 1006,0 hPa 0,0 mm 10,3 km/h (2 Bft) SW 219 ° 0 min 0,000 mm 0,0 UV-I 0 W/m² 9,0 °C 10,6 °C 17,7 km/h (3 Bft)
26.07.2017 03:17 10,6 °C 10,6 °C 90 % 1006,0 hPa 0,0 mm 9,2 km/h (2 Bft) W 271 ° 0 min 0,000 mm 0,0 UV-I 0 W/m² 9,0 °C 10,6 °C 14,5 km/h (3 Bft)
26.07.2017 03:18 10,6 °C 10,6 °C 90 % 1006,0 hPa 0,0 mm 13,1 km/h (3 Bft) SW 235 ° 0 min 0,000 mm 0,0 UV-I 0 W/m² 9,0 °C 10,6 °C 19,3 km/h (3 Bft)
26.07.2017 03:19 10,6 °C 10,6 °C 90 % 1006,0 hPa 0,0 mm 8,0 km/h (2 Bft) S 180 ° 0 min 0,000 mm 0,0 UV-I 0 W/m² 9,0 °C 10,6 °C 17,7 km/h (3 Bft)
26.07.2017 03:20 10,7 °C 10,7 °C 90 % 1005,9 hPa 0,0 mm 9,6 km/h (2 Bft) W-NW 287 ° 0 min 0,000 mm 0,0 UV-I 0 W/m² 9,1 °C 10,7 °C 14,5 km/h (3 Bft)
26.07.2017 03:21 10,6 °C 10,7 °C 90 % 1005,9 hPa 0,0 mm 8,1 km/h (2 Bft) W-SW 244 ° 0 min 0,000 mm 0,0 UV-I 0 W/m² 9,0 °C 10,6 °C 22,5 km/h (4 Bft)
26.07.2017 03:22 10,7 °C 10,7 °C 90 % 1006,0 hPa 0,0 mm 12,2 km/h (2 Bft) W 279 ° 0 min 0,000 mm 0,0 UV-I 0 W/m² 9,1 °C 10,7 °C 17,7 km/h (3 Bft)
26.07.2017 03:23 10,6 °C 10,7 °C 90 % 1006,0 hPa 0,0 mm 10,3 km/h (2 Bft) W 269 ° 0 min 0,000 mm 0,0 UV-I 0 W/m² 9,0 °C 10,6 °C 19,3 km/h (3 Bft)
26.07.2017 03:24 10,7 °C 10,7 °C 91 % 1005,9 hPa 0,0 mm 11,3 km/h (2 Bft) W-SW 254 ° 0 min 0,000 mm 0,0 UV-I 0 W/m² 9,3 °C 10,7 °C 19,3 km/h (3 Bft)
26.07.2017 03:25 10,6 °C 10,7 °C 91 % 1006,0 hPa 0,0 mm 6,8 km/h (2 Bft) W-SW 257 ° 0 min 0,000 mm 0,0 UV-I 0 W/m² 9,2 °C 10,6 °C 12,9 km/h (3 Bft)
26.07.2017 03:26 10,6 °C 10,7 °C 91 % 1005,9 hPa 0,0 mm 8,1 km/h (2 Bft) W 267 ° 0 min 0,000 mm 0,0 UV-I 0 W/m² 9,2 °C 10,6 °C 14,5 km/h (3 Bft)
26.07.2017 03:27 10,6 °C 10,6 °C 91 % 1006,0 hPa 0,0 mm 6,3 km/h (2 Bft) W 271 ° 0 min 0,000 mm 0,0 UV-I 0 W/m² 9,2 °C 10,6 °C 14,5 km/h (3 Bft)
26.07.2017 03:28 10,6 °C 10,6 °C 91 % 1005,9 hPa 0,2 mm 11,9 km/h (2 Bft) S 187 ° 0 min 0,000 mm 0,0 UV-I 0 W/m² 9,2 °C 10,6 °C 16,1 km/h (3 Bft)
26.07.2017 03:29 10,6 °C 10,6 °C 91 % 1005,9 hPa 0,0 mm 7,1 km/h (2 Bft) W-SW 252 ° 0 min 0,000 mm 0,0 UV-I 0 W/m² 9,2 °C 10,6 °C 14,5 km/h (3 Bft)
26.07.2017 03:30 10,6 °C 10,6 °C 91 % 1005,9 hPa 0,0 mm 7,9 km/h (2 Bft) SW 236 ° 0 min 0,000 mm 0,0 UV-I 0 W/m² 9,2 °C 10,6 °C 12,9 km/h (3 Bft)
26.07.2017 03:31 10,6 °C 10,6 °C 91 % 1005,9 hPa 0,0 mm 6,5 km/h (2 Bft) S-SW 204 ° 0 min 0,000 mm 0,0 UV-I 0 W/m² 9,2 °C 10,6 °C 9,7 km/h (2 Bft)
26.07.2017 03:32 10,6 °C 10,6 °C 91 % 1005,8 hPa 0,0 mm 8,0 km/h (2 Bft) W-SW 250 ° 0 min 0,000 mm 0,0 UV-I 0 W/m² 9,2 °C 10,6 °C 14,5 km/h (3 Bft)
26.07.2017 03:33 10,6 °C 10,6 °C 91 % 1005,8 hPa 0,0 mm 12,8 km/h (3 Bft) SW 232 ° 0 min 0,000 mm 0,0 UV-I 0 W/m² 9,2 °C 10,6 °C 22,5 km/h (4 Bft)
26.07.2017 03:34 10,6 °C 10,6 °C 91 % 1005,8 hPa 0,0 mm 16,8 km/h (3 Bft) W 263 ° 0 min 0,000 mm 0,0 UV-I 0 W/m² 9,2 °C 10,6 °C 27,4 km/h (4 Bft)
26.07.2017 03:35 10,6 °C 10,6 °C 91 % 1005,8 hPa 0,0 mm 9,7 km/h (2 Bft) W-SW 255 ° 0 min 0,000 mm 0,0 UV-I 0 W/m² 9,2 °C 10,6 °C 16,1 km/h (3 Bft)
26.07.2017 03:36 10,6 °C 10,6 °C 91 % 1005,8 hPa 0,0 mm 4,5 km/h (1 Bft) SW 215 ° 0 min 0,000 mm 0,0 UV-I 0 W/m² 9,2 °C 10,6 °C 11,3 km/h (2 Bft)
26.07.2017 03:37 10,6 °C 10,6 °C 91 % 1005,8 hPa 0,0 mm 14,4 km/h (3 Bft) SW 217 ° 0 min 0,000 mm 0,0 UV-I 0 W/m² 9,2 °C 10,6 °C 20,9 km/h (4 Bft)
26.07.2017 03:38 10,6 °C 10,6 °C 91 % 1005,7 hPa 0,0 mm 15,0 km/h (3 Bft) W-NW 283 ° 0 min 0,000 mm 0,0 UV-I 0 W/m² 9,2 °C 10,6 °C 19,3 km/h (3 Bft)
26.07.2017 03:39 10,6 °C 10,6 °C 91 % 1005,7 hPa 0,0 mm 13,1 km/h (3 Bft) NW 304 ° 0 min 0,000 mm 0,0 UV-I 0 W/m² 9,2 °C 10,6 °C 25,7 km/h (4 Bft)
26.07.2017 03:40 10,6 °C 10,6 °C 91 % 1005,7 hPa 0,0 mm 11,3 km/h (2 Bft) W-NW 282 ° 0 min 0,000 mm 0,0 UV-I 0 W/m² 9,2 °C 10,6 °C 20,9 km/h (4 Bft)
26.07.2017 03:41 10,6 °C 10,6 °C 91 % 1005,8 hPa 0,0 mm 7,8 km/h (2 Bft) W-SW 257 ° 0 min 0,000 mm 0,0 UV-I 0 W/m² 9,2 °C 10,6 °C 17,7 km/h (3 Bft)
26.07.2017 03:42 10,6 °C 10,6 °C 91 % 1005,8 hPa 0,0 mm 13,2 km/h (3 Bft) W 279 ° 0 min 0,000 mm 0,0 UV-I 0 W/m² 9,2 °C 10,6 °C 17,7 km/h (3 Bft)
26.07.2017 03:43 10,6 °C 10,6 °C 91 % 1005,8 hPa 0,0 mm 12,3 km/h (3 Bft) W 263 ° 0 min 0,000 mm 0,0 UV-I 0 W/m² 9,2 °C 10,6 °C 17,7 km/h (3 Bft)
26.07.2017 03:44 10,6 °C 10,6 °C 91 % 1005,7 hPa 0,0 mm 12,0 km/h (2 Bft) W-SW 251 ° 0 min 0,000 mm 0,0 UV-I 0 W/m² 9,2 °C 10,6 °C 16,1 km/h (3 Bft)
26.07.2017 03:45 10,6 °C 10,6 °C 91 % 1005,8 hPa 0,0 mm 5,6 km/h (1 Bft) W 267 ° 0 min 0,000 mm 0,0 UV-I 0 W/m² 9,2 °C 10,6 °C 9,7 km/h (2 Bft)
26.07.2017 03:46 10,6 °C 10,6 °C 91 % 1005,9 hPa 0,0 mm 5,6 km/h (1 Bft) W-NW 288 ° 0 min 0,000 mm 0,0 UV-I 0 W/m² 9,2 °C 10,6 °C 8,0 km/h (2 Bft)
26.07.2017 03:47 10,5 °C 10,6 °C 91 % 1005,9 hPa 0,2 mm 8,0 km/h (2 Bft) W 275 ° 0 min 0,000 mm 0,0 UV-I 0 W/m² 9,1 °C 10,5 °C 14,5 km/h (3 Bft)
26.07.2017 03:48 10,5 °C 10,6 °C 91 % 1006,0 hPa 0,0 mm 9,7 km/h (2 Bft) W-SW 252 ° 0 min 0,000 mm 0,0 UV-I 0 W/m² 9,1 °C 10,5 °C 16,1 km/h (3 Bft)
26.07.2017 03:49 10,5 °C 10,6 °C 91 % 1006,0 hPa 0,0 mm 7,1 km/h (2 Bft) NW 304 ° 0 min 0,000 mm 0,0 UV-I 0 W/m² 9,1 °C 10,5 °C 11,3 km/h (2 Bft)
26.07.2017 03:50 10,5 °C 10,6 °C 91 % 1006,0 hPa 0,0 mm 11,6 km/h (2 Bft) W 275 ° 0 min 0,000 mm 0,0 UV-I 0 W/m² 9,1 °C 10,5 °C 19,3 km/h (3 Bft)
26.07.2017 03:51 10,5 °C 10,5 °C 91 % 1005,9 hPa 0,0 mm 12,1 km/h (2 Bft) W-SW 246 ° 0 min 0,000 mm 0,0 UV-I 0 W/m² 9,1 °C 10,5 °C 17,7 km/h (3 Bft)
26.07.2017 03:52 10,5 °C 10,5 °C 91 % 1006,0 hPa 0,0 mm 12,9 km/h (3 Bft) NW 310 ° 0 min 0,000 mm 0,0 UV-I 0 W/m² 9,1 °C 10,5 °C 16,1 km/h (3 Bft)
26.07.2017 03:53 10,4 °C 10,5 °C 91 % 1006,0 hPa 0,0 mm 10,2 km/h (2 Bft) W-NW 283 ° 0 min 0,000 mm 0,0 UV-I 0 W/m² 9,0 °C 10,4 °C 16,1 km/h (3 Bft)
26.07.2017 03:54 10,4 °C 10,4 °C 91 % 1006,0 hPa 0,2 mm 5,4 km/h (1 Bft) W-SW 256 ° 0 min 0,000 mm 0,0 UV-I 0 W/m² 9,0 °C 10,4 °C 9,7 km/h (2 Bft)
26.07.2017 03:55 10,4 °C 10,4 °C 91 % 1006,0 hPa 0,0 mm 10,0 km/h (2 Bft) W 267 ° 0 min 0,000 mm 0,0 UV-I 0 W/m² 9,0 °C 10,4 °C 14,5 km/h (3 Bft)
26.07.2017 03:56 10,4 °C 10,4 °C 92 % 1006,0 hPa 0,0 mm 8,8 km/h (2 Bft) W-SW 240 ° 0 min 0,000 mm 0,0 UV-I 0 W/m² 9,2 °C 10,4 °C 12,9 km/h (3 Bft)
26.07.2017 03:57 10,4 °C 10,4 °C 92 % 1006,0 hPa 0,0 mm 5,7 km/h (1 Bft) W 261 ° 0 min 0,000 mm 0,0 UV-I 0 W/m² 9,2 °C 10,4 °C 12,9 km/h (3 Bft)
26.07.2017 03:58 10,3 °C 10,4 °C 92 % 1006,0 hPa 0,0 mm 5,2 km/h (1 Bft) W 264 ° 0 min 0,000 mm 0,0 UV-I 0 W/m² 9,1 °C 10,3 °C 9,7 km/h (2 Bft)
26.07.2017 03:59 10,3 °C 10,4 °C 92 % 1006,0 hPa 0,0 mm 12,9 km/h (3 Bft) SW 230 ° 0 min 0,000 mm 0,0 UV-I 0 W/m² 9,1 °C 10,3 °C 24,1 km/h (4 Bft)
26.07.2017 04:00 10,4 °C 10,4 °C 92 % 1006,0 hPa 0,0 mm 13,2 km/h (3 Bft) W-SW 240 ° 0 min 0,000 mm 0,0 UV-I 0 W/m² 9,2 °C 10,4 °C 22,5 km/h (4 Bft)
26.07.2017 04:01 10,3 °C 10,4 °C 92 % 1006,0 hPa 0,2 mm 8,1 km/h (2 Bft) W 267 ° 0 min 0,026 mm 0,0 UV-I 0 W/m² 9,1 °C 10,3 °C 14,5 km/h (3 Bft)
26.07.2017 04:02 10,3 °C 10,3 °C 92 % 1006,0 hPa 0,0 mm 10,2 km/h (2 Bft) W 277 ° 0 min 0,000 mm 0,0 UV-I 0 W/m² 9,1 °C 10,3 °C 20,9 km/h (4 Bft)
26.07.2017 04:03 10,3 °C 10,3 °C 92 % 1006,1 hPa 0,0 mm 7,9 km/h (2 Bft) W 269 ° 0 min 0,000 mm 0,0 UV-I 0 W/m² 9,1 °C 10,3 °C 11,3 km/h (2 Bft)
26.07.2017 04:04 10,3 °C 10,3 °C 92 % 1006,0 hPa 0,0 mm 9,5 km/h (2 Bft) W 274 ° 0 min 0,000 mm 0,0 UV-I 0 W/m² 9,1 °C 10,3 °C 14,5 km/h (3 Bft)
26.07.2017 04:05 10,3 °C 10,3 °C 92 % 1006,1 hPa 0,0 mm 8,6 km/h (2 Bft) W 279 ° 0 min 0,000 mm 0,0 UV-I 0 W/m² 9,1 °C 10,3 °C 12,9 km/h (3 Bft)
26.07.2017 04:06 10,3 °C 10,3 °C 92 % 1006,1 hPa 0,2 mm 6,9 km/h (2 Bft) W 263 ° 0 min 0,000 mm 0,0 UV-I 0 W/m² 9,1 °C 10,3 °C 12,9 km/h (3 Bft)
26.07.2017 04:07 10,3 °C 10,3 °C 92 % 1006,1 hPa 0,0 mm 6,8 km/h (2 Bft) W-SW 242 ° 0 min 0,000 mm 0,0 UV-I 0 W/m² 9,1 °C 10,3 °C 12,9 km/h (3 Bft)
26.07.2017 04:08 10,3 °C 10,3 °C 92 % 1006,1 hPa 0,0 mm 3,6 km/h (1 Bft) W 261 ° 0 min 0,000 mm 0,0 UV-I 0 W/m² 9,1 °C 10,3 °C 12,9 km/h (3 Bft)
26.07.2017 04:09 10,3 °C 10,3 °C 92 % 1006,1 hPa 0,0 mm 7,1 km/h (2 Bft) W-SW 257 ° 0 min 0,000 mm 0,0 UV-I 0 W/m² 9,1 °C 10,3 °C 11,3 km/h (2 Bft)
26.07.2017 04:10 10,3 °C 10,3 °C 92 % 1006,1 hPa 0,0 mm 7,5 km/h (2 Bft) S-SW 213 ° 0 min 0,000 mm 0,0 UV-I 0 W/m² 9,1 °C 10,3 °C 11,3 km/h (2 Bft)
26.07.2017 04:11 10,3 °C 10,3 °C 92 % 1006,1 hPa 0,0 mm 7,0 km/h (2 Bft) W 265 ° 0 min 0,000 mm 0,0 UV-I 0 W/m² 9,1 °C 10,3 °C 12,9 km/h (3 Bft)
26.07.2017 04:12 10,3 °C 10,3 °C 92 % 1006,1 hPa 0,2 mm 10,6 km/h (2 Bft) SW 235 ° 0 min 0,000 mm 0,0 UV-I 0 W/m² 9,1 °C 10,3 °C 17,7 km/h (3 Bft)
26.07.2017 04:13 10,3 °C 10,3 °C 92 % 1006,1 hPa 0,0 mm 9,7 km/h (2 Bft) W 261 ° 0 min 0,000 mm 0,0 UV-I 0 W/m² 9,1 °C 10,3 °C 16,1 km/h (3 Bft)
26.07.2017 04:14 10,3 °C 10,3 °C 92 % 1006,1 hPa 0,0 mm 10,8 km/h (2 Bft) W-SW 253 ° 0 min 0,000 mm 0,0 UV-I 0 W/m² 9,1 °C 10,3 °C 12,9 km/h (3 Bft)
26.07.2017 04:15 10,2 °C 10,3 °C 92 % 1006,1 hPa 0,0 mm 8,0 km/h (2 Bft) W-SW 241 ° 0 min 0,000 mm 0,0 UV-I 0 W/m² 9,0 °C 10,2 °C 14,5 km/h (3 Bft)
26.07.2017 04:16 10,2 °C 10,2 °C 92 % 1006,1 hPa 0,2 mm 10,7 km/h (2 Bft) W-SW 243 ° 0 min 0,000 mm 0,0 UV-I 0 W/m² 9,0 °C 10,2 °C 19,3 km/h (3 Bft)
26.07.2017 04:17 10,2 °C 10,2 °C 92 % 1006,1 hPa 0,0 mm 13,5 km/h (3 Bft) W-SW 252 ° 0 min 0,000 mm 0,0 UV-I 0 W/m² 9,0 °C 10,2 °C 20,9 km/h (4 Bft)
26.07.2017 04:18 10,2 °C 10,2 °C 93 % 1006,1 hPa 0,0 mm 7,7 km/h (2 Bft) W 277 ° 0 min 0,000 mm 0,0 UV-I 0 W/m² 9,1 °C 10,2 °C 11,3 km/h (2 Bft)
26.07.2017 04:19 10,2 °C 10,2 °C 92 % 1006,1 hPa 0,0 mm 9,9 km/h (2 Bft) W-NW 286 ° 0 min 0,000 mm 0,0 UV-I 0 W/m² 9,0 °C 10,2 °C 16,1 km/h (3 Bft)
26.07.2017 04:20 10,2 °C 10,2 °C 92 % 1006,1 hPa 0,2 mm 9,6 km/h (2 Bft) W-SW 240 ° 0 min 0,000 mm 0,0 UV-I 0 W/m² 9,0 °C 10,2 °C 14,5 km/h (3 Bft)
26.07.2017 04:21 10,2 °C 10,2 °C 92 % 1006,1 hPa 0,0 mm 9,2 km/h (2 Bft) W 259 ° 0 min 0,000 mm 0,0 UV-I 0 W/m² 9,0 °C 10,2 °C 14,5 km/h (3 Bft)
26.07.2017 04:22 10,2 °C 10,2 °C 92 % 1006,1 hPa 0,0 mm 7,5 km/h (2 Bft) W-SW 250 ° 0 min 0,000 mm 0,0 UV-I 0 W/m² 9,0 °C 10,2 °C 14,5 km/h (3 Bft)
26.07.2017 04:23 10,2 °C 10,2 °C 92 % 1006,1 hPa 0,2 mm 11,7 km/h (2 Bft) W 275 ° 0 min 0,000 mm 0,0 UV-I 0 W/m² 9,0 °C 10,2 °C 19,3 km/h (3 Bft)
26.07.2017 04:24 10,2 °C 10,2 °C 92 % 1006,1 hPa 0,0 mm 10,9 km/h (2 Bft) W 267 ° 0 min 0,000 mm 0,0 UV-I 0 W/m² 9,0 °C 10,2 °C 16,1 km/h (3 Bft)
26.07.2017 04:25 10,2 °C 10,2 °C 92 % 1006,2 hPa 0,0 mm 11,2 km/h (2 Bft) W 267 ° 0 min 0,000 mm 0,0 UV-I 0 W/m² 9,0 °C 10,2 °C 16,1 km/h (3 Bft)
26.07.2017 04:26 10,2 °C 10,2 °C 92 % 1006,1 hPa 0,2 mm 9,0 km/h (2 Bft) W 281 ° 0 min 0,000 mm 0,0 UV-I 0 W/m² 9,0 °C 10,2 °C 16,1 km/h (3 Bft)
26.07.2017 04:27 10,2 °C 10,2 °C 92 % 1006,1 hPa 0,0 mm 7,8 km/h (2 Bft) W 272 ° 0 min 0,000 mm 0,0 UV-I 0 W/m² 9,0 °C 10,2 °C 12,9 km/h (3 Bft)
26.07.2017 04:28 10,1 °C 10,2 °C 92 % 1006,1 hPa 0,2 mm 8,9 km/h (2 Bft) W-NW 294 ° 0 min 0,000 mm 0,0 UV-I 0 W/m² 8,9 °C 10,1 °C 14,5 km/h (3 Bft)
26.07.2017 04:29 10,2 °C 10,2 °C 92 % 1006,1 hPa 0,0 mm 11,0 km/h (2 Bft) W-SW 254 ° 0 min 0,000 mm 0,0 UV-I 0 W/m² 9,0 °C 10,2 °C 14,5 km/h (3 Bft)
26.07.2017 04:30 10,2 °C 10,2 °C 92 % 1006,1 hPa 0,0 mm 8,9 km/h (2 Bft) SW 221 ° 0 min 0,000 mm 0,0 UV-I 0 W/m² 9,0 °C 10,2 °C 12,9 km/h (3 Bft)
26.07.2017 04:31 10,2 °C 10,2 °C 92 % 1006,1 hPa 0,2 mm 9,9 km/h (2 Bft) W 259 ° 0 min 0,000 mm 0,0 UV-I 0 W/m² 9,0 °C 10,2 °C 16,1 km/h (3 Bft)
26.07.2017 04:32 10,2 °C 10,2 °C 92 % 1006,0 hPa 0,0 mm 11,7 km/h (2 Bft) W-SW 247 ° 0 min 0,000 mm 0,0 UV-I 0 W/m² 9,0 °C 10,2 °C 14,5 km/h (3 Bft)
26.07.2017 04:33 10,2 °C 10,2 °C 92 % 1006,0 hPa 0,2 mm 7,3 km/h (2 Bft) W-SW 248 ° 0 min 0,000 mm 0,0 UV-I 0 W/m² 9,0 °C 10,2 °C 12,9 km/h (3 Bft)
26.07.2017 04:34 10,2 °C 10,2 °C 92 % 1006,0 hPa 0,0 mm 9,0 km/h (2 Bft) W-SW 250 ° 0 min 0,000 mm 0,0 UV-I 0 W/m² 9,0 °C 10,2 °C 16,1 km/h (3 Bft)
26.07.2017 04:35 10,2 °C 10,2 °C 92 % 1006,0 hPa 0,0 mm 7,4 km/h (2 Bft) W-NW 291 ° 0 min 0,000 mm 0,0 UV-I 0 W/m² 9,0 °C 10,2 °C 12,9 km/h (3 Bft)
26.07.2017 04:36 10,2 °C 10,2 °C 92 % 1006,0 hPa 0,2 mm 8,6 km/h (2 Bft) W 265 ° 0 min 0,000 mm 0,0 UV-I 0 W/m² 9,0 °C 10,2 °C 17,7 km/h (3 Bft)
26.07.2017 04:37 10,2 °C 10,2 °C 93 % 1006,0 hPa 0,0 mm 12,4 km/h (3 Bft) W 271 ° 0 min 0,000 mm 0,0 UV-I 0 W/m² 9,1 °C 10,2 °C 19,3 km/h (3 Bft)
26.07.2017 04:38 10,2 °C 10,2 °C 93 % 1006,0 hPa 0,0 mm 6,0 km/h (2 Bft) W 277 ° 0 min 0,000 mm 0,0 UV-I 0 W/m² 9,1 °C 10,2 °C 14,5 km/h (3 Bft)
26.07.2017 04:39 10,1 °C 10,2 °C 93 % 1005,9 hPa 0,0 mm 10,5 km/h (2 Bft) W-SW 252 ° 0 min 0,000 mm 0,0 UV-I 0 W/m² 9,0 °C 10,1 °C 17,7 km/h (3 Bft)
26.07.2017 04:40 10,1 °C 10,1 °C 93 % 1006,0 hPa 0,2 mm 8,9 km/h (2 Bft) W-SW 254 ° 0 min 0,000 mm 0,0 UV-I 0 W/m² 9,0 °C 10,1 °C 17,7 km/h (3 Bft)
26.07.2017 04:41 10,1 °C 10,1 °C 92 % 1006,0 hPa 0,0 mm 8,8 km/h (2 Bft) W-SW 246 ° 0 min 0,000 mm 0,0 UV-I 0 W/m² 8,9 °C 10,1 °C 17,7 km/h (3 Bft)
26.07.2017 04:42 10,1 °C 10,1 °C 93 % 1006,0 hPa 0,0 mm 6,8 km/h (2 Bft) W-SW 258 ° 0 min 0,000 mm 0,0 UV-I 0 W/m² 9,0 °C 10,1 °C 11,3 km/h (2 Bft)
26.07.2017 04:43 10,1 °C 10,1 °C 93 % 1006,1 hPa 0,2 mm 11,1 km/h (2 Bft) W-SW 252 ° 0 min 0,000 mm 0,0 UV-I 0 W/m² 9,0 °C 10,1 °C 19,3 km/h (3 Bft)
26.07.2017 04:44 10,1 °C 10,1 °C 93 % 1006,0 hPa 0,0 mm 8,1 km/h (2 Bft) NW 317 ° 0 min 0,000 mm 0,0 UV-I 0 W/m² 9,0 °C 10,1 °C 12,9 km/h (3 Bft)
26.07.2017 04:45 10,1 °C 10,1 °C 93 % 1006,0 hPa 0,0 mm 10,4 km/h (2 Bft) W 266 ° 0 min 0,000 mm 0,0 UV-I 0 W/m² 9,0 °C 10,1 °C 20,9 km/h (4 Bft)
26.07.2017 04:46 10,1 °C 10,1 °C 93 % 1006,0 hPa 0,2 mm 11,4 km/h (2 Bft) W-SW 254 ° 0 min 0,000 mm 0,0 UV-I 0 W/m² 9,0 °C 10,1 °C 16,1 km/h (3 Bft)
26.07.2017 04:47 10,1 °C 10,1 °C 93 % 1006,1 hPa 0,0 mm 8,6 km/h (2 Bft) W-NW 290 ° 0 min 0,000 mm 0,0 UV-I 0 W/m² 9,0 °C 10,1 °C 14,5 km/h (3 Bft)
26.07.2017 04:48 10,1 °C 10,1 °C 93 % 1006,1 hPa 0,2 mm 9,1 km/h (2 Bft) W-NW 296 ° 0 min 0,000 mm 0,0 UV-I 0 W/m² 9,0 °C 10,1 °C 16,1 km/h (3 Bft)
26.07.2017 04:49 10,1 °C 10,1 °C 93 % 1006,1 hPa 0,0 mm 11,5 km/h (2 Bft) W 265 ° 0 min 0,000 mm 0,0 UV-I 0 W/m² 9,0 °C 10,1 °C 17,7 km/h (3 Bft)
26.07.2017 04:50 10,1 °C 10,1 °C 93 % 1006,0 hPa 0,0 mm 7,6 km/h (2 Bft) W 271 ° 0 min 0,000 mm 0,0 UV-I 0 W/m² 9,0 °C 10,1 °C 12,9 km/h (3 Bft)
26.07.2017 04:51 10,1 °C 10,1 °C 93 % 1006,0 hPa 0,2 mm 9,9 km/h (2 Bft) W 263 ° 0 min 0,000 mm 0,0 UV-I 0 W/m² 9,0 °C 10,1 °C 16,1 km/h (3 Bft)
26.07.2017 04:52 10,1 °C 10,1 °C 93 % 1006,0 hPa 0,0 mm 10,9 km/h (2 Bft) W-SW 246 ° 0 min 0,000 mm 0,0 UV-I 0 W/m² 9,0 °C 10,1 °C 16,1 km/h (3 Bft)
26.07.2017 04:53 10,1 °C 10,1 °C 93 % 1006,0 hPa 0,0 mm 10,1 km/h (2 Bft) W-SW 248 ° 0 min 0,000 mm 0,0 UV-I 0 W/m² 9,0 °C 10,1 °C 16,1 km/h (3 Bft)
26.07.2017 04:54 10,1 °C 10,1 °C 93 % 1006,0 hPa 0,2 mm 9,1 km/h (2 Bft) W 267 ° 0 min 0,000 mm 0,0 UV-I 0 W/m² 9,0 °C 10,1 °C 14,5 km/h (3 Bft)
26.07.2017 04:55 10,1 °C 10,1 °C 93 % 1006,0 hPa 0,0 mm 11,7 km/h (2 Bft) SW 229 ° 0 min 0,000 mm 0,0 UV-I 0 W/m² 9,0 °C 10,1 °C 16,1 km/h (3 Bft)
26.07.2017 04:56 10,1 °C 10,1 °C 93 % 1006,0 hPa 0,0 mm 13,1 km/h (3 Bft) W-SW 257 ° 0 min 0,000 mm 0,0 UV-I 0 W/m² 9,0 °C 10,1 °C 19,3 km/h (3 Bft)
26.07.2017 04:57 10,1 °C 10,1 °C 93 % 1005,9 hPa 0,2 mm 10,9 km/h (2 Bft) W-SW 247 ° 0 min 0,000 mm 0,0 UV-I 0 W/m² 9,0 °C 10,1 °C 19,3 km/h (3 Bft)
26.07.2017 04:58 10,1 °C 10,1 °C 93 % 1006,0 hPa 0,0 mm 17,5 km/h (3 Bft) W 265 ° 0 min 0,000 mm 0,0 UV-I 0 W/m² 9,0 °C 10,1 °C 20,9 km/h (4 Bft)
26.07.2017 04:59 10,1 °C 10,1 °C 93 % 1006,0 hPa 0,0 mm 8,2 km/h (2 Bft) W 262 ° 0 min 0,000 mm 0,0 UV-I 0 W/m² 9,0 °C 10,1 °C 12,9 km/h (3 Bft)
26.07.2017 05:00 10,1 °C 10,1 °C 93 % 1005,9 hPa 0,0 mm 5,4 km/h (1 Bft) W 281 ° 0 min 0,000 mm 0,0 UV-I 0 W/m² 9,0 °C 10,1 °C 11,3 km/h (2 Bft)
26.07.2017 05:01 10,1 °C 10,1 °C 93 % 1005,9 hPa 0,2 mm 7,4 km/h (2 Bft) W-SW 255 ° 0 min 0,000 mm 0,0 UV-I 0 W/m² 9,0 °C 10,1 °C 14,5 km/h (3 Bft)
26.07.2017 05:02 10,1 °C 10,1 °C 93 % 1005,9 hPa 0,0 mm 9,8 km/h (2 Bft) W 260 ° 0 min 0,000 mm 0,0 UV-I 0 W/m² 9,0 °C 10,1 °C 14,5 km/h (3 Bft)
26.07.2017 05:03 10,1 °C 10,2 °C 93 % 1005,9 hPa 0,0 mm 9,1 km/h (2 Bft) W-SW 256 ° 0 min 0,000 mm 0,0 UV-I 0 W/m² 9,0 °C 10,1 °C 14,5 km/h (3 Bft)
26.07.2017 05:04 10,1 °C 10,1 °C 93 % 1005,9 hPa 0,0 mm 8,0 km/h (2 Bft) W-SW 238 ° 0 min 0,000 mm 0,0 UV-I 0 W/m² 9,0 °C 10,1 °C 11,3 km/h (2 Bft)
26.07.2017 05:05 10,1 °C 10,1 °C 93 % 1005,8 hPa 0,0 mm 11,7 km/h (2 Bft) W-SW 241 ° 0 min 0,000 mm 0,0 UV-I 0 W/m² 9,0 °C 10,1 °C 19,3 km/h (3 Bft)
26.07.2017 05:06 10,1 °C 10,1 °C 93 % 1005,9 hPa 0,2 mm 8,9 km/h (2 Bft) W 273 ° 0 min 0,000 mm 0,0 UV-I 0 W/m² 9,0 °C 10,1 °C 14,5 km/h (3 Bft)
26.07.2017 05:07 10,1 °C 10,2 °C 93 % 1005,8 hPa 0,0 mm 11,2 km/h (2 Bft) W-SW 257 ° 0 min 0,000 mm 0,0 UV-I 0 W/m² 9,0 °C 10,1 °C 17,7 km/h (3 Bft)
26.07.2017 05:08 10,2 °C 10,2 °C 93 % 1005,8 hPa 0,0 mm 9,0 km/h (2 Bft) W 267 ° 0 min 0,000 mm 0,0 UV-I 0 W/m² 9,1 °C 10,2 °C 12,9 km/h (3 Bft)
26.07.2017 05:09 10,1 °C 10,2 °C 93 % 1005,8 hPa 0,0 mm 7,9 km/h (2 Bft) W 259 ° 0 min 0,000 mm 0,0 UV-I 0 W/m² 9,0 °C 10,1 °C 14,5 km/h (3 Bft)
26.07.2017 05:10 10,2 °C 10,2 °C 93 % 1005,8 hPa 0,0 mm 9,5 km/h (2 Bft) W-NW 288 ° 0 min 0,000 mm 0,0 UV-I 0 W/m² 9,1 °C 10,2 °C 16,1 km/h (3 Bft)
26.07.2017 05:11 10,1 °C 10,2 °C 93 % 1005,8 hPa 0,0 mm 7,8 km/h (2 Bft) W-SW 258 ° 0 min 0,000 mm 0,0 UV-I 0 W/m² 9,0 °C 10,1 °C 14,5 km/h (3 Bft)
26.07.2017 05:12 10,1 °C 10,1 °C 93 % 1005,9 hPa 0,2 mm 8,4 km/h (2 Bft) W 274 ° 0 min 0,000 mm 0,0 UV-I 0 W/m² 9,0 °C 10,1 °C 17,7 km/h (3 Bft)
26.07.2017 05:13 10,1 °C 10,1 °C 93 % 1005,8 hPa 0,0 mm 13,9 km/h (3 Bft) NW 304 ° 0 min 0,000 mm 0,0 UV-I 0 W/m² 9,0 °C 10,1 °C 32,2 km/h (5 Bft)
26.07.2017 05:14 10,1 °C 10,1 °C 93 % 1005,8 hPa 0,0 mm 7,0 km/h (2 Bft) SW 236 ° 0 min 0,000 mm 0,0 UV-I 0 W/m² 9,0 °C 10,1 °C 17,7 km/h (3 Bft)
26.07.2017 05:15 10,2 °C 10,2 °C 93 % 1005,8 hPa 0,0 mm 13,1 km/h (3 Bft) W 271 ° 0 min 0,000 mm 0,0 UV-I 0 W/m² 9,1 °C 10,2 °C 19,3 km/h (3 Bft)
26.07.2017 05:16 10,1 °C 10,2 °C 93 % 1005,8 hPa 0,0 mm 8,6 km/h (2 Bft) W-SW 244 ° 0 min 0,000 mm 0,0 UV-I 0 W/m² 9,0 °C 10,1 °C 14,5 km/h (3 Bft)
26.07.2017 05:17 10,1 °C 10,2 °C 92 % 1005,8 hPa 0,2 mm 9,9 km/h (2 Bft) W-SW 241 ° 0 min 0,000 mm 0,0 UV-I 0 W/m² 8,9 °C 10,1 °C 17,7 km/h (3 Bft)
26.07.2017 05:18 10,2 °C 10,2 °C 93 % 1005,8 hPa 0,0 mm 10,4 km/h (2 Bft) W 260 ° 0 min 0,000 mm 0,0 UV-I 0 W/m² 9,1 °C 10,2 °C 16,1 km/h (3 Bft)
26.07.2017 05:19 10,2 °C 10,2 °C 92 % 1005,8 hPa 0,0 mm 11,7 km/h (2 Bft) W 275 ° 0 min 0,000 mm 0,0 UV-I 0 W/m² 9,0 °C 10,2 °C 16,1 km/h (3 Bft)
26.07.2017 05:20 10,2 °C 10,2 °C 92 % 1005,9 hPa 0,0 mm 8,3 km/h (2 Bft) W-SW 255 ° 0 min 0,000 mm 0,0 UV-I 0 W/m² 9,0 °C 10,2 °C 16,1 km/h (3 Bft)
26.07.2017 05:21 10,2 °C 10,2 °C 93 % 1005,8 hPa 0,2 mm 12,1 km/h (2 Bft) W-NW 292 ° 0 min 0,000 mm 0,0 UV-I 0 W/m² 9,1 °C 10,2 °C 17,7 km/h (3 Bft)
26.07.2017 05:22 10,2 °C 10,2 °C 93 % 1005,8 hPa 0,0 mm 14,8 km/h (3 Bft) W-NW 286 ° 0 min 0,000 mm 0,0 UV-I 0 W/m² 9,1 °C 10,2 °C 27,4 km/h (4 Bft)
26.07.2017 05:23 10,2 °C 10,2 °C 93 % 1005,9 hPa 0,0 mm 13,0 km/h (3 Bft) W 259 ° 0 min 0,000 mm 0,0 UV-I 0 W/m² 9,1 °C 10,2 °C 24,1 km/h (4 Bft)
26.07.2017 05:24 10,2 °C 10,2 °C 93 % 1005,9 hPa 0,0 mm 7,2 km/h (2 Bft) W 281 ° 0 min 0,000 mm 0,0 UV-I 0 W/m² 9,1 °C 10,2 °C 12,9 km/h (3 Bft)
26.07.2017 05:25 10,2 °C 10,2 °C 93 % 1005,9 hPa 0,0 mm 15,6 km/h (3 Bft) W 270 ° 0 min 0,000 mm 0,0 UV-I 0 W/m² 9,1 °C 10,2 °C 22,5 km/h (4 Bft)
26.07.2017 05:26 10,2 °C 10,2 °C 93 % 1006,0 hPa 0,0 mm 11,0 km/h (2 Bft) W 270 ° 0 min 0,000 mm 0,0 UV-I 0 W/m² 9,1 °C 10,2 °C 17,7 km/h (3 Bft)
26.07.2017 05:27 10,2 °C 10,2 °C 93 % 1006,0 hPa 0,2 mm 11,1 km/h (2 Bft) W-SW 252 ° 0 min 0,000 mm 0,0 UV-I 0 W/m² 9,1 °C 10,2 °C 19,3 km/h (3 Bft)
26.07.2017 05:28 10,2 °C 10,2 °C 93 % 1006,0 hPa 0,0 mm 14,4 km/h (3 Bft) W-NW 287 ° 0 min 0,000 mm 0,0 UV-I 0 W/m² 9,1 °C 10,2 °C 24,1 km/h (4 Bft)
26.07.2017 05:29 10,2 °C 10,2 °C 93 % 1006,0 hPa 0,0 mm 13,2 km/h (3 Bft) W-SW 254 ° 0 min 0,000 mm 0,0 UV-I 0 W/m² 9,1 °C 10,2 °C 19,3 km/h (3 Bft)
26.07.2017 05:30 10,2 °C 10,2 °C 93 % 1005,9 hPa 0,0 mm 7,8 km/h (2 Bft) W 265 ° 0 min 0,000 mm 0,0 UV-I 0 W/m² 9,1 °C 10,2 °C 12,9 km/h (3 Bft)
26.07.2017 05:31 10,2 °C 10,2 °C 92 % 1005,9 hPa 0,0 mm 13,7 km/h (3 Bft) W 263 ° 0 min 0,000 mm 0,0 UV-I 0 W/m² 9,0 °C 10,2 °C 22,5 km/h (4 Bft)
26.07.2017 05:32 10,2 °C 10,2 °C 92 % 1005,9 hPa 0,0 mm 13,6 km/h (3 Bft) W 265 ° 0 min 0,000 mm 0,0 UV-I 0 W/m² 9,0 °C 10,2 °C 22,5 km/h (4 Bft)
26.07.2017 05:33 10,2 °C 10,2 °C 92 % 1005,8 hPa 0,0 mm 13,3 km/h (3 Bft) W-SW 243 ° 0 min 0,000 mm 0,0 UV-I 0 W/m² 9,0 °C 10,2 °C 19,3 km/h (3 Bft)
26.07.2017 05:34 10,2 °C 10,2 °C 92 % 1005,8 hPa 0,0 mm 8,1 km/h (2 Bft) SW 218 ° 0 min 0,000 mm 0,0 UV-I 0 W/m² 9,0 °C 10,2 °C 17,7 km/h (3 Bft)
26.07.2017 05:35 10,2 °C 10,2 °C 92 % 1005,9 hPa 0,0 mm 7,1 km/h (2 Bft) W-SW 258 ° 0 min 0,000 mm 0,0 UV-I 0 W/m² 9,0 °C 10,2 °C 12,9 km/h (3 Bft)
26.07.2017 05:36 10,2 °C 10,2 °C 92 % 1005,9 hPa 0,0 mm 14,0 km/h (3 Bft) SW 234 ° 0 min 0,000 mm 0,0 UV-I 0 W/m² 9,0 °C 10,2 °C 19,3 km/h (3 Bft)
26.07.2017 05:37 10,2 °C 10,2 °C 92 % 1005,8 hPa 0,0 mm 12,1 km/h (2 Bft) W 278 ° 0 min 0,000 mm 0,0 UV-I 0 W/m² 9,0 °C 10,2 °C 19,3 km/h (3 Bft)
26.07.2017 05:38 10,2 °C 10,2 °C 92 % 1005,8 hPa 0,2 mm 15,2 km/h (3 Bft) W 266 ° 0 min 0,000 mm 0,0 UV-I 0 W/m² 9,0 °C 10,2 °C 22,5 km/h (4 Bft)
26.07.2017 05:39 10,2 °C 10,2 °C 92 % 1005,7 hPa 0,0 mm 12,4 km/h (3 Bft) W-NW 290 ° 0 min 0,000 mm 0,0 UV-I 0 W/m² 9,0 °C 10,2 °C 19,3 km/h (3 Bft)
26.07.2017 05:40 10,2 °C 10,2 °C 92 % 1005,8 hPa 0,0 mm 14,4 km/h (3 Bft) W 278 ° 0 min 0,000 mm 0,0 UV-I 0 W/m² 9,0 °C 10,2 °C 20,9 km/h (4 Bft)
26.07.2017 05:41 10,3 °C 10,3 °C 92 % 1005,6 hPa 0,0 mm 13,7 km/h (3 Bft) W 274 ° 0 min 0,000 mm 0,0 UV-I 0 W/m² 9,1 °C 10,3 °C 30,6 km/h (5 Bft)
26.07.2017 05:42 10,2 °C 10,3 °C 92 % 1005,7 hPa 0,0 mm 8,5 km/h (2 Bft) W 273 ° 0 min 0,000 mm 0,0 UV-I 0 W/m² 9,0 °C 10,2 °C 12,9 km/h (3 Bft)
26.07.2017 05:43 10,2 °C 10,2 °C 92 % 1005,7 hPa 0,0 mm 8,6 km/h (2 Bft) W 280 ° 0 min 0,000 mm 0,0 UV-I 0 W/m² 9,0 °C 10,2 °C 16,1 km/h (3 Bft)
26.07.2017 05:44 10,2 °C 10,2 °C 92 % 1005,7 hPa 0,2 mm 13,9 km/h (3 Bft) SW 236 ° 0 min 0,000 mm 0,0 UV-I 0 W/m² 9,0 °C 10,2 °C 19,3 km/h (3 Bft)
26.07.2017 05:45 10,2 °C 10,3 °C 92 % 1005,7 hPa 0,0 mm 7,4 km/h (2 Bft) W 264 ° 0 min 0,000 mm 0,0 UV-I 0 W/m² 9,0 °C 10,2 °C 12,9 km/h (3 Bft)
26.07.2017 05:46 10,2 °C 10,2 °C 92 % 1005,7 hPa 0,0 mm 11,4 km/h (2 Bft) W-SW 243 ° 0 min 0,000 mm 0,0 UV-I 0 W/m² 9,0 °C 10,2 °C 17,7 km/h (3 Bft)
26.07.2017 05:47 10,2 °C 10,2 °C 92 % 1005,8 hPa 0,0 mm 10,4 km/h (2 Bft) W-SW 252 ° 0 min 0,000 mm 0,0 UV-I 0 W/m² 9,0 °C 10,2 °C 17,7 km/h (3 Bft)
26.07.2017 05:48 10,2 °C 10,2 °C 92 % 1005,8 hPa 0,0 mm 11,5 km/h (2 Bft) W 277 ° 0 min 0,000 mm 0,0 UV-I 0 W/m² 9,0 °C 10,2 °C 16,1 km/h (3 Bft)
26.07.2017 05:49 10,2 °C 10,3 °C 92 % 1005,7 hPa 0,0 mm 7,4 km/h (2 Bft) W 275 ° 0 min 0,000 mm 0,0 UV-I 0 W/m² 9,0 °C 10,2 °C 12,9 km/h (3 Bft)
26.07.2017 05:50 10,2 °C 10,2 °C 93 % 1005,7 hPa 0,2 mm 14,8 km/h (3 Bft) W-SW 244 ° 0 min 0,000 mm 0,0 UV-I 0 W/m² 9,1 °C 10,2 °C 25,7 km/h (4 Bft)
26.07.2017 05:51 10,2 °C 10,2 °C 93 % 1005,7 hPa 0,0 mm 7,4 km/h (2 Bft) W-NW 286 ° 0 min 0,000 mm 0,0 UV-I 0 W/m² 9,1 °C 10,2 °C 12,9 km/h (3 Bft)
26.07.2017 05:52 10,2 °C 10,2 °C 92 % 1005,7 hPa 0,0 mm 12,5 km/h (3 Bft) W 275 ° 0 min 0,000 mm 0,0 UV-I 0 W/m² 9,0 °C 10,2 °C 24,1 km/h (4 Bft)
26.07.2017 05:53 10,2 °C 10,2 °C 92 % 1005,8 hPa 0,0 mm 8,6 km/h (2 Bft) W-SW 250 ° 0 min 0,000 mm 0,0 UV-I 0 W/m² 9,0 °C 10,2 °C 12,9 km/h (3 Bft)
26.07.2017 05:54 10,2 °C 10,2 °C 92 % 1005,8 hPa 0,0 mm 9,2 km/h (2 Bft) SW 234 ° 0 min 0,000 mm 0,0 UV-I 0 W/m² 9,0 °C 10,2 °C 16,1 km/h (3 Bft)
26.07.2017 05:55 10,2 °C 10,2 °C 93 % 1005,8 hPa 0,2 mm 12,4 km/h (3 Bft) W 269 ° 0 min 0,000 mm 0,0 UV-I 0 W/m² 9,1 °C 10,2 °C 19,3 km/h (3 Bft)
26.07.2017 05:56 10,2 °C 10,2 °C 93 % 1005,9 hPa 0,0 mm 11,1 km/h (2 Bft) W 271 ° 0 min 0,000 mm 0,0 UV-I 0 W/m² 9,1 °C 10,2 °C 16,1 km/h (3 Bft)
26.07.2017 05:57 10,2 °C 10,2 °C 92 % 1005,9 hPa 0,0 mm 17,2 km/h (3 Bft) W-SW 253 ° 0 min 0,000 mm 0,0 UV-I 0 W/m² 9,0 °C 10,2 °C 24,1 km/h (4 Bft)
26.07.2017 05:58 10,2 °C 10,2 °C 92 % 1005,8 hPa 0,0 mm 10,3 km/h (2 Bft) W 269 ° 0 min 0,000 mm 0,0 UV-I 0 W/m² 9,0 °C 10,2 °C 17,7 km/h (3 Bft)
26.07.2017 05:59 10,2 °C 10,2 °C 92 % 1005,8 hPa 0,0 mm 13,9 km/h (3 Bft) W 281 ° 0 min 0,000 mm 0,0 UV-I 0 W/m² 9,0 °C 10,2 °C 22,5 km/h (4 Bft)
26.07.2017 06:00 10,2 °C 10,2 °C 92 % 1005,8 hPa 0,2 mm 11,1 km/h (2 Bft) W-NW 297 ° 0 min 0,000 mm 0,0 UV-I 0 W/m² 9,0 °C 10,2 °C 14,5 km/h (3 Bft)
26.07.2017 06:01 10,2 °C 10,2 °C 92 % 1005,8 hPa 0,0 mm 9,5 km/h (2 Bft) W 281 ° 0 min 0,000 mm 0,0 UV-I 0 W/m² 9,0 °C 10,2 °C 17,7 km/h (3 Bft)
26.07.2017 06:02 10,2 °C 10,3 °C 92 % 1005,8 hPa 0,0 mm 11,3 km/h (2 Bft) W-NW 284 ° 0 min 0,000 mm 0,0 UV-I 0 W/m² 9,0 °C 10,2 °C 16,1 km/h (3 Bft)
26.07.2017 06:03 10,2 °C 10,2 °C 92 % 1005,7 hPa 0,0 mm 12,1 km/h (2 Bft) W-SW 250 ° 0 min 0,000 mm 0,0 UV-I 0 W/m² 9,0 °C 10,2 °C 17,7 km/h (3 Bft)
26.07.2017 06:04 10,2 °C 10,2 °C 92 % 1005,8 hPa 0,0 mm 12,2 km/h (2 Bft) W 265 ° 0 min 0,000 mm 0,0 UV-I 0 W/m² 9,0 °C 10,2 °C 19,3 km/h (3 Bft)
26.07.2017 06:05 10,2 °C 10,3 °C 92 % 1005,8 hPa 0,0 mm 5,9 km/h (2 Bft) W-SW 254 ° 0 min 0,000 mm 0,0 UV-I 0 W/m² 9,0 °C 10,2 °C 9,7 km/h (2 Bft)
26.07.2017 06:06 10,2 °C 10,2 °C 92 % 1005,8 hPa 0,0 mm 15,3 km/h (3 Bft) S-SW 213 ° 0 min 0,000 mm 0,0 UV-I 0 W/m² 9,0 °C 10,2 °C 25,7 km/h (4 Bft)
26.07.2017 06:07 10,2 °C 10,3 °C 92 % 1005,8 hPa 0,0 mm 13,4 km/h (3 Bft) W-SW 248 ° 0 min 0,000 mm 0,0 UV-I 0 W/m² 9,0 °C 10,2 °C 17,7 km/h (3 Bft)
26.07.2017 06:08 10,2 °C 10,3 °C 92 % 1005,7 hPa 0,2 mm 13,5 km/h (3 Bft) W 281 ° 0 min 0,000 mm 0,0 UV-I 0 W/m² 9,0 °C 10,2 °C 24,1 km/h (4 Bft)
26.07.2017 06:09 10,2 °C 10,3 °C 92 % 1005,7 hPa 0,0 mm 11,6 km/h (2 Bft) W 273 ° 0 min 0,000 mm 0,0 UV-I 0 W/m² 9,0 °C 10,2 °C 17,7 km/h (3 Bft)
26.07.2017 06:10 10,2 °C 10,3 °C 92 % 1005,8 hPa 0,0 mm 13,9 km/h (3 Bft) W-SW 257 ° 0 min 0,000 mm 0,0 UV-I 0 W/m² 9,0 °C 10,2 °C 22,5 km/h (4 Bft)
26.07.2017 06:11 10,2 °C 10,3 °C 92 % 1005,7 hPa 0,0 mm 11,1 km/h (2 Bft) SW 226 ° 0 min 0,000 mm 0,0 UV-I 0 W/m² 9,0 °C 10,2 °C 16,1 km/h (3 Bft)
26.07.2017 06:12 10,2 °C 10,3 °C 92 % 1005,8 hPa 0,0 mm 7,6 km/h (2 Bft) W-SW 238 ° 0 min 0,000 mm 0,0 UV-I 5 W/m² 9,0 °C 10,2 °C 14,5 km/h (3 Bft)
26.07.2017 06:13 10,2 °C 10,2 °C 92 % 1005,8 hPa 0,0 mm 9,3 km/h (2 Bft) W 259 ° 0 min 0,000 mm 0,0 UV-I 5 W/m² 9,0 °C 10,2 °C 19,3 km/h (3 Bft)
26.07.2017 06:14 10,2 °C 10,2 °C 92 % 1005,8 hPa 0,0 mm 9,8 km/h (2 Bft) W 263 ° 0 min 0,000 mm 0,0 UV-I 0 W/m² 9,0 °C 10,2 °C 12,9 km/h (3 Bft)
26.07.2017 06:15 10,2 °C 10,2 °C 92 % 1005,9 hPa 0,0 mm 9,4 km/h (2 Bft) W-NW 302 ° 0 min 0,000 mm 0,0 UV-I 0 W/m² 9,0 °C 10,2 °C 14,5 km/h (3 Bft)
26.07.2017 06:16 10,2 °C 10,2 °C 92 % 1005,9 hPa 0,0 mm 10,2 km/h (2 Bft) W 262 ° 0 min 0,000 mm 0,0 UV-I 0 W/m² 9,0 °C 10,2 °C 14,5 km/h (3 Bft)
26.07.2017 06:17 10,2 °C 10,2 °C 92 % 1005,8 hPa 0,2 mm 11,3 km/h (2 Bft) W 267 ° 0 min 0,000 mm 0,0 UV-I 0 W/m² 9,0 °C 10,2 °C 17,7 km/h (3 Bft)
26.07.2017 06:18 10,2 °C 10,2 °C 92 % 1005,8 hPa 0,0 mm 12,9 km/h (3 Bft) W 271 ° 0 min 0,000 mm 0,0 UV-I 5 W/m² 9,0 °C 10,2 °C 20,9 km/h (4 Bft)
26.07.2017 06:19 10,2 °C 10,2 °C 92 % 1005,8 hPa 0,0 mm 14,8 km/h (3 Bft) W 272 ° 0 min 0,000 mm 0,0 UV-I 5 W/m² 9,0 °C 10,2 °C 24,1 km/h (4 Bft)
26.07.2017 06:20 10,2 °C 10,2 °C 92 % 1005,9 hPa 0,0 mm 8,9 km/h (2 Bft) W 266 ° 0 min 0,000 mm 0,0 UV-I 5 W/m² 9,0 °C 10,2 °C 14,5 km/h (3 Bft)
26.07.2017 06:21 10,2 °C 10,2 °C 92 % 1005,9 hPa 0,2 mm 12,9 km/h (3 Bft) W-NW 286 ° 0 min 0,000 mm 0,0 UV-I 5 W/m² 9,0 °C 10,2 °C 19,3 km/h (3 Bft)
26.07.2017 06:22 10,2 °C 10,2 °C 92 % 1005,9 hPa 0,0 mm 8,1 km/h (2 Bft) SW 229 ° 0 min 0,000 mm 0,0 UV-I 7 W/m² 9,0 °C 10,2 °C 14,5 km/h (3 Bft)
26.07.2017 06:23 10,2 °C 10,2 °C 92 % 1005,9 hPa 0,2 mm 11,7 km/h (2 Bft) W-NW 282 ° 0 min 0,000 mm 0,0 UV-I 7 W/m² 9,0 °C 10,2 °C 17,7 km/h (3 Bft)
26.07.2017 06:24 10,2 °C 10,2 °C 92 % 1005,7 hPa 0,0 mm 17,7 km/h (3 Bft) W 261 ° 0 min 0,000 mm 0,0 UV-I 7 W/m² 9,0 °C 10,2 °C 25,7 km/h (4 Bft)
26.07.2017 06:25 10,2 °C 10,2 °C 92 % 1005,7 hPa 0,2 mm 7,4 km/h (2 Bft) W 263 ° 0 min 0,000 mm 0,0 UV-I 7 W/m² 9,0 °C 10,2 °C 14,5 km/h (3 Bft)
26.07.2017 06:26 10,2 °C 10,2 °C 92 % 1005,8 hPa 0,0 mm 12,7 km/h (3 Bft) W 259 ° 0 min 0,000 mm 0,0 UV-I 7 W/m² 9,0 °C 10,2 °C 25,7 km/h (4 Bft)
26.07.2017 06:27 10,2 °C 10,2 °C 92 % 1005,9 hPa 0,0 mm 6,8 km/h (2 Bft) W 277 ° 0 min 0,000 mm 0,0 UV-I 9 W/m² 9,0 °C 10,2 °C 11,3 km/h (2 Bft)
26.07.2017 06:28 10,2 °C 10,2 °C 92 % 1005,9 hPa 0,0 mm 12,3 km/h (3 Bft) W-NW 290 ° 0 min 0,000 mm 0,0 UV-I 11 W/m² 9,0 °C 10,2 °C 19,3 km/h (3 Bft)
26.07.2017 06:29 10,1 °C 10,2 °C 92 % 1005,8 hPa 0,2 mm 8,8 km/h (2 Bft) SW 227 ° 0 min 0,000 mm 0,0 UV-I 11 W/m² 8,9 °C 10,1 °C 14,5 km/h (3 Bft)
26.07.2017 06:30 10,1 °C 10,2 °C 92 % 1005,9 hPa 0,0 mm 7,4 km/h (2 Bft) W 262 ° 0 min 0,000 mm 0,0 UV-I 12 W/m² 8,9 °C 10,1 °C 12,9 km/h (3 Bft)
26.07.2017 06:31 10,1 °C 10,1 °C 92 % 1005,9 hPa 0,0 mm 13,5 km/h (3 Bft) W 272 ° 0 min 0,000 mm 0,0 UV-I 12 W/m² 8,9 °C 10,1 °C 19,3 km/h (3 Bft)
26.07.2017 06:32 10,1 °C 10,1 °C 92 % 1005,9 hPa 0,2 mm 15,3 km/h (3 Bft) W-SW 258 ° 0 min 0,000 mm 0,0 UV-I 11 W/m² 8,9 °C 10,1 °C 20,9 km/h (4 Bft)
26.07.2017 06:33 10,1 °C 10,1 °C 92 % 1005,9 hPa 0,0 mm 12,5 km/h (3 Bft) W-SW 257 ° 0 min 0,000 mm 0,0 UV-I 11 W/m² 8,9 °C 10,1 °C 17,7 km/h (3 Bft)
26.07.2017 06:34 10,1 °C 10,1 °C 93 % 1005,8 hPa 0,0 mm 8,6 km/h (2 Bft) W-NW 299 ° 0 min 0,000 mm 0,0 UV-I 12 W/m² 9,0 °C 10,1 °C 12,9 km/h (3 Bft)
26.07.2017 06:35 10,1 °C 10,1 °C 93 % 1005,9 hPa 0,0 mm 14,9 km/h (3 Bft) W-SW 257 ° 0 min 0,000 mm 0,0 UV-I 14 W/m² 9,0 °C 10,1 °C 24,1 km/h (4 Bft)
26.07.2017 06:36 10,1 °C 10,1 °C 93 % 1005,9 hPa 0,2 mm 15,1 km/h (3 Bft) W-SW 251 ° 0 min 0,000 mm 0,0 UV-I 18 W/m² 9,0 °C 10,1 °C 19,3 km/h (3 Bft)
26.07.2017 06:37 10,1 °C 10,1 °C 93 % 1006,0 hPa 0,0 mm 8,0 km/h (2 Bft) W-SW 242 ° 0 min 0,000 mm 0,0 UV-I 18 W/m² 9,0 °C 10,1 °C 17,7 km/h (3 Bft)
26.07.2017 06:38 10,1 °C 10,1 °C 93 % 1005,9 hPa 0,2 mm 11,5 km/h (2 Bft) W-SW 252 ° 0 min 0,000 mm 0,0 UV-I 18 W/m² 9,0 °C 10,1 °C 17,7 km/h (3 Bft)
26.07.2017 06:39 10,1 °C 10,1 °C 93 % 1005,9 hPa 0,0 mm 10,7 km/h (2 Bft) W-SW 250 ° 0 min 0,000 mm 0,0 UV-I 16 W/m² 9,0 °C 10,1 °C 17,7 km/h (3 Bft)
26.07.2017 06:40 10,1 °C 10,1 °C 93 % 1006,0 hPa 0,0 mm 17,2 km/h (3 Bft) W-NW 294 ° 0 min 0,000 mm 0,0 UV-I 16 W/m² 9,0 °C 10,1 °C 25,7 km/h (4 Bft)
26.07.2017 06:41 10,1 °C 10,1 °C 93 % 1006,0 hPa 0,0 mm 12,0 km/h (2 Bft) W-NW 288 ° 0 min 0,000 mm 0,0 UV-I 16 W/m² 9,0 °C 10,1 °C 22,5 km/h (4 Bft)
26.07.2017 06:42 10,1 °C 10,1 °C 93 % 1006,0 hPa 0,2 mm 11,5 km/h (2 Bft) W-SW 248 ° 0 min 0,000 mm 0,0 UV-I 12 W/m² 9,0 °C 10,1 °C 17,7 km/h (3 Bft)
26.07.2017 06:43 10,1 °C 10,1 °C 93 % 1006,0 hPa 0,0 mm 11,1 km/h (2 Bft) W 272 ° 0 min 0,000 mm 0,0 UV-I 12 W/m² 9,0 °C 10,1 °C 17,7 km/h (3 Bft)
26.07.2017 06:44 10,1 °C 10,1 °C 93 % 1006,0 hPa 0,2 mm 11,6 km/h (2 Bft) W-SW 251 ° 0 min 0,000 mm 0,0 UV-I 11 W/m² 9,0 °C 10,1 °C 17,7 km/h (3 Bft)
26.07.2017 06:45 10,1 °C 10,1 °C 93 % 1006,0 hPa 0,0 mm 8,3 km/h (2 Bft) SW 230 ° 0 min 0,000 mm 0,0 UV-I 11 W/m² 9,0 °C 10,1 °C 16,1 km/h (3 Bft)
26.07.2017 06:46 10,1 °C 10,1 °C 93 % 1005,9 hPa 0,0 mm 14,4 km/h (3 Bft) SW 225 ° 0 min 0,000 mm 0,0 UV-I 9 W/m² 9,0 °C 10,1 °C 19,3 km/h (3 Bft)
26.07.2017 06:47 10,1 °C 10,1 °C 93 % 1006,0 hPa 0,2 mm 11,2 km/h (2 Bft) SW 233 ° 0 min 0,000 mm 0,0 UV-I 9 W/m² 9,0 °C 10,1 °C 17,7 km/h (3 Bft)
26.07.2017 06:48 10,1 °C 10,1 °C 93 % 1006,1 hPa 0,0 mm 13,8 km/h (3 Bft) W 261 ° 0 min 0,000 mm 0,0 UV-I 7 W/m² 9,0 °C 10,1 °C 22,5 km/h (4 Bft)
26.07.2017 06:49 10,1 °C 10,1 °C 93 % 1006,0 hPa 0,0 mm 13,7 km/h (3 Bft) W 263 ° 0 min 0,000 mm 0,0 UV-I 7 W/m² 9,0 °C 10,1 °C 19,3 km/h (3 Bft)
26.07.2017 06:50 10,1 °C 10,1 °C 93 % 1006,0 hPa 0,2 mm 10,3 km/h (2 Bft) W 261 ° 0 min 0,000 mm 0,0 UV-I 7 W/m² 9,0 °C 10,1 °C 12,9 km/h (3 Bft)
26.07.2017 06:51 10,1 °C 10,1 °C 92 % 1006,0 hPa 0,0 mm 14,0 km/h (3 Bft) W 279 ° 0 min 0,000 mm 0,0 UV-I 7 W/m² 8,9 °C 10,1 °C 19,3 km/h (3 Bft)
26.07.2017 06:52 10,1 °C 10,1 °C 92 % 1006,0 hPa 0,2 mm 12,0 km/h (2 Bft) W 276 ° 0 min 0,000 mm 0,0 UV-I 7 W/m² 8,9 °C 10,1 °C 20,9 km/h (4 Bft)
26.07.2017 06:53 10,1 °C 10,1 °C 92 % 1006,0 hPa 0,0 mm 13,0 km/h (3 Bft) W 265 ° 0 min 0,000 mm 0,0 UV-I 7 W/m² 8,9 °C 10,1 °C 16,1 km/h (3 Bft)
26.07.2017 06:54 10,2 °C 10,2 °C 92 % 1006,1 hPa 0,0 mm 10,7 km/h (2 Bft) W-SW 253 ° 0 min 0,000 mm 0,0 UV-I 7 W/m² 9,0 °C 10,2 °C 17,7 km/h (3 Bft)
26.07.2017 06:55 10,1 °C 10,2 °C 92 % 1006,0 hPa 0,2 mm 11,0 km/h (2 Bft) W 261 ° 0 min 0,000 mm 0,0 UV-I 9 W/m² 8,9 °C 10,1 °C 20,9 km/h (4 Bft)
26.07.2017 06:56 10,1 °C 10,1 °C 92 % 1006,1 hPa 0,0 mm 11,7 km/h (2 Bft) W-SW 257 ° 0 min 0,000 mm 0,0 UV-I 9 W/m² 8,9 °C 10,1 °C 17,7 km/h (3 Bft)
26.07.2017 06:57 10,1 °C 10,1 °C 93 % 1006,2 hPa 0,0 mm 12,9 km/h (3 Bft) W-SW 250 ° 0 min 0,000 mm 0,0 UV-I 12 W/m² 9,0 °C 10,1 °C 22,5 km/h (4 Bft)
26.07.2017 06:58 10,1 °C 10,1 °C 93 % 1006,2 hPa 0,2 mm 4,8 km/h (1 Bft) W-SW 253 ° 0 min 0,000 mm 0,0 UV-I 16 W/m² 9,0 °C 10,1 °C 9,7 km/h (2 Bft)
26.07.2017 06:59 10,1 °C 10,1 °C 93 % 1006,2 hPa 0,0 mm 9,0 km/h (2 Bft) W 261 ° 0 min 0,000 mm 0,0 UV-I 18 W/m² 9,0 °C 10,1 °C 16,1 km/h (3 Bft)
26.07.2017 07:00 10,1 °C 10,1 °C 93 % 1006,2 hPa 0,2 mm 9,2 km/h (2 Bft) W-SW 246 ° 0 min 0,000 mm 0,0 UV-I 19 W/m² 9,0 °C 10,1 °C 14,5 km/h (3 Bft)
26.07.2017 07:01 10,1 °C 10,1 °C 93 % 1006,3 hPa 0,0 mm 10,5 km/h (2 Bft) W 276 ° 0 min 0,025 mm 0,0 UV-I 21 W/m² 9,0 °C 10,1 °C 16,1 km/h (3 Bft)
26.07.2017 07:02 10,1 °C 10,1 °C 93 % 1006,3 hPa 0,0 mm 15,6 km/h (3 Bft) W 267 ° 0 min 0,000 mm 0,0 UV-I 23 W/m² 9,0 °C 10,1 °C 25,7 km/h (4 Bft)
26.07.2017 07:03 10,1 °C 10,1 °C 93 % 1006,3 hPa 0,2 mm 11,4 km/h (2 Bft) SW 226 ° 0 min 0,000 mm 0,0 UV-I 19 W/m² 9,0 °C 10,1 °C 16,1 km/h (3 Bft)
26.07.2017 07:04 10,1 °C 10,1 °C 93 % 1006,3 hPa 0,0 mm 10,8 km/h (2 Bft) W-SW 251 ° 0 min 0,000 mm 0,0 UV-I 21 W/m² 9,0 °C 10,1 °C 17,7 km/h (3 Bft)
26.07.2017 07:05 10,1 °C 10,1 °C 93 % 1006,3 hPa 0,0 mm 7,6 km/h (2 Bft) W 281 ° 0 min 0,000 mm 0,0 UV-I 23 W/m² 9,0 °C 10,1 °C 12,9 km/h (3 Bft)
26.07.2017 07:06 10,1 °C 10,1 °C 93 % 1006,3 hPa 0,2 mm 9,4 km/h (2 Bft) W 269 ° 0 min 0,000 mm 0,0 UV-I 21 W/m² 9,0 °C 10,1 °C 16,1 km/h (3 Bft)
26.07.2017 07:07 10,1 °C 10,1 °C 93 % 1006,4 hPa 0,0 mm 11,3 km/h (2 Bft) SW 229 ° 0 min 0,000 mm 0,0 UV-I 25 W/m² 9,0 °C 10,1 °C 16,1 km/h (3 Bft)
26.07.2017 07:08 10,1 °C 10,1 °C 93 % 1006,4 hPa 0,2 mm 8,0 km/h (2 Bft) W-NW 287 ° 0 min 0,000 mm 0,0 UV-I 32 W/m² 9,0 °C 10,1 °C 12,9 km/h (3 Bft)
26.07.2017 07:09 10,1 °C 10,1 °C 93 % 1006,4 hPa 0,0 mm 5,9 km/h (2 Bft) W-SW 253 ° 0 min 0,000 mm 0,0 UV-I 33 W/m² 9,0 °C 10,1 °C 12,9 km/h (3 Bft)
26.07.2017 07:10 10,1 °C 10,1 °C 93 % 1006,3 hPa 0,0 mm 6,7 km/h (2 Bft) SW 234 ° 0 min 0,000 mm 0,0 UV-I 28 W/m² 9,0 °C 10,1 °C 14,5 km/h (3 Bft)
26.07.2017 07:11 10,1 °C 10,1 °C 93 % 1006,3 hPa 0,2 mm 13,8 km/h (3 Bft) W-SW 248 ° 0 min 0,000 mm 0,0 UV-I 23 W/m² 9,0 °C 10,1 °C 19,3 km/h (3 Bft)
26.07.2017 07:12 10,1 °C 10,1 °C 93 % 1006,3 hPa 0,2 mm 10,4 km/h (2 Bft) W-SW 250 ° 0 min 0,000 mm 0,0 UV-I 21 W/m² 9,0 °C 10,1 °C 14,5 km/h (3 Bft)
26.07.2017 07:13 10,1 °C 10,1 °C 93 % 1006,3 hPa 0,0 mm 7,8 km/h (2 Bft) W-NW 285 ° 0 min 0,000 mm 0,0 UV-I 21 W/m² 9,0 °C 10,1 °C 14,5 km/h (3 Bft)
26.07.2017 07:14 10,1 °C 10,1 °C 93 % 1006,3 hPa 0,2 mm 5,6 km/h (1 Bft) W-SW 250 ° 0 min 0,000 mm 0,0 UV-I 25 W/m² 9,0 °C 10,1 °C 9,7 km/h (2 Bft)
26.07.2017 07:15 10,1 °C 10,1 °C 93 % 1006,3 hPa 0,0 mm 8,3 km/h (2 Bft) W-SW 257 ° 0 min 0,000 mm 0,0 UV-I 25 W/m² 9,0 °C 10,1 °C 16,1 km/h (3 Bft)
26.07.2017 07:16 10,1 °C 10,1 °C 93 % 1006,3 hPa 0,0 mm 9,5 km/h (2 Bft) W 279 ° 0 min 0,000 mm 0,0 UV-I 23 W/m² 9,0 °C 10,1 °C 14,5 km/h (3 Bft)
26.07.2017 07:17 10,1 °C 10,1 °C 93 % 1006,3 hPa 0,2 mm 6,0 km/h (2 Bft) W-NW 300 ° 0 min 0,000 mm 0,0 UV-I 25 W/m² 9,0 °C 10,1 °C 11,3 km/h (2 Bft)
26.07.2017 07:18 10,1 °C 10,1 °C 93 % 1006,3 hPa 0,0 mm 4,5 km/h (1 Bft) W-NW 301 ° 0 min 0,000 mm 0,0 UV-I 26 W/m² 9,0 °C 10,1 °C 6,4 km/h (2 Bft)
26.07.2017 07:19 10,1 °C 10,1 °C 93 % 1006,3 hPa 0,0 mm 5,2 km/h (1 Bft) W-SW 244 ° 0 min 0,000 mm 0,0 UV-I 23 W/m² 9,0 °C 10,1 °C 6,4 km/h (2 Bft)
26.07.2017 07:20 10,1 °C 10,1 °C 93 % 1006,2 hPa 0,2 mm 7,5 km/h (2 Bft) S-SW 207 ° 0 min 0,000 mm 0,0 UV-I 21 W/m² 9,0 °C 10,1 °C 14,5 km/h (3 Bft)
26.07.2017 07:21 10,1 °C 10,1 °C 93 % 1006,2 hPa 0,0 mm 7,3 km/h (2 Bft) W-SW 253 ° 0 min 0,000 mm 0,0 UV-I 19 W/m² 9,0 °C 10,1 °C 11,3 km/h (2 Bft)
26.07.2017 07:22 10,1 °C 10,1 °C 93 % 1006,3 hPa 0,0 mm 5,1 km/h (1 Bft) W-NW 293 ° 0 min 0,000 mm 0,0 UV-I 21 W/m² 9,0 °C 10,1 °C 11,3 km/h (2 Bft)
26.07.2017 07:23 10,1 °C 10,1 °C 93 % 1006,2 hPa 0,2 mm 2,5 km/h (1 Bft) W-SW 257 ° 0 min 0,000 mm 0,0 UV-I 23 W/m² 9,0 °C 10,1 °C 4,8 km/h (1 Bft)
26.07.2017 07:24 10,1 °C 10,1 °C 93 % 1006,3 hPa 0,0 mm 6,2 km/h (2 Bft) W-NW 285 ° 0 min 0,000 mm 0,0 UV-I 25 W/m² 9,0 °C 10,1 °C 11,3 km/h (2 Bft)
26.07.2017 07:25 10,1 °C 10,1 °C 93 % 1006,2 hPa 0,0 mm 6,4 km/h (2 Bft) W-NW 287 ° 0 min 0,000 mm 0,0 UV-I 25 W/m² 9,0 °C 10,1 °C 9,7 km/h (2 Bft)
26.07.2017 07:26 10,1 °C 10,1 °C 93 % 1006,3 hPa 0,2 mm 5,0 km/h (1 Bft) W 259 ° 0 min 0,000 mm 0,0 UV-I 26 W/m² 9,0 °C 10,1 °C 6,4 km/h (2 Bft)
26.07.2017 07:27 10,1 °C 10,1 °C 93 % 1006,3 hPa 0,0 mm 10,5 km/h (2 Bft) W 260 ° 0 min 0,000 mm 0,0 UV-I 30 W/m² 9,0 °C 10,1 °C 24,1 km/h (4 Bft)
26.07.2017 07:28 10,1 °C 10,1 °C 93 % 1006,3 hPa 0,0 mm 11,3 km/h (2 Bft) N 360 ° 0 min 0,000 mm 0,0 UV-I 35 W/m² 9,0 °C 10,1 °C 19,3 km/h (3 Bft)
26.07.2017 07:29 10,1 °C 10,1 °C 93 % 1006,3 hPa 0,0 mm 10,0 km/h (2 Bft) SW 219 ° 0 min 0,000 mm 0,0 UV-I 39 W/m² 9,0 °C 10,1 °C 14,5 km/h (3 Bft)
26.07.2017 07:30 10,1 °C 10,1 °C 93 % 1006,3 hPa 0,0 mm 7,2 km/h (2 Bft) W 263 ° 0 min 0,000 mm 0,0 UV-I 37 W/m² 9,0 °C 10,1 °C 12,9 km/h (3 Bft)
26.07.2017 07:31 10,1 °C 10,1 °C 93 % 1006,3 hPa 0,0 mm 5,8 km/h (2 Bft) W-NW 294 ° 0 min 0,000 mm 0,0 UV-I 37 W/m² 9,0 °C 10,1 °C 9,7 km/h (2 Bft)
26.07.2017 07:32 10,1 °C 10,1 °C 93 % 1006,3 hPa 0,0 mm 9,9 km/h (2 Bft) W 267 ° 0 min 0,000 mm 0,0 UV-I 35 W/m² 9,0 °C 10,1 °C 16,1 km/h (3 Bft)
26.07.2017 07:33 10,1 °C 10,2 °C 93 % 1006,3 hPa 0,2 mm 7,6 km/h (2 Bft) W-NW 284 ° 0 min 0,000 mm 0,0 UV-I 33 W/m² 9,0 °C 10,1 °C 14,5 km/h (3 Bft)
26.07.2017 07:34 10,2 °C 10,2 °C 93 % 1006,3 hPa 0,0 mm 9,3 km/h (2 Bft) W-SW 257 ° 0 min 0,000 mm 0,0 UV-I 30 W/m² 9,1 °C 10,2 °C 19,3 km/h (3 Bft)
26.07.2017 07:35 10,2 °C 10,2 °C 93 % 1006,3 hPa 0,0 mm 7,5 km/h (2 Bft) NW 304 ° 0 min 0,000 mm 0,0 UV-I 32 W/m² 9,1 °C 10,2 °C 12,9 km/h (3 Bft)
26.07.2017 07:36 10,1 °C 10,2 °C 93 % 1006,3 hPa 0,0 mm 7,1 km/h (2 Bft) W-SW 251 ° 0 min 0,000 mm 0,0 UV-I 28 W/m² 9,0 °C 10,1 °C 11,3 km/h (2 Bft)
26.07.2017 07:37 10,1 °C 10,2 °C 93 % 1006,3 hPa 0,2 mm 11,7 km/h (2 Bft) W-NW 284 ° 0 min 0,000 mm 0,0 UV-I 30 W/m² 9,0 °C 10,1 °C 19,3 km/h (3 Bft)
26.07.2017 07:38 10,1 °C 10,1 °C 93 % 1006,2 hPa 0,0 mm 13,5 km/h (3 Bft) W-SW 257 ° 0 min 0,000 mm 0,0 UV-I 30 W/m² 9,0 °C 10,1 °C 22,5 km/h (4 Bft)
26.07.2017 07:39 10,1 °C 10,1 °C 93 % 1006,2 hPa 0,0 mm 9,9 km/h (2 Bft) W-SW 241 ° 0 min 0,000 mm 0,0 UV-I 26 W/m² 9,0 °C 10,1 °C 17,7 km/h (3 Bft)
26.07.2017 07:40 10,1 °C 10,1 °C 93 % 1006,3 hPa 0,0 mm 11,1 km/h (2 Bft) W-SW 257 ° 0 min 0,000 mm 0,0 UV-I 30 W/m² 9,0 °C 10,1 °C 19,3 km/h (3 Bft)
26.07.2017 07:41 10,1 °C 10,1 °C 93 % 1006,2 hPa 0,2 mm 13,2 km/h (3 Bft) W 262 ° 0 min 0,000 mm 0,0 UV-I 30 W/m² 9,0 °C 10,1 °C 14,5 km/h (3 Bft)
26.07.2017 07:42 10,1 °C 10,1 °C 93 % 1006,2 hPa 0,0 mm 9,9 km/h (2 Bft) W-NW 298 ° 0 min 0,000 mm 0,0 UV-I 28 W/m² 9,0 °C 10,1 °C 14,5 km/h (3 Bft)
26.07.2017 07:43 10,1 °C 10,1 °C 93 % 1006,2 hPa 0,0 mm 9,7 km/h (2 Bft) W 262 ° 0 min 0,000 mm 0,0 UV-I 30 W/m² 9,0 °C 10,1 °C 14,5 km/h (3 Bft)
26.07.2017 07:44 10,1 °C 10,2 °C 93 % 1006,3 hPa 0,0 mm 8,6 km/h (2 Bft) W-SW 255 ° 0 min 0,000 mm 0,0 UV-I 35 W/m² 9,0 °C 10,1 °C 12,9 km/h (3 Bft)
26.07.2017 07:45 10,1 °C 10,1 °C 93 % 1006,3 hPa 0,2 mm 9,9 km/h (2 Bft) W 270 ° 0 min 0,000 mm 0,0 UV-I 37 W/m² 9,0 °C 10,1 °C 12,9 km/h (3 Bft)
26.07.2017 07:46 10,1 °C 10,1 °C 93 % 1006,3 hPa 0,0 mm 5,2 km/h (1 Bft) W 264 ° 0 min 0,000 mm 0,0 UV-I 37 W/m² 9,0 °C 10,1 °C 11,3 km/h (2 Bft)
26.07.2017 07:47 10,1 °C 10,1 °C 93 % 1006,3 hPa 0,0 mm 13,7 km/h (3 Bft) W-SW 255 ° 0 min 0,000 mm 0,0 UV-I 33 W/m² 9,0 °C 10,1 °C 19,3 km/h (3 Bft)
26.07.2017 07:48 10,1 °C 10,1 °C 93 % 1006,3 hPa 0,0 mm 7,3 km/h (2 Bft) NW 311 ° 0 min 0,000 mm 0,0 UV-I 33 W/m² 9,0 °C 10,1 °C 11,3 km/h (2 Bft)
26.07.2017 07:49 10,1 °C 10,1 °C 93 % 1006,3 hPa 0,2 mm 12,4 km/h (3 Bft) W-SW 254 ° 0 min 0,000 mm 0,0 UV-I 37 W/m² 9,0 °C 10,1 °C 20,9 km/h (4 Bft)
26.07.2017 07:50 10,1 °C 10,1 °C 93 % 1006,2 hPa 0,0 mm 8,2 km/h (2 Bft) W 273 ° 0 min 0,000 mm 0,0 UV-I 40 W/m² 9,0 °C 10,1 °C 12,9 km/h (3 Bft)
26.07.2017 07:51 10,1 °C 10,1 °C 93 % 1006,2 hPa 0,0 mm 8,0 km/h (2 Bft) SW 225 ° 0 min 0,000 mm 0,0 UV-I 40 W/m² 9,0 °C 10,1 °C 16,1 km/h (3 Bft)
26.07.2017 07:52 10,1 °C 10,1 °C 93 % 1006,2 hPa 0,0 mm 4,3 km/h (1 Bft) S-SW 194 ° 0 min 0,000 mm 0,0 UV-I 37 W/m² 9,0 °C 10,1 °C 11,3 km/h (2 Bft)
26.07.2017 07:53 10,1 °C 10,1 °C 93 % 1006,1 hPa 0,0 mm 5,9 km/h (2 Bft) W 263 ° 0 min 0,000 mm 0,0 UV-I 30 W/m² 9,0 °C 10,1 °C 12,9 km/h (3 Bft)
26.07.2017 07:54 10,1 °C 10,1 °C 93 % 1006,1 hPa 0,0 mm 14,8 km/h (3 Bft) W-NW 288 ° 0 min 0,000 mm 0,0 UV-I 30 W/m² 9,0 °C 10,1 °C 22,5 km/h (4 Bft)
26.07.2017 07:55 10,1 °C 10,1 °C 93 % 1006,3 hPa 0,2 mm 12,8 km/h (3 Bft) W-SW 250 ° 0 min 0,000 mm 0,0 UV-I 35 W/m² 9,0 °C 10,1 °C 29,0 km/h (5 Bft)
26.07.2017 07:56 10,1 °C 10,1 °C 93 % 1006,3 hPa 0,0 mm 13,1 km/h (3 Bft) W-SW 247 ° 0 min 0,000 mm 0,0 UV-I 32 W/m² 9,0 °C 10,1 °C 22,5 km/h (4 Bft)
26.07.2017 07:57 10,1 °C 10,1 °C 93 % 1006,2 hPa 0,0 mm 10,6 km/h (2 Bft) W 269 ° 0 min 0,000 mm 0,0 UV-I 26 W/m² 9,0 °C 10,1 °C 16,1 km/h (3 Bft)
26.07.2017 07:58 10,1 °C 10,1 °C 93 % 1006,2 hPa 0,0 mm 9,3 km/h (2 Bft) SW 233 ° 0 min 0,000 mm 0,0 UV-I 30 W/m² 9,0 °C 10,1 °C 17,7 km/h (3 Bft)
26.07.2017 07:59 10,1 °C 10,1 °C 93 % 1006,2 hPa 0,0 mm 7,6 km/h (2 Bft) W-SW 246 ° 0 min 0,000 mm 0,0 UV-I 33 W/m² 9,0 °C 10,1 °C 14,5 km/h (3 Bft)
26.07.2017 08:00 10,1 °C 10,1 °C 93 % 1006,2 hPa 0,2 mm 8,1 km/h (2 Bft) W 269 ° 0 min 0,000 mm 0,0 UV-I 35 W/m² 9,0 °C 10,1 °C 19,3 km/h (3 Bft)
26.07.2017 08:01 10,1 °C 10,1 °C 93 % 1006,2 hPa 0,0 mm 5,9 km/h (2 Bft) S-SW 209 ° 0 min 0,025 mm 0,0 UV-I 33 W/m² 9,0 °C 10,1 °C 14,5 km/h (3 Bft)
26.07.2017 08:02 10,1 °C 10,1 °C 93 % 1006,2 hPa 0,0 mm 7,1 km/h (2 Bft) W-SW 249 ° 0 min 0,000 mm 0,0 UV-I 35 W/m² 9,0 °C 10,1 °C 22,5 km/h (4 Bft)
26.07.2017 08:03 10,1 °C 10,1 °C 93 % 1006,1 hPa 0,0 mm 13,1 km/h (3 Bft) W 264 ° 0 min 0,000 mm 0,0 UV-I 37 W/m² 9,0 °C 10,1 °C 19,3 km/h (3 Bft)
26.07.2017 08:04 10,1 °C 10,1 °C 93 % 1006,2 hPa 0,2 mm 5,6 km/h (1 Bft) W-SW 242 ° 0 min 0,000 mm 0,0 UV-I 44 W/m² 9,0 °C 10,1 °C 14,5 km/h (3 Bft)
26.07.2017 08:05 10,1 °C 10,1 °C 93 % 1006,2 hPa 0,0 mm 7,3 km/h (2 Bft) W 259 ° 0 min 0,000 mm 0,0 UV-I 46 W/m² 9,0 °C 10,1 °C 12,9 km/h (3 Bft)
26.07.2017 08:06 10,1 °C 10,1 °C 93 % 1006,2 hPa 0,0 mm 5,9 km/h (2 Bft) W 271 ° 0 min 0,000 mm 0,0 UV-I 46 W/m² 9,0 °C 10,1 °C 12,9 km/h (3 Bft)
26.07.2017 08:07 10,1 °C 10,1 °C 93 % 1006,3 hPa 0,0 mm 9,9 km/h (2 Bft) W 279 ° 0 min 0,000 mm 0,0 UV-I 49 W/m² 9,0 °C 10,1 °C 14,5 km/h (3 Bft)
26.07.2017 08:08 10,1 °C 10,1 °C 93 % 1006,3 hPa 0,2 mm 10,5 km/h (2 Bft) W-NW 282 ° 0 min 0,000 mm 0,0 UV-I 47 W/m² 9,0 °C 10,1 °C 16,1 km/h (3 Bft)
26.07.2017 08:09 10,1 °C 10,1 °C 93 % 1006,3 hPa 0,0 mm 12,4 km/h (3 Bft) W 269 ° 0 min 0,000 mm 0,0 UV-I 47 W/m² 9,0 °C 10,1 °C 20,9 km/h (4 Bft)
26.07.2017 08:10 10,1 °C 10,2 °C 93 % 1006,3 hPa 0,0 mm 9,8 km/h (2 Bft) W-SW 248 ° 0 min 0,000 mm 0,0 UV-I 42 W/m² 9,0 °C 10,1 °C 20,9 km/h (4 Bft)
26.07.2017 08:11 10,2 °C 10,2 °C 93 % 1006,4 hPa 0,2 mm 9,0 km/h (2 Bft) W 261 ° 0 min 0,000 mm 0,0 UV-I 42 W/m² 9,1 °C 10,2 °C 16,1 km/h (3 Bft)
26.07.2017 08:12 10,2 °C 10,2 °C 93 % 1006,5 hPa 0,0 mm 13,4 km/h (3 Bft) W 261 ° 0 min 0,000 mm 0,0 UV-I 40 W/m² 9,1 °C 10,2 °C 17,7 km/h (3 Bft)
26.07.2017 08:13 10,2 °C 10,2 °C 93 % 1006,4 hPa 0,2 mm 14,3 km/h (3 Bft) W 279 ° 0 min 0,000 mm 0,0 UV-I 40 W/m² 9,1 °C 10,2 °C 24,1 km/h (4 Bft)
26.07.2017 08:14 10,1 °C 10,2 °C 93 % 1006,4 hPa 0,0 mm 11,6 km/h (2 Bft) W 265 ° 0 min 0,000 mm 0,0 UV-I 40 W/m² 9,0 °C 10,1 °C 14,5 km/h (3 Bft)
26.07.2017 08:15 10,2 °C 10,2 °C 93 % 1006,5 hPa 0,0 mm 7,3 km/h (2 Bft) W-NW 282 ° 0 min 0,000 mm 0,0 UV-I 37 W/m² 9,1 °C 10,2 °C 19,3 km/h (3 Bft)
26.07.2017 08:16 10,2 °C 10,2 °C 93 % 1006,5 hPa 0,2 mm 9,4 km/h (2 Bft) W 263 ° 0 min 0,000 mm 0,0 UV-I 35 W/m² 9,1 °C 10,2 °C 16,1 km/h (3 Bft)
26.07.2017 08:17 10,1 °C 10,2 °C 93 % 1006,6 hPa 0,2 mm 9,4 km/h (2 Bft) W-SW 244 ° 0 min 0,000 mm 0,0 UV-I 32 W/m² 9,0 °C 10,1 °C 16,1 km/h (3 Bft)
26.07.2017 08:18 10,1 °C 10,2 °C 93 % 1006,6 hPa 0,0 mm 14,0 km/h (3 Bft) W-NW 292 ° 0 min 0,000 mm 0,0 UV-I 37 W/m² 9,0 °C 10,1 °C 19,3 km/h (3 Bft)
26.07.2017 08:19 10,1 °C 10,1 °C 93 % 1006,6 hPa 0,0 mm 8,3 km/h (2 Bft) W 268 ° 0 min 0,000 mm 0,0 UV-I 39 W/m² 9,0 °C 10,1 °C 9,7 km/h (2 Bft)
26.07.2017 08:20 10,1 °C 10,2 °C 93 % 1006,6 hPa 0,2 mm 9,9 km/h (2 Bft) W-SW 249 ° 0 min 0,000 mm 0,0 UV-I 39 W/m² 9,0 °C 10,1 °C 19,3 km/h (3 Bft)
26.07.2017 08:21 10,1 °C 10,1 °C 93 % 1006,6 hPa 0,0 mm 8,8 km/h (2 Bft) SW 229 ° 0 min 0,000 mm 0,0 UV-I 35 W/m² 9,0 °C 10,1 °C 14,5 km/h (3 Bft)
26.07.2017 08:22 10,1 °C 10,1 °C 93 % 1006,6 hPa 0,0 mm 11,1 km/h (2 Bft) W-SW 254 ° 0 min 0,000 mm 0,0 UV-I 28 W/m² 9,0 °C 10,1 °C 16,1 km/h (3 Bft)
26.07.2017 08:23 10,1 °C 10,1 °C 93 % 1006,6 hPa 0,2 mm 14,6 km/h (3 Bft) W 262 ° 0 min 0,000 mm 0,0 UV-I 23 W/m² 9,0 °C 10,1 °C 22,5 km/h (4 Bft)
26.07.2017 08:24 10,1 °C 10,1 °C 93 % 1006,6 hPa 0,2 mm 5,2 km/h (1 Bft) W-NW 289 ° 0 min 0,000 mm 0,0 UV-I 21 W/m² 9,0 °C 10,1 °C 19,3 km/h (3 Bft)
26.07.2017 08:25 10,1 °C 10,1 °C 93 % 1006,6 hPa 0,2 mm 7,2 km/h (2 Bft) W-SW 242 ° 0 min 0,000 mm 0,0 UV-I 26 W/m² 9,0 °C 10,1 °C 12,9 km/h (3 Bft)
26.07.2017 08:26 10,1 °C 10,1 °C 93 % 1006,6 hPa 0,0 mm 12,3 km/h (3 Bft) W 281 ° 0 min 0,000 mm 0,0 UV-I 26 W/m² 9,0 °C 10,1 °C 17,7 km/h (3 Bft)
26.07.2017 08:27 10,0 °C 10,1 °C 93 % 1006,7 hPa 0,2 mm 11,3 km/h (2 Bft) W-NW 291 ° 0 min 0,000 mm 0,0 UV-I 25 W/m² 8,9 °C 8,4 °C 17,7 km/h (3 Bft)
26.07.2017 08:28 10,0 °C 10,0 °C 93 % 1006,7 hPa 0,0 mm 7,4 km/h (2 Bft) W-SW 246 ° 0 min 0,000 mm 0,0 UV-I 25 W/m² 8,9 °C 9,1 °C 11,3 km/h (2 Bft)
26.07.2017 08:29 10,0 °C 10,0 °C 93 % 1006,6 hPa 0,2 mm 10,7 km/h (2 Bft) W 262 ° 0 min 0,000 mm 0,0 UV-I 21 W/m² 8,9 °C 8,5 °C 14,5 km/h (3 Bft)
26.07.2017 08:30 10,0 °C 10,0 °C 93 % 1006,7 hPa 0,0 mm 4,9 km/h (1 Bft) W-NW 302 ° 0 min 0,000 mm 0,0 UV-I 23 W/m² 8,9 °C 9,8 °C 9,7 km/h (2 Bft)
26.07.2017 08:31 9,9 °C 10,0 °C 93 % 1006,7 hPa 0,0 mm 7,0 km/h (2 Bft) W-NW 294 ° 0 min 0,000 mm 0,0 UV-I 21 W/m² 8,8 °C 9,1 °C 14,5 km/h (3 Bft)
26.07.2017 08:32 9,9 °C 9,9 °C 93 % 1006,7 hPa 0,2 mm 7,6 km/h (2 Bft) W 261 ° 0 min 0,000 mm 0,0 UV-I 19 W/m² 8,8 °C 9,0 °C 12,9 km/h (3 Bft)
26.07.2017 08:33 9,9 °C 9,9 °C 93 % 1006,8 hPa 0,2 mm 10,3 km/h (2 Bft) W 269 ° 0 min 0,000 mm 0,0 UV-I 19 W/m² 8,8 °C 8,5 °C 14,5 km/h (3 Bft)
26.07.2017 08:34 9,9 °C 9,9 °C 93 % 1006,8 hPa 0,0 mm 8,2 km/h (2 Bft) SW 236 ° 0 min 0,000 mm 0,0 UV-I 21 W/m² 8,8 °C 8,8 °C 16,1 km/h (3 Bft)
26.07.2017 08:35 9,9 °C 9,9 °C 93 % 1006,8 hPa 0,2 mm 10,3 km/h (2 Bft) W 275 ° 0 min 0,000 mm 0,0 UV-I 19 W/m² 8,8 °C 8,5 °C 17,7 km/h (3 Bft)
26.07.2017 08:36 9,9 °C 9,9 °C 93 % 1006,9 hPa 0,0 mm 13,3 km/h (3 Bft) NW 309 ° 0 min 0,000 mm 0,0 UV-I 19 W/m² 8,8 °C 8,0 °C 17,7 km/h (3 Bft)
26.07.2017 08:37 9,9 °C 9,9 °C 93 % 1006,8 hPa 0,2 mm 11,9 km/h (2 Bft) W-SW 255 ° 0 min 0,000 mm 0,0 UV-I 23 W/m² 8,8 °C 8,2 °C 16,1 km/h (3 Bft)
26.07.2017 08:38 9,9 °C 9,9 °C 93 % 1006,7 hPa 0,2 mm 9,9 km/h (2 Bft) W-SW 244 ° 0 min 0,000 mm 0,0 UV-I 25 W/m² 8,8 °C 8,5 °C 19,3 km/h (3 Bft)
26.07.2017 08:39 9,8 °C 9,9 °C 93 % 1006,8 hPa 0,0 mm 9,1 km/h (2 Bft) W 262 ° 0 min 0,000 mm 0,0 UV-I 26 W/m² 8,7 °C 8,6 °C 19,3 km/h (3 Bft)
26.07.2017 08:40 9,8 °C 9,8 °C 93 % 1006,8 hPa 0,2 mm 13,7 km/h (3 Bft) W 274 ° 0 min 0,000 mm 0,0 UV-I 28 W/m² 8,7 °C 7,8 °C 20,9 km/h (4 Bft)
26.07.2017 08:41 9,9 °C 9,9 °C 93 % 1006,7 hPa 0,0 mm 13,4 km/h (3 Bft) W 270 ° 0 min 0,000 mm 0,0 UV-I 30 W/m² 8,8 °C 8,0 °C 20,9 km/h (4 Bft)
26.07.2017 08:42 9,9 °C 9,9 °C 93 % 1006,7 hPa 0,0 mm 14,8 km/h (3 Bft) N-NW 327 ° 0 min 0,000 mm 0,0 UV-I 28 W/m² 8,8 °C 7,8 °C 25,7 km/h (4 Bft)
26.07.2017 08:43 9,9 °C 9,9 °C 93 % 1006,7 hPa 0,2 mm 10,2 km/h (2 Bft) W-NW 284 ° 0 min 0,000 mm 0,0 UV-I 25 W/m² 8,8 °C 8,5 °C 16,1 km/h (3 Bft)
26.07.2017 08:44 9,9 °C 9,9 °C 93 % 1006,8 hPa 0,0 mm 9,4 km/h (2 Bft) W-SW 256 ° 0 min 0,000 mm 0,0 UV-I 25 W/m² 8,8 °C 8,6 °C 14,5 km/h (3 Bft)
26.07.2017 08:45 9,9 °C 9,9 °C 93 % 1006,8 hPa 0,0 mm 7,0 km/h (2 Bft) W 278 ° 0 min 0,000 mm 0,0 UV-I 19 W/m² 8,8 °C 9,1 °C 12,9 km/h (3 Bft)
26.07.2017 08:46 9,9 °C 9,9 °C 93 % 1006,8 hPa 0,2 mm 6,8 km/h (2 Bft) W 270 ° 0 min 0,000 mm 0,0 UV-I 19 W/m² 8,8 °C 9,2 °C 12,9 km/h (3 Bft)
26.07.2017 08:47 9,8 °C 9,9 °C 93 % 1006,8 hPa 0,0 mm 7,6 km/h (2 Bft) W 262 ° 0 min 0,000 mm 0,0 UV-I 19 W/m² 8,7 °C 8,9 °C 14,5 km/h (3 Bft)
26.07.2017 08:48 9,9 °C 9,9 °C 93 % 1006,8 hPa 0,2 mm 10,5 km/h (2 Bft) W 278 ° 0 min 0,000 mm 0,0 UV-I 19 W/m² 8,8 °C 8,4 °C 16,1 km/h (3 Bft)
26.07.2017 08:49 9,8 °C 9,9 °C 93 % 1006,8 hPa 0,0 mm 6,9 km/h (2 Bft) W 267 ° 0 min 0,000 mm 0,0 UV-I 19 W/m² 8,7 °C 9,0 °C 11,3 km/h (2 Bft)
26.07.2017 08:50 9,8 °C 9,8 °C 93 % 1006,8 hPa 0,2 mm 5,7 km/h (1 Bft) W-SW 237 ° 0 min 0,000 mm 0,0 UV-I 19 W/m² 8,7 °C 9,3 °C 14,5 km/h (3 Bft)
26.07.2017 08:51 9,8 °C 9,8 °C 93 % 1006,8 hPa 0,0 mm 6,8 km/h (2 Bft) W-SW 248 ° 0 min 0,000 mm 0,0 UV-I 19 W/m² 8,7 °C 9,0 °C 11,3 km/h (2 Bft)
26.07.2017 08:52 9,8 °C 9,9 °C 93 % 1006,7 hPa 0,0 mm 9,2 km/h (2 Bft) W-SW 246 ° 0 min 0,000 mm 0,0 UV-I 18 W/m² 8,7 °C 8,5 °C 14,5 km/h (3 Bft)
26.07.2017 08:53 9,8 °C 9,9 °C 93 % 1006,7 hPa 0,2 mm 9,3 km/h (2 Bft) W-NW 298 ° 0 min 0,000 mm 0,0 UV-I 19 W/m² 8,7 °C 8,5 °C 12,9 km/h (3 Bft)
26.07.2017 08:54 9,8 °C 9,9 °C 93 % 1006,8 hPa 0,0 mm 9,4 km/h (2 Bft) W 264 ° 0 min 0,000 mm 0,0 UV-I 21 W/m² 8,7 °C 8,5 °C 16,1 km/h (3 Bft)
26.07.2017 08:55 9,8 °C 9,9 °C 93 % 1006,8 hPa 0,2 mm 8,1 km/h (2 Bft) W 267 ° 0 min 0,000 mm 0,0 UV-I 21 W/m² 8,7 °C 8,8 °C 11,3 km/h (2 Bft)
26.07.2017 08:56 9,8 °C 9,9 °C 93 % 1006,7 hPa 0,0 mm 10,2 km/h (2 Bft) W-SW 246 ° 0 min 0,000 mm 0,0 UV-I 21 W/m² 8,7 °C 8,4 °C 16,1 km/h (3 Bft)
26.07.2017 08:57 9,8 °C 9,9 °C 93 % 1006,8 hPa 0,2 mm 7,9 km/h (2 Bft) W 277 ° 0 min 0,000 mm 0,0 UV-I 19 W/m² 8,7 °C 8,8 °C 12,9 km/h (3 Bft)
26.07.2017 08:58 9,8 °C 9,9 °C 93 % 1006,7 hPa 0,0 mm 6,4 km/h (2 Bft) S-SO 158 ° 0 min 0,000 mm 0,0 UV-I 19 W/m² 8,7 °C 9,1 °C 11,3 km/h (2 Bft)
26.07.2017 08:59 9,9 °C 9,9 °C 93 % 1006,8 hPa 0,2 mm 15,3 km/h (3 Bft) W-NW 300 ° 0 min 0,000 mm 0,0 UV-I 21 W/m² 8,8 °C 7,8 °C 17,7 km/h (3 Bft)
26.07.2017 09:00 9,9 °C 9,9 °C 93 % 1006,8 hPa 0,0 mm 11,1 km/h (2 Bft) W 259 ° 0 min 0,026 mm 0,0 UV-I 19 W/m² 8,8 °C 8,3 °C 17,7 km/h (3 Bft)
26.07.2017 09:01 9,9 °C 9,9 °C 93 % 1006,8 hPa 0,2 mm 11,6 km/h (2 Bft) W 265 ° 0 min 0,000 mm 0,0 UV-I 19 W/m² 8,8 °C 8,3 °C 14,5 km/h (3 Bft)
26.07.2017 09:02 9,9 °C 9,9 °C 93 % 1007,0 hPa 0,0 mm 7,0 km/h (2 Bft) W-SW 257 ° 0 min 0,000 mm 0,0 UV-I 19 W/m² 8,8 °C 9,1 °C 12,9 km/h (3 Bft)
26.07.2017 09:03 9,9 °C 9,9 °C 93 % 1007,0 hPa 0,2 mm 5,6 km/h (1 Bft) W 274 ° 0 min 0,000 mm 0,0 UV-I 19 W/m² 8,8 °C 9,5 °C 6,4 km/h (2 Bft)
26.07.2017 09:04 9,9 °C 9,9 °C 93 % 1006,9 hPa 0,2 mm 7,0 km/h (2 Bft) W 277 ° 0 min 0,000 mm 0,0 UV-I 23 W/m² 8,8 °C 9,1 °C 11,3 km/h (2 Bft)
26.07.2017 09:05 9,8 °C 9,9 °C 94 % 1006,9 hPa 0,0 mm 10,3 km/h (2 Bft) NW 312 ° 0 min 0,000 mm 0,0 UV-I 25 W/m² 8,9 °C 8,3 °C 16,1 km/h (3 Bft)
26.07.2017 09:06 9,9 °C 9,9 °C 94 % 1007,0 hPa 0,2 mm 5,2 km/h (1 Bft) W 275 ° 0 min 0,000 mm 0,0 UV-I 28 W/m² 9,0 °C 9,6 °C 14,5 km/h (3 Bft)
26.07.2017 09:07 9,8 °C 9,9 °C 94 % 1007,0 hPa 0,0 mm 11,5 km/h (2 Bft) W 278 ° 0 min 0,000 mm 0,0 UV-I 32 W/m² 8,9 °C 8,1 °C 17,7 km/h (3 Bft)
26.07.2017 09:08 9,9 °C 9,9 °C 94 % 1006,9 hPa 0,2 mm 8,7 km/h (2 Bft) W-SW 252 ° 0 min 0,000 mm 0,0 UV-I 32 W/m² 9,0 °C 8,7 °C 12,9 km/h (3 Bft)
26.07.2017 09:09 9,9 °C 9,9 °C 94 % 1007,0 hPa 0,0 mm 5,8 km/h (2 Bft) W 266 ° 0 min 0,000 mm 0,0 UV-I 33 W/m² 9,0 °C 9,4 °C 11,3 km/h (2 Bft)
26.07.2017 09:10 9,9 °C 9,9 °C 94 % 1006,9 hPa 0,0 mm 11,7 km/h (2 Bft) W 267 ° 0 min 0,000 mm 0,0 UV-I 33 W/m² 9,0 °C 8,2 °C 20,9 km/h (4 Bft)
26.07.2017 09:11 9,9 °C 9,9 °C 94 % 1006,9 hPa 0,2 mm 12,4 km/h (3 Bft) SW 235 ° 0 min 0,000 mm 0,0 UV-I 39 W/m² 9,0 °C 8,1 °C 19,3 km/h (3 Bft)
26.07.2017 09:12 9,9 °C 9,9 °C 94 % 1007,0 hPa 0,0 mm 7,5 km/h (2 Bft) W 278 ° 0 min 0,000 mm 0,0 UV-I 39 W/m² 9,0 °C 9,0 °C 11,3 km/h (2 Bft)
26.07.2017 09:13 9,9 °C 9,9 °C 94 % 1006,9 hPa 0,2 mm 8,8 km/h (2 Bft) W-NW 296 ° 0 min 0,000 mm 0,0 UV-I 35 W/m² 9,0 °C 8,7 °C 16,1 km/h (3 Bft)
26.07.2017 09:14 9,9 °C 9,9 °C 94 % 1007,0 hPa 0,0 mm 9,6 km/h (2 Bft) W 265 ° 0 min 0,000 mm 0,0 UV-I 33 W/m² 9,0 °C 8,6 °C 16,1 km/h (3 Bft)
26.07.2017 09:15 9,9 °C 9,9 °C 94 % 1007,1 hPa 0,2 mm 11,7 km/h (2 Bft) W 261 ° 0 min 0,000 mm 0,0 UV-I 44 W/m² 9,0 °C 8,2 °C 16,1 km/h (3 Bft)
26.07.2017 09:16 9,9 °C 9,9 °C 94 % 1007,0 hPa 0,0 mm 7,3 km/h (2 Bft) W 264 ° 0 min 0,000 mm 0,0 UV-I 40 W/m² 9,0 °C 9,0 °C 11,3 km/h (2 Bft)
26.07.2017 09:17 9,9 °C 9,9 °C 94 % 1007,1 hPa 0,2 mm 7,6 km/h (2 Bft) W-NW 303 ° 0 min 0,000 mm 0,0 UV-I 35 W/m² 9,0 °C 9,0 °C 20,9 km/h (4 Bft)
26.07.2017 09:18 9,9 °C 10,0 °C 94 % 1007,1 hPa 0,0 mm 9,3 km/h (2 Bft) W-NW 287 ° 0 min 0,000 mm 0,0 UV-I 37 W/m² 9,0 °C 8,6 °C 14,5 km/h (3 Bft)
26.07.2017 09:19 9,9 °C 9,9 °C 94 % 1007,2 hPa 0,2 mm 8,4 km/h (2 Bft) W-SW 247 ° 0 min 0,000 mm 0,0 UV-I 39 W/m² 9,0 °C 8,8 °C 14,5 km/h (3 Bft)
26.07.2017 09:20 10,0 °C 10,0 °C 94 % 1007,2 hPa 0,0 mm 10,5 km/h (2 Bft) W-NW 284 ° 0 min 0,000 mm 0,0 UV-I 54 W/m² 9,1 °C 8,5 °C 14,5 km/h (3 Bft)
26.07.2017 09:21 10,0 °C 10,0 °C 94 % 1007,2 hPa 0,0 mm 9,6 km/h (2 Bft) W-SW 240 ° 0 min 0,000 mm 0,0 UV-I 49 W/m² 9,1 °C 8,7 °C 16,1 km/h (3 Bft)
26.07.2017 09:22 9,9 °C 10,0 °C 94 % 1007,1 hPa 0,2 mm 4,6 km/h (1 Bft) W-SW 244 ° 0 min 0,000 mm 0,0 UV-I 51 W/m² 9,0 °C 9,8 °C 6,4 km/h (2 Bft)
26.07.2017 09:23 9,9 °C 10,0 °C 94 % 1007,2 hPa 0,0 mm 6,9 km/h (2 Bft) W-SW 254 ° 0 min 0,000 mm 0,0 UV-I 44 W/m² 9,0 °C 9,1 °C 12,9 km/h (3 Bft)
26.07.2017 09:24 9,9 °C 10,0 °C 94 % 1007,1 hPa 0,2 mm 14,4 km/h (3 Bft) W 280 ° 0 min 0,000 mm 0,0 UV-I 35 W/m² 9,0 °C 7,9 °C 24,1 km/h (4 Bft)
26.07.2017 09:25 10,0 °C 10,0 °C 94 % 1007,2 hPa 0,2 mm 15,0 km/h (3 Bft) SW 234 ° 0 min 0,000 mm 0,0 UV-I 40 W/m² 9,1 °C 7,9 °C 30,6 km/h (5 Bft)
26.07.2017 09:26 10,0 °C 10,0 °C 94 % 1007,2 hPa 0,0 mm 14,1 km/h (3 Bft) W 269 ° 0 min 0,000 mm 0,0 UV-I 30 W/m² 9,1 °C 8,0 °C 24,1 km/h (4 Bft)
26.07.2017 09:27 10,0 °C 10,0 °C 94 % 1007,3 hPa 0,2 mm 12,9 km/h (3 Bft) W-NW 286 ° 0 min 0,000 mm 0,0 UV-I 26 W/m² 9,1 °C 8,2 °C 20,9 km/h (4 Bft)
26.07.2017 09:28 10,0 °C 10,0 °C 94 % 1007,1 hPa 0,2 mm 9,5 km/h (2 Bft) W-NW 290 ° 0 min 0,000 mm 0,0 UV-I 32 W/m² 9,1 °C 8,7 °C 22,5 km/h (4 Bft)
26.07.2017 09:29 10,0 °C 10,1 °C 93 % 1007,1 hPa 0,0 mm 13,2 km/h (3 Bft) W 277 ° 0 min 0,000 mm 0,0 UV-I 30 W/m² 8,9 °C 8,1 °C 19,3 km/h (3 Bft)
26.07.2017 09:30 10,1 °C 10,1 °C 94 % 1007,2 hPa 0,0 mm 14,4 km/h (3 Bft) NW 309 ° 0 min 0,000 mm 0,0 UV-I 25 W/m² 9,2 °C 10,1 °C 20,9 km/h (4 Bft)
26.07.2017 09:31 10,1 °C 10,1 °C 94 % 1007,2 hPa 0,2 mm 10,2 km/h (2 Bft) S-SW 196 ° 0 min 0,000 mm 0,0 UV-I 26 W/m² 9,2 °C 10,1 °C 14,5 km/h (3 Bft)
26.07.2017 09:32 10,0 °C 10,1 °C 93 % 1007,2 hPa 0,0 mm 10,9 km/h (2 Bft) S-SW 205 ° 0 min 0,000 mm 0,0 UV-I 21 W/m² 8,9 °C 8,5 °C 16,1 km/h (3 Bft)
26.07.2017 09:33 10,0 °C 10,0 °C 93 % 1007,1 hPa 0,2 mm 14,2 km/h (3 Bft) W-SW 241 ° 0 min 0,000 mm 0,0 UV-I 21 W/m² 8,9 °C 8,0 °C 22,5 km/h (4 Bft)
26.07.2017 09:34 10,0 °C 10,0 °C 93 % 1007,3 hPa 0,0 mm 14,0 km/h (3 Bft) W 265 ° 0 min 0,000 mm 0,0 UV-I 19 W/m² 8,9 °C 8,0 °C 19,3 km/h (3 Bft)
26.07.2017 09:35 10,1 °C 10,1 °C 93 % 1007,3 hPa 0,0 mm 11,1 km/h (2 Bft) W-NW 290 ° 0 min 0,000 mm 0,0 UV-I 18 W/m² 9,0 °C 10,1 °C 19,3 km/h (3 Bft)
26.07.2017 09:36 10,1 °C 10,1 °C 94 % 1007,2 hPa 0,2 mm 12,0 km/h (2 Bft) N-NW 341 ° 0 min 0,000 mm 0,0 UV-I 19 W/m² 9,2 °C 10,1 °C 19,3 km/h (3 Bft)
26.07.2017 09:37 10,1 °C 10,1 °C 94 % 1007,2 hPa 0,0 mm 9,3 km/h (2 Bft) W 265 ° 0 min 0,000 mm 0,0 UV-I 18 W/m² 9,2 °C 10,1 °C 14,5 km/h (3 Bft)
26.07.2017 09:38 10,1 °C 10,1 °C 94 % 1007,5 hPa 0,0 mm 12,6 km/h (3 Bft) NW 326 ° 0 min 0,000 mm 0,0 UV-I 21 W/m² 9,2 °C 10,1 °C 19,3 km/h (3 Bft)
26.07.2017 09:39 10,1 °C 10,1 °C 94 % 1007,5 hPa 0,2 mm 11,8 km/h (2 Bft) W-NW 295 ° 0 min 0,000 mm 0,0 UV-I 16 W/m² 9,2 °C 10,1 °C 17,7 km/h (3 Bft)
26.07.2017 09:40 10,1 °C 10,1 °C 94 % 1007,6 hPa 0,0 mm 12,0 km/h (2 Bft) W-NW 282 ° 0 min 0,000 mm 0,0 UV-I 14 W/m² 9,2 °C 10,1 °C 19,3 km/h (3 Bft)
26.07.2017 09:41 10,1 °C 10,1 °C 94 % 1007,7 hPa 0,0 mm 11,6 km/h (2 Bft) W 269 ° 0 min 0,000 mm 0,0 UV-I 14 W/m² 9,2 °C 10,1 °C 16,1 km/h (3 Bft)
26.07.2017 09:42 10,1 °C 10,1 °C 94 % 1007,7 hPa 0,2 mm 10,5 km/h (2 Bft) W-NW 296 ° 0 min 0,000 mm 0,0 UV-I 14 W/m² 9,2 °C 10,1 °C 16,1 km/h (3 Bft)
26.07.2017 09:43 10,1 °C 10,1 °C 94 % 1007,8 hPa 0,2 mm 8,2 km/h (2 Bft) W-NW 291 ° 0 min 0,000 mm 0,0 UV-I 14 W/m² 9,2 °C 10,1 °C 14,5 km/h (3 Bft)
26.07.2017 09:44 10,1 °C 10,1 °C 94 % 1007,8 hPa 0,0 mm 8,9 km/h (2 Bft) W 264 ° 0 min 0,000 mm 0,0 UV-I 19 W/m² 9,2 °C 10,1 °C 14,5 km/h (3 Bft)
26.07.2017 09:45 10,0 °C 10,1 °C 94 % 1007,8 hPa 0,2 mm 9,4 km/h (2 Bft) W-NW 291 ° 0 min 0,000 mm 0,0 UV-I 23 W/m² 9,1 °C 8,7 °C 14,5 km/h (3 Bft)
26.07.2017 09:46 10,1 °C 10,1 °C 94 % 1007,8 hPa 0,0 mm 10,9 km/h (2 Bft) W 269 ° 0 min 0,000 mm 0,0 UV-I 26 W/m² 9,2 °C 10,1 °C 16,1 km/h (3 Bft)
26.07.2017 09:47 10,0 °C 10,1 °C 93 % 1007,8 hPa 0,0 mm 11,8 km/h (2 Bft) W 279 ° 0 min 0,000 mm 0,0 UV-I 32 W/m² 8,9 °C 8,3 °C 17,7 km/h (3 Bft)
26.07.2017 09:48 10,0 °C 10,0 °C 93 % 1007,8 hPa 0,0 mm 15,0 km/h (3 Bft) W 275 ° 0 min 0,000 mm 0,0 UV-I 32 W/m² 8,9 °C 7,9 °C 20,9 km/h (4 Bft)
26.07.2017 09:49 10,0 °C 10,0 °C 94 % 1007,7 hPa 0,2 mm 9,3 km/h (2 Bft) SW 236 ° 0 min 0,000 mm 0,0 UV-I 28 W/m² 9,1 °C 8,8 °C 14,5 km/h (3 Bft)
26.07.2017 09:50 10,0 °C 10,0 °C 94 % 1007,8 hPa 0,0 mm 11,1 km/h (2 Bft) W 279 ° 0 min 0,000 mm 0,0 UV-I 35 W/m² 9,1 °C 8,5 °C 19,3 km/h (3 Bft)
26.07.2017 09:51 10,0 °C 10,0 °C 94 % 1007,8 hPa 0,0 mm 10,9 km/h (2 Bft) W-NW 302 ° 0 min 0,000 mm 0,0 UV-I 30 W/m² 9,1 °C 8,5 °C 12,9 km/h (3 Bft)
26.07.2017 09:52 10,0 °C 10,0 °C 94 % 1007,7 hPa 0,0 mm 11,9 km/h (2 Bft) W-NW 286 ° 0 min 0,000 mm 0,0 UV-I 26 W/m² 9,1 °C 8,3 °C 19,3 km/h (3 Bft)
26.07.2017 09:53 10,0 °C 10,1 °C 94 % 1007,8 hPa 0,0 mm 10,7 km/h (2 Bft) W-SW 242 ° 0 min 0,000 mm 0,0 UV-I 30 W/m² 9,1 °C 8,5 °C 17,7 km/h (3 Bft)
26.07.2017 09:54 10,1 °C 10,1 °C 94 % 1007,7 hPa 0,0 mm 15,0 km/h (3 Bft) SW 234 ° 0 min 0,000 mm 0,0 UV-I 30 W/m² 9,2 °C 10,1 °C 25,7 km/h (4 Bft)
26.07.2017 09:55 10,1 °C 10,1 °C 94 % 1007,7 hPa 0,0 mm 12,3 km/h (3 Bft) W-SW 245 ° 0 min 0,000 mm 0,0 UV-I 30 W/m² 9,2 °C 10,1 °C 22,5 km/h (4 Bft)
26.07.2017 09:56 10,1 °C 10,1 °C 94 % 1007,7 hPa 0,2 mm 14,6 km/h (3 Bft) S 184 ° 0 min 0,000 mm 0,0 UV-I 28 W/m² 9,2 °C 10,1 °C 24,1 km/h (4 Bft)
26.07.2017 09:57 10,1 °C 10,1 °C 94 % 1007,7 hPa 0,0 mm 6,2 km/h (2 Bft) SW 229 ° 0 min 0,000 mm 0,0 UV-I 28 W/m² 9,2 °C 10,1 °C 11,3 km/h (2 Bft)
26.07.2017 09:58 10,1 °C 10,1 °C 94 % 1007,7 hPa 0,0 mm 12,0 km/h (2 Bft) W-SW 244 ° 0 min 0,000 mm 0,0 UV-I 30 W/m² 9,2 °C 10,1 °C 22,5 km/h (4 Bft)
26.07.2017 09:59 10,1 °C 10,1 °C 94 % 1007,8 hPa 0,0 mm 10,1 km/h (2 Bft) W 279 ° 0 min 0,000 mm 0,0 UV-I 32 W/m² 9,2 °C 10,1 °C 19,3 km/h (3 Bft)
26.07.2017 10:00 10,2 °C 10,2 °C 94 % 1007,8 hPa 0,0 mm 6,4 km/h (2 Bft) W 262 ° 0 min 0,025 mm 0,0 UV-I 33 W/m² 9,3 °C 10,2 °C 11,3 km/h (2 Bft)
26.07.2017 10:01 10,2 °C 10,2 °C 94 % 1007,8 hPa 0,0 mm 8,4 km/h (2 Bft) W 261 ° 0 min 0,000 mm 0,0 UV-I 37 W/m² 9,3 °C 10,2 °C 14,5 km/h (3 Bft)
26.07.2017 10:02 10,1 °C 10,2 °C 94 % 1007,8 hPa 0,0 mm 6,1 km/h (2 Bft) W 268 ° 0 min 0,000 mm 0,0 UV-I 42 W/m² 9,2 °C 10,1 °C 11,3 km/h (2 Bft)
26.07.2017 10:03 10,2 °C 10,2 °C 94 % 1007,8 hPa 0,0 mm 12,8 km/h (3 Bft) W-SW 254 ° 0 min 0,000 mm 0,0 UV-I 44 W/m² 9,3 °C 10,2 °C 19,3 km/h (3 Bft)
26.07.2017 10:04 10,2 °C 10,2 °C 94 % 1007,7 hPa 0,0 mm 12,1 km/h (2 Bft) W 268 ° 0 min 0,000 mm 0,0 UV-I 49 W/m² 9,3 °C 10,2 °C 22,5 km/h (4 Bft)
26.07.2017 10:05 10,2 °C 10,2 °C 94 % 1007,8 hPa 0,2 mm 8,3 km/h (2 Bft) W 270 ° 0 min 0,000 mm 0,0 UV-I 51 W/m² 9,3 °C 10,2 °C 19,3 km/h (3 Bft)
26.07.2017 10:06 10,3 °C 10,3 °C 94 % 1007,8 hPa 0,0 mm 6,7 km/h (2 Bft) W-NW 284 ° 0 min 0,000 mm 0,0 UV-I 40 W/m² 9,4 °C 10,3 °C 12,9 km/h (3 Bft)
26.07.2017 10:07 10,3 °C 10,3 °C 94 % 1007,9 hPa 0,0 mm 11,6 km/h (2 Bft) SW 221 ° 0 min 0,000 mm 0,0 UV-I 30 W/m² 9,4 °C 10,3 °C 19,3 km/h (3 Bft)
26.07.2017 10:08 10,3 °C 10,3 °C 94 % 1007,9 hPa 0,0 mm 11,1 km/h (2 Bft) W-SW 240 ° 0 min 0,000 mm 0,0 UV-I 39 W/m² 9,4 °C 10,3 °C 17,7 km/h (3 Bft)
26.07.2017 10:09 10,3 °C 10,3 °C 94 % 1007,9 hPa 0,0 mm 11,8 km/h (2 Bft) W 262 ° 0 min 0,000 mm 0,0 UV-I 39 W/m² 9,4 °C 10,3 °C 17,7 km/h (3 Bft)
26.07.2017 10:10 10,3 °C 10,3 °C 94 % 1007,8 hPa 0,2 mm 7,9 km/h (2 Bft) W-SW 248 ° 0 min 0,000 mm 0,0 UV-I 32 W/m² 9,4 °C 10,3 °C 12,9 km/h (3 Bft)
26.07.2017 10:11 10,3 °C 10,3 °C 94 % 1007,8 hPa 0,0 mm 3,5 km/h (1 Bft) W 265 ° 0 min 0,000 mm 0,0 UV-I 30 W/m² 9,4 °C 10,3 °C 11,3 km/h (2 Bft)
26.07.2017 10:12 10,3 °C 10,3 °C 94 % 1007,8 hPa 0,0 mm 6,1 km/h (2 Bft) W 262 ° 0 min 0,000 mm 0,0 UV-I 33 W/m² 9,4 °C 10,3 °C 9,7 km/h (2 Bft)
26.07.2017 10:13 10,3 °C 10,3 °C 94 % 1007,8 hPa 0,0 mm 11,3 km/h (2 Bft) W-SW 238 ° 0 min 0,000 mm 0,0 UV-I 40 W/m² 9,4 °C 10,3 °C 19,3 km/h (3 Bft)
26.07.2017 10:14 10,3 °C 10,3 °C 94 % 1007,9 hPa 0,0 mm 13,7 km/h (3 Bft) W 259 ° 0 min 0,000 mm 0,0 UV-I 40 W/m² 9,4 °C 10,3 °C 19,3 km/h (3 Bft)
26.07.2017 10:15 10,3 °C 10,3 °C 94 % 1007,8 hPa 0,0 mm 6,6 km/h (2 Bft) W-NW 288 ° 0 min 0,000 mm 0,0 UV-I 42 W/m² 9,4 °C 10,3 °C 11,3 km/h (2 Bft)
26.07.2017 10:16 10,3 °C 10,3 °C 94 % 1007,9 hPa 0,2 mm 7,0 km/h (2 Bft) W 276 ° 0 min 0,000 mm 0,0 UV-I 39 W/m² 9,4 °C 10,3 °C 12,9 km/h (3 Bft)
26.07.2017 10:17 10,3 °C 10,3 °C 94 % 1007,9 hPa 0,0 mm 7,0 km/h (2 Bft) W 267 ° 0 min 0,000 mm 0,0 UV-I 33 W/m² 9,4 °C 10,3 °C 11,3 km/h (2 Bft)
26.07.2017 10:18 10,4 °C 10,4 °C 94 % 1007,9 hPa 0,0 mm 11,1 km/h (2 Bft) W-NW 288 ° 0 min 0,000 mm 0,0 UV-I 37 W/m² 9,5 °C 10,4 °C 16,1 km/h (3 Bft)
26.07.2017 10:19 10,4 °C 10,4 °C 94 % 1007,9 hPa 0,0 mm 6,6 km/h (2 Bft) W-SW 253 ° 0 min 0,000 mm 0,0 UV-I 35 W/m² 9,5 °C 10,4 °C 11,3 km/h (2 Bft)
26.07.2017 10:20 10,4 °C 10,4 °C 94 % 1007,9 hPa 0,2 mm 7,8 km/h (2 Bft) W 277 ° 0 min 0,000 mm 0,0 UV-I 33 W/m² 9,5 °C 10,4 °C 12,9 km/h (3 Bft)
26.07.2017 10:21 10,4 °C 10,4 °C 94 % 1007,9 hPa 0,2 mm 6,4 km/h (2 Bft) W-NW 296 ° 0 min 0,000 mm 0,0 UV-I 32 W/m² 9,5 °C 10,4 °C 11,3 km/h (2 Bft)
26.07.2017 10:22 10,4 °C 10,4 °C 94 % 1007,9 hPa 0,0 mm 13,2 km/h (3 Bft) SW 225 ° 0 min 0,000 mm 0,0 UV-I 30 W/m² 9,5 °C 10,4 °C 17,7 km/h (3 Bft)
26.07.2017 10:23 10,4 °C 10,4 °C 94 % 1008,0 hPa 0,2 mm 6,4 km/h (2 Bft) W 261 ° 0 min 0,000 mm 0,0 UV-I 26 W/m² 9,5 °C 10,4 °C 9,7 km/h (2 Bft)
26.07.2017 10:24 10,4 °C 10,4 °C 94 % 1008,0 hPa 0,0 mm 7,0 km/h (2 Bft) NW 305 ° 0 min 0,000 mm 0,0 UV-I 30 W/m² 9,5 °C 10,4 °C 12,9 km/h (3 Bft)
26.07.2017 10:25 10,4 °C 10,4 °C 94 % 1008,0 hPa 0,2 mm 9,1 km/h (2 Bft) W 265 ° 0 min 0,000 mm 0,0 UV-I 35 W/m² 9,5 °C 10,4 °C 12,9 km/h (3 Bft)
26.07.2017 10:26 10,4 °C 10,4 °C 94 % 1008,0 hPa 0,2 mm 5,4 km/h (1 Bft) W 279 ° 0 min 0,000 mm 0,0 UV-I 37 W/m² 9,5 °C 10,4 °C 9,7 km/h (2 Bft)
26.07.2017 10:27 10,4 °C 10,4 °C 94 % 1008,1 hPa 0,0 mm 5,2 km/h (1 Bft) W 264 ° 0 min 0,000 mm 0,0 UV-I 35 W/m² 9,5 °C 10,4 °C 9,7 km/h (2 Bft)
26.07.2017 10:28 10,4 °C 10,4 °C 94 % 1008,1 hPa 0,2 mm 8,3 km/h (2 Bft) W 264 ° 0 min 0,000 mm 0,0 UV-I 33 W/m² 9,5 °C 10,4 °C 12,9 km/h (3 Bft)
26.07.2017 10:29 10,4 °C 10,4 °C 94 % 1008,1 hPa 0,2 mm 8,3 km/h (2 Bft) W-NW 294 ° 0 min 0,000 mm 0,0 UV-I 39 W/m² 9,5 °C 10,4 °C 12,9 km/h (3 Bft)
26.07.2017 10:30 10,4 °C 10,4 °C 94 % 1008,1 hPa 0,2 mm 8,9 km/h (2 Bft) NW 305 ° 0 min 0,000 mm 0,0 UV-I 35 W/m² 9,5 °C 10,4 °C 12,9 km/h (3 Bft)
26.07.2017 10:31 10,4 °C 10,4 °C 94 % 1008,2 hPa 0,2 mm 4,7 km/h (1 Bft) NW 314 ° 0 min 0,000 mm 0,0 UV-I 26 W/m² 9,5 °C 10,4 °C 6,4 km/h (2 Bft)
26.07.2017 10:32 10,4 °C 10,4 °C 94 % 1008,2 hPa 0,0 mm 4,4 km/h (1 Bft) W-NW 286 ° 0 min 0,000 mm 0,0 UV-I 26 W/m² 9,5 °C 10,4 °C 6,4 km/h (2 Bft)
26.07.2017 10:33 10,4 °C 10,4 °C 94 % 1008,1 hPa 0,2 mm 6,1 km/h (2 Bft) NW 309 ° 0 min 0,000 mm 0,0 UV-I 28 W/m² 9,5 °C 10,4 °C 11,3 km/h (2 Bft)
26.07.2017 10:34 10,4 °C 10,4 °C 94 % 1008,2 hPa 0,2 mm 3,8 km/h (1 Bft) W-NW 298 ° 0 min 0,000 mm 0,0 UV-I 26 W/m² 9,5 °C 10,4 °C 6,4 km/h (2 Bft)
26.07.2017 10:35 10,4 °C 10,4 °C 94 % 1008,2 hPa 0,2 mm 2,7 km/h (1 Bft) W-NW 298 ° 0 min 0,000 mm 0,0 UV-I 26 W/m² 9,5 °C 10,4 °C 4,8 km/h (1 Bft)
26.07.2017 10:36 10,4 °C 10,4 °C 94 % 1008,1 hPa 0,0 mm 2,9 km/h (1 Bft) W-NW 297 ° 0 min 0,000 mm 0,0 UV-I 37 W/m² 9,5 °C 10,4 °C 4,8 km/h (1 Bft)
26.07.2017 10:37 10,4 °C 10,4 °C 94 % 1008,1 hPa 0,2 mm 5,6 km/h (1 Bft) W-NW 286 ° 0 min 0,000 mm 0,0 UV-I 39 W/m² 9,5 °C 10,4 °C 9,7 km/h (2 Bft)
26.07.2017 10:38 10,4 °C 10,4 °C 94 % 1008,1 hPa 0,2 mm 5,0 km/h (1 Bft) W-NW 295 ° 0 min 0,000 mm 0,0 UV-I 37 W/m² 9,5 °C 10,4 °C 6,4 km/h (2 Bft)
26.07.2017 10:39 10,4 °C 10,4 °C 94 % 1008,1 hPa 0,2 mm 2,2 km/h (1 Bft) W-NW 295 ° 0 min 0,000 mm 0,0 UV-I 40 W/m² 9,5 °C 10,4 °C 4,8 km/h (1 Bft)
26.07.2017 10:40 10,4 °C 10,4 °C 94 % 1008,0 hPa 0,0 mm 0,5 km/h (0 Bft) W-NW 295 ° 0 min 0,000 mm 0,0 UV-I 39 W/m² 9,5 °C 10,4 °C 1,6 km/h (1 Bft)
26.07.2017 10:41 10,4 °C 10,4 °C 94 % 1008,0 hPa 0,2 mm 4,8 km/h (1 Bft) W 277 ° 0 min 0,000 mm 0,0 UV-I 42 W/m² 9,5 °C 10,4 °C 11,3 km/h (2 Bft)
26.07.2017 10:42 10,4 °C 10,4 °C 94 % 1008,0 hPa 0,0 mm 6,3 km/h (2 Bft) W-NW 297 ° 0 min 0,000 mm 0,0 UV-I 51 W/m² 9,5 °C 10,4 °C 12,9 km/h (3 Bft)
26.07.2017 10:43 10,4 °C 10,4 °C 94 % 1008,0 hPa 0,2 mm 7,8 km/h (2 Bft) W 271 ° 0 min 0,000 mm 0,0 UV-I 49 W/m² 9,5 °C 10,4 °C 11,3 km/h (2 Bft)
26.07.2017 10:44 10,4 °C 10,4 °C 94 % 1008,0 hPa 0,0 mm 4,7 km/h (1 Bft) W-SW 255 ° 0 min 0,000 mm 0,0 UV-I 46 W/m² 9,5 °C 10,4 °C 6,4 km/h (2 Bft)
26.07.2017 10:45 10,4 °C 10,4 °C 94 % 1008,0 hPa 0,0 mm 8,1 km/h (2 Bft) W 261 ° 0 min 0,000 mm 0,0 UV-I 53 W/m² 9,5 °C 10,4 °C 12,9 km/h (3 Bft)
26.07.2017 10:46 10,4 °C 10,4 °C 94 % 1008,0 hPa 0,2 mm 12,9 km/h (3 Bft) W 261 ° 0 min 0,000 mm 0,6 UV-I 60 W/m² 9,5 °C 10,4 °C 16,1 km/h (3 Bft)
26.07.2017 10:47 10,4 °C 10,5 °C 94 % 1008,1 hPa 0,0 mm 5,6 km/h (1 Bft) W 269 ° 0 min 0,000 mm 0,6 UV-I 67 W/m² 9,5 °C 10,4 °C 11,3 km/h (2 Bft)
26.07.2017 10:48 10,5 °C 10,5 °C 94 % 1008,0 hPa 0,2 mm 8,1 km/h (2 Bft) W-NW 300 ° 0 min 0,000 mm 0,6 UV-I 67 W/m² 9,6 °C 10,5 °C 12,9 km/h (3 Bft)
26.07.2017 10:49 10,6 °C 10,6 °C 94 % 1008,0 hPa 0,2 mm 9,7 km/h (2 Bft) W 277 ° 0 min 0,000 mm 0,6 UV-I 67 W/m² 9,7 °C 10,6 °C 14,5 km/h (3 Bft)
26.07.2017 10:50 10,6 °C 10,6 °C 94 % 1008,0 hPa 0,0 mm 9,1 km/h (2 Bft) W 280 ° 0 min 0,000 mm 0,7 UV-I 72 W/m² 9,7 °C 10,6 °C 12,9 km/h (3 Bft)
26.07.2017 10:51 10,6 °C 10,6 °C 94 % 1008,0 hPa 0,2 mm 8,6 km/h (2 Bft) W-NW 286 ° 0 min 0,000 mm 0,6 UV-I 69 W/m² 9,7 °C 10,6 °C 12,9 km/h (3 Bft)
26.07.2017 10:52 10,6 °C 10,6 °C 94 % 1008,0 hPa 0,0 mm 10,4 km/h (2 Bft) W 277 ° 0 min 0,000 mm 0,5 UV-I 60 W/m² 9,7 °C 10,6 °C 20,9 km/h (4 Bft)
26.07.2017 10:53 10,6 °C 10,6 °C 94 % 1008,0 hPa 0,0 mm 11,7 km/h (2 Bft) W 277 ° 0 min 0,000 mm 0,6 UV-I 60 W/m² 9,7 °C 10,6 °C 17,7 km/h (3 Bft)
26.07.2017 10:54 10,6 °C 10,6 °C 94 % 1008,1 hPa 0,2 mm 4,1 km/h (1 Bft) W-NW 294 ° 0 min 0,000 mm 0,0 UV-I 49 W/m² 9,7 °C 10,6 °C 11,3 km/h (2 Bft)
26.07.2017 10:55 10,6 °C 10,7 °C 95 % 1008,1 hPa 0,0 mm 6,3 km/h (2 Bft) W-NW 302 ° 0 min 0,000 mm 0,0 UV-I 37 W/m² 9,8 °C 10,6 °C 12,9 km/h (3 Bft)
26.07.2017 10:56 10,7 °C 10,7 °C 95 % 1008,1 hPa 0,2 mm 6,0 km/h (2 Bft) W 260 ° 0 min 0,000 mm 0,0 UV-I 28 W/m² 9,9 °C 10,7 °C 9,7 km/h (2 Bft)
26.07.2017 10:57 10,7 °C 10,7 °C 94 % 1008,2 hPa 0,0 mm 3,6 km/h (1 Bft) W-NW 284 ° 0 min 0,000 mm 0,0 UV-I 28 W/m² 9,8 °C 10,7 °C 9,7 km/h (2 Bft)
26.07.2017 10:58 10,7 °C 10,7 °C 94 % 1008,2 hPa 0,2 mm 10,9 km/h (2 Bft) W-NW 296 ° 0 min 0,000 mm 0,0 UV-I 26 W/m² 9,8 °C 10,7 °C 19,3 km/h (3 Bft)
26.07.2017 10:59 10,7 °C 10,7 °C 94 % 1008,3 hPa 0,0 mm 5,4 km/h (1 Bft) W 271 ° 0 min 0,000 mm 0,0 UV-I 26 W/m² 9,8 °C 10,7 °C 9,7 km/h (2 Bft)
26.07.2017 11:00 10,7 °C 10,7 °C 94 % 1008,2 hPa 0,2 mm 6,2 km/h (2 Bft) W-NW 292 ° 0 min 0,026 mm 0,0 UV-I 26 W/m² 9,8 °C 10,7 °C 12,9 km/h (3 Bft)
26.07.2017 11:01 10,7 °C 10,7 °C 94 % 1008,3 hPa 0,0 mm 4,7 km/h (1 Bft) W-NW 287 ° 0 min 0,000 mm 0,0 UV-I 26 W/m² 9,8 °C 10,7 °C 9,7 km/h (2 Bft)
26.07.2017 11:02 10,7 °C 10,7 °C 94 % 1008,3 hPa 0,0 mm 2,4 km/h (1 Bft) W-NW 287 ° 0 min 0,000 mm 0,0 UV-I 33 W/m² 9,8 °C 10,7 °C 4,8 km/h (1 Bft)
26.07.2017 11:03 10,7 °C 10,7 °C 94 % 1008,3 hPa 0,2 mm 3,4 km/h (1 Bft) W 269 ° 0 min 0,000 mm 0,0 UV-I 39 W/m² 9,8 °C 10,7 °C 6,4 km/h (2 Bft)
26.07.2017 11:04 10,7 °C 10,7 °C 94 % 1008,3 hPa 0,0 mm 4,8 km/h (1 Bft) NW 318 ° 0 min 0,000 mm 0,0 UV-I 42 W/m² 9,8 °C 10,7 °C 6,4 km/h (2 Bft)
26.07.2017 11:05 10,7 °C 10,7 °C 95 % 1008,1 hPa 0,2 mm 3,0 km/h (1 Bft) S-SW 206 ° 0 min 0,000 mm 0,0 UV-I 42 W/m² 9,9 °C 10,7 °C 3,2 km/h (1 Bft)
26.07.2017 11:06 10,7 °C 10,7 °C 95 % 1008,0 hPa 0,2 mm 7,3 km/h (2 Bft) W 277 ° 0 min 0,000 mm 0,0 UV-I 54 W/m² 9,9 °C 10,7 °C 12,9 km/h (3 Bft)
26.07.2017 11:07 10,7 °C 10,7 °C 95 % 1008,2 hPa 0,0 mm 14,2 km/h (3 Bft) W 268 ° 0 min 0,000 mm 0,5 UV-I 63 W/m² 9,9 °C 10,7 °C 24,1 km/h (4 Bft)
26.07.2017 11:08 10,8 °C 10,8 °C 95 % 1008,2 hPa 0,0 mm 10,8 km/h (2 Bft) W-NW 291 ° 0 min 0,000 mm 0,5 UV-I 63 W/m² 10,0 °C 10,8 °C 14,5 km/h (3 Bft)
26.07.2017 11:09 10,8 °C 10,8 °C 95 % 1008,2 hPa 0,0 mm 8,7 km/h (2 Bft) W-SW 244 ° 0 min 0,000 mm 0,0 UV-I 54 W/m² 10,0 °C 10,8 °C 20,9 km/h (4 Bft)
26.07.2017 11:10 10,8 °C 10,8 °C 95 % 1008,2 hPa 0,2 mm 11,8 km/h (2 Bft) W 267 ° 0 min 0,000 mm 0,5 UV-I 56 W/m² 10,0 °C 10,8 °C 19,3 km/h (3 Bft)
26.07.2017 11:11 10,8 °C 10,8 °C 94 % 1008,1 hPa 0,0 mm 12,5 km/h (3 Bft) NW 326 ° 0 min 0,000 mm 0,0 UV-I 47 W/m² 9,9 °C 10,8 °C 16,1 km/h (3 Bft)
26.07.2017 11:12 10,8 °C 10,8 °C 94 % 1008,1 hPa 0,2 mm 11,5 km/h (2 Bft) W-NW 290 ° 0 min 0,000 mm 0,0 UV-I 51 W/m² 9,9 °C 10,8 °C 17,7 km/h (3 Bft)
26.07.2017 11:13 10,8 °C 10,8 °C 94 % 1008,2 hPa 0,0 mm 9,3 km/h (2 Bft) W-NW 290 ° 0 min 0,000 mm 0,0 UV-I 47 W/m² 9,9 °C 10,8 °C 11,3 km/h (2 Bft)
26.07.2017 11:14 10,9 °C 10,9 °C 94 % 1008,2 hPa 0,0 mm 9,4 km/h (2 Bft) W-SW 247 ° 0 min 0,000 mm 0,5 UV-I 58 W/m² 10,0 °C 10,9 °C 16,1 km/h (3 Bft)
26.07.2017 11:15 10,9 °C 10,9 °C 94 % 1008,2 hPa 0,0 mm 14,6 km/h (3 Bft) W-NW 296 ° 0 min 0,000 mm 0,5 UV-I 58 W/m² 10,0 °C 10,9 °C 19,3 km/h (3 Bft)
26.07.2017 11:16 10,9 °C 10,9 °C 94 % 1008,2 hPa 0,2 mm 10,9 km/h (2 Bft) W 263 ° 0 min 0,000 mm 0,6 UV-I 72 W/m² 10,0 °C 10,9 °C 12,9 km/h (3 Bft)
26.07.2017 11:17 10,9 °C 10,9 °C 94 % 1008,3 hPa 0,0 mm 17,1 km/h (3 Bft) W-NW 290 ° 0 min 0,000 mm 0,7 UV-I 88 W/m² 10,0 °C 10,9 °C 24,1 km/h (4 Bft)
26.07.2017 11:18 10,9 °C 10,9 °C 94 % 1008,3 hPa 0,0 mm 14,7 km/h (3 Bft) W 269 ° 0 min 0,000 mm 0,8 UV-I 97 W/m² 10,0 °C 10,9 °C 27,4 km/h (4 Bft)
26.07.2017 11:19 11,0 °C 11,0 °C 95 % 1008,4 hPa 0,0 mm 15,3 km/h (3 Bft) W-SW 246 ° 0 min 0,000 mm 0,9 UV-I 107 W/m² 10,2 °C 11,0 °C 19,3 km/h (3 Bft)
26.07.2017 11:20 11,0 °C 11,0 °C 95 % 1008,4 hPa 0,0 mm 13,4 km/h (3 Bft) W 269 ° 0 min 0,000 mm 0,8 UV-I 93 W/m² 10,2 °C 11,0 °C 19,3 km/h (3 Bft)
26.07.2017 11:21 11,1 °C 11,1 °C 94 % 1008,4 hPa 0,2 mm 9,4 km/h (2 Bft) W 263 ° 0 min 0,000 mm 0,8 UV-I 88 W/m² 10,2 °C 11,1 °C 16,1 km/h (3 Bft)
26.07.2017 11:22 11,1 °C 11,1 °C 94 % 1008,4 hPa 0,0 mm 16,1 km/h (3 Bft) W 267 ° 0 min 0,000 mm 0,9 UV-I 97 W/m² 10,2 °C 11,1 °C 25,7 km/h (4 Bft)
26.07.2017 11:23 11,1 °C 11,1 °C 94 % 1008,3 hPa 0,0 mm 13,0 km/h (3 Bft) W 261 ° 0 min 0,000 mm 0,9 UV-I 98 W/m² 10,2 °C 11,1 °C 17,7 km/h (3 Bft)
26.07.2017 11:24 11,1 °C 11,1 °C 94 % 1008,3 hPa 0,0 mm 12,0 km/h (2 Bft) W 280 ° 0 min 0,000 mm 0,8 UV-I 93 W/m² 10,2 °C 11,1 °C 19,3 km/h (3 Bft)
26.07.2017 11:25 11,1 °C 11,1 °C 94 % 1008,4 hPa 0,0 mm 11,7 km/h (2 Bft) W 277 ° 0 min 0,000 mm 0,8 UV-I 91 W/m² 10,2 °C 11,1 °C 17,7 km/h (3 Bft)
26.07.2017 11:26 11,1 °C 11,1 °C 94 % 1008,4 hPa 0,2 mm 7,5 km/h (2 Bft) W 278 ° 0 min 0,000 mm 0,9 UV-I 100 W/m² 10,2 °C 11,1 °C 14,5 km/h (3 Bft)
26.07.2017 11:27 11,1 °C 11,1 °C 94 % 1008,4 hPa 0,0 mm 12,3 km/h (3 Bft) W 273 ° 0 min 0,000 mm 0,9 UV-I 100 W/m² 10,2 °C 11,1 °C 16,1 km/h (3 Bft)
26.07.2017 11:28 11,1 °C 11,1 °C 94 % 1008,4 hPa 0,0 mm 8,3 km/h (2 Bft) W-NW 286 ° 0 min 0,000 mm 0,8 UV-I 91 W/m² 10,2 °C 11,1 °C 12,9 km/h (3 Bft)
26.07.2017 11:29 11,2 °C 11,2 °C 94 % 1008,4 hPa 0,0 mm 14,9 km/h (3 Bft) W-SW 252 ° 0 min 0,000 mm 0,8 UV-I 81 W/m² 10,3 °C 11,2 °C 17,7 km/h (3 Bft)
26.07.2017 11:30 11,2 °C 11,2 °C 94 % 1008,4 hPa 0,2 mm 15,6 km/h (3 Bft) W 276 ° 0 min 0,000 mm 0,6 UV-I 65 W/m² 10,3 °C 11,2 °C 20,9 km/h (4 Bft)
26.07.2017 11:31 11,2 °C 11,2 °C 94 % 1008,4 hPa 0,0 mm 14,6 km/h (3 Bft) W 276 ° 0 min 0,000 mm 0,6 UV-I 69 W/m² 10,3 °C 11,2 °C 17,7 km/h (3 Bft)
26.07.2017 11:32 11,1 °C 11,2 °C 94 % 1008,5 hPa 0,0 mm 9,0 km/h (2 Bft) SW 236 ° 0 min 0,000 mm 0,7 UV-I 74 W/m² 10,2 °C 11,1 °C 14,5 km/h (3 Bft)
26.07.2017 11:33 11,2 °C 11,2 °C 94 % 1008,5 hPa 0,2 mm 12,3 km/h (3 Bft) W 260 ° 0 min 0,000 mm 0,7 UV-I 79 W/m² 10,3 °C 11,2 °C 19,3 km/h (3 Bft)
26.07.2017 11:34 11,2 °C 11,2 °C 94 % 1008,5 hPa 0,0 mm 9,4 km/h (2 Bft) SW 234 ° 0 min 0,000 mm 0,6 UV-I 77 W/m² 10,3 °C 11,2 °C 14,5 km/h (3 Bft)
26.07.2017 11:35 11,1 °C 11,2 °C 94 % 1008,5 hPa 0,0 mm 12,0 km/h (2 Bft) W 260 ° 0 min 0,000 mm 0,7 UV-I 97 W/m² 10,2 °C 11,1 °C 17,7 km/h (3 Bft)
26.07.2017 11:36 11,2 °C 11,2 °C 94 % 1008,6 hPa 0,2 mm 10,2 km/h (2 Bft) W 271 ° 0 min 0,000 mm 0,8 UV-I 97 W/m² 10,3 °C 11,2 °C 19,3 km/h (3 Bft)
26.07.2017 11:37 11,1 °C 11,2 °C 94 % 1008,6 hPa 0,0 mm 13,2 km/h (3 Bft) W 281 ° 0 min 0,000 mm 0,8 UV-I 95 W/m² 10,2 °C 11,1 °C 17,7 km/h (3 Bft)
26.07.2017 11:38 11,1 °C 11,1 °C 94 % 1008,5 hPa 0,0 mm 11,7 km/h (2 Bft) W 260 ° 0 min 0,000 mm 0,8 UV-I 97 W/m² 10,2 °C 11,1 °C 20,9 km/h (4 Bft)
26.07.2017 11:39 11,1 °C 11,1 °C 94 % 1008,5 hPa 0,0 mm 13,3 km/h (3 Bft) W-NW 289 ° 0 min 0,000 mm 0,8 UV-I 97 W/m² 10,2 °C 11,1 °C 20,9 km/h (4 Bft)
26.07.2017 11:40 11,2 °C 11,2 °C 94 % 1008,5 hPa 0,2 mm 16,0 km/h (3 Bft) W-SW 242 ° 0 min 0,000 mm 0,8 UV-I 91 W/m² 10,3 °C 11,2 °C 24,1 km/h (4 Bft)
26.07.2017 11:41 11,2 °C 11,2 °C 94 % 1008,5 hPa 0,0 mm 14,2 km/h (3 Bft) W 261 ° 0 min 0,000 mm 0,8 UV-I 83 W/m² 10,3 °C 11,2 °C 27,4 km/h (4 Bft)
26.07.2017 11:42 11,2 °C 11,2 °C 94 % 1008,6 hPa 0,0 mm 15,6 km/h (3 Bft) W 263 ° 0 min 0,000 mm 0,8 UV-I 86 W/m² 10,3 °C 11,2 °C 22,5 km/h (4 Bft)
26.07.2017 11:43 11,2 °C 11,2 °C 94 % 1008,5 hPa 0,2 mm 15,6 km/h (3 Bft) W 277 ° 0 min 0,000 mm 0,8 UV-I 90 W/m² 10,3 °C 11,2 °C 22,5 km/h (4 Bft)
26.07.2017 11:44 11,2 °C 11,2 °C 94 % 1008,5 hPa 0,0 mm 11,1 km/h (2 Bft) NW 310 ° 0 min 0,000 mm 0,7 UV-I 83 W/m² 10,3 °C 11,2 °C 17,7 km/h (3 Bft)
26.07.2017 11:45 11,2 °C 11,2 °C 94 % 1008,5 hPa 0,0 mm 20,2 km/h (4 Bft) W-NW 292 ° 0 min 0,000 mm 0,7 UV-I 81 W/m² 10,3 °C 11,2 °C 25,7 km/h (4 Bft)
26.07.2017 11:46 11,2 °C 11,2 °C 94 % 1008,5 hPa 0,0 mm 10,9 km/h (2 Bft) W 269 ° 0 min 0,000 mm 0,7 UV-I 91 W/m² 10,3 °C 11,2 °C 25,7 km/h (4 Bft)
26.07.2017 11:47 11,2 °C 11,2 °C 94 % 1008,5 hPa 0,2 mm 11,9 km/h (2 Bft) S-SW 208 ° 0 min 0,000 mm 0,9 UV-I 111 W/m² 10,3 °C 11,2 °C 24,1 km/h (4 Bft)
26.07.2017 11:48 11,2 °C 11,2 °C 94 % 1008,5 hPa 0,0 mm 13,4 km/h (3 Bft) W 267 ° 0 min 0,000 mm 1,0 UV-I 113 W/m² 10,3 °C 11,2 °C 20,9 km/h (4 Bft)
26.07.2017 11:49 11,2 °C 11,2 °C 94 % 1008,5 hPa 0,0 mm 19,5 km/h (3 Bft) W 278 ° 0 min 0,000 mm 1,0 UV-I 116 W/m² 10,3 °C 11,2 °C 22,5 km/h (4 Bft)
26.07.2017 11:50 11,2 °C 11,2 °C 94 % 1008,5 hPa 0,0 mm 15,9 km/h (3 Bft) W-SW 258 ° 0 min 0,000 mm 1,0 UV-I 113 W/m² 10,3 °C 11,2 °C 25,7 km/h (4 Bft)
26.07.2017 11:51 11,2 °C 11,2 °C 94 % 1008,5 hPa 0,2 mm 15,7 km/h (3 Bft) NW 308 ° 0 min 0,000 mm 0,9 UV-I 105 W/m² 10,3 °C 11,2 °C 25,7 km/h (4 Bft)
26.07.2017 11:52 11,2 °C 11,2 °C 94 % 1008,5 hPa 0,0 mm 17,6 km/h (3 Bft) W-SW 248 ° 0 min 0,000 mm 0,9 UV-I 100 W/m² 10,3 °C 11,2 °C 33,8 km/h (5 Bft)
26.07.2017 11:53 11,2 °C 11,2 °C 94 % 1008,5 hPa 0,0 mm 17,0 km/h (3 Bft) S-SW 213 ° 0 min 0,000 mm 0,8 UV-I 104 W/m² 10,3 °C 11,2 °C 30,6 km/h (5 Bft)
26.07.2017 11:54 11,2 °C 11,2 °C 94 % 1008,5 hPa 0,0 mm 16,0 km/h (3 Bft) W-SW 248 ° 0 min 0,000 mm 1,0 UV-I 114 W/m² 10,3 °C 11,2 °C 27,4 km/h (4 Bft)
26.07.2017 11:55 11,2 °C 11,2 °C 94 % 1008,5 hPa 0,2 mm 7,6 km/h (2 Bft) W 271 ° 0 min 0,000 mm 1,1 UV-I 125 W/m² 10,3 °C 11,2 °C 17,7 km/h (3 Bft)
26.07.2017 11:56 11,2 °C 11,2 °C 94 % 1008,4 hPa 0,0 mm 12,2 km/h (2 Bft) W 267 ° 0 min 0,000 mm 1,1 UV-I 128 W/m² 10,3 °C 11,2 °C 33,8 km/h (5 Bft)
26.07.2017 11:57 11,2 °C 11,2 °C 94 % 1008,5 hPa 0,0 mm 19,5 km/h (3 Bft) W 268 ° 0 min 0,000 mm 1,1 UV-I 130 W/m² 10,3 °C 11,2 °C 30,6 km/h (5 Bft)
26.07.2017 11:58 11,2 °C 11,2 °C 94 % 1008,4 hPa 0,0 mm 14,6 km/h (3 Bft) W-NW 283 ° 0 min 0,000 mm 1,1 UV-I 128 W/m² 10,3 °C 11,2 °C 29,0 km/h (5 Bft)
26.07.2017 11:59 11,2 °C 11,2 °C 94 % 1008,4 hPa 0,0 mm 11,6 km/h (2 Bft) W 270 ° 0 min 0,000 mm 1,1 UV-I 127 W/m² 10,3 °C 11,2 °C 20,9 km/h (4 Bft)
26.07.2017 12:00 11,3 °C 11,3 °C 94 % 1008,5 hPa 0,0 mm 12,5 km/h (3 Bft) SW 234 ° 0 min 0,050 mm 1,1 UV-I 127 W/m² 10,4 °C 11,3 °C 16,1 km/h (3 Bft)
26.07.2017 12:01 11,3 °C 11,3 °C 94 % 1008,4 hPa 0,2 mm 10,6 km/h (2 Bft) W 273 ° 0 min 0,000 mm 1,1 UV-I 123 W/m² 10,4 °C 11,3 °C 24,1 km/h (4 Bft)
26.07.2017 12:02 11,3 °C 11,3 °C 94 % 1008,6 hPa 0,0 mm 11,6 km/h (2 Bft) W-NW 292 ° 0 min 0,000 mm 0,9 UV-I 107 W/m² 10,4 °C 11,3 °C 17,7 km/h (3 Bft)
26.07.2017 12:03 11,2 °C 11,3 °C 94 % 1008,5 hPa 0,0 mm 5,8 km/h (2 Bft) W-NW 292 ° 0 min 0,000 mm 0,8 UV-I 93 W/m² 10,3 °C 11,2 °C 9,7 km/h (2 Bft)
26.07.2017 12:04 11,2 °C 11,3 °C 94 % 1008,5 hPa 0,2 mm 12,5 km/h (3 Bft) W-SW 251 ° 0 min 0,000 mm 0,8 UV-I 98 W/m² 10,3 °C 11,2 °C 16,1 km/h (3 Bft)
26.07.2017 12:05 11,2 °C 11,2 °C 94 % 1008,4 hPa 0,0 mm 11,9 km/h (2 Bft) W 269 ° 0 min 0,000 mm 0,9 UV-I 97 W/m² 10,3 °C 11,2 °C 14,5 km/h (3 Bft)
26.07.2017 12:06 11,2 °C 11,2 °C 94 % 1008,4 hPa 0,2 mm 9,1 km/h (2 Bft) S-SW 192 ° 0 min 0,000 mm 0,9 UV-I 100 W/m² 10,3 °C 11,2 °C 16,1 km/h (3 Bft)
26.07.2017 12:07 11,2 °C 11,2 °C 94 % 1008,5 hPa 0,0 mm 5,5 km/h (1 Bft) SW 231 ° 0 min 0,000 mm 0,9 UV-I 98 W/m² 10,3 °C 11,2 °C 8,0 km/h (2 Bft)
26.07.2017 12:08 11,2 °C 11,2 °C 94 % 1008,5 hPa 0,0 mm 14,0 km/h (3 Bft) W 271 ° 0 min 0,000 mm 0,9 UV-I 100 W/m² 10,3 °C 11,2 °C 17,7 km/h (3 Bft)
26.07.2017 12:09 11,2 °C 11,2 °C 94 % 1008,5 hPa 0,0 mm 14,3 km/h (3 Bft) W-NW 285 ° 0 min 0,000 mm 0,9 UV-I 98 W/m² 10,3 °C 11,2 °C 20,9 km/h (4 Bft)
26.07.2017 12:10 11,2 °C 11,2 °C 94 % 1008,4 hPa 0,2 mm 8,5 km/h (2 Bft) W 266 ° 0 min 0,000 mm 0,8 UV-I 97 W/m² 10,3 °C 11,2 °C 14,5 km/h (3 Bft)
26.07.2017 12:11 11,2 °C 11,2 °C 94 % 1008,4 hPa 0,0 mm 10,6 km/h (2 Bft) S-SW 200 ° 0 min 0,000 mm 0,9 UV-I 102 W/m² 10,3 °C 11,2 °C 22,5 km/h (4 Bft)
26.07.2017 12:12 11,2 °C 11,2 °C 94 % 1008,4 hPa 0,2 mm 7,0 km/h (2 Bft) NW 305 ° 0 min 0,000 mm 0,9 UV-I 100 W/m² 10,3 °C 11,2 °C 12,9 km/h (3 Bft)
26.07.2017 12:13 11,2 °C 11,2 °C 94 % 1008,3 hPa 0,0 mm 7,0 km/h (2 Bft) W 264 ° 0 min 0,000 mm 0,8 UV-I 93 W/m² 10,3 °C 11,2 °C 12,9 km/h (3 Bft)
26.07.2017 12:14 11,2 °C 11,2 °C 94 % 1008,4 hPa 0,0 mm 6,8 km/h (2 Bft) SW 234 ° 0 min 0,000 mm 0,9 UV-I 102 W/m² 10,3 °C 11,2 °C 11,3 km/h (2 Bft)
26.07.2017 12:15 11,2 °C 11,2 °C 94 % 1008,4 hPa 0,2 mm 5,2 km/h (1 Bft) S-SW 194 ° 0 min 0,000 mm 1,0 UV-I 107 W/m² 10,3 °C 11,2 °C 11,3 km/h (2 Bft)
26.07.2017 12:16 11,2 °C 11,2 °C 94 % 1008,4 hPa 0,0 mm 7,2 km/h (2 Bft) W 264 ° 0 min 0,000 mm 1,1 UV-I 109 W/m² 10,3 °C 11,2 °C 14,5 km/h (3 Bft)
26.07.2017 12:17 11,2 °C 11,2 °C 94 % 1008,4 hPa 0,0 mm 5,2 km/h (1 Bft) NW 309 ° 0 min 0,000 mm 0,8 UV-I 86 W/m² 10,3 °C 11,2 °C 11,3 km/h (2 Bft)
26.07.2017 12:18 11,2 °C 11,2 °C 94 % 1008,4 hPa 0,0 mm 13,5 km/h (3 Bft) W 260 ° 0 min 0,000 mm 0,8 UV-I 93 W/m² 10,3 °C 11,2 °C 17,7 km/h (3 Bft)
26.07.2017 12:19 11,2 °C 11,2 °C 94 % 1008,3 hPa 0,0 mm 5,4 km/h (1 Bft) W-SW 255 ° 0 min 0,000 mm 0,9 UV-I 100 W/m² 10,3 °C 11,2 °C 9,7 km/h (2 Bft)
26.07.2017 12:20 11,2 °C 11,2 °C 94 % 1008,3 hPa 0,0 mm 4,7 km/h (1 Bft) W 267 ° 0 min 0,000 mm 0,8 UV-I 90 W/m² 10,3 °C 11,2 °C 8,0 km/h (2 Bft)
26.07.2017 12:21 11,2 °C 11,2 °C 94 % 1008,3 hPa 0,0 mm 6,2 km/h (2 Bft) W-SW 258 ° 0 min 0,000 mm 0,8 UV-I 104 W/m² 10,3 °C 11,2 °C 6,4 km/h (2 Bft)
26.07.2017 12:22 11,2 °C 11,2 °C 94 % 1008,3 hPa 0,2 mm 7,7 km/h (2 Bft) W-SW 242 ° 0 min 0,000 mm 1,1 UV-I 141 W/m² 10,3 °C 11,2 °C 11,3 km/h (2 Bft)
26.07.2017 12:23 11,2 °C 11,2 °C 94 % 1008,3 hPa 0,0 mm 10,3 km/h (2 Bft) W 265 ° 0 min 0,000 mm 1,3 UV-I 149 W/m² 10,3 °C 11,2 °C 17,7 km/h (3 Bft)
26.07.2017 12:24 11,2 °C 11,2 °C 94 % 1008,3 hPa 0,0 mm 4,5 km/h (1 Bft) W-NW 285 ° 0 min 0,000 mm 1,3 UV-I 153 W/m² 10,3 °C 11,2 °C 9,7 km/h (2 Bft)
26.07.2017 12:25 11,3 °C 11,3 °C 94 % 1008,3 hPa 0,0 mm 7,3 km/h (2 Bft) W-SW 253 ° 0 min 0,000 mm 1,4 UV-I 158 W/m² 10,4 °C 11,3 °C 12,9 km/h (3 Bft)
26.07.2017 12:26 11,3 °C 11,3 °C 94 % 1008,2 hPa 0,0 mm 11,0 km/h (2 Bft) W 268 ° 0 min 0,000 mm 1,4 UV-I 162 W/m² 10,4 °C 11,3 °C 16,1 km/h (3 Bft)
26.07.2017 12:27 11,3 °C 11,3 °C 94 % 1008,3 hPa 0,0 mm 4,3 km/h (1 Bft) W-SW 257 ° 0 min 0,000 mm 1,4 UV-I 158 W/m² 10,4 °C 11,3 °C 6,4 km/h (2 Bft)
26.07.2017 12:28 11,3 °C 11,3 °C 94 % 1008,5 hPa 0,0 mm 8,5 km/h (2 Bft) W 259 ° 0 min 0,000 mm 1,3 UV-I 146 W/m² 10,4 °C 11,3 °C 14,5 km/h (3 Bft)
26.07.2017 12:29 11,3 °C 11,3 °C 94 % 1008,5 hPa 0,0 mm 10,1 km/h (2 Bft) W-NW 283 ° 0 min 0,000 mm 1,1 UV-I 134 W/m² 10,4 °C 11,3 °C 16,1 km/h (3 Bft)
26.07.2017 12:30 11,3 °C 11,3 °C 94 % 1008,4 hPa 0,0 mm 10,2 km/h (2 Bft) W 274 ° 0 min 0,000 mm 1,1 UV-I 128 W/m² 10,4 °C 11,3 °C 16,1 km/h (3 Bft)
26.07.2017 12:31 11,3 °C 11,3 °C 94 % 1008,5 hPa 0,2 mm 6,9 km/h (2 Bft) SW 233 ° 0 min 0,000 mm 1,1 UV-I 128 W/m² 10,4 °C 11,3 °C 11,3 km/h (2 Bft)
26.07.2017 12:32 11,3 °C 11,3 °C 94 % 1008,5 hPa 0,0 mm 8,0 km/h (2 Bft) S 189 ° 0 min 0,000 mm 1,1 UV-I 128 W/m² 10,4 °C 11,3 °C 12,9 km/h (3 Bft)
26.07.2017 12:33 11,3 °C 11,3 °C 94 % 1008,5 hPa 0,0 mm 6,1 km/h (2 Bft) S 190 ° 0 min 0,000 mm 1,1 UV-I 125 W/m² 10,4 °C 11,3 °C 11,3 km/h (2 Bft)
26.07.2017 12:34 11,3 °C 11,3 °C 93 % 1008,5 hPa 0,2 mm 5,2 km/h (1 Bft) W-NW 282 ° 0 min 0,000 mm 1,1 UV-I 120 W/m² 10,2 °C 11,3 °C 11,3 km/h (2 Bft)
26.07.2017 12:35 11,3 °C 11,3 °C 93 % 1008,6 hPa 0,0 mm 11,3 km/h (2 Bft) W-SW 252 ° 0 min 0,000 mm 1,1 UV-I 118 W/m² 10,2 °C 11,3 °C 19,3 km/h (3 Bft)
26.07.2017 12:36 11,3 °C 11,3 °C 93 % 1008,6 hPa 0,0 mm 10,8 km/h (2 Bft) SW 236 ° 0 min 0,000 mm 1,1 UV-I 120 W/m² 10,2 °C 11,3 °C 16,1 km/h (3 Bft)
26.07.2017 12:37 11,3 °C 11,3 °C 94 % 1008,6 hPa 0,0 mm 9,3 km/h (2 Bft) NW 307 ° 0 min 0,000 mm 1,0 UV-I 118 W/m² 10,4 °C 11,3 °C 12,9 km/h (3 Bft)
26.07.2017 12:38 11,3 °C 11,3 °C 93 % 1008,6 hPa 0,2 mm 9,9 km/h (2 Bft) W-SW 251 ° 0 min 0,000 mm 1,0 UV-I 114 W/m² 10,2 °C 11,3 °C 17,7 km/h (3 Bft)
26.07.2017 12:39 11,3 °C 11,3 °C 93 % 1008,6 hPa 0,0 mm 7,2 km/h (2 Bft) W-SW 240 ° 0 min 0,000 mm 1,0 UV-I 125 W/m² 10,2 °C 11,3 °C 12,9 km/h (3 Bft)
26.07.2017 12:40 11,2 °C 11,3 °C 93 % 1008,6 hPa 0,0 mm 13,7 km/h (3 Bft) W 274 ° 0 min 0,000 mm 1,2 UV-I 130 W/m² 10,1 °C 11,2 °C 17,7 km/h (3 Bft)
26.07.2017 12:41 11,2 °C 11,3 °C 93 % 1008,7 hPa 0,2 mm 12,5 km/h (3 Bft) W-SW 257 ° 0 min 0,000 mm 1,1 UV-I 127 W/m² 10,1 °C 11,2 °C 17,7 km/h (3 Bft)
26.07.2017 12:42 11,2 °C 11,2 °C 93 % 1008,7 hPa 0,0 mm 10,1 km/h (2 Bft) W 265 ° 0 min 0,000 mm 1,1 UV-I 123 W/m² 10,1 °C 11,2 °C 16,1 km/h (3 Bft)
26.07.2017 12:43 11,2 °C 11,2 °C 93 % 1008,7 hPa 0,0 mm 16,3 km/h (3 Bft) W-SW 251 ° 0 min 0,000 mm 1,1 UV-I 125 W/m² 10,1 °C 11,2 °C 24,1 km/h (4 Bft)
26.07.2017 12:44 11,2 °C 11,2 °C 93 % 1008,7 hPa 0,2 mm 9,4 km/h (2 Bft) SW 236 ° 0 min 0,000 mm 1,1 UV-I 123 W/m² 10,1 °C 11,2 °C 17,7 km/h (3 Bft)
26.07.2017 12:45 11,2 °C 11,2 °C 93 % 1008,7 hPa 0,0 mm 10,1 km/h (2 Bft) W-SW 257 ° 0 min 0,000 mm 1,1 UV-I 113 W/m² 10,1 °C 11,2 °C 19,3 km/h (3 Bft)
26.07.2017 12:46 11,2 °C 11,2 °C 93 % 1008,7 hPa 0,0 mm 15,2 km/h (3 Bft) W-SW 251 ° 0 min 0,000 mm 1,0 UV-I 113 W/m² 10,1 °C 11,2 °C 19,3 km/h (3 Bft)
26.07.2017 12:47 11,2 °C 11,2 °C 93 % 1008,7 hPa 0,0 mm 12,3 km/h (3 Bft) W-NW 284 ° 0 min 0,000 mm 1,1 UV-I 116 W/m² 10,1 °C 11,2 °C 17,7 km/h (3 Bft)
26.07.2017 12:48 11,2 °C 11,2 °C 93 % 1008,7 hPa 0,2 mm 13,4 km/h (3 Bft) W 275 ° 0 min 0,000 mm 1,1 UV-I 120 W/m² 10,1 °C 11,2 °C 20,9 km/h (4 Bft)
26.07.2017 12:49 11,2 °C 11,2 °C 93 % 1008,7 hPa 0,0 mm 12,2 km/h (2 Bft) W-SW 253 ° 0 min 0,000 mm 1,1 UV-I 123 W/m² 10,1 °C 11,2 °C 19,3 km/h (3 Bft)
26.07.2017 12:50 11,2 °C 11,2 °C 93 % 1008,8 hPa 0,0 mm 10,8 km/h (2 Bft) W 277 ° 0 min 0,000 mm 1,1 UV-I 120 W/m² 10,1 °C 11,2 °C 20,9 km/h (4 Bft)
26.07.2017 12:51 11,2 °C 11,2 °C 93 % 1008,9 hPa 0,0 mm 13,6 km/h (3 Bft) W 263 ° 0 min 0,000 mm 0,9 UV-I 98 W/m² 10,1 °C 11,2 °C 19,3 km/h (3 Bft)
26.07.2017 12:52 11,2 °C 11,2 °C 93 % 1008,9 hPa 0,2 mm 13,0 km/h (3 Bft) W 267 ° 0 min 0,000 mm 0,9 UV-I 109 W/m² 10,1 °C 11,2 °C 19,3 km/h (3 Bft)
26.07.2017 12:53 11,2 °C 11,2 °C 93 % 1008,9 hPa 0,0 mm 11,5 km/h (2 Bft) W-NW 295 ° 0 min 0,000 mm 1,0 UV-I 105 W/m² 10,1 °C 11,2 °C 16,1 km/h (3 Bft)
26.07.2017 12:54 11,2 °C 11,2 °C 93 % 1009,0 hPa 0,2 mm 11,8 km/h (2 Bft) W 279 ° 0 min 0,000 mm 0,9 UV-I 97 W/m² 10,1 °C 11,2 °C 16,1 km/h (3 Bft)
26.07.2017 12:55 11,1 °C 11,2 °C 93 % 1009,0 hPa 0,0 mm 10,8 km/h (2 Bft) NW 305 ° 0 min 0,000 mm 0,9 UV-I 93 W/m² 10,0 °C 11,1 °C 17,7 km/h (3 Bft)
26.07.2017 12:56 11,1 °C 11,1 °C 93 % 1008,9 hPa 0,2 mm 13,3 km/h (3 Bft) W 263 ° 0 min 0,000 mm 0,9 UV-I 97 W/m² 10,0 °C 11,1 °C 17,7 km/h (3 Bft)
26.07.2017 12:57 11,1 °C 11,1 °C 93 % 1009,0 hPa 0,0 mm 9,6 km/h (2 Bft) W-SW 255 ° 0 min 0,000 mm 0,9 UV-I 93 W/m² 10,0 °C 11,1 °C 14,5 km/h (3 Bft)
26.07.2017 12:58 11,1 °C 11,1 °C 93 % 1009,0 hPa 0,2 mm 6,5 km/h (2 Bft) W 269 ° 0 min 0,000 mm 0,9 UV-I 91 W/m² 10,0 °C 11,1 °C 11,3 km/h (2 Bft)
26.07.2017 12:59 11,1 °C 11,1 °C 93 % 1009,0 hPa 0,0 mm 8,5 km/h (2 Bft) W-SW 250 ° 0 min 0,000 mm 0,9 UV-I 95 W/m² 10,0 °C 11,1 °C 16,1 km/h (3 Bft)
26.07.2017 13:00 11,1 °C 11,1 °C 93 % 1009,1 hPa 0,0 mm 12,2 km/h (2 Bft) W 271 ° 0 min 0,051 mm 0,8 UV-I 88 W/m² 10,0 °C 11,1 °C 24,1 km/h (4 Bft)
26.07.2017 13:01 11,1 °C 11,1 °C 93 % 1009,1 hPa 0,2 mm 9,4 km/h (2 Bft) W 280 ° 0 min 0,000 mm 0,8 UV-I 84 W/m² 10,0 °C 11,1 °C 17,7 km/h (3 Bft)
26.07.2017 13:03 11,1 °C 11,1 °C 94 % 1009,1 hPa 0,2 mm 7,4 km/h (2 Bft) W 269 ° 0 min 0,000 mm 0,6 UV-I 70 W/m² 10,2 °C 11,1 °C 17,7 km/h (3 Bft)
26.07.2017 13:04 11,0 °C 11,1 °C 93 % 1009,1 hPa 0,0 mm 9,1 km/h (2 Bft) SW 219 ° 0 min 0,000 mm 0,9 UV-I 97 W/m² 9,9 °C 11,0 °C 12,9 km/h (3 Bft)
26.07.2017 13:05 11,0 °C 11,0 °C 93 % 1009,1 hPa 0,2 mm 9,3 km/h (2 Bft) W 262 ° 0 min 0,000 mm 1,0 UV-I 105 W/m² 9,9 °C 11,0 °C 14,5 km/h (3 Bft)
26.07.2017 13:06 11,1 °C 11,1 °C 94 % 1009,1 hPa 0,0 mm 13,4 km/h (3 Bft) W 281 ° 0 min 0,000 mm 1,0 UV-I 114 W/m² 10,2 °C 11,1 °C 19,3 km/h (3 Bft)
26.07.2017 13:07 11,1 °C 11,1 °C 94 % 1009,1 hPa 0,2 mm 14,3 km/h (3 Bft) W 261 ° 0 min 0,000 mm 1,1 UV-I 120 W/m² 10,2 °C 11,1 °C 20,9 km/h (4 Bft)
26.07.2017 13:08 11,0 °C 11,1 °C 94 % 1009,1 hPa 0,0 mm 8,3 km/h (2 Bft) SW 222 ° 0 min 0,000 mm 1,1 UV-I 127 W/m² 10,1 °C 11,0 °C 16,1 km/h (3 Bft)
26.07.2017 13:09 11,1 °C 11,1 °C 94 % 1009,1 hPa 0,0 mm 15,4 km/h (3 Bft) W-SW 255 ° 0 min 0,000 mm 1,1 UV-I 120 W/m² 10,2 °C 11,1 °C 22,5 km/h (4 Bft)
26.07.2017 13:10 11,1 °C 11,1 °C 94 % 1009,1 hPa 0,2 mm 11,2 km/h (2 Bft) W 265 ° 0 min 0,000 mm 0,9 UV-I 107 W/m² 10,2 °C 11,1 °C 14,5 km/h (3 Bft)
26.07.2017 13:11 11,1 °C 11,1 °C 94 % 1009,1 hPa 0,0 mm 9,0 km/h (2 Bft) W 263 ° 0 min 0,000 mm 0,9 UV-I 98 W/m² 10,2 °C 11,1 °C 11,3 km/h (2 Bft)
26.07.2017 13:12 11,1 °C 11,1 °C 94 % 1009,1 hPa 0,0 mm 7,4 km/h (2 Bft) W 263 ° 0 min 0,000 mm 0,9 UV-I 109 W/m² 10,2 °C 11,1 °C 14,5 km/h (3 Bft)
26.07.2017 13:13 11,1 °C 11,1 °C 94 % 1009,2 hPa 0,2 mm 7,8 km/h (2 Bft) W-SW 247 ° 0 min 0,000 mm 0,7 UV-I 86 W/m² 10,2 °C 11,1 °C 17,7 km/h (3 Bft)
26.07.2017 13:14 11,1 °C 11,1 °C 94 % 1009,2 hPa 0,0 mm 9,3 km/h (2 Bft) W 267 ° 0 min 0,000 mm 0,8 UV-I 84 W/m² 10,2 °C 11,1 °C 14,5 km/h (3 Bft)
26.07.2017 13:15 11,1 °C 11,1 °C 94 % 1009,1 hPa 0,2 mm 12,9 km/h (3 Bft) W 260 ° 0 min 0,000 mm 0,9 UV-I 111 W/m² 10,2 °C 11,1 °C 19,3 km/h (3 Bft)
26.07.2017 13:16 11,1 °C 11,1 °C 94 % 1009,1 hPa 0,0 mm 12,1 km/h (2 Bft) SW 234 ° 0 min 0,000 mm 1,0 UV-I 109 W/m² 10,2 °C 11,1 °C 20,9 km/h (4 Bft)
26.07.2017 13:17 11,1 °C 11,1 °C 94 % 1009,1 hPa 0,0 mm 12,1 km/h (2 Bft) W 265 ° 0 min 0,000 mm 0,8 UV-I 91 W/m² 10,2 °C 11,1 °C 16,1 km/h (3 Bft)
26.07.2017 13:18 11,1 °C 11,1 °C 94 % 1009,2 hPa 0,2 mm 8,6 km/h (2 Bft) W-SW 248 ° 0 min 0,000 mm 0,9 UV-I 104 W/m² 10,2 °C 11,1 °C 16,1 km/h (3 Bft)
26.07.2017 13:19 11,1 °C 11,1 °C 94 % 1009,2 hPa 0,0 mm 10,5 km/h (2 Bft) SW 223 ° 0 min 0,000 mm 1,0 UV-I 111 W/m² 10,2 °C 11,1 °C 16,1 km/h (3 Bft)
26.07.2017 13:20 11,1 °C 11,1 °C 94 % 1009,1 hPa 0,0 mm 10,2 km/h (2 Bft) W-SW 242 ° 0 min 0,000 mm 1,1 UV-I 125 W/m² 10,2 °C 11,1 °C 17,7 km/h (3 Bft)
26.07.2017 13:21 11,0 °C 11,1 °C 94 % 1009,1 hPa 0,0 mm 10,9 km/h (2 Bft) W-SW 253 ° 0 min 0,000 mm 1,1 UV-I 125 W/m² 10,1 °C 11,0 °C 20,9 km/h (4 Bft)
26.07.2017 13:22 11,1 °C 11,1 °C 94 % 1009,2 hPa 0,2 mm 10,5 km/h (2 Bft) W 275 ° 0 min 0,000 mm 1,1 UV-I 120 W/m² 10,2 °C 11,1 °C 16,1 km/h (3 Bft)
26.07.2017 13:23 11,1 °C 11,1 °C 94 % 1009,2 hPa 0,0 mm 19,6 km/h (3 Bft) W-SW 239 ° 0 min 0,000 mm 1,0 UV-I 109 W/m² 10,2 °C 11,1 °C 29,0 km/h (5 Bft)
26.07.2017 13:24 11,2 °C 11,2 °C 94 % 1009,0 hPa 0,0 mm 12,4 km/h (3 Bft) W 265 ° 0 min 0,000 mm 1,0 UV-I 113 W/m² 10,3 °C 11,2 °C 24,1 km/h (4 Bft)
26.07.2017 13:25 11,2 °C 11,2 °C 94 % 1009,1 hPa 0,0 mm 16,4 km/h (3 Bft) S 186 ° 0 min 0,000 mm 1,1 UV-I 118 W/m² 10,3 °C 11,2 °C 30,6 km/h (5 Bft)
26.07.2017 13:26 11,2 °C 11,2 °C 94 % 1009,1 hPa 0,2 mm 7,5 km/h (2 Bft) W-NW 294 ° 0 min 0,000 mm 1,0 UV-I 109 W/m² 10,3 °C 11,2 °C 17,7 km/h (3 Bft)
26.07.2017 13:27 11,2 °C 11,2 °C 94 % 1009,2 hPa 0,0 mm 18,3 km/h (3 Bft) W 263 ° 0 min 0,000 mm 1,1 UV-I 120 W/m² 10,3 °C 11,2 °C 27,4 km/h (4 Bft)
26.07.2017 13:28 11,2 °C 11,2 °C 94 % 1009,1 hPa 0,0 mm 12,9 km/h (3 Bft) SW 218 ° 0 min 0,000 mm 1,2 UV-I 132 W/m² 10,3 °C 11,2 °C 20,9 km/h (4 Bft)
26.07.2017 13:29 11,2 °C 11,2 °C 94 % 1009,2 hPa 0,0 mm 13,1 km/h (3 Bft) W 259 ° 0 min 0,000 mm 1,2 UV-I 134 W/m² 10,3 °C 11,2 °C 19,3 km/h (3 Bft)
26.07.2017 13:30 11,2 °C 11,2 °C 94 % 1009,2 hPa 0,2 mm 16,1 km/h (3 Bft) W 261 ° 0 min 0,000 mm 1,1 UV-I 125 W/m² 10,3 °C 11,2 °C 22,5 km/h (4 Bft)
26.07.2017 13:31 11,2 °C 11,2 °C 94 % 1009,2 hPa 0,0 mm 9,8 km/h (2 Bft) W 262 ° 0 min 0,000 mm 1,0 UV-I 116 W/m² 10,3 °C 11,2 °C 24,1 km/h (4 Bft)
26.07.2017 13:32 11,2 °C 11,2 °C 94 % 1009,2 hPa 0,0 mm 14,6 km/h (3 Bft) W 271 ° 0 min 0,000 mm 1,0 UV-I 113 W/m² 10,3 °C 11,2 °C 19,3 km/h (3 Bft)
26.07.2017 13:33 11,2 °C 11,2 °C 94 % 1009,2 hPa 0,0 mm 10,1 km/h (2 Bft) W-NW 290 ° 0 min 0,000 mm 1,0 UV-I 118 W/m² 10,3 °C 11,2 °C 17,7 km/h (3 Bft)
26.07.2017 13:34 11,2 °C 11,2 °C 94 % 1009,3 hPa 0,2 mm 11,1 km/h (2 Bft) W 263 ° 0 min 0,000 mm 1,1 UV-I 118 W/m² 10,3 °C 11,2 °C 19,3 km/h (3 Bft)
26.07.2017 13:35 11,2 °C 11,2 °C 94 % 1009,2 hPa 0,0 mm 19,7 km/h (3 Bft) W 260 ° 0 min 0,000 mm 1,1 UV-I 120 W/m² 10,3 °C 11,2 °C 32,2 km/h (5 Bft)
26.07.2017 13:36 11,2 °C 11,2 °C 94 % 1009,3 hPa 0,0 mm 12,3 km/h (3 Bft) W-NW 301 ° 0 min 0,000 mm 1,2 UV-I 137 W/m² 10,3 °C 11,2 °C 17,7 km/h (3 Bft)
26.07.2017 13:38 11,2 °C 11,2 °C 94 % 1009,3 hPa 0,2 mm 10,8 km/h (2 Bft) W-SW 249 ° 0 min 0,000 mm 1,3 UV-I 121 W/m² 10,3 °C 11,2 °C 19,3 km/h (3 Bft)
26.07.2017 13:39 11,2 °C 11,2 °C 94 % 1009,2 hPa 0,2 mm 14,6 km/h (3 Bft) W 271 ° 0 min 0,000 mm 1,2 UV-I 130 W/m² 10,3 °C 11,2 °C 25,7 km/h (4 Bft)
26.07.2017 13:40 11,2 °C 11,3 °C 94 % 1009,2 hPa 0,0 mm 12,8 km/h (3 Bft) W 272 ° 0 min 0,000 mm 1,4 UV-I 160 W/m² 10,3 °C 11,2 °C 19,3 km/h (3 Bft)
26.07.2017 13:41 11,3 °C 11,3 °C 94 % 1009,2 hPa 0,0 mm 8,0 km/h (2 Bft) W-NW 292 ° 0 min 0,000 mm 1,5 UV-I 171 W/m² 10,4 °C 11,3 °C 12,9 km/h (3 Bft)
26.07.2017 13:44 11,3 °C 11,3 °C 94 % 1009,2 hPa 0,2 mm 19,2 km/h (3 Bft) W 277 ° 0 min 0,000 mm 1,4 UV-I 155 W/m² 10,4 °C 11,3 °C 27,4 km/h (4 Bft)
26.07.2017 13:45 11,3 °C 11,3 °C 94 % 1009,2 hPa 0,0 mm 13,7 km/h (3 Bft) W-NW 286 ° 0 min 0,000 mm 1,3 UV-I 146 W/m² 10,4 °C 11,3 °C 24,1 km/h (4 Bft)
26.07.2017 13:46 11,3 °C 11,3 °C 94 % 1009,2 hPa 0,0 mm 10,0 km/h (2 Bft) W 264 ° 0 min 0,000 mm 1,2 UV-I 137 W/m² 10,4 °C 11,3 °C 16,1 km/h (3 Bft)
26.07.2017 13:47 11,3 °C 11,3 °C 94 % 1009,2 hPa 0,0 mm 7,9 km/h (2 Bft) W-SW 242 ° 0 min 0,000 mm 1,3 UV-I 141 W/m² 10,4 °C 11,3 °C 14,5 km/h (3 Bft)
26.07.2017 13:48 11,3 °C 11,4 °C 94 % 1009,1 hPa 0,0 mm 9,0 km/h (2 Bft) W-SW 238 ° 0 min 0,000 mm 1,3 UV-I 151 W/m² 10,4 °C 11,3 °C 14,5 km/h (3 Bft)
26.07.2017 13:49 11,4 °C 11,4 °C 94 % 1009,1 hPa 0,0 mm 13,5 km/h (3 Bft) W 273 ° 0 min 0,000 mm 1,4 UV-I 158 W/m² 10,5 °C 11,4 °C 16,1 km/h (3 Bft)
26.07.2017 13:50 11,4 °C 11,4 °C 94 % 1009,2 hPa 0,0 mm 16,2 km/h (3 Bft) W 261 ° 0 min 0,000 mm 1,4 UV-I 155 W/m² 10,5 °C 11,4 °C 27,4 km/h (4 Bft)
26.07.2017 13:51 11,4 °C 11,4 °C 94 % 1009,2 hPa 0,2 mm 18,0 km/h (3 Bft) W-SW 242 ° 0 min 0,000 mm 1,4 UV-I 156 W/m² 10,5 °C 11,4 °C 27,4 km/h (4 Bft)
26.07.2017 13:52 11,4 °C 11,4 °C 94 % 1009,2 hPa 0,0 mm 12,8 km/h (3 Bft) W 275 ° 0 min 0,000 mm 1,4 UV-I 155 W/m² 10,5 °C 11,4 °C 22,5 km/h (4 Bft)
26.07.2017 13:53 11,4 °C 11,4 °C 94 % 1009,2 hPa 0,0 mm 9,5 km/h (2 Bft) W 269 ° 0 min 0,000 mm 1,4 UV-I 160 W/m² 10,5 °C 11,4 °C 14,5 km/h (3 Bft)
26.07.2017 13:54 11,4 °C 11,4 °C 94 % 1009,2 hPa 0,0 mm 13,7 km/h (3 Bft) SW 236 ° 0 min 0,000 mm 1,4 UV-I 156 W/m² 10,5 °C 11,4 °C 16,1 km/h (3 Bft)
26.07.2017 13:55 11,4 °C 11,4 °C 94 % 1009,2 hPa 0,0 mm 13,4 km/h (3 Bft) W 268 ° 0 min 0,000 mm 1,4 UV-I 158 W/m² 10,5 °C 11,4 °C 17,7 km/h (3 Bft)
26.07.2017 13:56 11,4 °C 11,4 °C 94 % 1009,2 hPa 0,0 mm 10,7 km/h (2 Bft) W-SW 246 ° 0 min 0,000 mm 1,4 UV-I 146 W/m² 10,5 °C 11,4 °C 16,1 km/h (3 Bft)
26.07.2017 13:57 11,4 °C 11,5 °C 94 % 1009,2 hPa 0,0 mm 10,6 km/h (2 Bft) NW 314 ° 0 min 0,000 mm 1,0 UV-I 121 W/m² 10,5 °C 11,4 °C 16,1 km/h (3 Bft)
26.07.2017 13:58 11,4 °C 11,5 °C 94 % 1009,2 hPa 0,0 mm 8,0 km/h (2 Bft) W 259 ° 0 min 0,000 mm 1,2 UV-I 125 W/m² 10,5 °C 11,4 °C 16,1 km/h (3 Bft)
26.07.2017 13:59 11,4 °C 11,5 °C 93 % 1009,3 hPa 0,0 mm 16,5 km/h (3 Bft) W 259 ° 0 min 0,000 mm 1,3 UV-I 141 W/m² 10,3 °C 11,4 °C 22,5 km/h (4 Bft)
26.07.2017 14:00 11,4 °C 11,5 °C 94 % 1009,3 hPa 0,2 mm 14,8 km/h (3 Bft) W-NW 285 ° 0 min 0,000 mm 1,2 UV-I 132 W/m² 10,5 °C 11,4 °C 25,7 km/h (4 Bft)
26.07.2017 14:01 11,4 °C 11,5 °C 94 % 1009,3 hPa 0,0 mm 10,8 km/h (2 Bft) W-SW 251 ° 0 min 0,076 mm 1,2 UV-I 132 W/m² 10,5 °C 11,4 °C 16,1 km/h (3 Bft)
26.07.2017 14:02 11,4 °C 11,4 °C 93 % 1009,3 hPa 0,0 mm 15,7 km/h (3 Bft) W 275 ° 0 min 0,000 mm 1,2 UV-I 123 W/m² 10,3 °C 11,4 °C 20,9 km/h (4 Bft)
26.07.2017 14:03 11,5 °C 11,5 °C 94 % 1009,3 hPa 0,0 mm 12,7 km/h (3 Bft) W 278 ° 0 min 0,000 mm 1,2 UV-I 127 W/m² 10,6 °C 11,5 °C 19,3 km/h (3 Bft)
26.07.2017 14:04 11,4 °C 11,5 °C 94 % 1009,3 hPa 0,2 mm 11,4 km/h (2 Bft) W-NW 285 ° 0 min 0,000 mm 1,3 UV-I 139 W/m² 10,5 °C 11,4 °C 16,1 km/h (3 Bft)
26.07.2017 14:05 11,4 °C 11,5 °C 94 % 1009,3 hPa 0,0 mm 9,8 km/h (2 Bft) W 274 ° 0 min 0,000 mm 1,2 UV-I 132 W/m² 10,5 °C 11,4 °C 16,1 km/h (3 Bft)
26.07.2017 14:06 11,5 °C 11,5 °C 94 % 1009,3 hPa 0,0 mm 10,4 km/h (2 Bft) N-NW 327 ° 0 min 0,000 mm 1,3 UV-I 139 W/m² 10,6 °C 11,5 °C 17,7 km/h (3 Bft)
26.07.2017 14:07 11,5 °C 11,5 °C 94 % 1009,4 hPa 0,0 mm 13,3 km/h (3 Bft) W-NW 285 ° 0 min 0,000 mm 1,3 UV-I 125 W/m² 10,6 °C 11,5 °C 20,9 km/h (4 Bft)
26.07.2017 14:08 11,4 °C 11,5 °C 94 % 1009,4 hPa 0,0 mm 11,4 km/h (2 Bft) W-NW 284 ° 0 min 0,000 mm 1,0 UV-I 109 W/m² 10,5 °C 11,4 °C 14,5 km/h (3 Bft)
26.07.2017 14:10 11,5 °C 11,5 °C 94 % 1009,3 hPa 0,2 mm 8,3 km/h (2 Bft) SW 215 ° 0 min 0,000 mm 1,1 UV-I 121 W/m² 10,6 °C 11,5 °C 17,7 km/h (3 Bft)
26.07.2017 14:11 11,5 °C 11,5 °C 94 % 1009,3 hPa 0,0 mm 11,2 km/h (2 Bft) NW 304 ° 0 min 0,000 mm 1,1 UV-I 120 W/m² 10,6 °C 11,5 °C 17,7 km/h (3 Bft)
26.07.2017 14:12 11,4 °C 11,5 °C 94 % 1009,3 hPa 0,2 mm 11,6 km/h (2 Bft) W 278 ° 0 min 0,000 mm 1,1 UV-I 118 W/m² 10,5 °C 11,4 °C 14,5 km/h (3 Bft)
26.07.2017 14:13 11,5 °C 11,5 °C 94 % 1009,4 hPa 0,0 mm 9,3 km/h (2 Bft) W-NW 301 ° 0 min 0,000 mm 0,8 UV-I 91 W/m² 10,6 °C 11,5 °C 14,5 km/h (3 Bft)
26.07.2017 14:14 11,5 °C 11,5 °C 94 % 1009,5 hPa 0,0 mm 10,1 km/h (2 Bft) W-SW 248 ° 0 min 0,000 mm 1,0 UV-I 105 W/m² 10,6 °C 11,5 °C 17,7 km/h (3 Bft)
26.07.2017 14:15 11,5 °C 11,5 °C 94 % 1009,5 hPa 0,0 mm 16,0 km/h (3 Bft) W-NW 296 ° 0 min 0,000 mm 0,8 UV-I 91 W/m² 10,6 °C 11,5 °C 20,9 km/h (4 Bft)
26.07.2017 14:16 11,4 °C 11,5 °C 93 % 1009,5 hPa 0,2 mm 11,5 km/h (2 Bft) W-NW 302 ° 0 min 0,000 mm 0,9 UV-I 97 W/m² 10,3 °C 11,4 °C 17,7 km/h (3 Bft)
26.07.2017 14:17 11,4 °C 11,5 °C 93 % 1009,5 hPa 0,0 mm 11,4 km/h (2 Bft) W-NW 283 ° 0 min 0,000 mm 1,0 UV-I 109 W/m² 10,3 °C 11,4 °C 17,7 km/h (3 Bft)
26.07.2017 14:18 11,4 °C 11,4 °C 93 % 1009,5 hPa 0,2 mm 8,7 km/h (2 Bft) W-NW 288 ° 0 min 0,000 mm 0,9 UV-I 105 W/m² 10,3 °C 11,4 °C 20,9 km/h (4 Bft)
26.07.2017 14:19 11,4 °C 11,4 °C 93 % 1009,5 hPa 0,0 mm 16,4 km/h (3 Bft) W 271 ° 0 min 0,000 mm 1,0 UV-I 111 W/m² 10,3 °C 11,4 °C 24,1 km/h (4 Bft)
26.07.2017 14:20 11,4 °C 11,4 °C 93 % 1009,5 hPa 0,0 mm 12,2 km/h (2 Bft) W-SW 256 ° 0 min 0,000 mm 1,0 UV-I 113 W/m² 10,3 °C 11,4 °C 17,7 km/h (3 Bft)
26.07.2017 14:21 11,4 °C 11,4 °C 93 % 1009,5 hPa 0,2 mm 11,9 km/h (2 Bft) W 264 ° 0 min 0,000 mm 1,0 UV-I 105 W/m² 10,3 °C 11,4 °C 25,7 km/h (4 Bft)
26.07.2017 14:22 11,5 °C 11,5 °C 94 % 1009,5 hPa 0,0 mm 10,5 km/h (2 Bft) W 264 ° 0 min 0,000 mm 1,0 UV-I 111 W/m² 10,6 °C 11,5 °C 16,1 km/h (3 Bft)
26.07.2017 14:23 11,4 °C 11,5 °C 94 % 1009,5 hPa 0,0 mm 18,1 km/h (3 Bft) W 262 ° 0 min 0,000 mm 1,1 UV-I 123 W/m² 10,5 °C 11,4 °C 29,0 km/h (5 Bft)
26.07.2017 14:24 11,4 °C 11,4 °C 93 % 1009,6 hPa 0,2 mm 15,1 km/h (3 Bft) W 275 ° 0 min 0,000 mm 1,1 UV-I 132 W/m² 10,3 °C 11,4 °C 22,5 km/h (4 Bft)
26.07.2017 14:25 11,4 °C 11,4 °C 94 % 1009,6 hPa 0,0 mm 18,4 km/h (3 Bft) W-NW 286 ° 0 min 0,000 mm 1,0 UV-I 102 W/m² 10,5 °C 11,4 °C 27,4 km/h (4 Bft)
26.07.2017 14:26 11,4 °C 11,4 °C 94 % 1009,6 hPa 0,0 mm 16,2 km/h (3 Bft) W 273 ° 0 min 0,000 mm 0,9 UV-I 105 W/m² 10,5 °C 11,4 °C 22,5 km/h (4 Bft)
26.07.2017 14:27 11,4 °C 11,4 °C 93 % 1009,7 hPa 0,0 mm 12,5 km/h (3 Bft) W-SW 237 ° 0 min 0,000 mm 0,9 UV-I 104 W/m² 10,3 °C 11,4 °C 16,1 km/h (3 Bft)
26.07.2017 14:28 11,4 °C 11,4 °C 93 % 1009,6 hPa 0,0 mm 16,1 km/h (3 Bft) W 260 ° 0 min 0,000 mm 1,2 UV-I 125 W/m² 10,3 °C 11,4 °C 22,5 km/h (4 Bft)
26.07.2017 14:29 11,4 °C 11,4 °C 93 % 1009,7 hPa 0,0 mm 19,8 km/h (3 Bft) W 278 ° 0 min 0,000 mm 1,2 UV-I 139 W/m² 10,3 °C 11,4 °C 32,2 km/h (5 Bft)
26.07.2017 14:30 11,4 °C 11,4 °C 93 % 1009,7 hPa 0,0 mm 11,9 km/h (2 Bft) W-SW 250 ° 0 min 0,000 mm 1,2 UV-I 134 W/m² 10,3 °C 11,4 °C 19,3 km/h (3 Bft)
26.07.2017 14:31 11,4 °C 11,4 °C 93 % 1009,7 hPa 0,2 mm 8,3 km/h (2 Bft) W-NW 296 ° 0 min 0,000 mm 1,3 UV-I 134 W/m² 10,3 °C 11,4 °C 11,3 km/h (2 Bft)
26.07.2017 14:32 11,4 °C 11,4 °C 93 % 1009,8 hPa 0,0 mm 12,8 km/h (3 Bft) W-NW 289 ° 0 min 0,000 mm 1,0 UV-I 125 W/m² 10,3 °C 11,4 °C 19,3 km/h (3 Bft)
26.07.2017 14:33 11,5 °C 11,5 °C 94 % 1009,8 hPa 0,0 mm 14,1 km/h (3 Bft) W-NW 284 ° 0 min 0,000 mm 1,1 UV-I 127 W/m² 10,6 °C 11,5 °C 22,5 km/h (4 Bft)
26.07.2017 14:34 11,6 °C 11,6 °C 94 % 1009,8 hPa 0,0 mm 16,3 km/h (3 Bft) W-NW 290 ° 0 min 0,000 mm 1,1 UV-I 123 W/m² 10,7 °C 11,6 °C 22,5 km/h (4 Bft)
26.07.2017 14:35 11,6 °C 11,6 °C 93 % 1009,9 hPa 0,0 mm 15,1 km/h (3 Bft) W 272 ° 0 min 0,000 mm 1,2 UV-I 139 W/m² 10,5 °C 11,6 °C 22,5 km/h (4 Bft)
26.07.2017 14:36 11,6 °C 11,6 °C 94 % 1009,9 hPa 0,0 mm 7,1 km/h (2 Bft) W 265 ° 0 min 0,000 mm 1,2 UV-I 142 W/m² 10,7 °C 11,6 °C 12,9 km/h (3 Bft)
26.07.2017 14:37 11,6 °C 11,6 °C 94 % 1009,9 hPa 0,0 mm 14,3 km/h (3 Bft) W 261 ° 0 min 0,000 mm 1,1 UV-I 146 W/m² 10,7 °C 11,6 °C 24,1 km/h (4 Bft)
26.07.2017 14:38 11,6 °C 11,6 °C 94 % 1009,9 hPa 0,2 mm 17,8 km/h (3 Bft) W 277 ° 0 min 0,000 mm 1,5 UV-I 172 W/m² 10,7 °C 11,6 °C 27,4 km/h (4 Bft)
26.07.2017 14:39 11,7 °C 11,7 °C 94 % 1010,0 hPa 0,0 mm 11,3 km/h (2 Bft) W 281 ° 0 min 0,000 mm 1,5 UV-I 172 W/m² 10,8 °C 11,7 °C 19,3 km/h (3 Bft)
26.07.2017 14:40 11,6 °C 11,7 °C 94 % 1010,0 hPa 0,0 mm 16,6 km/h (3 Bft) NW 316 ° 0 min 0,000 mm 1,6 UV-I 185 W/m² 10,7 °C 11,6 °C 27,4 km/h (4 Bft)
26.07.2017 14:41 11,7 °C 11,7 °C 94 % 1010,0 hPa 0,0 mm 13,9 km/h (3 Bft) W 274 ° 0 min 0,000 mm 1,7 UV-I 193 W/m² 10,8 °C 11,7 °C 20,9 km/h (4 Bft)
26.07.2017 14:42 11,7 °C 11,7 °C 94 % 1010,0 hPa 0,0 mm 15,8 km/h (3 Bft) W 272 ° 0 min 0,000 mm 1,6 UV-I 195 W/m² 10,8 °C 11,7 °C 24,1 km/h (4 Bft)
26.07.2017 14:43 11,7 °C 11,7 °C 94 % 1010,0 hPa 0,0 mm 10,4 km/h (2 Bft) S-SW 209 ° 0 min 0,000 mm 1,7 UV-I 202 W/m² 10,8 °C 11,7 °C 19,3 km/h (3 Bft)
26.07.2017 14:44 11,7 °C 11,7 °C 94 % 1009,9 hPa 0,0 mm 17,7 km/h (3 Bft) W-SW 250 ° 0 min 0,000 mm 1,7 UV-I 199 W/m² 10,8 °C 11,7 °C 25,7 km/h (4 Bft)
26.07.2017 14:45 11,7 °C 11,7 °C 93 % 1010,0 hPa 0,0 mm 12,7 km/h (3 Bft) S 187 ° 0 min 0,000 mm 1,6 UV-I 195 W/m² 10,6 °C 11,7 °C 27,4 km/h (4 Bft)
26.07.2017 14:46 11,7 °C 11,7 °C 93 % 1010,0 hPa 0,2 mm 8,9 km/h (2 Bft) W 280 ° 0 min 0,000 mm 1,5 UV-I 179 W/m² 10,6 °C 11,7 °C 12,9 km/h (3 Bft)
26.07.2017 14:47 11,7 °C 11,7 °C 93 % 1010,0 hPa 0,0 mm 10,7 km/h (2 Bft) W 278 ° 0 min 0,000 mm 1,4 UV-I 160 W/m² 10,6 °C 11,7 °C 19,3 km/h (3 Bft)
26.07.2017 14:48 11,7 °C 11,8 °C 93 % 1010,0 hPa 0,0 mm 12,1 km/h (2 Bft) W-SW 254 ° 0 min 0,000 mm 1,6 UV-I 176 W/m² 10,6 °C 11,7 °C 20,9 km/h (4 Bft)
26.07.2017 14:49 11,7 °C 11,8 °C 94 % 1010,1 hPa 0,0 mm 11,9 km/h (2 Bft) W-SW 254 ° 0 min 0,000 mm 1,5 UV-I 172 W/m² 10,8 °C 11,7 °C 20,9 km/h (4 Bft)
26.07.2017 14:50 11,7 °C 11,8 °C 93 % 1010,1 hPa 0,0 mm 18,9 km/h (3 Bft) W-SW 244 ° 0 min 0,000 mm 1,3 UV-I 160 W/m² 10,6 °C 11,7 °C 38,6 km/h (5 Bft)
26.07.2017 14:51 11,7 °C 11,8 °C 93 % 1010,2 hPa 0,2 mm 9,4 km/h (2 Bft) NW 305 ° 0 min 0,000 mm 1,2 UV-I 144 W/m² 10,6 °C 11,7 °C 22,5 km/h (4 Bft)
26.07.2017 14:52 11,7 °C 11,7 °C 93 % 1010,2 hPa 0,0 mm 12,9 km/h (3 Bft) W 265 ° 0 min 0,000 mm 1,4 UV-I 163 W/m² 10,6 °C 11,7 °C 22,5 km/h (4 Bft)
26.07.2017 14:53 11,7 °C 11,7 °C 93 % 1010,2 hPa 0,0 mm 15,9 km/h (3 Bft) W-NW 296 ° 0 min 0,000 mm 1,0 UV-I 128 W/m² 10,6 °C 11,7 °C 24,1 km/h (4 Bft)
26.07.2017 14:54 11,7 °C 11,7 °C 93 % 1010,2 hPa 0,0 mm 10,7 km/h (2 Bft) W-SW 242 ° 0 min 0,000 mm 1,2 UV-I 151 W/m² 10,6 °C 11,7 °C 16,1 km/h (3 Bft)
26.07.2017 14:55 11,7 °C 11,7 °C 93 % 1010,2 hPa 0,2 mm 8,0 km/h (2 Bft) W 277 ° 0 min 0,000 mm 1,3 UV-I 158 W/m² 10,6 °C 11,7 °C 12,9 km/h (3 Bft)
26.07.2017 14:56 11,7 °C 11,7 °C 94 % 1010,3 hPa 0,0 mm 8,3 km/h (2 Bft) W-NW 288 ° 0 min 0,000 mm 1,4 UV-I 163 W/m² 10,8 °C 11,7 °C 12,9 km/h (3 Bft)
26.07.2017 14:57 11,7 °C 11,8 °C 94 % 1010,3 hPa 0,0 mm 15,1 km/h (3 Bft) W-NW 290 ° 0 min 0,000 mm 1,4 UV-I 163 W/m² 10,8 °C 11,7 °C 20,9 km/h (4 Bft)
26.07.2017 14:58 11,7 °C 11,7 °C 94 % 1010,3 hPa 0,0 mm 13,0 km/h (3 Bft) W-SW 238 ° 0 min 0,000 mm 1,4 UV-I 167 W/m² 10,8 °C 11,7 °C 17,7 km/h (3 Bft)
26.07.2017 14:59 11,7 °C 11,7 °C 94 % 1010,3 hPa 0,0 mm 10,4 km/h (2 Bft) W 278 ° 0 min 0,000 mm 1,4 UV-I 163 W/m² 10,8 °C 11,7 °C 17,7 km/h (3 Bft)
26.07.2017 15:00 11,7 °C 11,7 °C 94 % 1010,3 hPa 0,2 mm 14,4 km/h (3 Bft) W 277 ° 0 min 0,000 mm 1,4 UV-I 158 W/m² 10,8 °C 11,7 °C 24,1 km/h (4 Bft)
26.07.2017 15:01 11,7 °C 11,7 °C 94 % 1010,3 hPa 0,0 mm 13,4 km/h (3 Bft) W-SW 246 ° 0 min 0,077 mm 1,3 UV-I 156 W/m² 10,8 °C 11,7 °C 19,3 km/h (3 Bft)
26.07.2017 15:02 11,7 °C 11,7 °C 94 % 1010,3 hPa 0,0 mm 15,4 km/h (3 Bft) S-SW 196 ° 0 min 0,000 mm 1,3 UV-I 153 W/m² 10,8 °C 11,7 °C 20,9 km/h (4 Bft)
26.07.2017 15:03 11,7 °C 11,7 °C 93 % 1010,4 hPa 0,0 mm 16,4 km/h (3 Bft) W 264 ° 0 min 0,000 mm 1,3 UV-I 146 W/m² 10,6 °C 11,7 °C 25,7 km/h (4 Bft)
26.07.2017 15:04 11,7 °C 11,7 °C 93 % 1010,4 hPa 0,0 mm 14,7 km/h (3 Bft) W-SW 254 ° 0 min 0,000 mm 1,2 UV-I 141 W/m² 10,6 °C 11,7 °C 24,1 km/h (4 Bft)
26.07.2017 15:05 11,7 °C 11,7 °C 93 % 1010,4 hPa 0,0 mm 11,5 km/h (2 Bft) W 270 ° 0 min 0,000 mm 1,2 UV-I 135 W/m² 10,6 °C 11,7 °C 16,1 km/h (3 Bft)
26.07.2017 15:06 11,7 °C 11,7 °C 94 % 1010,4 hPa 0,2 mm 13,9 km/h (3 Bft) W 270 ° 0 min 0,000 mm 1,1 UV-I 127 W/m² 10,8 °C 11,7 °C 20,9 km/h (4 Bft)
26.07.2017 15:07 11,7 °C 11,7 °C 93 % 1010,4 hPa 0,0 mm 10,1 km/h (2 Bft) W-SW 251 ° 0 min 0,000 mm 1,0 UV-I 121 W/m² 10,6 °C 11,7 °C 17,7 km/h (3 Bft)
26.07.2017 15:08 11,7 °C 11,7 °C 94 % 1010,4 hPa 0,0 mm 7,8 km/h (2 Bft) W-SW 242 ° 0 min 0,000 mm 1,0 UV-I 121 W/m² 10,8 °C 11,7 °C 14,5 km/h (3 Bft)
26.07.2017 15:09 11,7 °C 11,7 °C 93 % 1010,4 hPa 0,0 mm 8,2 km/h (2 Bft) W-SW 253 ° 0 min 0,000 mm 1,1 UV-I 121 W/m² 10,6 °C 11,7 °C 12,9 km/h (3 Bft)
26.07.2017 15:10 11,7 °C 11,7 °C 93 % 1010,4 hPa 0,2 mm 10,9 km/h (2 Bft) W-SW 238 ° 0 min 0,000 mm 1,1 UV-I 123 W/m² 10,6 °C 11,7 °C 19,3 km/h (3 Bft)
26.07.2017 15:11 11,7 °C 11,7 °C 93 % 1010,4 hPa 0,0 mm 8,5 km/h (2 Bft) W 261 ° 0 min 0,000 mm 1,1 UV-I 127 W/m² 10,6 °C 11,7 °C 16,1 km/h (3 Bft)
26.07.2017 15:12 11,7 °C 11,7 °C 94 % 1010,5 hPa 0,0 mm 10,5 km/h (2 Bft) W 269 ° 0 min 0,000 mm 1,1 UV-I 127 W/m² 10,8 °C 11,7 °C 16,1 km/h (3 Bft)
26.07.2017 15:13 11,7 °C 11,7 °C 94 % 1010,4 hPa 0,0 mm 5,5 km/h (1 Bft) SW 235 ° 0 min 0,000 mm 1,1 UV-I 128 W/m² 10,8 °C 11,7 °C 11,3 km/h (2 Bft)
26.07.2017 15:14 11,7 °C 11,7 °C 94 % 1010,4 hPa 0,2 mm 10,7 km/h (2 Bft) W-SW 253 ° 0 min 0,000 mm 1,0 UV-I 118 W/m² 10,8 °C 11,7 °C 19,3 km/h (3 Bft)
26.07.2017 15:15 11,7 °C 11,7 °C 93 % 1010,5 hPa 0,0 mm 8,4 km/h (2 Bft) W-NW 289 ° 0 min 0,000 mm 1,0 UV-I 109 W/m² 10,6 °C 11,7 °C 14,5 km/h (3 Bft)
26.07.2017 15:16 11,7 °C 11,7 °C 93 % 1010,5 hPa 0,0 mm 8,4 km/h (2 Bft) NW 304 ° 0 min 0,000 mm 1,0 UV-I 118 W/m² 10,6 °C 11,7 °C 12,9 km/h (3 Bft)
26.07.2017 15:17 11,7 °C 11,7 °C 93 % 1010,5 hPa 0,0 mm 7,0 km/h (2 Bft) W-SW 257 ° 0 min 0,000 mm 1,1 UV-I 120 W/m² 10,6 °C 11,7 °C 14,5 km/h (3 Bft)
26.07.2017 15:18 11,7 °C 11,7 °C 93 % 1010,6 hPa 0,2 mm 13,4 km/h (3 Bft) W 270 ° 0 min 0,000 mm 1,2 UV-I 128 W/m² 10,6 °C 11,7 °C 20,9 km/h (4 Bft)
26.07.2017 15:19 11,7 °C 11,7 °C 93 % 1010,5 hPa 0,0 mm 14,0 km/h (3 Bft) W-SW 252 ° 0 min 0,000 mm 1,1 UV-I 128 W/m² 10,6 °C 11,7 °C 19,3 km/h (3 Bft)
26.07.2017 15:20 11,7 °C 11,7 °C 94 % 1010,5 hPa 0,0 mm 13,4 km/h (3 Bft) W-NW 287 ° 0 min 0,000 mm 1,2 UV-I 135 W/m² 10,8 °C 11,7 °C 19,3 km/h (3 Bft)
26.07.2017 15:21 11,7 °C 11,7 °C 93 % 1010,6 hPa 0,0 mm 10,9 km/h (2 Bft) W-SW 254 ° 0 min 0,000 mm 1,1 UV-I 125 W/m² 10,6 °C 11,7 °C 16,1 km/h (3 Bft)
26.07.2017 15:22 11,7 °C 11,7 °C 93 % 1010,6 hPa 0,2 mm 13,2 km/h (3 Bft) W-NW 290 ° 0 min 0,000 mm 1,1 UV-I 123 W/m² 10,6 °C 11,7 °C 22,5 km/h (4 Bft)
26.07.2017 15:23 11,7 °C 11,7 °C 93 % 1010,6 hPa 0,0 mm 12,7 km/h (3 Bft) W-SW 254 ° 0 min 0,000 mm 1,1 UV-I 135 W/m² 10,6 °C 11,7 °C 17,7 km/h (3 Bft)
26.07.2017 15:24 11,7 °C 11,7 °C 93 % 1010,6 hPa 0,0 mm 11,9 km/h (2 Bft) W 267 ° 0 min 0,000 mm 1,2 UV-I 135 W/m² 10,6 °C 11,7 °C 17,7 km/h (3 Bft)
26.07.2017 15:25 11,7 °C 11,7 °C 93 % 1010,6 hPa 0,0 mm 8,1 km/h (2 Bft) W 275 ° 0 min 0,000 mm 1,2 UV-I 137 W/m² 10,6 °C 11,7 °C 17,7 km/h (3 Bft)
26.07.2017 15:26 11,7 °C 11,7 °C 94 % 1010,6 hPa 0,0 mm 7,2 km/h (2 Bft) W-SW 250 ° 0 min 0,000 mm 1,3 UV-I 151 W/m² 10,8 °C 11,7 °C 14,5 km/h (3 Bft)
26.07.2017 15:27 11,7 °C 11,8 °C 94 % 1010,6 hPa 0,2 mm 15,6 km/h (3 Bft) W 260 ° 0 min 0,000 mm 1,3 UV-I 153 W/m² 10,8 °C 11,7 °C 24,1 km/h (4 Bft)
26.07.2017 15:28 11,7 °C 11,7 °C 93 % 1010,6 hPa 0,0 mm 16,0 km/h (3 Bft) W-SW 258 ° 0 min 0,000 mm 1,2 UV-I 144 W/m² 10,6 °C 11,7 °C 22,5 km/h (4 Bft)
26.07.2017 15:29 11,7 °C 11,7 °C 93 % 1010,6 hPa 0,0 mm 12,1 km/h (2 Bft) W-NW 298 ° 0 min 0,000 mm 1,1 UV-I 134 W/m² 10,6 °C 11,7 °C 22,5 km/h (4 Bft)
26.07.2017 15:30 11,7 °C 11,7 °C 93 % 1010,7 hPa 0,0 mm 12,1 km/h (2 Bft) W 279 ° 0 min 0,000 mm 1,2 UV-I 141 W/m² 10,6 °C 11,7 °C 17,7 km/h (3 Bft)
26.07.2017 15:31 11,8 °C 11,8 °C 93 % 1010,6 hPa 0,0 mm 13,4 km/h (3 Bft) W-NW 298 ° 0 min 0,000 mm 1,3 UV-I 149 W/m² 10,7 °C 11,8 °C 20,9 km/h (4 Bft)
26.07.2017 15:32 11,7 °C 11,8 °C 93 % 1010,6 hPa 0,2 mm 16,6 km/h (3 Bft) W-NW 285 ° 0 min 0,000 mm 1,2 UV-I 142 W/m² 10,6 °C 11,7 °C 20,9 km/h (4 Bft)
26.07.2017 15:33 11,8 °C 11,8 °C 93 % 1010,7 hPa 0,0 mm 12,0 km/h (2 Bft) W 266 ° 0 min 0,000 mm 1,1 UV-I 134 W/m² 10,7 °C 11,8 °C 25,7 km/h (4 Bft)
26.07.2017 15:34 11,8 °C 11,8 °C 94 % 1010,7 hPa 0,0 mm 20,4 km/h (4 Bft) W 267 ° 0 min 0,000 mm 1,2 UV-I 141 W/m² 10,9 °C 11,8 °C 27,4 km/h (4 Bft)
26.07.2017 15:35 11,8 °C 11,8 °C 93 % 1010,7 hPa 0,0 mm 13,7 km/h (3 Bft) W-NW 282 ° 0 min 0,000 mm 1,1 UV-I 128 W/m² 10,7 °C 11,8 °C 17,7 km/h (3 Bft)
26.07.2017 15:36 11,8 °C 11,8 °C 93 % 1010,7 hPa 0,0 mm 13,0 km/h (3 Bft) W 273 ° 0 min 0,000 mm 1,1 UV-I 125 W/m² 10,7 °C 11,8 °C 16,1 km/h (3 Bft)
26.07.2017 15:37 11,8 °C 11,8 °C 93 % 1010,7 hPa 0,2 mm 11,3 km/h (2 Bft) W 280 ° 0 min 0,000 mm 1,1 UV-I 123 W/m² 10,7 °C 11,8 °C 19,3 km/h (3 Bft)
26.07.2017 15:38 11,8 °C 11,8 °C 93 % 1010,6 hPa 0,0 mm 9,1 km/h (2 Bft) W-SW 254 ° 0 min 0,000 mm 1,0 UV-I 111 W/m² 10,7 °C 11,8 °C 12,9 km/h (3 Bft)
26.07.2017 15:39 11,8 °C 11,8 °C 93 % 1010,7 hPa 0,0 mm 14,8 km/h (3 Bft) W 279 ° 0 min 0,000 mm 0,9 UV-I 102 W/m² 10,7 °C 11,8 °C 20,9 km/h (4 Bft)
26.07.2017 15:40 11,8 °C 11,8 °C 93 % 1010,7 hPa 0,0 mm 16,6 km/h (3 Bft) W 263 ° 0 min 0,000 mm 0,7 UV-I 86 W/m² 10,7 °C 11,8 °C 25,7 km/h (4 Bft)
26.07.2017 15:41 11,7 °C 11,8 °C 93 % 1010,7 hPa 0,2 mm 18,2 km/h (3 Bft) W 281 ° 0 min 0,000 mm 0,6 UV-I 65 W/m² 10,6 °C 11,7 °C 27,4 km/h (4 Bft)
26.07.2017 15:42 11,7 °C 11,7 °C 93 % 1010,7 hPa 0,2 mm 15,5 km/h (3 Bft) W-SW 252 ° 0 min 0,000 mm 0,6 UV-I 65 W/m² 10,6 °C 11,7 °C 29,0 km/h (5 Bft)
26.07.2017 15:43 11,7 °C 11,7 °C 93 % 1010,7 hPa 0,0 mm 14,1 km/h (3 Bft) W-NW 290 ° 0 min 0,000 mm 0,6 UV-I 65 W/m² 10,6 °C 11,7 °C 19,3 km/h (3 Bft)
26.07.2017 15:44 11,7 °C 11,7 °C 93 % 1010,7 hPa 0,2 mm 15,0 km/h (3 Bft) W-NW 285 ° 0 min 0,000 mm 0,6 UV-I 65 W/m² 10,6 °C 11,7 °C 20,9 km/h (4 Bft)
26.07.2017 15:45 11,6 °C 11,7 °C 92 % 1010,8 hPa 0,2 mm 17,4 km/h (3 Bft) W-NW 291 ° 0 min 0,000 mm 0,6 UV-I 65 W/m² 10,3 °C 11,6 °C 25,7 km/h (4 Bft)
26.07.2017 15:46 11,6 °C 11,6 °C 92 % 1010,8 hPa 0,2 mm 8,2 km/h (2 Bft) W-SW 256 ° 0 min 0,000 mm 0,6 UV-I 63 W/m² 10,3 °C 11,6 °C 14,5 km/h (3 Bft)
26.07.2017 15:47 11,6 °C 11,6 °C 92 % 1010,8 hPa 0,2 mm 15,9 km/h (3 Bft) W-NW 290 ° 0 min 0,000 mm 0,6 UV-I 63 W/m² 10,3 °C 11,6 °C 24,1 km/h (4 Bft)
26.07.2017 15:48 11,6 °C 11,6 °C 92 % 1010,8 hPa 0,2 mm 12,1 km/h (2 Bft) W 281 ° 0 min 0,000 mm 0,5 UV-I 58 W/m² 10,3 °C 11,6 °C 17,7 km/h (3 Bft)
26.07.2017 15:49 11,5 °C 11,6 °C 92 % 1010,9 hPa 0,2 mm 9,2 km/h (2 Bft) W-SW 254 ° 0 min 0,000 mm 0,0 UV-I 51 W/m² 10,2 °C 11,5 °C 22,5 km/h (4 Bft)
26.07.2017 15:50 11,4 °C 11,5 °C 92 % 1010,8 hPa 0,2 mm 15,4 km/h (3 Bft) W 259 ° 0 min 0,000 mm 0,0 UV-I 51 W/m² 10,1 °C 11,4 °C 20,9 km/h (4 Bft)
26.07.2017 15:51 11,4 °C 11,4 °C 93 % 1010,8 hPa 0,2 mm 8,6 km/h (2 Bft) W-SW 258 ° 0 min 0,000 mm 0,0 UV-I 54 W/m² 10,3 °C 11,4 °C 16,1 km/h (3 Bft)
26.07.2017 15:52 11,4 °C 11,4 °C 93 % 1010,8 hPa 0,2 mm 7,6 km/h (2 Bft) W-SW 248 ° 0 min 0,000 mm 0,0 UV-I 54 W/m² 10,3 °C 11,4 °C 22,5 km/h (4 Bft)
26.07.2017 15:53 11,4 °C 11,4 °C 93 % 1010,8 hPa 0,2 mm 11,7 km/h (2 Bft) W 266 ° 0 min 0,000 mm 0,0 UV-I 46 W/m² 10,3 °C 11,4 °C 22,5 km/h (4 Bft)
26.07.2017 15:54 11,3 °C 11,4 °C 93 % 1010,9 hPa 0,2 mm 10,7 km/h (2 Bft) W-NW 283 ° 0 min 0,000 mm 0,0 UV-I 47 W/m² 10,2 °C 11,3 °C 20,9 km/h (4 Bft)
26.07.2017 15:55 11,3 °C 11,3 °C 93 % 1010,9 hPa 0,2 mm 13,2 km/h (3 Bft) W-NW 303 ° 0 min 0,000 mm 0,0 UV-I 49 W/m² 10,2 °C 11,3 °C 20,9 km/h (4 Bft)
26.07.2017 15:56 11,3 °C 11,3 °C 93 % 1011,0 hPa 0,0 mm 18,8 km/h (3 Bft) W-SW 249 ° 0 min 0,000 mm 0,0 UV-I 54 W/m² 10,2 °C 11,3 °C 24,1 km/h (4 Bft)
26.07.2017 15:57 11,3 °C 11,3 °C 93 % 1011,0 hPa 0,4 mm 16,5 km/h (3 Bft) W-NW 284 ° 0 min 0,000 mm 0,6 UV-I 62 W/m² 10,2 °C 11,3 °C 24,1 km/h (4 Bft)
26.07.2017 15:58 11,3 °C 11,3 °C 93 % 1011,0 hPa 0,2 mm 16,1 km/h (3 Bft) W 261 ° 0 min 0,000 mm 0,5 UV-I 58 W/m² 10,2 °C 11,3 °C 22,5 km/h (4 Bft)
26.07.2017 15:59 11,3 °C 11,3 °C 93 % 1010,9 hPa 0,2 mm 16,2 km/h (3 Bft) W-SW 254 ° 0 min 0,000 mm 0,5 UV-I 53 W/m² 10,2 °C 11,3 °C 25,7 km/h (4 Bft)
26.07.2017 16:00 11,3 °C 11,3 °C 93 % 1011,0 hPa 0,2 mm 18,7 km/h (3 Bft) W-NW 289 ° 0 min 0,050 mm 0,5 UV-I 56 W/m² 10,2 °C 11,3 °C 25,7 km/h (4 Bft)
26.07.2017 16:01 11,3 °C 11,3 °C 93 % 1011,0 hPa 0,4 mm 13,6 km/h (3 Bft) NW 308 ° 0 min 0,000 mm 0,5 UV-I 60 W/m² 10,2 °C 11,3 °C 19,3 km/h (3 Bft)
26.07.2017 16:02 11,2 °C 11,3 °C 93 % 1011,0 hPa 0,0 mm 15,7 km/h (3 Bft) W 268 ° 0 min 0,000 mm 0,5 UV-I 60 W/m² 10,1 °C 11,2 °C 20,9 km/h (4 Bft)
26.07.2017 16:03 11,3 °C 11,3 °C 93 % 1011,0 hPa 0,2 mm 14,5 km/h (3 Bft) W 276 ° 0 min 0,000 mm 0,0 UV-I 53 W/m² 10,2 °C 11,3 °C 22,5 km/h (4 Bft)
26.07.2017 16:04 11,3 °C 11,3 °C 93 % 1011,0 hPa 0,2 mm 10,7 km/h (2 Bft) W-NW 290 ° 0 min 0,000 mm 0,6 UV-I 65 W/m² 10,2 °C 11,3 °C 16,1 km/h (3 Bft)
26.07.2017 16:05 11,2 °C 11,3 °C 93 % 1011,0 hPa 0,0 mm 9,5 km/h (2 Bft) W-NW 283 ° 0 min 0,000 mm 0,8 UV-I 91 W/m² 10,1 °C 11,2 °C 16,1 km/h (3 Bft)
26.07.2017 16:06 11,2 °C 11,3 °C 93 % 1011,0 hPa 0,2 mm 10,5 km/h (2 Bft) W 281 ° 0 min 0,000 mm 0,8 UV-I 91 W/m² 10,1 °C 11,2 °C 16,1 km/h (3 Bft)
26.07.2017 16:07 11,2 °C 11,3 °C 94 % 1011,0 hPa 0,0 mm 10,3 km/h (2 Bft) W-NW 300 ° 0 min 0,000 mm 0,7 UV-I 86 W/m² 10,3 °C 11,2 °C 16,1 km/h (3 Bft)
26.07.2017 16:08 11,3 °C 11,3 °C 94 % 1011,0 hPa 0,0 mm 8,0 km/h (2 Bft) W 276 ° 0 min 0,000 mm 0,8 UV-I 90 W/m² 10,4 °C 11,3 °C 16,1 km/h (3 Bft)
26.07.2017 16:09 11,3 °C 11,3 °C 94 % 1011,0 hPa 0,0 mm 7,6 km/h (2 Bft) W-NW 288 ° 0 min 0,000 mm 0,8 UV-I 95 W/m² 10,4 °C 11,3 °C 12,9 km/h (3 Bft)
26.07.2017 16:10 11,3 °C 11,3 °C 94 % 1011,0 hPa 0,0 mm 6,8 km/h (2 Bft) W-NW 284 ° 0 min 0,000 mm 0,9 UV-I 102 W/m² 10,4 °C 11,3 °C 11,3 km/h (2 Bft)
26.07.2017 16:11 11,3 °C 11,3 °C 94 % 1011,0 hPa 0,2 mm 9,2 km/h (2 Bft) W-NW 285 ° 0 min 0,000 mm 0,9 UV-I 93 W/m² 10,4 °C 11,3 °C 19,3 km/h (3 Bft)
26.07.2017 16:12 11,3 °C 11,3 °C 94 % 1011,1 hPa 0,0 mm 7,2 km/h (2 Bft) W 259 ° 0 min 0,000 mm 0,6 UV-I 77 W/m² 10,4 °C 11,3 °C 11,3 km/h (2 Bft)
26.07.2017 16:13 11,3 °C 11,3 °C 94 % 1011,1 hPa 0,0 mm 9,1 km/h (2 Bft) W 265 ° 0 min 0,000 mm 0,7 UV-I 76 W/m² 10,4 °C 11,3 °C 14,5 km/h (3 Bft)
26.07.2017 16:14 11,3 °C 11,3 °C 94 % 1011,1 hPa 0,2 mm 9,3 km/h (2 Bft) W-NW 292 ° 0 min 0,000 mm 0,6 UV-I 77 W/m² 10,4 °C 11,3 °C 14,5 km/h (3 Bft)
26.07.2017 16:15 11,3 °C 11,3 °C 94 % 1011,1 hPa 0,0 mm 10,9 km/h (2 Bft) W-NW 292 ° 0 min 0,000 mm 0,6 UV-I 76 W/m² 10,4 °C 11,3 °C 19,3 km/h (3 Bft)
26.07.2017 16:16 11,3 °C 11,3 °C 94 % 1011,2 hPa 0,0 mm 5,3 km/h (1 Bft) W-NW 290 ° 0 min 0,000 mm 0,7 UV-I 91 W/m² 10,4 °C 11,3 °C 8,0 km/h (2 Bft)
26.07.2017 16:17 11,3 °C 11,3 °C 94 % 1011,2 hPa 0,0 mm 8,3 km/h (2 Bft) W-NW 294 ° 0 min 0,000 mm 0,8 UV-I 97 W/m² 10,4 °C 11,3 °C 12,9 km/h (3 Bft)
26.07.2017 16:18 11,3 °C 11,3 °C 94 % 1011,1 hPa 0,0 mm 6,1 km/h (2 Bft) W 259 ° 0 min 0,000 mm 0,8 UV-I 100 W/m² 10,4 °C 11,3 °C 8,0 km/h (2 Bft)
26.07.2017 16:19 11,3 °C 11,3 °C 94 % 1011,2 hPa 0,2 mm 7,0 km/h (2 Bft) NW 306 ° 0 min 0,000 mm 0,8 UV-I 100 W/m² 10,4 °C 11,3 °C 11,3 km/h (2 Bft)
26.07.2017 16:20 11,3 °C 11,3 °C 94 % 1011,1 hPa 0,0 mm 10,7 km/h (2 Bft) SW 215 ° 0 min 0,000 mm 0,8 UV-I 98 W/m² 10,4 °C 11,3 °C 16,1 km/h (3 Bft)
26.07.2017 16:21 11,3 °C 11,3 °C 94 % 1011,1 hPa 0,0 mm 14,1 km/h (3 Bft) W 277 ° 0 min 0,000 mm 0,7 UV-I 91 W/m² 10,4 °C 11,3 °C 20,9 km/h (4 Bft)
26.07.2017 16:22 11,4 °C 11,4 °C 94 % 1011,2 hPa 0,0 mm 7,9 km/h (2 Bft) W 276 ° 0 min 0,000 mm 0,7 UV-I 86 W/m² 10,5 °C 11,4 °C 14,5 km/h (3 Bft)
26.07.2017 16:23 11,3 °C 11,4 °C 94 % 1011,2 hPa 0,0 mm 11,9 km/h (2 Bft) W 265 ° 0 min 0,000 mm 0,7 UV-I 88 W/m² 10,4 °C 11,3 °C 17,7 km/h (3 Bft)
26.07.2017 16:24 11,4 °C 11,4 °C 94 % 1011,2 hPa 0,2 mm 11,9 km/h (2 Bft) W-SW 248 ° 0 min 0,000 mm 0,7 UV-I 90 W/m² 10,5 °C 11,4 °C 20,9 km/h (4 Bft)
26.07.2017 16:25 11,4 °C 11,4 °C 94 % 1011,2 hPa 0,0 mm 6,0 km/h (2 Bft) W-SW 250 ° 0 min 0,000 mm 0,7 UV-I 90 W/m² 10,5 °C 11,4 °C 9,7 km/h (2 Bft)
26.07.2017 16:26 11,4 °C 11,4 °C 94 % 1011,2 hPa 0,0 mm 12,9 km/h (3 Bft) W-SW 258 ° 0 min 0,000 mm 0,7 UV-I 88 W/m² 10,5 °C 11,4 °C 19,3 km/h (3 Bft)
26.07.2017 16:27 11,4 °C 11,4 °C 93 % 1011,2 hPa 0,0 mm 14,8 km/h (3 Bft) W-NW 284 ° 0 min 0,000 mm 0,7 UV-I 86 W/m² 10,3 °C 11,4 °C 19,3 km/h (3 Bft)
26.07.2017 16:28 11,4 °C 11,4 °C 93 % 1011,2 hPa 0,0 mm 13,7 km/h (3 Bft) W 268 ° 0 min 0,000 mm 0,7 UV-I 86 W/m² 10,3 °C 11,4 °C 20,9 km/h (4 Bft)
26.07.2017 16:29 11,4 °C 11,4 °C 93 % 1011,1 hPa 0,0 mm 12,3 km/h (3 Bft) W 270 ° 0 min 0,000 mm 0,7 UV-I 84 W/m² 10,3 °C 11,4 °C 19,3 km/h (3 Bft)
26.07.2017 16:30 11,4 °C 11,4 °C 93 % 1011,2 hPa 0,0 mm 9,2 km/h (2 Bft) W-NW 294 ° 0 min 0,000 mm 0,7 UV-I 84 W/m² 10,3 °C 11,4 °C 17,7 km/h (3 Bft)
26.07.2017 16:31 11,4 °C 11,4 °C 93 % 1011,2 hPa 0,0 mm 6,8 km/h (2 Bft) W-SW 258 ° 0 min 0,000 mm 0,7 UV-I 83 W/m² 10,3 °C 11,4 °C 12,9 km/h (3 Bft)
26.07.2017 16:32 11,4 °C 11,4 °C 93 % 1011,2 hPa 0,2 mm 13,2 km/h (3 Bft) W 259 ° 0 min 0,000 mm 0,6 UV-I 81 W/m² 10,3 °C 11,4 °C 20,9 km/h (4 Bft)
26.07.2017 16:33 11,4 °C 11,4 °C 93 % 1011,2 hPa 0,0 mm 11,3 km/h (2 Bft) W-NW 292 ° 0 min 0,000 mm 0,7 UV-I 81 W/m² 10,3 °C 11,4 °C 17,7 km/h (3 Bft)
26.07.2017 16:34 11,4 °C 11,4 °C 93 % 1011,3 hPa 0,0 mm 8,7 km/h (2 Bft) W-NW 284 ° 0 min 0,000 mm 0,7 UV-I 81 W/m² 10,3 °C 11,4 °C 12,9 km/h (3 Bft)
26.07.2017 16:35 11,4 °C 11,4 °C 93 % 1011,3 hPa 0,0 mm 11,9 km/h (2 Bft) W-NW 295 ° 0 min 0,000 mm 0,7 UV-I 79 W/m² 10,3 °C 11,4 °C 19,3 km/h (3 Bft)
26.07.2017 16:36 11,4 °C 11,4 °C 93 % 1011,3 hPa 0,0 mm 10,6 km/h (2 Bft) NW 308 ° 0 min 0,000 mm 0,6 UV-I 72 W/m² 10,3 °C 11,4 °C 14,5 km/h (3 Bft)
26.07.2017 16:37 11,4 °C 11,4 °C 93 % 1011,3 hPa 0,2 mm 14,3 km/h (3 Bft) W-NW 286 ° 0 min 0,000 mm 0,5 UV-I 65 W/m² 10,3 °C 11,4 °C 25,7 km/h (4 Bft)
26.07.2017 16:38 11,4 °C 11,4 °C 93 % 1011,3 hPa 0,0 mm 14,5 km/h (3 Bft) W-SW 242 ° 0 min 0,000 mm 0,5 UV-I 69 W/m² 10,3 °C 11,4 °C 24,1 km/h (4 Bft)
26.07.2017 16:39 11,4 °C 11,4 °C 93 % 1011,3 hPa 0,0 mm 4,2 km/h (1 Bft) SW 233 ° 0 min 0,000 mm 0,7 UV-I 77 W/m² 10,3 °C 11,4 °C 9,7 km/h (2 Bft)
26.07.2017 16:40 11,4 °C 11,4 °C 93 % 1011,2 hPa 0,0 mm 5,0 km/h (1 Bft) SW 215 ° 0 min 0,000 mm 0,6 UV-I 69 W/m² 10,3 °C 11,4 °C 11,3 km/h (2 Bft)
26.07.2017 16:41 11,4 °C 11,4 °C 93 % 1011,2 hPa 0,0 mm 5,1 km/h (1 Bft) W 264 ° 0 min 0,000 mm 0,6 UV-I 74 W/m² 10,3 °C 11,4 °C 9,7 km/h (2 Bft)
26.07.2017 16:42 11,4 °C 11,4 °C 93 % 1011,3 hPa 0,0 mm 12,3 km/h (3 Bft) W-SW 250 ° 0 min 0,000 mm 0,6 UV-I 74 W/m² 10,3 °C 11,4 °C 24,1 km/h (4 Bft)
26.07.2017 16:43 11,4 °C 11,4 °C 93 % 1011,3 hPa 0,0 mm 14,3 km/h (3 Bft) SW 234 ° 0 min 0,000 mm 0,7 UV-I 77 W/m² 10,3 °C 11,4 °C 22,5 km/h (4 Bft)
26.07.2017 16:44 11,4 °C 11,4 °C 93 % 1011,3 hPa 0,2 mm 10,1 km/h (2 Bft) W 269 ° 0 min 0,000 mm 0,6 UV-I 70 W/m² 10,3 °C 11,4 °C 16,1 km/h (3 Bft)
26.07.2017 16:45 11,4 °C 11,4 °C 93 % 1011,3 hPa 0,0 mm 11,5 km/h (2 Bft) W-NW 295 ° 0 min 0,000 mm 0,5 UV-I 54 W/m² 10,3 °C 11,4 °C 19,3 km/h (3 Bft)
26.07.2017 16:46 11,4 °C 11,4 °C 93 % 1011,3 hPa 0,0 mm 6,9 km/h (2 Bft) W 277 ° 0 min 0,000 mm 0,0 UV-I 51 W/m² 10,3 °C 11,4 °C 14,5 km/h (3 Bft)
26.07.2017 16:47 11,4 °C 11,5 °C 93 % 1011,3 hPa 0,0 mm 8,4 km/h (2 Bft) W-NW 288 ° 0 min 0,000 mm 0,0 UV-I 53 W/m² 10,3 °C 11,4 °C 14,5 km/h (3 Bft)
26.07.2017 16:48 11,4 °C 11,5 °C 93 % 1011,3 hPa 0,0 mm 3,8 km/h (1 Bft) W-SW 245 ° 0 min 0,000 mm 0,0 UV-I 51 W/m² 10,3 °C 11,4 °C 6,4 km/h (2 Bft)
26.07.2017 16:49 11,4 °C 11,4 °C 93 % 1011,3 hPa 0,0 mm 6,8 km/h (2 Bft) W-SW 254 ° 0 min 0,000 mm 0,0 UV-I 54 W/m² 10,3 °C 11,4 °C 11,3 km/h (2 Bft)
26.07.2017 16:50 11,4 °C 11,4 °C 93 % 1011,3 hPa 0,0 mm 9,5 km/h (2 Bft) W 266 ° 0 min 0,000 mm 0,0 UV-I 54 W/m² 10,3 °C 11,4 °C 12,9 km/h (3 Bft)
26.07.2017 16:51 11,4 °C 11,4 °C 93 % 1011,2 hPa 0,2 mm 11,4 km/h (2 Bft) S-SW 208 ° 0 min 0,000 mm 0,5 UV-I 56 W/m² 10,3 °C 11,4 °C 17,7 km/h (3 Bft)
26.07.2017 16:52 11,4 °C 11,4 °C 93 % 1011,3 hPa 0,0 mm 13,1 km/h (3 Bft) W 265 ° 0 min 0,000 mm 0,5 UV-I 58 W/m² 10,3 °C 11,4 °C 17,7 km/h (3 Bft)
26.07.2017 16:53 11,4 °C 11,4 °C 93 % 1011,3 hPa 0,0 mm 13,5 km/h (3 Bft) W 263 ° 0 min 0,000 mm 0,5 UV-I 65 W/m² 10,3 °C 11,4 °C 19,3 km/h (3 Bft)
26.07.2017 16:54 11,4 °C 11,4 °C 93 % 1011,3 hPa 0,0 mm 5,6 km/h (1 Bft) W 270 ° 0 min 0,000 mm 0,6 UV-I 70 W/m² 10,3 °C 11,4 °C 9,7 km/h (2 Bft)
26.07.2017 16:55 11,4 °C 11,4 °C 93 % 1011,3 hPa 0,0 mm 9,9 km/h (2 Bft) W 265 ° 0 min 0,000 mm 0,6 UV-I 74 W/m² 10,3 °C 11,4 °C 14,5 km/h (3 Bft)
26.07.2017 16:56 11,4 °C 11,4 °C 93 % 1011,3 hPa 0,0 mm 10,8 km/h (2 Bft) W-SW 257 ° 0 min 0,000 mm 0,6 UV-I 74 W/m² 10,3 °C 11,4 °C 17,7 km/h (3 Bft)
26.07.2017 16:57 11,4 °C 11,4 °C 93 % 1011,2 hPa 0,0 mm 9,4 km/h (2 Bft) W-SW 245 ° 0 min 0,000 mm 0,6 UV-I 79 W/m² 10,3 °C 11,4 °C 12,9 km/h (3 Bft)
26.07.2017 16:58 11,4 °C 11,4 °C 93 % 1011,3 hPa 0,0 mm 5,4 km/h (1 Bft) W 278 ° 0 min 0,000 mm 0,7 UV-I 83 W/m² 10,3 °C 11,4 °C 9,7 km/h (2 Bft)
26.07.2017 16:59 11,4 °C 11,4 °C 94 % 1011,2 hPa 0,0 mm 9,7 km/h (2 Bft) W 270 ° 0 min 0,000 mm 0,7 UV-I 83 W/m² 10,5 °C 11,4 °C 12,9 km/h (3 Bft)
26.07.2017 17:00 11,4 °C 11,4 °C 94 % 1011,2 hPa 0,2 mm 7,5 km/h (2 Bft) W 274 ° 0 min 0,000 mm 0,7 UV-I 81 W/m² 10,5 °C 11,4 °C 11,3 km/h (2 Bft)
26.07.2017 17:01 11,4 °C 11,4 °C 94 % 1011,2 hPa 0,0 mm 4,5 km/h (1 Bft) W 281 ° 0 min 0,051 mm 0,6 UV-I 79 W/m² 10,5 °C 11,4 °C 6,4 km/h (2 Bft)
26.07.2017 17:02 11,4 °C 11,4 °C 94 % 1011,2 hPa 0,0 mm 7,9 km/h (2 Bft) W-NW 296 ° 0 min 0,000 mm 0,6 UV-I 77 W/m² 10,5 °C 11,4 °C 11,3 km/h (2 Bft)
26.07.2017 17:03 11,4 °C 11,4 °C 94 % 1011,3 hPa 0,0 mm 6,4 km/h (2 Bft) W-NW 295 ° 0 min 0,000 mm 0,6 UV-I 83 W/m² 10,5 °C 11,4 °C 11,3 km/h (2 Bft)
26.07.2017 17:04 11,4 °C 11,4 °C 94 % 1011,3 hPa 0,0 mm 3,0 km/h (1 Bft) SW 229 ° 0 min 0,000 mm 0,6 UV-I 81 W/m² 10,5 °C 11,4 °C 4,8 km/h (1 Bft)
26.07.2017 17:05 11,4 °C 11,4 °C 94 % 1011,2 hPa 0,0 mm 4,4 km/h (1 Bft) W-NW 288 ° 0 min 0,000 mm 0,6 UV-I 77 W/m² 10,5 °C 11,4 °C 9,7 km/h (2 Bft)
26.07.2017 17:06 11,4 °C 11,4 °C 94 % 1011,3 hPa 0,0 mm 7,8 km/h (2 Bft) W 271 ° 0 min 0,000 mm 0,6 UV-I 74 W/m² 10,5 °C 11,4 °C 12,9 km/h (3 Bft)
26.07.2017 17:07 11,5 °C 11,5 °C 94 % 1011,3 hPa 0,0 mm 10,6 km/h (2 Bft) W 272 ° 0 min 0,000 mm 0,6 UV-I 76 W/m² 10,6 °C 11,5 °C 14,5 km/h (3 Bft)
26.07.2017 17:08 11,4 °C 11,5 °C 94 % 1011,3 hPa 0,2 mm 7,6 km/h (2 Bft) W 265 ° 0 min 0,000 mm 0,6 UV-I 77 W/m² 10,5 °C 11,4 °C 12,9 km/h (3 Bft)
26.07.2017 17:09 11,4 °C 11,4 °C 94 % 1011,3 hPa 0,0 mm 6,2 km/h (2 Bft) W-NW 286 ° 0 min 0,000 mm 0,6 UV-I 74 W/m² 10,5 °C 11,4 °C 8,0 km/h (2 Bft)
26.07.2017 17:10 11,4 °C 11,4 °C 94 % 1011,3 hPa 0,0 mm 8,8 km/h (2 Bft) W 267 ° 0 min 0,000 mm 0,6 UV-I 79 W/m² 10,5 °C 11,4 °C 14,5 km/h (3 Bft)
26.07.2017 17:11 11,4 °C 11,4 °C 94 % 1011,3 hPa 0,0 mm 7,4 km/h (2 Bft) W 265 ° 0 min 0,000 mm 0,6 UV-I 76 W/m² 10,5 °C 11,4 °C 11,3 km/h (2 Bft)
26.07.2017 17:12 11,4 °C 11,4 °C 94 % 1011,3 hPa 0,0 mm 6,7 km/h (2 Bft) W-SW 243 ° 0 min 0,000 mm 0,6 UV-I 69 W/m² 10,5 °C 11,4 °C 11,3 km/h (2 Bft)
26.07.2017 17:13 11,4 °C 11,5 °C 94 % 1011,3 hPa 0,0 mm 7,4 km/h (2 Bft) W 275 ° 0 min 0,000 mm 0,5 UV-I 63 W/m² 10,5 °C 11,4 °C 16,1 km/h (3 Bft)
26.07.2017 17:14 11,5 °C 11,5 °C 94 % 1011,3 hPa 0,0 mm 11,3 km/h (2 Bft) W 263 ° 0 min 0,000 mm 0,0 UV-I 47 W/m² 10,6 °C 11,5 °C 19,3 km/h (3 Bft)
26.07.2017 17:15 11,5 °C 11,5 °C 94 % 1011,4 hPa 0,2 mm 6,8 km/h (2 Bft) W-NW 289 ° 0 min 0,000 mm 0,0 UV-I 30 W/m² 10,6 °C 11,5 °C 11,3 km/h (2 Bft)
26.07.2017 17:16 11,5 °C 11,5 °C 94 % 1011,4 hPa 0,2 mm 8,6 km/h (2 Bft) W-NW 282 ° 0 min 0,000 mm 0,0 UV-I 28 W/m² 10,6 °C 11,5 °C 16,1 km/h (3 Bft)
26.07.2017 17:17 11,4 °C 11,5 °C 94 % 1011,5 hPa 0,0 mm 11,1 km/h (2 Bft) W-NW 288 ° 0 min 0,000 mm 0,0 UV-I 40 W/m² 10,5 °C 11,4 °C 16,1 km/h (3 Bft)
26.07.2017 17:18 11,5 °C 11,5 °C 94 % 1011,4 hPa 0,0 mm 6,4 km/h (2 Bft) W 273 ° 0 min 0,000 mm 0,5 UV-I 58 W/m² 10,6 °C 11,5 °C 9,7 km/h (2 Bft)
26.07.2017 17:19 11,4 °C 11,5 °C 94 % 1011,4 hPa 0,0 mm 9,1 km/h (2 Bft) W-SW 246 ° 0 min 0,000 mm 0,6 UV-I 69 W/m² 10,5 °C 11,4 °C 14,5 km/h (3 Bft)
26.07.2017 17:20 11,4 °C 11,4 °C 94 % 1011,4 hPa 0,2 mm 8,5 km/h (2 Bft) W-NW 288 ° 0 min 0,000 mm 0,6 UV-I 72 W/m² 10,5 °C 11,4 °C 12,9 km/h (3 Bft)
26.07.2017 17:21 11,4 °C 11,4 °C 94 % 1011,3 hPa 0,0 mm 10,1 km/h (2 Bft) W 261 ° 0 min 0,000 mm 0,6 UV-I 47 W/m² 10,5 °C 11,4 °C 14,5 km/h (3 Bft)
26.07.2017 17:22 11,4 °C 11,4 °C 94 % 1011,4 hPa 0,0 mm 10,0 km/h (2 Bft) SW 226 ° 0 min 0,000 mm 0,0 UV-I 42 W/m² 10,5 °C 11,4 °C 14,5 km/h (3 Bft)
26.07.2017 17:23 11,4 °C 11,4 °C 94 % 1011,4 hPa 0,2 mm 7,4 km/h (2 Bft) W-NW 290 ° 0 min 0,000 mm 0,0 UV-I 40 W/m² 10,5 °C 11,4 °C 11,3 km/h (2 Bft)
26.07.2017 17:24 11,4 °C 11,4 °C 94 % 1011,4 hPa 0,0 mm 4,8 km/h (1 Bft) W 259 ° 0 min 0,000 mm 0,0 UV-I 40 W/m² 10,5 °C 11,4 °C 6,4 km/h (2 Bft)
26.07.2017 17:25 11,4 °C 11,5 °C 94 % 1011,5 hPa 0,0 mm 6,4 km/h (2 Bft) W-NW 299 ° 0 min 0,000 mm 0,0 UV-I 26 W/m² 10,5 °C 11,4 °C 9,7 km/h (2 Bft)
26.07.2017 17:26 11,4 °C 11,4 °C 94 % 1011,5 hPa 0,2 mm 10,4 km/h (2 Bft) W 273 ° 0 min 0,000 mm 0,0 UV-I 30 W/m² 10,5 °C 11,4 °C 14,5 km/h (3 Bft)
26.07.2017 17:27 11,4 °C 11,5 °C 94 % 1011,5 hPa 0,2 mm 9,0 km/h (2 Bft) W 265 ° 0 min 0,000 mm 0,0 UV-I 28 W/m² 10,5 °C 11,4 °C 12,9 km/h (3 Bft)
26.07.2017 17:28 11,5 °C 11,5 °C 94 % 1011,4 hPa 0,0 mm 5,0 km/h (1 Bft) W-NW 286 ° 0 min 0,000 mm 0,0 UV-I 35 W/m² 10,6 °C 11,5 °C 6,4 km/h (2 Bft)
26.07.2017 17:29 11,4 °C 11,5 °C 94 % 1011,5 hPa 0,2 mm 7,2 km/h (2 Bft) W-NW 292 ° 0 min 0,000 mm 0,0 UV-I 37 W/m² 10,5 °C 11,4 °C 11,3 km/h (2 Bft)
26.07.2017 17:30 11,5 °C 11,5 °C 94 % 1011,5 hPa 0,2 mm 5,2 km/h (1 Bft) W-SW 257 ° 0 min 0,000 mm 0,0 UV-I 32 W/m² 10,6 °C 11,5 °C 9,7 km/h (2 Bft)
26.07.2017 17:31 11,4 °C 11,5 °C 94 % 1011,5 hPa 0,2 mm 10,7 km/h (2 Bft) W-NW 284 ° 0 min 0,000 mm 0,0 UV-I 28 W/m² 10,5 °C 11,4 °C 16,1 km/h (3 Bft)
26.07.2017 17:32 11,5 °C 11,5 °C 94 % 1011,5 hPa 0,2 mm 6,1 km/h (2 Bft) W 260 ° 0 min 0,000 mm 0,0 UV-I 30 W/m² 10,6 °C 11,5 °C 11,3 km/h (2 Bft)
26.07.2017 17:33 11,4 °C 11,5 °C 94 % 1011,5 hPa 0,0 mm 6,7 km/h (2 Bft) W-SW 254 ° 0 min 0,000 mm 0,0 UV-I 32 W/m² 10,5 °C 11,4 °C 12,9 km/h (3 Bft)
26.07.2017 17:34 11,4 °C 11,5 °C 94 % 1011,5 hPa 0,2 mm 8,0 km/h (2 Bft) W-SW 257 ° 0 min 0,000 mm 0,0 UV-I 32 W/m² 10,5 °C 11,4 °C 14,5 km/h (3 Bft)
26.07.2017 17:35 11,4 °C 11,4 °C 94 % 1011,5 hPa 0,2 mm 5,6 km/h (1 Bft) S 185 ° 0 min 0,000 mm 0,0 UV-I 32 W/m² 10,5 °C 11,4 °C 6,4 km/h (2 Bft)
26.07.2017 17:36 11,4 °C 11,4 °C 94 % 1011,4 hPa 0,4 mm 7,4 km/h (2 Bft) SW 226 ° 0 min 0,000 mm 0,0 UV-I 33 W/m² 10,5 °C 11,4 °C 12,9 km/h (3 Bft)
26.07.2017 17:37 11,4 °C 11,4 °C 94 % 1011,4 hPa 0,4 mm 5,8 km/h (2 Bft) W 263 ° 0 min 0,000 mm 0,0 UV-I 32 W/m² 10,5 °C 11,4 °C 11,3 km/h (2 Bft)
26.07.2017 17:38 11,4 °C 11,4 °C 94 % 1011,4 hPa 0,2 mm 10,6 km/h (2 Bft) SW 226 ° 0 min 0,000 mm 0,0 UV-I 25 W/m² 10,5 °C 11,4 °C 16,1 km/h (3 Bft)
26.07.2017 17:39 11,4 °C 11,4 °C 94 % 1011,4 hPa 0,2 mm 8,6 km/h (2 Bft) W 267 ° 0 min 0,000 mm 0,0 UV-I 28 W/m² 10,5 °C 11,4 °C 17,7 km/h (3 Bft)
26.07.2017 17:40 11,4 °C 11,4 °C 94 % 1011,4 hPa 0,0 mm 12,2 km/h (2 Bft) W 265 ° 0 min 0,000 mm 0,0 UV-I 26 W/m² 10,5 °C 11,4 °C 20,9 km/h (4 Bft)
26.07.2017 17:41 11,4 °C 11,4 °C 94 % 1011,4 hPa 0,2 mm 15,2 km/h (3 Bft) NW 315 ° 0 min 0,000 mm 0,0 UV-I 23 W/m² 10,5 °C 11,4 °C 20,9 km/h (4 Bft)
26.07.2017 17:42 11,5 °C 11,5 °C 94 % 1011,4 hPa 0,2 mm 6,4 km/h (2 Bft) W-NW 294 ° 0 min 0,000 mm 0,0 UV-I 23 W/m² 10,6 °C 11,5 °C 14,5 km/h (3 Bft)
26.07.2017 17:43 11,5 °C 11,5 °C 94 % 1011,5 hPa 0,2 mm 11,6 km/h (2 Bft) W 279 ° 0 min 0,000 mm 0,0 UV-I 18 W/m² 10,6 °C 11,5 °C 16,1 km/h (3 Bft)
26.07.2017 17:44 11,5 °C 11,5 °C 94 % 1011,5 hPa 0,2 mm 12,9 km/h (3 Bft) W 274 ° 0 min 0,000 mm 0,0 UV-I 25 W/m² 10,6 °C 11,5 °C 20,9 km/h (4 Bft)
26.07.2017 17:45 11,5 °C 11,5 °C 94 % 1011,6 hPa 0,0 mm 12,5 km/h (3 Bft) W 277 ° 0 min 0,000 mm 0,0 UV-I 30 W/m² 10,6 °C 11,5 °C 20,9 km/h (4 Bft)
26.07.2017 17:46 11,5 °C 11,6 °C 94 % 1011,6 hPa 0,0 mm 20,0 km/h (4 Bft) W-SW 254 ° 0 min 0,000 mm 0,0 UV-I 26 W/m² 10,6 °C 11,5 °C 25,7 km/h (4 Bft)
26.07.2017 17:47 11,5 °C 11,5 °C 94 % 1011,6 hPa 0,2 mm 15,7 km/h (3 Bft) W-SW 242 ° 0 min 0,000 mm 0,0 UV-I 30 W/m² 10,6 °C 11,5 °C 20,9 km/h (4 Bft)
26.07.2017 17:48 11,5 °C 11,5 °C 94 % 1011,6 hPa 0,0 mm 9,1 km/h (2 Bft) W 275 ° 0 min 0,000 mm 0,0 UV-I 32 W/m² 10,6 °C 11,5 °C 12,9 km/h (3 Bft)
26.07.2017 17:49 11,5 °C 11,6 °C 94 % 1011,8 hPa 0,0 mm 14,5 km/h (3 Bft) W 279 ° 0 min 0,000 mm 0,0 UV-I 42 W/m² 10,6 °C 11,5 °C 22,5 km/h (4 Bft)
26.07.2017 17:50 11,6 °C 11,6 °C 94 % 1011,6 hPa 0,0 mm 14,8 km/h (3 Bft) W 270 ° 0 min 0,000 mm 0,0 UV-I 47 W/m² 10,7 °C 11,6 °C 22,5 km/h (4 Bft)
26.07.2017 17:51 11,6 °C 11,6 °C 94 % 1011,7 hPa 0,2 mm 16,4 km/h (3 Bft) W 277 ° 0 min 0,000 mm 0,0 UV-I 46 W/m² 10,7 °C 11,6 °C 22,5 km/h (4 Bft)
26.07.2017 17:52 11,6 °C 11,6 °C 94 % 1011,7 hPa 0,0 mm 11,2 km/h (2 Bft) W 261 ° 0 min 0,000 mm 0,0 UV-I 51 W/m² 10,7 °C 11,6 °C 16,1 km/h (3 Bft)
26.07.2017 17:53 11,6 °C 11,6 °C 94 % 1011,7 hPa 0,0 mm 8,7 km/h (2 Bft) W-SW 256 ° 0 min 0,000 mm 0,0 UV-I 62 W/m² 10,7 °C 11,6 °C 17,7 km/h (3 Bft)
26.07.2017 17:54 11,6 °C 11,6 °C 94 % 1011,7 hPa 0,0 mm 12,2 km/h (2 Bft) W 281 ° 0 min 0,000 mm 0,0 UV-I 56 W/m² 10,7 °C 11,6 °C 17,7 km/h (3 Bft)
26.07.2017 17:55 11,6 °C 11,6 °C 94 % 1011,8 hPa 0,0 mm 10,6 km/h (2 Bft) W 265 ° 0 min 0,000 mm 0,0 UV-I 58 W/m² 10,7 °C 11,6 °C 14,5 km/h (3 Bft)
26.07.2017 17:56 11,7 °C 11,7 °C 94 % 1011,8 hPa 0,2 mm 8,4 km/h (2 Bft) W 262 ° 0 min 0,000 mm 0,0 UV-I 58 W/m² 10,8 °C 11,7 °C 16,1 km/h (3 Bft)
26.07.2017 17:57 11,7 °C 11,7 °C 94 % 1011,8 hPa 0,0 mm 12,0 km/h (2 Bft) W 269 ° 0 min 0,000 mm 0,0 UV-I 53 W/m² 10,8 °C 11,7 °C 17,7 km/h (3 Bft)
26.07.2017 17:58 11,7 °C 11,7 °C 94 % 1011,8 hPa 0,0 mm 7,0 km/h (2 Bft) W 262 ° 0 min 0,000 mm 0,0 UV-I 47 W/m² 10,8 °C 11,7 °C 12,9 km/h (3 Bft)
26.07.2017 17:59 11,7 °C 11,7 °C 94 % 1011,9 hPa 0,0 mm 10,4 km/h (2 Bft) W 271 ° 0 min 0,000 mm 0,0 UV-I 53 W/m² 10,8 °C 11,7 °C 14,5 km/h (3 Bft)
26.07.2017 18:00 11,7 °C 11,7 °C 94 % 1011,8 hPa 0,0 mm 11,7 km/h (2 Bft) W 265 ° 0 min 0,026 mm 0,0 UV-I 54 W/m² 10,8 °C 11,7 °C 19,3 km/h (3 Bft)
26.07.2017 18:01 11,7 °C 11,7 °C 94 % 1011,8 hPa 0,0 mm 10,5 km/h (2 Bft) NW 311 ° 0 min 0,000 mm 0,0 UV-I 54 W/m² 10,8 °C 11,7 °C 17,7 km/h (3 Bft)
26.07.2017 18:02 11,7 °C 11,7 °C 94 % 1011,8 hPa 0,0 mm 8,3 km/h (2 Bft) W-SW 242 ° 0 min 0,000 mm 0,0 UV-I 54 W/m² 10,8 °C 11,7 °C 14,5 km/h (3 Bft)
26.07.2017 18:03 11,7 °C 11,7 °C 94 % 1011,8 hPa 0,0 mm 11,2 km/h (2 Bft) W-SW 246 ° 0 min 0,000 mm 0,0 UV-I 53 W/m² 10,8 °C 11,7 °C 19,3 km/h (3 Bft)
26.07.2017 18:04 11,7 °C 11,7 °C 94 % 1011,8 hPa 0,0 mm 6,6 km/h (2 Bft) W 261 ° 0 min 0,000 mm 0,0 UV-I 53 W/m² 10,8 °C 11,7 °C 14,5 km/h (3 Bft)
26.07.2017 18:05 11,8 °C 11,8 °C 94 % 1011,9 hPa 0,2 mm 11,3 km/h (2 Bft) W-SW 250 ° 0 min 0,000 mm 0,0 UV-I 53 W/m² 10,9 °C 11,8 °C 17,7 km/h (3 Bft)
26.07.2017 18:06 11,7 °C 11,8 °C 94 % 1011,8 hPa 0,0 mm 15,2 km/h (3 Bft) W 263 ° 0 min 0,000 mm 0,0 UV-I 51 W/m² 10,8 °C 11,7 °C 20,9 km/h (4 Bft)
26.07.2017 18:07 11,8 °C 11,8 °C 94 % 1011,8 hPa 0,0 mm 13,5 km/h (3 Bft) W 262 ° 0 min 0,000 mm 0,0 UV-I 49 W/m² 10,9 °C 11,8 °C 17,7 km/h (3 Bft)
26.07.2017 18:08 11,8 °C 11,8 °C 94 % 1011,8 hPa 0,0 mm 11,3 km/h (2 Bft) W 260 ° 0 min 0,000 mm 0,0 UV-I 49 W/m² 10,9 °C 11,8 °C 20,9 km/h (4 Bft)
26.07.2017 18:09 11,8 °C 11,8 °C 94 % 1011,8 hPa 0,0 mm 3,6 km/h (1 Bft) W 273 ° 0 min 0,000 mm 0,0 UV-I 49 W/m² 10,9 °C 11,8 °C 6,4 km/h (2 Bft)
26.07.2017 18:10 11,8 °C 11,8 °C 94 % 1011,8 hPa 0,0 mm 7,9 km/h (2 Bft) W 270 ° 0 min 0,000 mm 0,0 UV-I 46 W/m² 10,9 °C 11,8 °C 12,9 km/h (3 Bft)
26.07.2017 18:11 11,8 °C 11,8 °C 94 % 1011,8 hPa 0,0 mm 7,3 km/h (2 Bft) W 263 ° 0 min 0,000 mm 0,0 UV-I 44 W/m² 10,9 °C 11,8 °C 11,3 km/h (2 Bft)
26.07.2017 18:12 11,8 °C 11,8 °C 94 % 1011,8 hPa 0,0 mm 7,4 km/h (2 Bft) W-SW 257 ° 0 min 0,000 mm 0,0 UV-I 42 W/m² 10,9 °C 11,8 °C 14,5 km/h (3 Bft)
26.07.2017 18:13 11,8 °C 11,8 °C 94 % 1011,8 hPa 0,2 mm 12,3 km/h (3 Bft) W 273 ° 0 min 0,000 mm 0,0 UV-I 40 W/m² 10,9 °C 11,8 °C 17,7 km/h (3 Bft)
26.07.2017 18:14 11,8 °C 11,8 °C 94 % 1011,8 hPa 0,0 mm 10,0 km/h (2 Bft) W 259 ° 0 min 0,000 mm 0,0 UV-I 39 W/m² 10,9 °C 11,8 °C 17,7 km/h (3 Bft)
26.07.2017 18:15 11,8 °C 11,8 °C 94 % 1011,9 hPa 0,0 mm 6,4 km/h (2 Bft) W-SW 252 ° 0 min 0,000 mm 0,0 UV-I 35 W/m² 10,9 °C 11,8 °C 12,9 km/h (3 Bft)
26.07.2017 18:16 11,8 °C 11,8 °C 94 % 1011,9 hPa 0,0 mm 14,1 km/h (3 Bft) W 281 ° 0 min 0,000 mm 0,0 UV-I 35 W/m² 10,9 °C 11,8 °C 17,7 km/h (3 Bft)
26.07.2017 18:17 11,8 °C 11,8 °C 94 % 1011,9 hPa 0,0 mm 11,4 km/h (2 Bft) W-NW 288 ° 0 min 0,000 mm 0,0 UV-I 33 W/m² 10,9 °C 11,8 °C 17,7 km/h (3 Bft)
26.07.2017 18:18 11,8 °C 11,8 °C 94 % 1011,8 hPa 0,0 mm 11,6 km/h (2 Bft) W-SW 257 ° 0 min 0,000 mm 0,0 UV-I 33 W/m² 10,9 °C 11,8 °C 17,7 km/h (3 Bft)
26.07.2017 18:19 11,8 °C 11,8 °C 94 % 1011,9 hPa 0,0 mm 7,8 km/h (2 Bft) W 261 ° 0 min 0,000 mm 0,0 UV-I 32 W/m² 10,9 °C 11,8 °C 12,9 km/h (3 Bft)
26.07.2017 18:20 11,8 °C 11,8 °C 94 % 1011,9 hPa 0,2 mm 11,9 km/h (2 Bft) SW 219 ° 0 min 0,000 mm 0,0 UV-I 32 W/m² 10,9 °C 11,8 °C 16,1 km/h (3 Bft)
26.07.2017 18:21 11,8 °C 11,8 °C 94 % 1011,9 hPa 0,0 mm 9,7 km/h (2 Bft) W-SW 258 ° 0 min 0,000 mm 0,0 UV-I 33 W/m² 10,9 °C 11,8 °C 12,9 km/h (3 Bft)
26.07.2017 18:22 11,8 °C 11,8 °C 94 % 1011,9 hPa 0,0 mm 6,9 km/h (2 Bft) W-NW 282 ° 0 min 0,000 mm 0,0 UV-I 33 W/m² 10,9 °C 11,8 °C 11,3 km/h (2 Bft)
26.07.2017 18:23 11,8 °C 11,8 °C 94 % 1011,9 hPa 0,0 mm 12,7 km/h (3 Bft) W-SW 246 ° 0 min 0,000 mm 0,0 UV-I 33 W/m² 10,9 °C 11,8 °C 24,1 km/h (4 Bft)
26.07.2017 18:24 11,8 °C 11,8 °C 94 % 1011,9 hPa 0,0 mm 8,4 km/h (2 Bft) SW 230 ° 0 min 0,000 mm 0,0 UV-I 33 W/m² 10,9 °C 11,8 °C 22,5 km/h (4 Bft)
26.07.2017 18:25 11,8 °C 11,8 °C 94 % 1011,9 hPa 0,0 mm 14,3 km/h (3 Bft) W-SW 250 ° 0 min 0,000 mm 0,0 UV-I 35 W/m² 10,9 °C 11,8 °C 24,1 km/h (4 Bft)
26.07.2017 18:26 11,8 °C 11,8 °C 94 % 1011,9 hPa 0,0 mm 11,0 km/h (2 Bft) W 266 ° 0 min 0,000 mm 0,0 UV-I 37 W/m² 10,9 °C 11,8 °C 16,1 km/h (3 Bft)
26.07.2017 18:27 11,8 °C 11,8 °C 94 % 1011,9 hPa 0,2 mm 11,1 km/h (2 Bft) SW 216 ° 0 min 0,000 mm 0,0 UV-I 37 W/m² 10,9 °C 11,8 °C 17,7 km/h (3 Bft)
26.07.2017 18:28 11,8 °C 11,8 °C 94 % 1011,9 hPa 0,0 mm 7,0 km/h (2 Bft) W-SW 248 ° 0 min 0,000 mm 0,0 UV-I 39 W/m² 10,9 °C 11,8 °C 12,9 km/h (3 Bft)
26.07.2017 18:29 11,8 °C 11,8 °C 94 % 1011,9 hPa 0,0 mm 6,8 km/h (2 Bft) W 260 ° 0 min 0,000 mm 0,0 UV-I 39 W/m² 10,9 °C 11,8 °C 12,9 km/h (3 Bft)
26.07.2017 18:30 11,8 °C 11,8 °C 94 % 1011,9 hPa 0,0 mm 9,7 km/h (2 Bft) W 267 ° 0 min 0,000 mm 0,0 UV-I 37 W/m² 10,9 °C 11,8 °C 12,9 km/h (3 Bft)
26.07.2017 18:31 11,8 °C 11,8 °C 94 % 1011,9 hPa 0,0 mm 7,7 km/h (2 Bft) W-SW 252 ° 0 min 0,000 mm 0,0 UV-I 37 W/m² 10,9 °C 11,8 °C 12,9 km/h (3 Bft)
26.07.2017 18:32 11,8 °C 11,8 °C 94 % 1011,9 hPa 0,0 mm 6,9 km/h (2 Bft) W-SW 238 ° 0 min 0,000 mm 0,0 UV-I 37 W/m² 10,9 °C 11,8 °C 12,9 km/h (3 Bft)
26.07.2017 18:33 11,8 °C 11,8 °C 94 % 1011,9 hPa 0,2 mm 6,2 km/h (2 Bft) SW 235 ° 0 min 0,000 mm 0,0 UV-I 35 W/m² 10,9 °C 11,8 °C 16,1 km/h (3 Bft)
26.07.2017 18:34 11,8 °C 11,8 °C 94 % 1011,9 hPa 0,0 mm 6,6 km/h (2 Bft) W-SW 256 ° 0 min 0,000 mm 0,0 UV-I 33 W/m² 10,9 °C 11,8 °C 14,5 km/h (3 Bft)
26.07.2017 18:35 11,8 °C 11,8 °C 94 % 1011,9 hPa 0,0 mm 8,3 km/h (2 Bft) W-SW 242 ° 0 min 0,000 mm 0,0 UV-I 33 W/m² 10,9 °C 11,8 °C 12,9 km/h (3 Bft)
26.07.2017 18:36 11,8 °C 11,8 °C 94 % 1011,8 hPa 0,0 mm 10,7 km/h (2 Bft) W-SW 255 ° 0 min 0,000 mm 0,0 UV-I 32 W/m² 10,9 °C 11,8 °C 17,7 km/h (3 Bft)
26.07.2017 18:37 11,8 °C 11,8 °C 94 % 1011,8 hPa 0,0 mm 5,6 km/h (1 Bft) W-NW 287 ° 0 min 0,000 mm 0,0 UV-I 32 W/m² 10,9 °C 11,8 °C 12,9 km/h (3 Bft)
26.07.2017 18:38 11,7 °C 11,8 °C 94 % 1011,8 hPa 0,0 mm 9,3 km/h (2 Bft) W-SW 246 ° 0 min 0,000 mm 0,0 UV-I 30 W/m² 10,8 °C 11,7 °C 12,9 km/h (3 Bft)
26.07.2017 18:39 11,7 °C 11,7 °C 94 % 1011,8 hPa 0,0 mm 4,9 km/h (1 Bft) W-SW 248 ° 0 min 0,000 mm 0,0 UV-I 30 W/m² 10,8 °C 11,7 °C 8,0 km/h (2 Bft)
26.07.2017 18:40 11,7 °C 11,7 °C 94 % 1011,8 hPa 0,2 mm 6,8 km/h (2 Bft) W-SW 257 ° 0 min 0,000 mm 0,0 UV-I 32 W/m² 10,8 °C 11,7 °C 9,7 km/h (2 Bft)
26.07.2017 18:41 11,7 °C 11,7 °C 94 % 1011,8 hPa 0,0 mm 4,4 km/h (1 Bft) SW 217 ° 0 min 0,000 mm 0,0 UV-I 32 W/m² 10,8 °C 11,7 °C 6,4 km/h (2 Bft)
26.07.2017 18:42 11,7 °C 11,7 °C 94 % 1011,9 hPa 0,0 mm 4,7 km/h (1 Bft) S 187 ° 0 min 0,000 mm 0,0 UV-I 35 W/m² 10,8 °C 11,7 °C 11,3 km/h (2 Bft)
26.07.2017 18:43 11,7 °C 11,7 °C 94 % 1011,9 hPa 0,0 mm 5,8 km/h (2 Bft) S-SW 196 ° 0 min 0,000 mm 0,0 UV-I 37 W/m² 10,8 °C 11,7 °C 9,7 km/h (2 Bft)
26.07.2017 18:44 11,7 °C 11,7 °C 94 % 1011,8 hPa 0,0 mm 8,1 km/h (2 Bft) SW 215 ° 0 min 0,000 mm 0,0 UV-I 39 W/m² 10,8 °C 11,7 °C 16,1 km/h (3 Bft)
26.07.2017 18:45 11,7 °C 11,7 °C 94 % 1011,7 hPa 0,0 mm 8,4 km/h (2 Bft) W 259 ° 0 min 0,000 mm 0,0 UV-I 40 W/m² 10,8 °C 11,7 °C 16,1 km/h (3 Bft)
26.07.2017 18:46 11,7 °C 11,7 °C 94 % 1011,7 hPa 0,0 mm 5,6 km/h (1 Bft) W 260 ° 0 min 0,000 mm 0,0 UV-I 44 W/m² 10,8 °C 11,7 °C 9,7 km/h (2 Bft)
26.07.2017 18:47 11,7 °C 11,7 °C 94 % 1011,8 hPa 0,2 mm 5,3 km/h (1 Bft) SW 222 ° 0 min 0,000 mm 0,0 UV-I 46 W/m² 10,8 °C 11,7 °C 9,7 km/h (2 Bft)
26.07.2017 18:48 11,7 °C 11,7 °C 93 % 1011,8 hPa 0,0 mm 9,7 km/h (2 Bft) W 270 ° 0 min 0,000 mm 0,0 UV-I 49 W/m² 10,6 °C 11,7 °C 19,3 km/h (3 Bft)
26.07.2017 18:49 11,7 °C 11,7 °C 93 % 1011,8 hPa 0,0 mm 5,4 km/h (1 Bft) W 264 ° 0 min 0,000 mm 0,0 UV-I 51 W/m² 10,6 °C 11,7 °C 9,7 km/h (2 Bft)
26.07.2017 18:50 11,7 °C 11,7 °C 93 % 1011,8 hPa 0,0 mm 6,9 km/h (2 Bft) W-SW 249 ° 0 min 0,000 mm 0,0 UV-I 53 W/m² 10,6 °C 11,7 °C 9,7 km/h (2 Bft)
26.07.2017 18:51 11,7 °C 11,7 °C 93 % 1011,8 hPa 0,0 mm 3,0 km/h (1 Bft) S-SW 212 ° 0 min 0,000 mm 0,0 UV-I 56 W/m² 10,6 °C 11,7 °C 6,4 km/h (2 Bft)
26.07.2017 18:52 11,7 °C 11,8 °C 93 % 1011,8 hPa 0,0 mm 4,9 km/h (1 Bft) W 274 ° 0 min 0,000 mm 0,0 UV-I 58 W/m² 10,6 °C 11,7 °C 9,7 km/h (2 Bft)
26.07.2017 18:53 11,7 °C 11,8 °C 93 % 1011,8 hPa 0,0 mm 6,1 km/h (2 Bft) W-SW 247 ° 0 min 0,000 mm 0,0 UV-I 60 W/m² 10,6 °C 11,7 °C 9,7 km/h (2 Bft)
26.07.2017 18:54 11,8 °C 11,8 °C 93 % 1011,8 hPa 0,0 mm 8,1 km/h (2 Bft) S 184 ° 0 min 0,000 mm 0,0 UV-I 60 W/m² 10,7 °C 11,8 °C 16,1 km/h (3 Bft)
26.07.2017 18:55 11,8 °C 11,8 °C 93 % 1011,8 hPa 0,0 mm 6,7 km/h (2 Bft) W 275 ° 0 min 0,000 mm 0,0 UV-I 60 W/m² 10,7 °C 11,8 °C 12,9 km/h (3 Bft)
26.07.2017 18:56 11,8 °C 11,8 °C 93 % 1011,8 hPa 0,0 mm 11,9 km/h (2 Bft) S-SO 167 ° 0 min 0,000 mm 0,0 UV-I 58 W/m² 10,7 °C 11,8 °C 16,1 km/h (3 Bft)
26.07.2017 18:57 11,8 °C 11,8 °C 93 % 1011,8 hPa 0,0 mm 7,4 km/h (2 Bft) W-SW 244 ° 0 min 0,000 mm 0,0 UV-I 58 W/m² 10,7 °C 11,8 °C 12,9 km/h (3 Bft)
26.07.2017 18:58 11,8 °C 11,8 °C 93 % 1011,8 hPa 0,2 mm 4,5 km/h (1 Bft) S-SW 202 ° 0 min 0,000 mm 0,0 UV-I 56 W/m² 10,7 °C 11,8 °C 8,0 km/h (2 Bft)
26.07.2017 18:59 11,8 °C 11,8 °C 93 % 1011,9 hPa 0,0 mm 5,8 km/h (2 Bft) SW 236 ° 0 min 0,000 mm 0,0 UV-I 54 W/m² 10,7 °C 11,8 °C 16,1 km/h (3 Bft)
26.07.2017 19:00 11,8 °C 11,8 °C 93 % 1011,9 hPa 0,0 mm 4,8 km/h (1 Bft) W 269 ° 0 min 0,000 mm 0,0 UV-I 47 W/m² 10,7 °C 11,8 °C 6,4 km/h (2 Bft)
26.07.2017 19:01 11,8 °C 11,8 °C 93 % 1011,9 hPa 0,0 mm 4,8 km/h (1 Bft) W-SW 246 ° 0 min 0,025 mm 0,0 UV-I 42 W/m² 10,7 °C 11,8 °C 8,0 km/h (2 Bft)
26.07.2017 19:02 11,8 °C 11,8 °C 93 % 1011,9 hPa 0,0 mm 5,0 km/h (1 Bft) W-NW 295 ° 0 min 0,000 mm 0,0 UV-I 39 W/m² 10,7 °C 11,8 °C 8,0 km/h (2 Bft)
26.07.2017 19:03 11,8 °C 11,8 °C 93 % 1011,9 hPa 0,0 mm 8,4 km/h (2 Bft) SW 231 ° 0 min 0,000 mm 0,0 UV-I 35 W/m² 10,7 °C 11,8 °C 16,1 km/h (3 Bft)
26.07.2017 19:04 11,8 °C 11,8 °C 93 % 1011,9 hPa 0,0 mm 3,5 km/h (1 Bft) W-SW 248 ° 0 min 0,000 mm 0,0 UV-I 33 W/m² 10,7 °C 11,8 °C 6,4 km/h (2 Bft)
26.07.2017 19:05 11,8 °C 11,8 °C 93 % 1011,8 hPa 0,2 mm 4,6 km/h (1 Bft) W-NW 291 ° 0 min 0,000 mm 0,0 UV-I 32 W/m² 10,7 °C 11,8 °C 14,5 km/h (3 Bft)
26.07.2017 19:06 11,8 °C 11,8 °C 93 % 1011,9 hPa 0,0 mm 2,9 km/h (1 Bft) W-SW 255 ° 0 min 0,000 mm 0,0 UV-I 26 W/m² 10,7 °C 11,8 °C 4,8 km/h (1 Bft)
26.07.2017 19:07 11,8 °C 11,8 °C 93 % 1011,9 hPa 0,0 mm 4,1 km/h (1 Bft) W-SW 246 ° 0 min 0,000 mm 0,0 UV-I 25 W/m² 10,7 °C 11,8 °C 6,4 km/h (2 Bft)
26.07.2017 19:08 11,7 °C 11,8 °C 93 % 1011,9 hPa 0,0 mm 1,2 km/h (1 Bft) W-SW 254 ° 0 min 0,000 mm 0,0 UV-I 23 W/m² 10,6 °C 11,7 °C 6,4 km/h (2 Bft)
26.07.2017 19:09 11,7 °C 11,7 °C 93 % 1011,9 hPa 0,0 mm 7,0 km/h (2 Bft) SW 225 ° 0 min 0,000 mm 0,0 UV-I 21 W/m² 10,6 °C 11,7 °C 11,3 km/h (2 Bft)
26.07.2017 19:10 11,7 °C 11,7 °C 93 % 1011,9 hPa 0,2 mm 10,3 km/h (2 Bft) W-SW 254 ° 0 min 0,000 mm 0,0 UV-I 21 W/m² 10,6 °C 11,7 °C 17,7 km/h (3 Bft)
26.07.2017 19:11 11,7 °C 11,7 °C 93 % 1012,0 hPa 0,0 mm 5,3 km/h (1 Bft) W-SW 248 ° 0 min 0,000 mm 0,0 UV-I 21 W/m² 10,6 °C 11,7 °C 9,7 km/h (2 Bft)
26.07.2017 19:12 11,7 °C 11,7 °C 93 % 1012,0 hPa 0,0 mm 6,6 km/h (2 Bft) W 271 ° 0 min 0,000 mm 0,0 UV-I 21 W/m² 10,6 °C 11,7 °C 14,5 km/h (3 Bft)
26.07.2017 19:13 11,7 °C 11,7 °C 93 % 1012,0 hPa 0,0 mm 9,2 km/h (2 Bft) SW 229 ° 0 min 0,000 mm 0,0 UV-I 21 W/m² 10,6 °C 11,7 °C 14,5 km/h (3 Bft)
26.07.2017 19:14 11,7 °C 11,7 °C 93 % 1012,1 hPa 0,0 mm 4,3 km/h (1 Bft) W-SW 257 ° 0 min 0,000 mm 0,0 UV-I 21 W/m² 10,6 °C 11,7 °C 11,3 km/h (2 Bft)
26.07.2017 19:15 11,7 °C 11,7 °C 93 % 1012,0 hPa 0,2 mm 5,5 km/h (1 Bft) S 189 ° 0 min 0,000 mm 0,0 UV-I 21 W/m² 10,6 °C 11,7 °C 8,0 km/h (2 Bft)
26.07.2017 19:16 11,7 °C 11,7 °C 93 % 1012,1 hPa 0,0 mm 4,2 km/h (1 Bft) S 186 ° 0 min 0,000 mm 0,0 UV-I 21 W/m² 10,6 °C 11,7 °C 8,0 km/h (2 Bft)
26.07.2017 19:17 11,7 °C 11,7 °C 93 % 1012,0 hPa 0,0 mm 4,2 km/h (1 Bft) S 178 ° 0 min 0,000 mm 0,0 UV-I 19 W/m² 10,6 °C 11,7 °C 8,0 km/h (2 Bft)
26.07.2017 19:18 11,7 °C 11,7 °C 93 % 1012,1 hPa 0,0 mm 4,5 km/h (1 Bft) S-SW 199 ° 0 min 0,000 mm 0,0 UV-I 18 W/m² 10,6 °C 11,7 °C 6,4 km/h (2 Bft)
26.07.2017 19:19 11,7 °C 11,7 °C 93 % 1012,0 hPa 0,0 mm 3,2 km/h (1 Bft) S 171 ° 0 min 0,000 mm 0,0 UV-I 18 W/m² 10,6 °C 11,7 °C 6,4 km/h (2 Bft)
26.07.2017 19:20 11,7 °C 11,7 °C 93 % 1012,0 hPa 0,0 mm 5,5 km/h (1 Bft) W-SW 246 ° 0 min 0,000 mm 0,0 UV-I 18 W/m² 10,6 °C 11,7 °C 11,3 km/h (2 Bft)
26.07.2017 19:21 11,7 °C 11,7 °C 93 % 1012,0 hPa 0,0 mm 8,3 km/h (2 Bft) W-SW 242 ° 0 min 0,000 mm 0,0 UV-I 18 W/m² 10,6 °C 11,7 °C 12,9 km/h (3 Bft)
26.07.2017 19:22 11,7 °C 11,7 °C 93 % 1012,1 hPa 0,2 mm 7,3 km/h (2 Bft) SW 234 ° 0 min 0,000 mm 0,0 UV-I 18 W/m² 10,6 °C 11,7 °C 12,9 km/h (3 Bft)
26.07.2017 19:23 11,7 °C 11,7 °C 93 % 1012,1 hPa 0,0 mm 5,3 km/h (1 Bft) W-SW 250 ° 0 min 0,000 mm 0,0 UV-I 18 W/m² 10,6 °C 11,7 °C 8,0 km/h (2 Bft)
26.07.2017 19:24 11,7 °C 11,7 °C 93 % 1012,0 hPa 0,0 mm 4,5 km/h (1 Bft) W-SW 249 ° 0 min 0,000 mm 0,0 UV-I 21 W/m² 10,6 °C 11,7 °C 8,0 km/h (2 Bft)
26.07.2017 19:25 11,7 °C 11,7 °C 93 % 1012,0 hPa 0,0 mm 9,0 km/h (2 Bft) S-SW 213 ° 0 min 0,000 mm 0,0 UV-I 23 W/m² 10,6 °C 11,7 °C 19,3 km/h (3 Bft)
26.07.2017 19:26 11,7 °C 11,7 °C 93 % 1012,0 hPa 0,0 mm 3,8 km/h (1 Bft) W-SW 251 ° 0 min 0,000 mm 0,0 UV-I 23 W/m² 10,6 °C 11,7 °C 8,0 km/h (2 Bft)
26.07.2017 19:27 11,7 °C 11,7 °C 93 % 1012,0 hPa 0,0 mm 6,3 km/h (2 Bft) SW 232 ° 0 min 0,000 mm 0,0 UV-I 25 W/m² 10,6 °C 11,7 °C 11,3 km/h (2 Bft)
26.07.2017 19:28 11,7 °C 11,7 °C 93 % 1012,0 hPa 0,0 mm 4,0 km/h (1 Bft) S-SW 208 ° 0 min 0,000 mm 0,0 UV-I 25 W/m² 10,6 °C 11,7 °C 6,4 km/h (2 Bft)
26.07.2017 19:29 11,7 °C 11,7 °C 93 % 1012,1 hPa 0,0 mm 6,0 km/h (2 Bft) W-SW 243 ° 0 min 0,000 mm 0,0 UV-I 26 W/m² 10,6 °C 11,7 °C 11,3 km/h (2 Bft)
26.07.2017 19:30 11,7 °C 11,7 °C 93 % 1012,1 hPa 0,0 mm 2,9 km/h (1 Bft) W 260 ° 0 min 0,000 mm 0,0 UV-I 28 W/m² 10,6 °C 11,7 °C 4,8 km/h (1 Bft)
26.07.2017 19:31 11,7 °C 11,7 °C 93 % 1012,0 hPa 0,2 mm 1,9 km/h (1 Bft) W 260 ° 0 min 0,000 mm 0,0 UV-I 32 W/m² 10,6 °C 11,7 °C 3,2 km/h (1 Bft)
26.07.2017 19:32 11,7 °C 11,7 °C 93 % 1012,0 hPa 0,0 mm 7,7 km/h (2 Bft) SW 227 ° 0 min 0,000 mm 0,0 UV-I 33 W/m² 10,6 °C 11,7 °C 14,5 km/h (3 Bft)
26.07.2017 19:33 11,7 °C 11,7 °C 93 % 1012,0 hPa 0,0 mm 6,4 km/h (2 Bft) W 260 ° 0 min 0,000 mm 0,0 UV-I 33 W/m² 10,6 °C 11,7 °C 16,1 km/h (3 Bft)
26.07.2017 19:34 11,7 °C 11,7 °C 93 % 1012,0 hPa 0,0 mm 6,7 km/h (2 Bft) W-SW 244 ° 0 min 0,000 mm 0,0 UV-I 33 W/m² 10,6 °C 11,7 °C 9,7 km/h (2 Bft)
26.07.2017 19:35 11,7 °C 11,7 °C 93 % 1012,0 hPa 0,0 mm 6,6 km/h (2 Bft) S-SW 207 ° 0 min 0,000 mm 0,0 UV-I 32 W/m² 10,6 °C 11,7 °C 9,7 km/h (2 Bft)
26.07.2017 19:36 11,7 °C 11,7 °C 93 % 1012,0 hPa 0,0 mm 2,9 km/h (1 Bft) W-SW 248 ° 0 min 0,000 mm 0,0 UV-I 33 W/m² 10,6 °C 11,7 °C 6,4 km/h (2 Bft)
26.07.2017 19:37 11,6 °C 11,7 °C 93 % 1012,0 hPa 0,0 mm 3,9 km/h (1 Bft) SW 225 ° 0 min 0,000 mm 0,0 UV-I 33 W/m² 10,5 °C 11,6 °C 6,4 km/h (2 Bft)
26.07.2017 19:38 11,7 °C 11,7 °C 93 % 1011,9 hPa 0,0 mm 2,7 km/h (1 Bft) W-SW 244 ° 0 min 0,000 mm 0,0 UV-I 33 W/m² 10,6 °C 11,7 °C 9,7 km/h (2 Bft)
26.07.2017 19:39 11,7 °C 11,7 °C 93 % 1011,9 hPa 0,0 mm 3,0 km/h (1 Bft) S-SW 213 ° 0 min 0,000 mm 0,0 UV-I 33 W/m² 10,6 °C 11,7 °C 4,8 km/h (1 Bft)
26.07.2017 19:40 11,6 °C 11,7 °C 93 % 1012,0 hPa 0,0 mm 5,5 km/h (1 Bft) SW 232 ° 0 min 0,000 mm 0,0 UV-I 32 W/m² 10,5 °C 11,6 °C 9,7 km/h (2 Bft)
26.07.2017 19:41 11,7 °C 11,7 °C 93 % 1011,9 hPa 0,0 mm 3,8 km/h (1 Bft) SW 229 ° 0 min 0,000 mm 0,0 UV-I 28 W/m² 10,6 °C 11,7 °C 6,4 km/h (2 Bft)
26.07.2017 19:42 11,7 °C 11,7 °C 93 % 1011,9 hPa 0,0 mm 3,7 km/h (1 Bft) W-SW 244 ° 0 min 0,000 mm 0,0 UV-I 26 W/m² 10,6 °C 11,7 °C 6,4 km/h (2 Bft)
26.07.2017 19:43 11,7 °C 11,7 °C 93 % 1012,0 hPa 0,2 mm 7,5 km/h (2 Bft) SW 233 ° 0 min 0,000 mm 0,0 UV-I 25 W/m² 10,6 °C 11,7 °C 14,5 km/h (3 Bft)
26.07.2017 19:44 11,7 °C 11,7 °C 93 % 1012,0 hPa 0,0 mm 5,1 km/h (1 Bft) W 279 ° 0 min 0,000 mm 0,0 UV-I 25 W/m² 10,6 °C 11,7 °C 8,0 km/h (2 Bft)
26.07.2017 19:45 11,7 °C 11,7 °C 93 % 1012,0 hPa 0,0 mm 8,1 km/h (2 Bft) W 265 ° 0 min 0,000 mm 0,0 UV-I 23 W/m² 10,6 °C 11,7 °C 14,5 km/h (3 Bft)
26.07.2017 19:46 11,7 °C 11,7 °C 93 % 1012,0 hPa 0,0 mm 6,8 km/h (2 Bft) W-SW 238 ° 0 min 0,000 mm 0,0 UV-I 25 W/m² 10,6 °C 11,7 °C 12,9 km/h (3 Bft)
26.07.2017 19:47 11,7 °C 11,7 °C 93 % 1012,0 hPa 0,0 mm 5,0 km/h (1 Bft) W 265 ° 0 min 0,000 mm 0,0 UV-I 26 W/m² 10,6 °C 11,7 °C 9,7 km/h (2 Bft)
26.07.2017 19:48 11,7 °C 11,7 °C 93 % 1012,0 hPa 0,0 mm 3,0 km/h (1 Bft) W 263 ° 0 min 0,000 mm 0,0 UV-I 26 W/m² 10,6 °C 11,7 °C 4,8 km/h (1 Bft)
26.07.2017 19:49 11,7 °C 11,7 °C 93 % 1012,0 hPa 0,0 mm 2,1 km/h (1 Bft) W-SW 248 ° 0 min 0,000 mm 0,0 UV-I 28 W/m² 10,6 °C 11,7 °C 3,2 km/h (1 Bft)
26.07.2017 19:50 11,7 °C 11,7 °C 93 % 1012,0 hPa 0,0 mm 4,2 km/h (1 Bft) SW 222 ° 0 min 0,000 mm 0,0 UV-I 30 W/m² 10,6 °C 11,7 °C 6,4 km/h (2 Bft)
26.07.2017 19:51 11,7 °C 11,7 °C 93 % 1012,0 hPa 0,0 mm 4,5 km/h (1 Bft) W 269 ° 0 min 0,000 mm 0,0 UV-I 32 W/m² 10,6 °C 11,7 °C 8,0 km/h (2 Bft)
26.07.2017 19:52 11,7 °C 11,7 °C 93 % 1012,0 hPa 0,0 mm 2,9 km/h (1 Bft) W 260 ° 0 min 0,000 mm 0,0 UV-I 32 W/m² 10,6 °C 11,7 °C 6,4 km/h (2 Bft)
26.07.2017 19:53 11,7 °C 11,7 °C 93 % 1012,1 hPa 0,0 mm 2,0 km/h (1 Bft) W 271 ° 0 min 0,000 mm 0,0 UV-I 33 W/m² 10,6 °C 11,7 °C 3,2 km/h (1 Bft)
26.07.2017 19:54 11,7 °C 11,7 °C 93 % 1012,1 hPa 0,0 mm 3,5 km/h (1 Bft) S 185 ° 0 min 0,000 mm 0,0 UV-I 32 W/m² 10,6 °C 11,7 °C 8,0 km/h (2 Bft)
26.07.2017 19:55 11,7 °C 11,7 °C 93 % 1012,1 hPa 0,0 mm 6,0 km/h (2 Bft) SW 221 ° 0 min 0,000 mm 0,0 UV-I 30 W/m² 10,6 °C 11,7 °C 12,9 km/h (3 Bft)
26.07.2017 19:56 11,7 °C 11,7 °C 93 % 1012,1 hPa 0,0 mm 2,4 km/h (1 Bft) SW 223 ° 0 min 0,000 mm 0,0 UV-I 28 W/m² 10,6 °C 11,7 °C 6,4 km/h (2 Bft)
26.07.2017 19:57 11,7 °C 11,7 °C 93 % 1012,0 hPa 0,0 mm 2,4 km/h (1 Bft) S 188 ° 0 min 0,000 mm 0,0 UV-I 26 W/m² 10,6 °C 11,7 °C 4,8 km/h (1 Bft)
26.07.2017 19:58 11,7 °C 11,7 °C 93 % 1012,1 hPa 0,2 mm 4,6 km/h (1 Bft) W-SW 252 ° 0 min 0,000 mm 0,0 UV-I 25 W/m² 10,6 °C 11,7 °C 9,7 km/h (2 Bft)
26.07.2017 19:59 11,7 °C 11,7 °C 93 % 1012,0 hPa 0,0 mm 5,9 km/h (2 Bft) W-SW 257 ° 0 min 0,000 mm 0,0 UV-I 23 W/m² 10,6 °C 11,7 °C 16,1 km/h (3 Bft)
26.07.2017 20:00 11,7 °C 11,7 °C 93 % 1012,1 hPa 0,0 mm 9,8 km/h (2 Bft) S-SW 211 ° 0 min 0,000 mm 0,0 UV-I 23 W/m² 10,6 °C 11,7 °C 14,5 km/h (3 Bft)
26.07.2017 20:01 11,7 °C 11,7 °C 93 % 1012,0 hPa 0,0 mm 2,1 km/h (1 Bft) S-SW 194 ° 0 min 0,025 mm 0,0 UV-I 25 W/m² 10,6 °C 11,7 °C 6,4 km/h (2 Bft)
26.07.2017 20:02 11,7 °C 11,7 °C 93 % 1012,0 hPa 0,0 mm 3,4 km/h (1 Bft) S-SW 199 ° 0 min 0,000 mm 0,0 UV-I 25 W/m² 10,6 °C 11,7 °C 4,8 km/h (1 Bft)
26.07.2017 20:03 11,7 °C 11,7 °C 93 % 1012,0 hPa 0,0 mm 2,6 km/h (1 Bft) SW 232 ° 0 min 0,000 mm 0,0 UV-I 23 W/m² 10,6 °C 11,7 °C 3,2 km/h (1 Bft)
26.07.2017 20:04 11,7 °C 11,7 °C 93 % 1012,1 hPa 0,0 mm 3,5 km/h (1 Bft) W-NW 294 ° 0 min 0,000 mm 0,0 UV-I 21 W/m² 10,6 °C 11,7 °C 4,8 km/h (1 Bft)
26.07.2017 20:05 11,7 °C 11,7 °C 93 % 1012,1 hPa 0,0 mm 5,8 km/h (2 Bft) W 272 ° 0 min 0,000 mm 0,0 UV-I 19 W/m² 10,6 °C 11,7 °C 11,3 km/h (2 Bft)
26.07.2017 20:06 11,7 °C 11,7 °C 93 % 1012,1 hPa 0,2 mm 7,1 km/h (2 Bft) SW 221 ° 0 min 0,000 mm 0,0 UV-I 18 W/m² 10,6 °C 11,7 °C 12,9 km/h (3 Bft)
26.07.2017 20:07 11,7 °C 11,7 °C 93 % 1012,1 hPa 0,0 mm 3,4 km/h (1 Bft) S-SW 194 ° 0 min 0,000 mm 0,0 UV-I 16 W/m² 10,6 °C 11,7 °C 4,8 km/h (1 Bft)
26.07.2017 20:08 11,7 °C 11,7 °C 93 % 1012,1 hPa 0,0 mm 2,1 km/h (1 Bft) SW 233 ° 0 min 0,000 mm 0,0 UV-I 14 W/m² 10,6 °C 11,7 °C 4,8 km/h (1 Bft)
26.07.2017 20:09 11,7 °C 11,7 °C 93 % 1012,1 hPa 0,0 mm 5,7 km/h (1 Bft) S-SW 197 ° 0 min 0,000 mm 0,0 UV-I 12 W/m² 10,6 °C 11,7 °C 9,7 km/h (2 Bft)
26.07.2017 20:10 11,7 °C 11,7 °C 93 % 1012,2 hPa 0,0 mm 3,4 km/h (1 Bft) S-SW 202 ° 0 min 0,000 mm 0,0 UV-I 12 W/m² 10,6 °C 11,7 °C 4,8 km/h (1 Bft)
26.07.2017 20:11 11,6 °C 11,7 °C 93 % 1012,2 hPa 0,0 mm 2,3 km/h (1 Bft) S-SW 194 ° 0 min 0,000 mm 0,0 UV-I 12 W/m² 10,5 °C 11,6 °C 4,8 km/h (1 Bft)
26.07.2017 20:12 11,6 °C 11,7 °C 93 % 1012,1 hPa 0,0 mm 2,5 km/h (1 Bft) W-SW 253 ° 0 min 0,000 mm 0,0 UV-I 14 W/m² 10,5 °C 11,6 °C 3,2 km/h (1 Bft)
26.07.2017 20:13 11,6 °C 11,6 °C 93 % 1012,2 hPa 0,0 mm 4,8 km/h (1 Bft) SW 236 ° 0 min 0,000 mm 0,0 UV-I 14 W/m² 10,5 °C 11,6 °C 8,0 km/h (2 Bft)
26.07.2017 20:14 11,6 °C 11,7 °C 93 % 1012,1 hPa 0,0 mm 3,8 km/h (1 Bft) W-SW 240 ° 0 min 0,000 mm 0,0 UV-I 12 W/m² 10,5 °C 11,6 °C 9,7 km/h (2 Bft)
26.07.2017 20:15 11,6 °C 11,6 °C 93 % 1012,1 hPa 0,0 mm 4,2 km/h (1 Bft) W 269 ° 0 min 0,000 mm 0,0 UV-I 12 W/m² 10,5 °C 11,6 °C 6,4 km/h (2 Bft)
26.07.2017 20:16 11,6 °C 11,6 °C 93 % 1012,1 hPa 0,0 mm 3,4 km/h (1 Bft) W 261 ° 0 min 0,000 mm 0,0 UV-I 11 W/m² 10,5 °C 11,6 °C 4,8 km/h (1 Bft)
26.07.2017 20:17 11,6 °C 11,6 °C 93 % 1012,1 hPa 0,0 mm 0,5 km/h (0 Bft) W 261 ° 0 min 0,000 mm 0,0 UV-I 11 W/m² 10,5 °C 11,6 °C 1,6 km/h (1 Bft)
26.07.2017 20:18 11,6 °C 11,6 °C 93 % 1012,2 hPa 0,0 mm 2,4 km/h (1 Bft) SW 215 ° 0 min 0,000 mm 0,0 UV-I 11 W/m² 10,5 °C 11,6 °C 8,0 km/h (2 Bft)
26.07.2017 20:19 11,6 °C 11,6 °C 93 % 1012,1 hPa 0,2 mm 4,6 km/h (1 Bft) W-SW 252 ° 0 min 0,000 mm 0,0 UV-I 11 W/m² 10,5 °C 11,6 °C 9,7 km/h (2 Bft)
26.07.2017 20:20 11,6 °C 11,6 °C 92 % 1012,2 hPa 0,0 mm 2,4 km/h (1 Bft) S-SW 202 ° 0 min 0,000 mm 0,0 UV-I 11 W/m² 10,3 °C 11,6 °C 4,8 km/h (1 Bft)
26.07.2017 20:21 11,6 °C 11,6 °C 92 % 1012,1 hPa 0,0 mm 3,2 km/h (1 Bft) W 259 ° 0 min 0,000 mm 0,0 UV-I 11 W/m² 10,3 °C 11,6 °C 6,4 km/h (2 Bft)
26.07.2017 20:22 11,6 °C 11,6 °C 93 % 1012,2 hPa 0,0 mm 2,8 km/h (1 Bft) W 259 ° 0 min 0,000 mm 0,0 UV-I 11 W/m² 10,5 °C 11,6 °C 4,8 km/h (1 Bft)
26.07.2017 20:23 11,6 °C 11,6 °C 93 % 1012,1 hPa 0,0 mm 0,7 km/h (0 Bft) W 259 ° 0 min 0,000 mm 0,0 UV-I 11 W/m² 10,5 °C 11,6 °C 1,6 km/h (1 Bft)
26.07.2017 20:24 11,6 °C 11,6 °C 93 % 1012,1 hPa 0,0 mm 1,1 km/h (1 Bft) W-SW 258 ° 0 min 0,000 mm 0,0 UV-I 11 W/m² 10,5 °C 11,6 °C 3,2 km/h (1 Bft)
26.07.2017 20:25 11,6 °C 11,6 °C 93 % 1012,1 hPa 0,0 mm 3,8 km/h (1 Bft) S-SW 207 ° 0 min 0,000 mm 0,0 UV-I 9 W/m² 10,5 °C 11,6 °C 8,0 km/h (2 Bft)
26.07.2017 20:26 11,6 °C 11,6 °C 93 % 1012,1 hPa 0,0 mm 5,4 km/h (1 Bft) S-SW 198 ° 0 min 0,000 mm 0,0 UV-I 9 W/m² 10,5 °C 11,6 °C 9,7 km/h (2 Bft)
26.07.2017 20:27 11,6 °C 11,6 °C 93 % 1012,1 hPa 0,0 mm 2,5 km/h (1 Bft) S-SW 205 ° 0 min 0,000 mm 0,0 UV-I 9 W/m² 10,5 °C 11,6 °C 4,8 km/h (1 Bft)
26.07.2017 20:28 11,6 °C 11,6 °C 93 % 1012,1 hPa 0,0 mm 3,8 km/h (1 Bft) SW 229 ° 0 min 0,000 mm 0,0 UV-I 7 W/m² 10,5 °C 11,6 °C 4,8 km/h (1 Bft)
26.07.2017 20:29 11,6 °C 11,6 °C 93 % 1012,1 hPa 0,0 mm 2,2 km/h (1 Bft) S 179 ° 0 min 0,000 mm 0,0 UV-I 7 W/m² 10,5 °C 11,6 °C 4,8 km/h (1 Bft)
26.07.2017 20:30 11,6 °C 11,6 °C 93 % 1012,2 hPa 0,2 mm 1,2 km/h (1 Bft) S-SW 196 ° 0 min 0,000 mm 0,0 UV-I 5 W/m² 10,5 °C 11,6 °C 3,2 km/h (1 Bft)
26.07.2017 20:31 11,6 °C 11,6 °C 93 % 1012,2 hPa 0,0 mm 1,5 km/h (1 Bft) S-SW 196 ° 0 min 0,000 mm 0,0 UV-I 5 W/m² 10,5 °C 11,6 °C 3,2 km/h (1 Bft)
26.07.2017 20:32 11,6 °C 11,6 °C 93 % 1012,3 hPa 0,0 mm 4,0 km/h (1 Bft) W 260 ° 0 min 0,000 mm 0,0 UV-I 5 W/m² 10,5 °C 11,6 °C 6,4 km/h (2 Bft)
26.07.2017 20:33 11,6 °C 11,6 °C 93 % 1012,3 hPa 0,0 mm 5,0 km/h (1 Bft) W-SW 248 ° 0 min 0,000 mm 0,0 UV-I 5 W/m² 10,5 °C 11,6 °C 6,4 km/h (2 Bft)
26.07.2017 20:34 11,6 °C 11,6 °C 93 % 1012,3 hPa 0,0 mm 4,4 km/h (1 Bft) W-SW 248 ° 0 min 0,000 mm 0,0 UV-I 7 W/m² 10,5 °C 11,6 °C 8,0 km/h (2 Bft)
26.07.2017 20:35 11,6 °C 11,6 °C 93 % 1012,3 hPa 0,0 mm 4,5 km/h (1 Bft) W-SW 256 ° 0 min 0,000 mm 0,0 UV-I 7 W/m² 10,5 °C 11,6 °C 6,4 km/h (2 Bft)
26.07.2017 20:36 11,6 °C 11,6 °C 93 % 1012,3 hPa 0,0 mm 3,4 km/h (1 Bft) W-SW 249 ° 0 min 0,000 mm 0,0 UV-I 7 W/m² 10,5 °C 11,6 °C 4,8 km/h (1 Bft)
26.07.2017 20:37 11,6 °C 11,6 °C 93 % 1012,3 hPa 0,0 mm 2,3 km/h (1 Bft) S-SW 209 ° 0 min 0,000 mm 0,0 UV-I 7 W/m² 10,5 °C 11,6 °C 4,8 km/h (1 Bft)
26.07.2017 20:39 11,5 °C 11,6 °C 93 % 1012,3 hPa 0,2 mm 5,4 km/h (1 Bft) S-SW 208 ° 0 min 0,000 mm 0,0 UV-I 7 W/m² 10,4 °C 11,5 °C 14,5 km/h (3 Bft)
26.07.2017 20:40 11,5 °C 11,6 °C 93 % 1012,3 hPa 0,0 mm 5,3 km/h (1 Bft) SW 223 ° 0 min 0,000 mm 0,0 UV-I 7 W/m² 10,4 °C 11,5 °C 8,0 km/h (2 Bft)
26.07.2017 20:41 11,5 °C 11,6 °C 93 % 1012,2 hPa 0,0 mm 4,2 km/h (1 Bft) SW 225 ° 0 min 0,000 mm 0,0 UV-I 5 W/m² 10,4 °C 11,5 °C 6,4 km/h (2 Bft)
26.07.2017 20:42 11,6 °C 11,6 °C 93 % 1012,2 hPa 0,0 mm 4,2 km/h (1 Bft) W-SW 239 ° 0 min 0,000 mm 0,0 UV-I 5 W/m² 10,5 °C 11,6 °C 8,0 km/h (2 Bft)
26.07.2017 20:43 11,5 °C 11,6 °C 93 % 1012,3 hPa 0,0 mm 7,9 km/h (2 Bft) W 275 ° 0 min 0,000 mm 0,0 UV-I 5 W/m² 10,4 °C 11,5 °C 11,3 km/h (2 Bft)
26.07.2017 20:44 11,5 °C 11,5 °C 93 % 1012,2 hPa 0,0 mm 6,2 km/h (2 Bft) W-SW 245 ° 0 min 0,000 mm 0,0 UV-I 5 W/m² 10,4 °C 11,5 °C 9,7 km/h (2 Bft)
26.07.2017 20:45 11,5 °C 11,5 °C 93 % 1012,2 hPa 0,0 mm 4,2 km/h (1 Bft) W-SW 245 ° 0 min 0,000 mm 0,0 UV-I 0 W/m² 10,4 °C 11,5 °C 6,4 km/h (2 Bft)
26.07.2017 20:46 11,5 °C 11,5 °C 93 % 1012,2 hPa 0,0 mm 4,6 km/h (1 Bft) SW 227 ° 0 min 0,000 mm 0,0 UV-I 0 W/m² 10,4 °C 11,5 °C 8,0 km/h (2 Bft)
26.07.2017 20:47 11,5 °C 11,5 °C 93 % 1012,2 hPa 0,0 mm 2,1 km/h (1 Bft) W-SW 244 ° 0 min 0,000 mm 0,0 UV-I 0 W/m² 10,4 °C 11,5 °C 4,8 km/h (1 Bft)
26.07.2017 20:48 11,5 °C 11,5 °C 93 % 1012,3 hPa 0,2 mm 6,9 km/h (2 Bft) W 263 ° 0 min 0,000 mm 0,0 UV-I 0 W/m² 10,4 °C 11,5 °C 14,5 km/h (3 Bft)
26.07.2017 20:49 11,5 °C 11,5 °C 93 % 1012,3 hPa 0,0 mm 5,9 km/h (2 Bft) W 266 ° 0 min 0,000 mm 0,0 UV-I 0 W/m² 10,4 °C 11,5 °C 12,9 km/h (3 Bft)
26.07.2017 20:50 11,5 °C 11,5 °C 93 % 1012,3 hPa 0,0 mm 3,7 km/h (1 Bft) W 263 ° 0 min 0,000 mm 0,0 UV-I 0 W/m² 10,4 °C 11,5 °C 9,7 km/h (2 Bft)
26.07.2017 20:51 11,5 °C 11,5 °C 93 % 1012,3 hPa 0,0 mm 4,8 km/h (1 Bft) W-SW 251 ° 0 min 0,000 mm 0,0 UV-I 0 W/m² 10,4 °C 11,5 °C 11,3 km/h (2 Bft)
26.07.2017 20:52 11,5 °C 11,5 °C 93 % 1012,3 hPa 0,0 mm 3,2 km/h (1 Bft) W-SW 247 ° 0 min 0,000 mm 0,0 UV-I 0 W/m² 10,4 °C 11,5 °C 4,8 km/h (1 Bft)
26.07.2017 20:54 11,4 °C 11,5 °C 93 % 1012,3 hPa 0,0 mm 3,0 km/h (1 Bft) SW 215 ° 0 min 0,000 mm 0,0 UV-I 0 W/m² 10,3 °C 11,4 °C 4,8 km/h (1 Bft)
26.07.2017 20:55 11,4 °C 11,5 °C 93 % 1012,3 hPa 0,0 mm 2,3 km/h (1 Bft) W-SW 243 ° 0 min 0,000 mm 0,0 UV-I 0 W/m² 10,3 °C 11,4 °C 4,8 km/h (1 Bft)
26.07.2017 20:56 11,4 °C 11,4 °C 93 % 1012,3 hPa 0,0 mm 3,3 km/h (1 Bft) W 259 ° 0 min 0,000 mm 0,0 UV-I 0 W/m² 10,3 °C 11,4 °C 6,4 km/h (2 Bft)
26.07.2017 20:57 11,4 °C 11,4 °C 93 % 1012,3 hPa 0,0 mm 1,7 km/h (1 Bft) W-SW 238 ° 0 min 0,000 mm 0,0 UV-I 0 W/m² 10,3 °C 11,4 °C 6,4 km/h (2 Bft)
26.07.2017 20:58 11,4 °C 11,4 °C 93 % 1012,3 hPa 0,0 mm 7,9 km/h (2 Bft) W 271 ° 0 min 0,000 mm 0,0 UV-I 0 W/m² 10,3 °C 11,4 °C 12,9 km/h (3 Bft)
26.07.2017 20:59 11,4 °C 11,4 °C 93 % 1012,3 hPa 0,0 mm 4,4 km/h (1 Bft) W 263 ° 0 min 0,000 mm 0,0 UV-I 0 W/m² 10,3 °C 11,4 °C 6,4 km/h (2 Bft)
26.07.2017 21:00 11,4 °C 11,4 °C 93 % 1012,3 hPa 0,2 mm 5,2 km/h (1 Bft) W 267 ° 0 min 0,000 mm 0,0 UV-I 0 W/m² 10,3 °C 11,4 °C 9,7 km/h (2 Bft)
26.07.2017 21:01 11,4 °C 11,4 °C 93 % 1012,3 hPa 0,0 mm 3,8 km/h (1 Bft) W-SW 241 ° 0 min 0,000 mm 0,0 UV-I 0 W/m² 10,3 °C 11,4 °C 4,8 km/h (1 Bft)
26.07.2017 21:02 11,4 °C 11,4 °C 93 % 1012,3 hPa 0,0 mm 2,0 km/h (1 Bft) W-SW 241 ° 0 min 0,000 mm 0,0 UV-I 0 W/m² 10,3 °C 11,4 °C 3,2 km/h (1 Bft)
26.07.2017 21:03 11,3 °C 11,4 °C 93 % 1012,3 hPa 0,0 mm 4,1 km/h (1 Bft) SW 219 ° 0 min 0,000 mm 0,0 UV-I 0 W/m² 10,2 °C 11,3 °C 6,4 km/h (2 Bft)
26.07.2017 21:04 11,3 °C 11,4 °C 93 % 1012,3 hPa 0,0 mm 5,6 km/h (1 Bft) W-SW 243 ° 0 min 0,000 mm 0,0 UV-I 0 W/m² 10,2 °C 11,3 °C 8,0 km/h (2 Bft)
26.07.2017 21:05 11,3 °C 11,3 °C 93 % 1012,4 hPa 0,0 mm 5,1 km/h (1 Bft) S 189 ° 0 min 0,000 mm 0,0 UV-I 0 W/m² 10,2 °C 11,3 °C 9,7 km/h (2 Bft)
26.07.2017 21:06 11,4 °C 11,4 °C 93 % 1012,4 hPa 0,0 mm 3,8 km/h (1 Bft) W 269 ° 0 min 0,000 mm 0,0 UV-I 0 W/m² 10,3 °C 11,4 °C 6,4 km/h (2 Bft)
26.07.2017 21:07 11,4 °C 11,4 °C 93 % 1012,4 hPa 0,0 mm 4,9 km/h (1 Bft) W 269 ° 0 min 0,000 mm 0,0 UV-I 0 W/m² 10,3 °C 11,4 °C 6,4 km/h (2 Bft)
26.07.2017 21:08 11,4 °C 11,4 °C 93 % 1012,4 hPa 0,0 mm 3,3 km/h (1 Bft) W-SW 257 ° 0 min 0,000 mm 0,0 UV-I 0 W/m² 10,3 °C 11,4 °C 4,8 km/h (1 Bft)
26.07.2017 21:09 11,4 °C 11,4 °C 93 % 1012,4 hPa 0,0 mm 2,5 km/h (1 Bft) SW 225 ° 0 min 0,000 mm 0,0 UV-I 0 W/m² 10,3 °C 11,4 °C 4,8 km/h (1 Bft)
26.07.2017 21:10 11,4 °C 11,4 °C 93 % 1012,4 hPa 0,0 mm 3,7 km/h (1 Bft) W-SW 248 ° 0 min 0,000 mm 0,0 UV-I 0 W/m² 10,3 °C 11,4 °C 6,4 km/h (2 Bft)
26.07.2017 21:11 11,4 °C 11,4 °C 93 % 1012,4 hPa 0,0 mm 2,5 km/h (1 Bft) W-SW 242 ° 0 min 0,000 mm 0,0 UV-I 0 W/m² 10,3 °C 11,4 °C 4,8 km/h (1 Bft)
26.07.2017 21:12 11,4 °C 11,4 °C 93 % 1012,4 hPa 0,0 mm 4,2 km/h (1 Bft) W-SW 243 ° 0 min 0,000 mm 0,0 UV-I 0 W/m² 10,3 °C 11,4 °C 14,5 km/h (3 Bft)
26.07.2017 21:13 11,4 °C 11,4 °C 93 % 1012,4 hPa 0,0 mm 8,2 km/h (2 Bft) SW 229 ° 0 min 0,000 mm 0,0 UV-I 0 W/m² 10,3 °C 11,4 °C 12,9 km/h (3 Bft)
26.07.2017 21:14 11,4 °C 11,4 °C 93 % 1012,3 hPa 0,0 mm 4,4 km/h (1 Bft) SW 228 ° 0 min 0,000 mm 0,0 UV-I 0 W/m² 10,3 °C 11,4 °C 8,0 km/h (2 Bft)
26.07.2017 21:15 11,4 °C 11,4 °C 93 % 1012,4 hPa 0,0 mm 3,6 km/h (1 Bft) W-SW 244 ° 0 min 0,000 mm 0,0 UV-I 0 W/m² 10,3 °C 11,4 °C 4,8 km/h (1 Bft)
26.07.2017 21:16 11,4 °C 11,4 °C 93 % 1012,4 hPa 0,0 mm 4,7 km/h (1 Bft) W-SW 244 ° 0 min 0,000 mm 0,0 UV-I 0 W/m² 10,3 °C 11,4 °C 6,4 km/h (2 Bft)
26.07.2017 21:17 11,4 °C 11,4 °C 93 % 1012,4 hPa 0,0 mm 4,2 km/h (1 Bft) S 186 ° 0 min 0,000 mm 0,0 UV-I 0 W/m² 10,3 °C 11,4 °C 8,0 km/h (2 Bft)
26.07.2017 21:18 11,4 °C 11,4 °C 93 % 1012,4 hPa 0,0 mm 4,3 km/h (1 Bft) SW 221 ° 0 min 0,000 mm 0,0 UV-I 0 W/m² 10,3 °C 11,4 °C 12,9 km/h (3 Bft)
26.07.2017 21:19 11,4 °C 11,4 °C 93 % 1012,4 hPa 0,0 mm 4,4 km/h (1 Bft) W 276 ° 0 min 0,000 mm 0,0 UV-I 0 W/m² 10,3 °C 11,4 °C 6,4 km/h (2 Bft)
26.07.2017 21:20 11,4 °C 11,4 °C 93 % 1012,4 hPa 0,0 mm 3,1 km/h (1 Bft) S-SW 208 ° 0 min 0,000 mm 0,0 UV-I 0 W/m² 10,3 °C 11,4 °C 4,8 km/h (1 Bft)
26.07.2017 21:21 11,4 °C 11,4 °C 93 % 1012,4 hPa 0,0 mm 1,5 km/h (1 Bft) W 260 ° 0 min 0,000 mm 0,0 UV-I 0 W/m² 10,3 °C 11,4 °C 4,8 km/h (1 Bft)
26.07.2017 21:22 11,4 °C 11,4 °C 93 % 1012,4 hPa 0,0 mm 4,0 km/h (1 Bft) W 261 ° 0 min 0,000 mm 0,0 UV-I 0 W/m² 10,3 °C 11,4 °C 6,4 km/h (2 Bft)
26.07.2017 21:23 11,4 °C 11,5 °C 93 % 1012,5 hPa 0,0 mm 6,3 km/h (2 Bft) W 279 ° 0 min 0,000 mm 0,0 UV-I 0 W/m² 10,3 °C 11,4 °C 11,3 km/h (2 Bft)
26.07.2017 21:24 11,5 °C 11,5 °C 93 % 1012,5 hPa 0,0 mm 6,0 km/h (2 Bft) W-SW 256 ° 0 min 0,000 mm 0,0 UV-I 0 W/m² 10,4 °C 11,5 °C 11,3 km/h (2 Bft)
26.07.2017 21:25 11,4 °C 11,5 °C 93 % 1012,5 hPa 0,0 mm 4,2 km/h (1 Bft) W 267 ° 0 min 0,000 mm 0,0 UV-I 0 W/m² 10,3 °C 11,4 °C 6,4 km/h (2 Bft)
26.07.2017 21:26 11,5 °C 11,5 °C 93 % 1012,5 hPa 0,0 mm 6,2 km/h (2 Bft) W 268 ° 0 min 0,000 mm 0,0 UV-I 0 W/m² 10,4 °C 11,5 °C 9,7 km/h (2 Bft)
26.07.2017 21:27 11,5 °C 11,5 °C 93 % 1012,4 hPa 0,0 mm 3,8 km/h (1 Bft) W-SW 256 ° 0 min 0,000 mm 0,0 UV-I 0 W/m² 10,4 °C 11,5 °C 6,4 km/h (2 Bft)
26.07.2017 21:28 11,5 °C 11,5 °C 93 % 1012,5 hPa 0,0 mm 6,0 km/h (2 Bft) W-SW 250 ° 0 min 0,000 mm 0,0 UV-I 0 W/m² 10,4 °C 11,5 °C 11,3 km/h (2 Bft)
26.07.2017 21:29 11,5 °C 11,6 °C 93 % 1012,5 hPa 0,0 mm 2,1 km/h (1 Bft) W-SW 238 ° 0 min 0,000 mm 0,0 UV-I 0 W/m² 10,4 °C 11,5 °C 4,8 km/h (1 Bft)
26.07.2017 21:30 11,5 °C 11,5 °C 93 % 1012,5 hPa 0,2 mm 0,8 km/h (0 Bft) W-SW 238 ° 0 min 0,000 mm 0,0 UV-I 0 W/m² 10,4 °C 11,5 °C 3,2 km/h (1 Bft)
26.07.2017 21:31 11,6 °C 11,6 °C 93 % 1012,5 hPa 0,0 mm 1,1 km/h (1 Bft) W-SW 243 ° 0 min 0,000 mm 0,0 UV-I 0 W/m² 10,5 °C 11,6 °C 4,8 km/h (1 Bft)
26.07.2017 21:32 11,6 °C 11,6 °C 93 % 1012,4 hPa 0,0 mm 3,3 km/h (1 Bft) W 278 ° 0 min 0,000 mm 0,0 UV-I 0 W/m² 10,5 °C 11,6 °C 4,8 km/h (1 Bft)
26.07.2017 21:33 11,6 °C 11,6 °C 93 % 1012,5 hPa 0,0 mm 5,6 km/h (1 Bft) S-SW 196 ° 0 min 0,000 mm 0,0 UV-I 0 W/m² 10,5 °C 11,6 °C 11,3 km/h (2 Bft)
26.07.2017 21:34 11,6 °C 11,6 °C 93 % 1012,5 hPa 0,0 mm 5,4 km/h (1 Bft) SW 236 ° 0 min 0,000 mm 0,0 UV-I 0 W/m² 10,5 °C 11,6 °C 9,7 km/h (2 Bft)
26.07.2017 21:35 11,6 °C 11,6 °C 93 % 1012,5 hPa 0,0 mm 3,4 km/h (1 Bft) W-SW 252 ° 0 min 0,000 mm 0,0 UV-I 0 W/m² 10,5 °C 11,6 °C 6,4 km/h (2 Bft)
26.07.2017 21:36 11,6 °C 11,6 °C 93 % 1012,5 hPa 0,0 mm 2,6 km/h (1 Bft) W-SW 252 ° 0 min 0,000 mm 0,0 UV-I 0 W/m² 10,5 °C 11,6 °C 4,8 km/h (1 Bft)
26.07.2017 21:37 11,6 °C 11,6 °C 93 % 1012,5 hPa 0,0 mm 4,0 km/h (1 Bft) W 260 ° 0 min 0,000 mm 0,0 UV-I 0 W/m² 10,5 °C 11,6 °C 6,4 km/h (2 Bft)
26.07.2017 21:38 11,6 °C 11,7 °C 93 % 1012,5 hPa 0,0 mm 4,7 km/h (1 Bft) S-SW 211 ° 0 min 0,000 mm 0,0 UV-I 0 W/m² 10,5 °C 11,6 °C 8,0 km/h (2 Bft)
26.07.2017 21:39 11,6 °C 11,7 °C 93 % 1012,5 hPa 0,2 mm 2,9 km/h (1 Bft) W 260 ° 0 min 0,000 mm 0,0 UV-I 0 W/m² 10,5 °C 11,6 °C 3,2 km/h (1 Bft)
26.07.2017 21:40 11,7 °C 11,7 °C 93 % 1012,6 hPa 0,0 mm 3,4 km/h (1 Bft) W 264 ° 0 min 0,000 mm 0,0 UV-I 0 W/m² 10,6 °C 11,7 °C 6,4 km/h (2 Bft)
26.07.2017 21:41 11,6 °C 11,7 °C 93 % 1012,6 hPa 0,0 mm 4,6 km/h (1 Bft) W-NW 297 ° 0 min 0,000 mm 0,0 UV-I 0 W/m² 10,5 °C 11,6 °C 11,3 km/h (2 Bft)
26.07.2017 21:42 11,7 °C 11,7 °C 93 % 1012,6 hPa 0,0 mm 4,4 km/h (1 Bft) W 275 ° 0 min 0,000 mm 0,0 UV-I 0 W/m² 10,6 °C 11,7 °C 6,4 km/h (2 Bft)
26.07.2017 21:43 11,7 °C 11,7 °C 93 % 1012,6 hPa 0,0 mm 3,5 km/h (1 Bft) W-NW 286 ° 0 min 0,000 mm 0,0 UV-I 0 W/m² 10,6 °C 11,7 °C 6,4 km/h (2 Bft)
26.07.2017 21:44 11,7 °C 11,7 °C 93 % 1012,7 hPa 0,0 mm 3,2 km/h (1 Bft) W 272 ° 0 min 0,000 mm 0,0 UV-I 0 W/m² 10,6 °C 11,7 °C 4,8 km/h (1 Bft)
26.07.2017 21:45 11,7 °C 11,7 °C 93 % 1012,6 hPa 0,0 mm 4,5 km/h (1 Bft) S-SW 200 ° 0 min 0,000 mm 0,0 UV-I 0 W/m² 10,6 °C 11,7 °C 8,0 km/h (2 Bft)
26.07.2017 21:46 11,7 °C 11,7 °C 93 % 1012,6 hPa 0,0 mm 3,1 km/h (1 Bft) SW 229 ° 0 min 0,000 mm 0,0 UV-I 0 W/m² 10,6 °C 11,7 °C 4,8 km/h (1 Bft)
26.07.2017 21:47 11,7 °C 11,7 °C 93 % 1012,6 hPa 0,0 mm 1,7 km/h (1 Bft) SW 231 ° 0 min 0,000 mm 0,0 UV-I 0 W/m² 10,6 °C 11,7 °C 3,2 km/h (1 Bft)
26.07.2017 21:48 11,7 °C 11,7 °C 93 % 1012,7 hPa 0,0 mm 4,1 km/h (1 Bft) S-SW 202 ° 0 min 0,000 mm 0,0 UV-I 0 W/m² 10,6 °C 11,7 °C 6,4 km/h (2 Bft)
26.07.2017 21:49 11,7 °C 11,7 °C 93 % 1012,7 hPa 0,2 mm 1,0 km/h (0 Bft) S 187 ° 0 min 0,000 mm 0,0 UV-I 0 W/m² 10,6 °C 11,7 °C 4,8 km/h (1 Bft)
26.07.2017 21:50 11,7 °C 11,7 °C 93 % 1012,7 hPa 0,0 mm 3,8 km/h (1 Bft) W 278 ° 0 min 0,000 mm 0,0 UV-I 0 W/m² 10,6 °C 11,7 °C 9,7 km/h (2 Bft)
26.07.2017 21:51 11,7 °C 11,7 °C 93 % 1012,7 hPa 0,0 mm 5,8 km/h (2 Bft) S-SW 196 ° 0 min 0,000 mm 0,0 UV-I 0 W/m² 10,6 °C 11,7 °C 9,7 km/h (2 Bft)
26.07.2017 21:52 11,7 °C 11,7 °C 93 % 1012,6 hPa 0,0 mm 4,5 km/h (1 Bft) W-SW 237 ° 0 min 0,000 mm 0,0 UV-I 0 W/m² 10,6 °C 11,7 °C 6,4 km/h (2 Bft)
26.07.2017 21:53 11,7 °C 11,8 °C 93 % 1012,6 hPa 0,0 mm 4,0 km/h (1 Bft) SW 215 ° 0 min 0,000 mm 0,0 UV-I 0 W/m² 10,6 °C 11,7 °C 8,0 km/h (2 Bft)
26.07.2017 21:54 11,8 °C 11,8 °C 93 % 1012,6 hPa 0,0 mm 6,0 km/h (2 Bft) W-SW 254 ° 0 min 0,000 mm 0,0 UV-I 0 W/m² 10,7 °C 11,8 °C 9,7 km/h (2 Bft)
26.07.2017 21:55 11,8 °C 11,8 °C 93 % 1012,7 hPa 0,0 mm 8,1 km/h (2 Bft) SW 228 ° 0 min 0,000 mm 0,0 UV-I 0 W/m² 10,7 °C 11,8 °C 16,1 km/h (3 Bft)
26.07.2017 21:56 11,8 °C 11,8 °C 93 % 1012,7 hPa 0,0 mm 6,9 km/h (2 Bft) SW 234 ° 0 min 0,000 mm 0,0 UV-I 0 W/m² 10,7 °C 11,8 °C 12,9 km/h (3 Bft)
26.07.2017 21:57 11,8 °C 11,8 °C 93 % 1012,7 hPa 0,0 mm 3,6 km/h (1 Bft) W-SW 241 ° 0 min 0,000 mm 0,0 UV-I 0 W/m² 10,7 °C 11,8 °C 6,4 km/h (2 Bft)
26.07.2017 21:58 11,8 °C 11,8 °C 93 % 1012,7 hPa 0,0 mm 5,7 km/h (1 Bft) W-SW 253 ° 0 min 0,000 mm 0,0 UV-I 0 W/m² 10,7 °C 11,8 °C 11,3 km/h (2 Bft)
26.07.2017 21:59 11,8 °C 11,8 °C 93 % 1012,7 hPa 0,0 mm 4,0 km/h (1 Bft) W 281 ° 0 min 0,000 mm 0,0 UV-I 0 W/m² 10,7 °C 11,8 °C 8,0 km/h (2 Bft)
26.07.2017 22:00 11,8 °C 11,8 °C 93 % 1012,8 hPa 0,0 mm 5,9 km/h (2 Bft) W 266 ° 0 min 0,000 mm 0,0 UV-I 0 W/m² 10,7 °C 11,8 °C 12,9 km/h (3 Bft)
26.07.2017 22:01 11,8 °C 11,8 °C 93 % 1012,7 hPa 0,0 mm 5,7 km/h (1 Bft) W-SW 250 ° 0 min 0,000 mm 0,0 UV-I 0 W/m² 10,7 °C 11,8 °C 6,4 km/h (2 Bft)
26.07.2017 22:02 11,8 °C 11,8 °C 93 % 1012,7 hPa 0,0 mm 4,3 km/h (1 Bft) W-SW 238 ° 0 min 0,000 mm 0,0 UV-I 0 W/m² 10,7 °C 11,8 °C 8,0 km/h (2 Bft)
26.07.2017 22:03 11,8 °C 11,8 °C 93 % 1012,7 hPa 0,0 mm 4,4 km/h (1 Bft) SW 220 ° 0 min 0,000 mm 0,0 UV-I 0 W/m² 10,7 °C 11,8 °C 6,4 km/h (2 Bft)
26.07.2017 22:04 11,8 °C 11,8 °C 93 % 1012,8 hPa 0,0 mm 4,9 km/h (1 Bft) S-SW 205 ° 0 min 0,000 mm 0,0 UV-I 0 W/m² 10,7 °C 11,8 °C 11,3 km/h (2 Bft)
26.07.2017 22:05 11,8 °C 11,8 °C 93 % 1012,8 hPa 0,0 mm 3,4 km/h (1 Bft) S 183 ° 0 min 0,000 mm 0,0 UV-I 0 W/m² 10,7 °C 11,8 °C 6,4 km/h (2 Bft)
26.07.2017 22:06 11,8 °C 11,8 °C 93 % 1012,8 hPa 0,0 mm 1,8 km/h (1 Bft) W-SW 237 ° 0 min 0,000 mm 0,0 UV-I 0 W/m² 10,7 °C 11,8 °C 3,2 km/h (1 Bft)
26.07.2017 22:07 11,8 °C 11,8 °C 93 % 1012,8 hPa 0,0 mm 1,9 km/h (1 Bft) W-SW 238 ° 0 min 0,000 mm 0,0 UV-I 0 W/m² 10,7 °C 11,8 °C 4,8 km/h (1 Bft)
26.07.2017 22:08 11,8 °C 11,8 °C 93 % 1012,7 hPa 0,0 mm 3,5 km/h (1 Bft) W-SW 240 ° 0 min 0,000 mm 0,0 UV-I 0 W/m² 10,7 °C 11,8 °C 8,0 km/h (2 Bft)
26.07.2017 22:09 11,8 °C 11,8 °C 93 % 1012,8 hPa 0,0 mm 3,7 km/h (1 Bft) SW 232 ° 0 min 0,000 mm 0,0 UV-I 0 W/m² 10,7 °C 11,8 °C 6,4 km/h (2 Bft)
26.07.2017 22:10 11,8 °C 11,8 °C 93 % 1012,8 hPa 0,0 mm 3,8 km/h (1 Bft) W-SW 244 ° 0 min 0,000 mm 0,0 UV-I 0 W/m² 10,7 °C 11,8 °C 4,8 km/h (1 Bft)
26.07.2017 22:11 11,8 °C 11,8 °C 93 % 1012,7 hPa 0,2 mm 2,7 km/h (1 Bft) SW 232 ° 0 min 0,000 mm 0,0 UV-I 0 W/m² 10,7 °C 11,8 °C 4,8 km/h (1 Bft)
26.07.2017 22:12 11,8 °C 11,8 °C 93 % 1012,7 hPa 0,0 mm 3,0 km/h (1 Bft) SW 225 ° 0 min 0,000 mm 0,0 UV-I 0 W/m² 10,7 °C 11,8 °C 4,8 km/h (1 Bft)
26.07.2017 22:13 11,8 °C 11,8 °C 93 % 1012,7 hPa 0,0 mm 3,4 km/h (1 Bft) S-SW 199 ° 0 min 0,000 mm 0,0 UV-I 0 W/m² 10,7 °C 11,8 °C 8,0 km/h (2 Bft)
26.07.2017 22:14 11,8 °C 11,8 °C 93 % 1012,7 hPa 0,0 mm 3,7 km/h (1 Bft) W-SW 242 ° 0 min 0,000 mm 0,0 UV-I 0 W/m² 10,7 °C 11,8 °C 4,8 km/h (1 Bft)
26.07.2017 22:15 11,8 °C 11,8 °C 93 % 1012,7 hPa 0,0 mm 4,5 km/h (1 Bft) W 265 ° 0 min 0,000 mm 0,0 UV-I 0 W/m² 10,7 °C 11,8 °C 8,0 km/h (2 Bft)
26.07.2017 22:16 11,8 °C 11,8 °C 93 % 1012,7 hPa 0,0 mm 3,2 km/h (1 Bft) W-SW 245 ° 0 min 0,000 mm 0,0 UV-I 0 W/m² 10,7 °C 11,8 °C 4,8 km/h (1 Bft)
26.07.2017 22:17 11,8 °C 11,8 °C 93 % 1012,7 hPa 0,0 mm 5,2 km/h (1 Bft) SW 214 ° 0 min 0,000 mm 0,0 UV-I 0 W/m² 10,7 °C 11,8 °C 6,4 km/h (2 Bft)
26.07.2017 22:18 11,8 °C 11,8 °C 93 % 1012,7 hPa 0,0 mm 5,2 km/h (1 Bft) SW 236 ° 0 min 0,000 mm 0,0 UV-I 0 W/m² 10,7 °C 11,8 °C 9,7 km/h (2 Bft)
26.07.2017 22:19 11,8 °C 11,8 °C 93 % 1012,7 hPa 0,0 mm 6,7 km/h (2 Bft) S-SW 192 ° 0 min 0,000 mm 0,0 UV-I 0 W/m² 10,7 °C 11,8 °C 11,3 km/h (2 Bft)
26.07.2017 22:20 11,8 °C 11,8 °C 93 % 1012,7 hPa 0,0 mm 3,8 km/h (1 Bft) W 278 ° 0 min 0,000 mm 0,0 UV-I 0 W/m² 10,7 °C 11,8 °C 6,4 km/h (2 Bft)
26.07.2017 22:21 11,8 °C 11,8 °C 92 % 1012,7 hPa 0,0 mm 4,3 km/h (1 Bft) S 188 ° 0 min 0,000 mm 0,0 UV-I 0 W/m² 10,5 °C 11,8 °C 6,4 km/h (2 Bft)
26.07.2017 22:22 11,8 °C 11,8 °C 92 % 1012,7 hPa 0,0 mm 4,5 km/h (1 Bft) W-SW 247 ° 0 min 0,000 mm 0,0 UV-I 0 W/m² 10,5 °C 11,8 °C 8,0 km/h (2 Bft)
26.07.2017 22:23 11,8 °C 11,8 °C 92 % 1012,7 hPa 0,0 mm 4,9 km/h (1 Bft) W-SW 254 ° 0 min 0,000 mm 0,0 UV-I 0 W/m² 10,5 °C 11,8 °C 9,7 km/h (2 Bft)
26.07.2017 22:24 11,8 °C 11,8 °C 92 % 1012,7 hPa 0,0 mm 2,8 km/h (1 Bft) W 263 ° 0 min 0,000 mm 0,0 UV-I 0 W/m² 10,5 °C 11,8 °C 8,0 km/h (2 Bft)
26.07.2017 22:25 11,8 °C 11,8 °C 92 % 1012,7 hPa 0,0 mm 7,2 km/h (2 Bft) W-SW 245 ° 0 min 0,000 mm 0,0 UV-I 0 W/m² 10,5 °C 11,8 °C 11,3 km/h (2 Bft)
26.07.2017 22:26 11,8 °C 11,8 °C 92 % 1012,7 hPa 0,0 mm 3,5 km/h (1 Bft) W 267 ° 0 min 0,000 mm 0,0 UV-I 0 W/m² 10,5 °C 11,8 °C 4,8 km/h (1 Bft)
26.07.2017 22:27 11,8 °C 11,8 °C 92 % 1012,7 hPa 0,0 mm 2,7 km/h (1 Bft) S 181 ° 0 min 0,000 mm 0,0 UV-I 0 W/m² 10,5 °C 11,8 °C 6,4 km/h (2 Bft)
26.07.2017 22:28 11,8 °C 11,8 °C 92 % 1012,7 hPa 0,0 mm 4,0 km/h (1 Bft) SW 219 ° 0 min 0,000 mm 0,0 UV-I 0 W/m² 10,5 °C 11,8 °C 8,0 km/h (2 Bft)
26.07.2017 22:29 11,8 °C 11,8 °C 92 % 1012,8 hPa 0,0 mm 0,9 km/h (0 Bft) SW 215 ° 0 min 0,000 mm 0,0 UV-I 0 W/m² 10,5 °C 11,8 °C 4,8 km/h (1 Bft)
26.07.2017 22:30 11,8 °C 11,8 °C 92 % 1012,8 hPa 0,0 mm 1,6 km/h (1 Bft) W-SW 237 ° 0 min 0,000 mm 0,0 UV-I 0 W/m² 10,5 °C 11,8 °C 4,8 km/h (1 Bft)
26.07.2017 22:31 11,8 °C 11,8 °C 92 % 1012,7 hPa 0,2 mm 5,9 km/h (2 Bft) SW 225 ° 0 min 0,000 mm 0,0 UV-I 0 W/m² 10,5 °C 11,8 °C 11,3 km/h (2 Bft)
26.07.2017 22:32 11,8 °C 11,8 °C 93 % 1012,7 hPa 0,0 mm 4,2 km/h (1 Bft) S-SW 198 ° 0 min 0,000 mm 0,0 UV-I 0 W/m² 10,7 °C 11,8 °C 8,0 km/h (2 Bft)
26.07.2017 22:33 11,8 °C 11,8 °C 92 % 1012,7 hPa 0,0 mm 2,1 km/h (1 Bft) S-SW 203 ° 0 min 0,000 mm 0,0 UV-I 0 W/m² 10,5 °C 11,8 °C 4,8 km/h (1 Bft)
26.07.2017 22:34 11,8 °C 11,8 °C 92 % 1012,8 hPa 0,0 mm 3,9 km/h (1 Bft) W-SW 250 ° 0 min 0,000 mm 0,0 UV-I 0 W/m² 10,5 °C 11,8 °C 6,4 km/h (2 Bft)
26.07.2017 22:35 11,8 °C 11,8 °C 92 % 1012,8 hPa 0,0 mm 5,6 km/h (1 Bft) W-SW 238 ° 0 min 0,000 mm 0,0 UV-I 0 W/m² 10,5 °C 11,8 °C 11,3 km/h (2 Bft)
26.07.2017 22:36 11,8 °C 11,8 °C 92 % 1012,7 hPa 0,0 mm 5,3 km/h (1 Bft) SW 226 ° 0 min 0,000 mm 0,0 UV-I 0 W/m² 10,5 °C 11,8 °C 9,7 km/h (2 Bft)
26.07.2017 22:37 11,8 °C 11,8 °C 92 % 1012,7 hPa 0,0 mm 3,2 km/h (1 Bft) SW 234 ° 0 min 0,000 mm 0,0 UV-I 0 W/m² 10,5 °C 11,8 °C 6,4 km/h (2 Bft)
26.07.2017 22:38 11,9 °C 11,9 °C 92 % 1012,7 hPa 0,0 mm 3,7 km/h (1 Bft) SW 217 ° 0 min 0,000 mm 0,0 UV-I 0 W/m² 10,6 °C 11,9 °C 6,4 km/h (2 Bft)
26.07.2017 22:39 11,9 °C 11,9 °C 92 % 1012,8 hPa 0,0 mm 2,6 km/h (1 Bft) SW 230 ° 0 min 0,000 mm 0,0 UV-I 0 W/m² 10,6 °C 11,9 °C 6,4 km/h (2 Bft)
26.07.2017 22:40 11,9 °C 11,9 °C 92 % 1012,6 hPa 0,0 mm 1,5 km/h (1 Bft) S-SW 213 ° 0 min 0,000 mm 0,0 UV-I 0 W/m² 10,6 °C 11,9 °C 4,8 km/h (1 Bft)
26.07.2017 22:41 11,9 °C 11,9 °C 92 % 1012,7 hPa 0,0 mm 0,9 km/h (0 Bft) S-SW 206 ° 0 min 0,000 mm 0,0 UV-I 0 W/m² 10,6 °C 11,9 °C 3,2 km/h (1 Bft)
26.07.2017 22:42 11,9 °C 11,9 °C 92 % 1012,7 hPa 0,0 mm 3,2 km/h (1 Bft) W-SW 246 ° 0 min 0,000 mm 0,0 UV-I 0 W/m² 10,6 °C 11,9 °C 4,8 km/h (1 Bft)
26.07.2017 22:43 11,9 °C 11,9 °C 92 % 1012,7 hPa 0,0 mm 6,0 km/h (2 Bft) S-SW 208 ° 0 min 0,000 mm 0,0 UV-I 0 W/m² 10,6 °C 11,9 °C 14,5 km/h (3 Bft)
26.07.2017 22:44 11,9 °C 11,9 °C 92 % 1012,7 hPa 0,0 mm 3,8 km/h (1 Bft) S-SW 207 ° 0 min 0,000 mm 0,0 UV-I 0 W/m² 10,6 °C 11,9 °C 6,4 km/h (2 Bft)
26.07.2017 22:45 11,9 °C 11,9 °C 92 % 1012,7 hPa 0,2 mm 1,9 km/h (1 Bft) W-SW 246 ° 0 min 0,000 mm 0,0 UV-I 0 W/m² 10,6 °C 11,9 °C 4,8 km/h (1 Bft)
26.07.2017 22:46 11,9 °C 11,9 °C 92 % 1012,7 hPa 0,0 mm 4,1 km/h (1 Bft) W-SW 238 ° 0 min 0,000 mm 0,0 UV-I 0 W/m² 10,6 °C 11,9 °C 6,4 km/h (2 Bft)
26.07.2017 22:47 11,9 °C 11,9 °C 92 % 1012,7 hPa 0,0 mm 2,3 km/h (1 Bft) SW 229 ° 0 min 0,000 mm 0,0 UV-I 0 W/m² 10,6 °C 11,9 °C 6,4 km/h (2 Bft)
26.07.2017 22:48 11,9 °C 11,9 °C 92 % 1012,7 hPa 0,0 mm 4,7 km/h (1 Bft) S-SW 209 ° 0 min 0,000 mm 0,0 UV-I 0 W/m² 10,6 °C 11,9 °C 8,0 km/h (2 Bft)
26.07.2017 22:49 11,9 °C 11,9 °C 91 % 1012,7 hPa 0,0 mm 5,8 km/h (2 Bft) S-SW 210 ° 0 min 0,000 mm 0,0 UV-I 0 W/m² 10,5 °C 11,9 °C 11,3 km/h (2 Bft)
26.07.2017 22:50 11,9 °C 11,9 °C 91 % 1012,7 hPa 0,0 mm 2,2 km/h (1 Bft) S-SW 209 ° 0 min 0,000 mm 0,0 UV-I 0 W/m² 10,5 °C 11,9 °C 4,8 km/h (1 Bft)
26.07.2017 22:51 11,9 °C 11,9 °C 91 % 1012,7 hPa 0,0 mm 4,4 km/h (1 Bft) W-SW 240 ° 0 min 0,000 mm 0,0 UV-I 0 W/m² 10,5 °C 11,9 °C 8,0 km/h (2 Bft)
26.07.2017 22:52 11,9 °C 11,9 °C 91 % 1012,7 hPa 0,0 mm 4,0 km/h (1 Bft) SW 232 ° 0 min 0,000 mm 0,0 UV-I 0 W/m² 10,5 °C 11,9 °C 6,4 km/h (2 Bft)
26.07.2017 22:53 11,9 °C 11,9 °C 91 % 1012,7 hPa 0,0 mm 4,5 km/h (1 Bft) W 259 ° 0 min 0,000 mm 0,0 UV-I 0 W/m² 10,5 °C 11,9 °C 8,0 km/h (2 Bft)
26.07.2017 22:54 11,9 °C 11,9 °C 92 % 1012,7 hPa 0,0 mm 2,7 km/h (1 Bft) SW 215 ° 0 min 0,000 mm 0,0 UV-I 0 W/m² 10,6 °C 11,9 °C 4,8 km/h (1 Bft)
26.07.2017 22:55 11,9 °C 11,9 °C 91 % 1012,7 hPa 0,0 mm 1,6 km/h (1 Bft) SW 220 ° 0 min 0,000 mm 0,0 UV-I 0 W/m² 10,5 °C 11,9 °C 3,2 km/h (1 Bft)
26.07.2017 22:56 11,8 °C 11,9 °C 91 % 1012,7 hPa 0,0 mm 4,4 km/h (1 Bft) W-SW 250 ° 0 min 0,000 mm 0,0 UV-I 0 W/m² 10,4 °C 11,8 °C 9,7 km/h (2 Bft)
26.07.2017 22:57 11,9 °C 11,9 °C 91 % 1012,7 hPa 0,0 mm 0,8 km/h (0 Bft) W-SW 248 ° 0 min 0,000 mm 0,0 UV-I 0 W/m² 10,5 °C 11,9 °C 3,2 km/h (1 Bft)
26.07.2017 22:58 11,8 °C 11,9 °C 91 % 1012,7 hPa 0,0 mm 3,9 km/h (1 Bft) W-SW 239 ° 0 min 0,000 mm 0,0 UV-I 0 W/m² 10,4 °C 11,8 °C 11,3 km/h (2 Bft)
26.07.2017 22:59 11,8 °C 11,8 °C 91 % 1012,7 hPa 0,0 mm 2,7 km/h (1 Bft) SW 228 ° 0 min 0,000 mm 0,0 UV-I 0 W/m² 10,4 °C 11,8 °C 6,4 km/h (2 Bft)
26.07.2017 23:00 11,8 °C 11,9 °C 91 % 1012,7 hPa 0,0 mm 0,9 km/h (0 Bft) SW 228 ° 0 min 0,000 mm 0,0 UV-I 0 W/m² 10,4 °C 11,8 °C 3,2 km/h (1 Bft)
26.07.2017 23:01 11,8 °C 11,8 °C 91 % 1012,7 hPa 0,0 mm 3,3 km/h (1 Bft) W-SW 258 ° 0 min 0,000 mm 0,0 UV-I 0 W/m² 10,4 °C 11,8 °C 9,7 km/h (2 Bft)
26.07.2017 23:02 11,8 °C 11,9 °C 91 % 1012,7 hPa 0,0 mm 3,0 km/h (1 Bft) S-SW 203 ° 0 min 0,000 mm 0,0 UV-I 0 W/m² 10,4 °C 11,8 °C 4,8 km/h (1 Bft)
26.07.2017 23:03 11,8 °C 11,8 °C 91 % 1012,7 hPa 0,0 mm 3,8 km/h (1 Bft) W-SW 252 ° 0 min 0,000 mm 0,0 UV-I 0 W/m² 10,4 °C 11,8 °C 8,0 km/h (2 Bft)
26.07.2017 23:04 11,8 °C 11,8 °C 91 % 1012,7 hPa 0,0 mm 3,2 km/h (1 Bft) SW 230 ° 0 min 0,000 mm 0,0 UV-I 0 W/m² 10,4 °C 11,8 °C 8,0 km/h (2 Bft)
26.07.2017 23:05 11,8 °C 11,8 °C 91 % 1012,7 hPa 0,0 mm 2,9 km/h (1 Bft) W 261 ° 0 min 0,000 mm 0,0 UV-I 0 W/m² 10,4 °C 11,8 °C 4,8 km/h (1 Bft)
26.07.2017 23:06 11,8 °C 11,8 °C 91 % 1012,7 hPa 0,0 mm 2,0 km/h (1 Bft) W-SW 249 ° 0 min 0,000 mm 0,0 UV-I 0 W/m² 10,4 °C 11,8 °C 3,2 km/h (1 Bft)
26.07.2017 23:07 11,8 °C 11,8 °C 91 % 1012,7 hPa 0,2 mm 3,5 km/h (1 Bft) W-SW 250 ° 0 min 0,000 mm 0,0 UV-I 0 W/m² 10,4 °C 11,8 °C 6,4 km/h (2 Bft)
26.07.2017 23:08 11,8 °C 11,8 °C 91 % 1012,7 hPa 0,0 mm 3,6 km/h (1 Bft) W-SW 247 ° 0 min 0,000 mm 0,0 UV-I 0 W/m² 10,4 °C 11,8 °C 8,0 km/h (2 Bft)
26.07.2017 23:09 11,8 °C 11,8 °C 91 % 1012,7 hPa 0,0 mm 2,5 km/h (1 Bft) W-SW 240 ° 0 min 0,000 mm 0,0 UV-I 0 W/m² 10,4 °C 11,8 °C 4,8 km/h (1 Bft)
26.07.2017 23:10 11,8 °C 11,8 °C 91 % 1012,7 hPa 0,0 mm 3,8 km/h (1 Bft) S 178 ° 0 min 0,000 mm 0,0 UV-I 0 W/m² 10,4 °C 11,8 °C 6,4 km/h (2 Bft)
26.07.2017 23:11 11,8 °C 11,8 °C 91 % 1012,8 hPa 0,0 mm 4,0 km/h (1 Bft) W-SW 255 ° 0 min 0,000 mm 0,0 UV-I 0 W/m² 10,4 °C 11,8 °C 6,4 km/h (2 Bft)
26.07.2017 23:12 11,8 °C 11,8 °C 91 % 1012,8 hPa 0,0 mm 5,4 km/h (1 Bft) W-SW 240 ° 0 min 0,000 mm 0,0 UV-I 0 W/m² 10,4 °C 11,8 °C 14,5 km/h (3 Bft)
26.07.2017 23:13 11,8 °C 11,8 °C 91 % 1012,8 hPa 0,0 mm 2,5 km/h (1 Bft) W-SW 245 ° 0 min 0,000 mm 0,0 UV-I 0 W/m² 10,4 °C 11,8 °C 4,8 km/h (1 Bft)
26.07.2017 23:14 11,8 °C 11,8 °C 91 % 1012,8 hPa 0,0 mm 2,2 km/h (1 Bft) S-SW 210 ° 0 min 0,000 mm 0,0 UV-I 0 W/m² 10,4 °C 11,8 °C 4,8 km/h (1 Bft)
26.07.2017 23:15 11,8 °C 11,8 °C 91 % 1012,8 hPa 0,0 mm 6,2 km/h (2 Bft) W 267 ° 0 min 0,000 mm 0,0 UV-I 0 W/m² 10,4 °C 11,8 °C 11,3 km/h (2 Bft)
26.07.2017 23:16 11,8 °C 11,8 °C 91 % 1012,8 hPa 0,0 mm 5,2 km/h (1 Bft) SW 231 ° 0 min 0,000 mm 0,0 UV-I 0 W/m² 10,4 °C 11,8 °C 6,4 km/h (2 Bft)
26.07.2017 23:17 11,8 °C 11,8 °C 91 % 1012,8 hPa 0,0 mm 2,5 km/h (1 Bft) SW 232 ° 0 min 0,000 mm 0,0 UV-I 0 W/m² 10,4 °C 11,8 °C 3,2 km/h (1 Bft)
26.07.2017 23:18 11,8 °C 11,8 °C 91 % 1012,8 hPa 0,0 mm 2,7 km/h (1 Bft) W-SW 240 ° 0 min 0,000 mm 0,0 UV-I 0 W/m² 10,4 °C 11,8 °C 6,4 km/h (2 Bft)
26.07.2017 23:19 11,8 °C 11,8 °C 91 % 1012,7 hPa 0,0 mm 5,1 km/h (1 Bft) W 265 ° 0 min 0,000 mm 0,0 UV-I 0 W/m² 10,4 °C 11,8 °C 6,4 km/h (2 Bft)
26.07.2017 23:20 11,7 °C 11,8 °C 91 % 1012,8 hPa 0,0 mm 2,7 km/h (1 Bft) W 264 ° 0 min 0,000 mm 0,0 UV-I 0 W/m² 10,3 °C 11,7 °C 6,4 km/h (2 Bft)
26.07.2017 23:21 11,7 °C 11,8 °C 91 % 1012,7 hPa 0,0 mm 3,7 km/h (1 Bft) W 259 ° 0 min 0,000 mm 0,0 UV-I 0 W/m² 10,3 °C 11,7 °C 4,8 km/h (1 Bft)
26.07.2017 23:22 11,7 °C 11,7 °C 91 % 1012,8 hPa 0,0 mm 5,0 km/h (1 Bft) S 179 ° 0 min 0,000 mm 0,0 UV-I 0 W/m² 10,3 °C 11,7 °C 12,9 km/h (3 Bft)
26.07.2017 23:23 11,8 °C 11,8 °C 91 % 1012,8 hPa 0,0 mm 5,8 km/h (2 Bft) W 280 ° 0 min 0,000 mm 0,0 UV-I 0 W/m² 10,4 °C 11,8 °C 8,0 km/h (2 Bft)
26.07.2017 23:24 11,8 °C 11,8 °C 91 % 1012,8 hPa 0,0 mm 3,8 km/h (1 Bft) W 259 ° 0 min 0,000 mm 0,0 UV-I 0 W/m² 10,4 °C 11,8 °C 6,4 km/h (2 Bft)
26.07.2017 23:25 11,8 °C 11,8 °C 91 % 1012,7 hPa 0,0 mm 3,8 km/h (1 Bft) S-SW 202 ° 0 min 0,000 mm 0,0 UV-I 0 W/m² 10,4 °C 11,8 °C 8,0 km/h (2 Bft)
26.07.2017 23:26 11,8 °C 11,8 °C 91 % 1012,8 hPa 0,0 mm 4,9 km/h (1 Bft) SW 218 ° 0 min 0,000 mm 0,0 UV-I 0 W/m² 10,4 °C 11,8 °C 8,0 km/h (2 Bft)
26.07.2017 23:27 11,8 °C 11,8 °C 90 % 1012,8 hPa 0,0 mm 8,1 km/h (2 Bft) W-SW 244 ° 0 min 0,000 mm 0,0 UV-I 0 W/m² 10,2 °C 11,8 °C 12,9 km/h (3 Bft)
26.07.2017 23:28 11,8 °C 11,8 °C 90 % 1012,8 hPa 0,0 mm 4,9 km/h (1 Bft) W-SW 256 ° 0 min 0,000 mm 0,0 UV-I 0 W/m² 10,2 °C 11,8 °C 11,3 km/h (2 Bft)
26.07.2017 23:29 11,8 °C 11,8 °C 90 % 1012,8 hPa 0,0 mm 3,4 km/h (1 Bft) W-SW 258 ° 0 min 0,000 mm 0,0 UV-I 0 W/m² 10,2 °C 11,8 °C 4,8 km/h (1 Bft)
26.07.2017 23:30 11,8 °C 11,8 °C 90 % 1012,8 hPa 0,0 mm 2,5 km/h (1 Bft) W-SW 254 ° 0 min 0,000 mm 0,0 UV-I 0 W/m² 10,2 °C 11,8 °C 4,8 km/h (1 Bft)
26.07.2017 23:31 11,8 °C 11,8 °C 90 % 1012,8 hPa 0,0 mm 3,4 km/h (1 Bft) W 261 ° 0 min 0,000 mm 0,0 UV-I 0 W/m² 10,2 °C 11,8 °C 9,7 km/h (2 Bft)
26.07.2017 23:32 11,8 °C 11,8 °C 90 % 1012,8 hPa 0,0 mm 3,1 km/h (1 Bft) W-SW 251 ° 0 min 0,000 mm 0,0 UV-I 0 W/m² 10,2 °C 11,8 °C 4,8 km/h (1 Bft)
26.07.2017 23:33 11,8 °C 11,8 °C 90 % 1012,9 hPa 0,0 mm 2,2 km/h (1 Bft) W-SW 246 ° 0 min 0,000 mm 0,0 UV-I 0 W/m² 10,2 °C 11,8 °C 4,8 km/h (1 Bft)
26.07.2017 23:34 11,8 °C 11,8 °C 90 % 1012,8 hPa 0,0 mm 4,6 km/h (1 Bft) SW 221 ° 0 min 0,000 mm 0,0 UV-I 0 W/m² 10,2 °C 11,8 °C 8,0 km/h (2 Bft)
26.07.2017 23:35 11,8 °C 11,8 °C 90 % 1012,8 hPa 0,0 mm 2,5 km/h (1 Bft) W-SW 239 ° 0 min 0,000 mm 0,0 UV-I 0 W/m² 10,2 °C 11,8 °C 6,4 km/h (2 Bft)
26.07.2017 23:36 11,8 °C 11,8 °C 90 % 1012,8 hPa 0,0 mm 1,9 km/h (1 Bft) S-SW 209 ° 0 min 0,000 mm 0,0 UV-I 0 W/m² 10,2 °C 11,8 °C 4,8 km/h (1 Bft)
26.07.2017 23:37 11,8 °C 11,8 °C 90 % 1012,9 hPa 0,0 mm 2,3 km/h (1 Bft) W-SW 256 ° 0 min 0,000 mm 0,0 UV-I 0 W/m² 10,2 °C 11,8 °C 8,0 km/h (2 Bft)
26.07.2017 23:38 11,8 °C 11,8 °C 90 % 1012,9 hPa 0,0 mm 4,4 km/h (1 Bft) S-SW 202 ° 0 min 0,000 mm 0,0 UV-I 0 W/m² 10,2 °C 11,8 °C 8,0 km/h (2 Bft)
26.07.2017 23:39 11,8 °C 11,8 °C 90 % 1012,9 hPa 0,0 mm 2,0 km/h (1 Bft) S-SW 199 ° 0 min 0,000 mm 0,0 UV-I 0 W/m² 10,2 °C 11,8 °C 4,8 km/h (1 Bft)
26.07.2017 23:40 11,8 °C 11,8 °C 90 % 1012,9 hPa 0,0 mm 1,7 km/h (1 Bft) SW 220 ° 0 min 0,000 mm 0,0 UV-I 0 W/m² 10,2 °C 11,8 °C 4,8 km/h (1 Bft)
26.07.2017 23:41 11,8 °C 11,8 °C 90 % 1012,9 hPa 0,0 mm 0,3 km/h (0 Bft) SW 220 ° 0 min 0,000 mm 0,0 UV-I 0 W/m² 10,2 °C 11,8 °C 1,6 km/h (1 Bft)
26.07.2017 23:42 11,8 °C 11,8 °C 90 % 1012,9 hPa 0,0 mm 0,9 km/h (0 Bft) SW 220 ° 0 min 0,000 mm 0,0 UV-I 0 W/m² 10,2 °C 11,8 °C 3,2 km/h (1 Bft)
26.07.2017 23:43 11,8 °C 11,8 °C 90 % 1012,9 hPa 0,0 mm 3,7 km/h (1 Bft) W-SW 249 ° 0 min 0,000 mm 0,0 UV-I 0 W/m² 10,2 °C 11,8 °C 9,7 km/h (2 Bft)
26.07.2017 23:44 11,8 °C 11,8 °C 90 % 1012,9 hPa 0,0 mm 3,4 km/h (1 Bft) S-SW 199 ° 0 min 0,000 mm 0,0 UV-I 0 W/m² 10,2 °C 11,8 °C 4,8 km/h (1 Bft)
26.07.2017 23:45 11,8 °C 11,8 °C 90 % 1012,9 hPa 0,0 mm 4,2 km/h (1 Bft) S-SW 209 ° 0 min 0,000 mm 0,0 UV-I 0 W/m² 10,2 °C 11,8 °C 11,3 km/h (2 Bft)
26.07.2017 23:46 11,8 °C 11,8 °C 90 % 1012,9 hPa 0,0 mm 3,4 km/h (1 Bft) W-SW 244 ° 0 min 0,000 mm 0,0 UV-I 0 W/m² 10,2 °C 11,8 °C 4,8 km/h (1 Bft)
26.07.2017 23:47 11,8 °C 11,8 °C 90 % 1012,9 hPa 0,0 mm 2,3 km/h (1 Bft) S-SW 200 ° 0 min 0,000 mm 0,0 UV-I 0 W/m² 10,2 °C 11,8 °C 4,8 km/h (1 Bft)
26.07.2017 23:48 11,8 °C 11,8 °C 90 % 1012,9 hPa 0,0 mm 3,0 km/h (1 Bft) S 187 ° 0 min 0,000 mm 0,0 UV-I 0 W/m² 10,2 °C 11,8 °C 8,0 km/h (2 Bft)
26.07.2017 23:49 11,8 °C 11,8 °C 90 % 1012,9 hPa 0,0 mm 3,6 km/h (1 Bft) S-SW 213 ° 0 min 0,000 mm 0,0 UV-I 0 W/m² 10,2 °C 11,8 °C 6,4 km/h (2 Bft)
26.07.2017 23:50 11,8 °C 11,8 °C 90 % 1012,9 hPa 0,0 mm 1,3 km/h (1 Bft) S-SW 213 ° 0 min 0,000 mm 0,0 UV-I 0 W/m² 10,2 °C 11,8 °C 3,2 km/h (1 Bft)
26.07.2017 23:51 11,8 °C 11,8 °C 90 % 1012,9 hPa 0,0 mm 0,3 km/h (0 Bft) W-SW 258 ° 0 min 0,000 mm 0,0 UV-I 0 W/m² 10,2 °C 11,8 °C 4,8 km/h (1 Bft)
26.07.2017 23:52 11,8 °C 11,8 °C 90 % 1012,9 hPa 0,0 mm 3,4 km/h (1 Bft) SW 229 ° 0 min 0,000 mm 0,0 UV-I 0 W/m² 10,2 °C 11,8 °C 6,4 km/h (2 Bft)
26.07.2017 23:53 11,8 °C 11,8 °C 90 % 1012,9 hPa 0,0 mm 2,7 km/h (1 Bft) S-SW 196 ° 0 min 0,000 mm 0,0 UV-I 0 W/m² 10,2 °C 11,8 °C 8,0 km/h (2 Bft)
26.07.2017 23:54 11,8 °C 11,8 °C 90 % 1012,9 hPa 0,0 mm 3,9 km/h (1 Bft) SW 233 ° 0 min 0,000 mm 0,0 UV-I 0 W/m² 10,2 °C 11,8 °C 6,4 km/h (2 Bft)
26.07.2017 23:55 11,8 °C 11,8 °C 90 % 1012,9 hPa 0,0 mm 5,2 km/h (1 Bft) S 189 ° 0 min 0,000 mm 0,0 UV-I 0 W/m² 10,2 °C 11,8 °C 9,7 km/h (2 Bft)
26.07.2017 23:56 11,8 °C 11,8 °C 89 % 1012,9 hPa 0,0 mm 2,7 km/h (1 Bft) SW 226 ° 0 min 0,000 mm 0,0 UV-I 0 W/m² 10,0 °C 11,8 °C 4,8 km/h (1 Bft)
26.07.2017 23:57 11,8 °C 11,8 °C 90 % 1012,8 hPa 0,0 mm 2,1 km/h (1 Bft) W-NW 285 ° 0 min 0,000 mm 0,0 UV-I 0 W/m² 10,2 °C 11,8 °C 3,2 km/h (1 Bft)
26.07.2017 23:58 11,8 °C 11,8 °C 90 % 1012,9 hPa 0,0 mm 7,7 km/h (2 Bft) W-SW 248 ° 0 min 0,000 mm 0,0 UV-I 0 W/m² 10,2 °C 11,8 °C 11,3 km/h (2 Bft)
26.07.2017 23:59 11,8 °C 11,8 °C 90 % 1012,9 hPa 0,0 mm 3,2 km/h (1 Bft) W 263 ° 0 min 0,000 mm 0,0 UV-I 0 W/m² 10,2 °C 11,8 °C 6,4 km/h (2 Bft)
_ Min-Zeit 09:07 08:51 02:33 05:41 - 01:08 - - - - - - 01:15 08:59 23:41
Minimum _ 9,8 °C 9,8 °C 82 % 1005,6 hPa - 0,1 km/h (0 Bft) - - - - - - 8,5 °C 7,8 °C 1,6 km/h (1 Bft)
_ Max-Zeit 22:57 23:02 11:20 23:59 17:36 15:34 - - 23:59 15:01 14:44 14:43 18:37 22:57 14:50
Maximum _ 11,9 °C 11,9 °C 95 % 1012,9 hPa 0,4 mm 20,4 km/h
W (4 Bft)
- - 0 min 0,077 mm 1,7 UV-I 202 W/m² 10,9 °C 11,9 °C 38,6 km/h
W (5 Bft)
Durchschnitt _ 11,0 °C 11,1 °C 92 % 1009,0 hPa #61,0 mm 8,4 km/h (2 Bft) W - #0 min. #0,660 mm 1,0 UV-I 38 W/m² 9,8 °C 11,0 °C 14,0 km/h (3 Bft)